<?xml version="1.0" encoding="UTF-8" standalone="no" ?>
<gpx xmlns="http://www.topografix.com/GPX/1/1" xmlns:xsi="http://www.w3.org/2001/XMLSchema-instance" xsi:schemaLocation="http://www.topografix.com/GPX/1/1 http://www.topografix.com/GPX/1/1/gpx.xsd" version="1.1" creator="VisuGPX - https://www.visugpx.com">
  <metadata>
    <name>Rando Yssingeaux Firminy le 15/10/2011</name>
    <desc><![CDATA[Frais le matin mais grand beau temps, très belle sortie.]]></desc>
  </metadata>
  <trk>
    <name><![CDATA[VTT 15-10-2011]]></name>
    <trkseg>
      <trkpt lat="45.14141" lon="4.12989">
        <ele>893.2</ele>
        <time>2011-10-15T05:50:49Z</time>
      </trkpt>
      <trkpt lat="45.1414" lon="4.12988">
        <ele>892.24</ele>
        <time>2011-10-15T05:50:54Z</time>
      </trkpt>
      <trkpt lat="45.14137" lon="4.12992">
        <ele>892.24</ele>
        <time>2011-10-15T05:51:58Z</time>
      </trkpt>
      <trkpt lat="45.1414" lon="4.13011">
        <ele>890.32</ele>
        <time>2011-10-15T05:52:09Z</time>
      </trkpt>
      <trkpt lat="45.1414" lon="4.13013">
        <ele>889.84</ele>
        <time>2011-10-15T05:52:10Z</time>
      </trkpt>
      <trkpt lat="45.14137" lon="4.13025">
        <ele>889.84</ele>
        <time>2011-10-15T05:52:19Z</time>
      </trkpt>
      <trkpt lat="45.14137" lon="4.13028">
        <ele>888.4</ele>
        <time>2011-10-15T05:52:21Z</time>
      </trkpt>
      <trkpt lat="45.14149" lon="4.13027">
        <ele>887.91</ele>
        <time>2011-10-15T05:52:29Z</time>
      </trkpt>
      <trkpt lat="45.14159" lon="4.13019">
        <ele>888.4</ele>
        <time>2011-10-15T05:52:36Z</time>
      </trkpt>
      <trkpt lat="45.14179" lon="4.12983">
        <ele>891.76</ele>
        <time>2011-10-15T05:52:53Z</time>
      </trkpt>
      <trkpt lat="45.14195" lon="4.12955">
        <ele>893.2</ele>
        <time>2011-10-15T05:53:06Z</time>
      </trkpt>
      <trkpt lat="45.1421" lon="4.12927">
        <ele>894.64</ele>
        <time>2011-10-15T05:53:17Z</time>
      </trkpt>
      <trkpt lat="45.14221" lon="4.1291">
        <ele>896.57</ele>
        <time>2011-10-15T05:53:28Z</time>
      </trkpt>
      <trkpt lat="45.14225" lon="4.12906">
        <ele>899.45</ele>
        <time>2011-10-15T05:53:32Z</time>
      </trkpt>
      <trkpt lat="45.14235" lon="4.12904">
        <ele>900.89</ele>
        <time>2011-10-15T05:53:43Z</time>
      </trkpt>
      <trkpt lat="45.14237" lon="4.12904">
        <ele>900.89</ele>
        <time>2011-10-15T05:53:45Z</time>
      </trkpt>
      <trkpt lat="45.14249" lon="4.12915">
        <ele>904.74</ele>
        <time>2011-10-15T05:54:00Z</time>
      </trkpt>
      <trkpt lat="45.14258" lon="4.12933">
        <ele>909.06</ele>
        <time>2011-10-15T05:54:16Z</time>
      </trkpt>
      <trkpt lat="45.14259" lon="4.12937">
        <ele>909.54</ele>
        <time>2011-10-15T05:54:19Z</time>
      </trkpt>
      <trkpt lat="45.14259" lon="4.12943">
        <ele>910.51</ele>
        <time>2011-10-15T05:54:27Z</time>
      </trkpt>
      <trkpt lat="45.14256" lon="4.12949">
        <ele>910.99</ele>
        <time>2011-10-15T05:54:37Z</time>
      </trkpt>
      <trkpt lat="45.14252" lon="4.1296">
        <ele>910.99</ele>
        <time>2011-10-15T05:54:42Z</time>
      </trkpt>
      <trkpt lat="45.14248" lon="4.1299">
        <ele>912.43</ele>
        <time>2011-10-15T05:54:54Z</time>
      </trkpt>
      <trkpt lat="45.14243" lon="4.1302">
        <ele>911.95</ele>
        <time>2011-10-15T05:55:06Z</time>
      </trkpt>
      <trkpt lat="45.14244" lon="4.13036">
        <ele>912.43</ele>
        <time>2011-10-15T05:55:12Z</time>
      </trkpt>
      <trkpt lat="45.14264" lon="4.13052">
        <ele>914.35</ele>
        <time>2011-10-15T05:55:25Z</time>
      </trkpt>
      <trkpt lat="45.14282" lon="4.13052">
        <ele>917.24</ele>
        <time>2011-10-15T05:55:35Z</time>
      </trkpt>
      <trkpt lat="45.14296" lon="4.13036">
        <ele>920.6</ele>
        <time>2011-10-15T05:55:49Z</time>
      </trkpt>
      <trkpt lat="45.14309" lon="4.13025">
        <ele>922.52</ele>
        <time>2011-10-15T05:56:01Z</time>
      </trkpt>
      <trkpt lat="45.14327" lon="4.13015">
        <ele>921.56</ele>
        <time>2011-10-15T05:56:14Z</time>
      </trkpt>
      <trkpt lat="45.14359" lon="4.12997">
        <ele>914.83</ele>
        <time>2011-10-15T05:56:26Z</time>
      </trkpt>
      <trkpt lat="45.14403" lon="4.12967">
        <ele>906.18</ele>
        <time>2011-10-15T05:56:36Z</time>
      </trkpt>
      <trkpt lat="45.14408" lon="4.12961">
        <ele>905.22</ele>
        <time>2011-10-15T05:56:37Z</time>
      </trkpt>
      <trkpt lat="45.14412" lon="4.12954">
        <ele>903.78</ele>
        <time>2011-10-15T05:56:38Z</time>
      </trkpt>
      <trkpt lat="45.14415" lon="4.12947">
        <ele>902.33</ele>
        <time>2011-10-15T05:56:39Z</time>
      </trkpt>
      <trkpt lat="45.14418" lon="4.12939">
        <ele>901.37</ele>
        <time>2011-10-15T05:56:40Z</time>
      </trkpt>
      <trkpt lat="45.1442" lon="4.1293">
        <ele>899.93</ele>
        <time>2011-10-15T05:56:41Z</time>
      </trkpt>
      <trkpt lat="45.14421" lon="4.12921">
        <ele>898.49</ele>
        <time>2011-10-15T05:56:42Z</time>
      </trkpt>
      <trkpt lat="45.1442" lon="4.12911">
        <ele>897.05</ele>
        <time>2011-10-15T05:56:43Z</time>
      </trkpt>
      <trkpt lat="45.14419" lon="4.12901">
        <ele>895.61</ele>
        <time>2011-10-15T05:56:44Z</time>
      </trkpt>
      <trkpt lat="45.14418" lon="4.12892">
        <ele>894.64</ele>
        <time>2011-10-15T05:56:45Z</time>
      </trkpt>
      <trkpt lat="45.14416" lon="4.12868">
        <ele>892.24</ele>
        <time>2011-10-15T05:56:48Z</time>
      </trkpt>
      <trkpt lat="45.14418" lon="4.1286">
        <ele>891.28</ele>
        <time>2011-10-15T05:56:49Z</time>
      </trkpt>
      <trkpt lat="45.14448" lon="4.12774">
        <ele>882.15</ele>
        <time>2011-10-15T05:56:58Z</time>
      </trkpt>
      <trkpt lat="45.14453" lon="4.12769">
        <ele>881.19</ele>
        <time>2011-10-15T05:56:59Z</time>
      </trkpt>
      <trkpt lat="45.14459" lon="4.12766">
        <ele>880.71</ele>
        <time>2011-10-15T05:57:00Z</time>
      </trkpt>
      <trkpt lat="45.14466" lon="4.12763">
        <ele>879.74</ele>
        <time>2011-10-15T05:57:01Z</time>
      </trkpt>
      <trkpt lat="45.14474" lon="4.12762">
        <ele>879.26</ele>
        <time>2011-10-15T05:57:02Z</time>
      </trkpt>
      <trkpt lat="45.14483" lon="4.1276">
        <ele>878.3</ele>
        <time>2011-10-15T05:57:03Z</time>
      </trkpt>
      <trkpt lat="45.14513" lon="4.12755">
        <ele>875.42</ele>
        <time>2011-10-15T05:57:07Z</time>
      </trkpt>
      <trkpt lat="45.14519" lon="4.12753">
        <ele>874.94</ele>
        <time>2011-10-15T05:57:08Z</time>
      </trkpt>
      <trkpt lat="45.14546" lon="4.12737">
        <ele>871.57</ele>
        <time>2011-10-15T05:57:15Z</time>
      </trkpt>
      <trkpt lat="45.14547" lon="4.1274">
        <ele>871.57</ele>
        <time>2011-10-15T05:57:16Z</time>
      </trkpt>
      <trkpt lat="45.14548" lon="4.12743">
        <ele>871.57</ele>
        <time>2011-10-15T05:57:17Z</time>
      </trkpt>
      <trkpt lat="45.14549" lon="4.12747">
        <ele>872.05</ele>
        <time>2011-10-15T05:57:18Z</time>
      </trkpt>
      <trkpt lat="45.14551" lon="4.12751">
        <ele>872.05</ele>
        <time>2011-10-15T05:57:19Z</time>
      </trkpt>
      <trkpt lat="45.14566" lon="4.12793">
        <ele>873.01</ele>
        <time>2011-10-15T05:57:31Z</time>
      </trkpt>
      <trkpt lat="45.14567" lon="4.12795">
        <ele>873.01</ele>
        <time>2011-10-15T05:57:43Z</time>
      </trkpt>
      <trkpt lat="45.14568" lon="4.12797">
        <ele>873.5</ele>
        <time>2011-10-15T05:57:44Z</time>
      </trkpt>
      <trkpt lat="45.14568" lon="4.12799">
        <ele>873.5</ele>
        <time>2011-10-15T05:57:45Z</time>
      </trkpt>
      <trkpt lat="45.14569" lon="4.12801">
        <ele>873.5</ele>
        <time>2011-10-15T05:57:46Z</time>
      </trkpt>
      <trkpt lat="45.1457" lon="4.12803">
        <ele>873.5</ele>
        <time>2011-10-15T05:57:47Z</time>
      </trkpt>
      <trkpt lat="45.1457" lon="4.12806">
        <ele>873.5</ele>
        <time>2011-10-15T05:57:48Z</time>
      </trkpt>
      <trkpt lat="45.14571" lon="4.12809">
        <ele>873.5</ele>
        <time>2011-10-15T05:57:49Z</time>
      </trkpt>
      <trkpt lat="45.14572" lon="4.12812">
        <ele>873.5</ele>
        <time>2011-10-15T05:57:50Z</time>
      </trkpt>
      <trkpt lat="45.14594" lon="4.1288">
        <ele>873.01</ele>
        <time>2011-10-15T05:58:03Z</time>
      </trkpt>
      <trkpt lat="45.146" lon="4.129">
        <ele>873.01</ele>
        <time>2011-10-15T05:58:06Z</time>
      </trkpt>
      <trkpt lat="45.14616" lon="4.12946">
        <ele>874.46</ele>
        <time>2011-10-15T05:58:13Z</time>
      </trkpt>
      <trkpt lat="45.14625" lon="4.12979">
        <ele>874.46</ele>
        <time>2011-10-15T05:58:18Z</time>
      </trkpt>
      <trkpt lat="45.14663" lon="4.1307">
        <ele>874.46</ele>
        <time>2011-10-15T05:58:31Z</time>
      </trkpt>
      <trkpt lat="45.14718" lon="4.13213">
        <ele>871.57</ele>
        <time>2011-10-15T05:58:48Z</time>
      </trkpt>
      <trkpt lat="45.14782" lon="4.1334">
        <ele>867.25</ele>
        <time>2011-10-15T05:59:03Z</time>
      </trkpt>
      <trkpt lat="45.14862" lon="4.13455">
        <ele>863.88</ele>
        <time>2011-10-15T05:59:17Z</time>
      </trkpt>
      <trkpt lat="45.14924" lon="4.13548">
        <ele>861.96</ele>
        <time>2011-10-15T05:59:29Z</time>
      </trkpt>
      <trkpt lat="45.1493" lon="4.13552">
        <ele>861.48</ele>
        <time>2011-10-15T05:59:30Z</time>
      </trkpt>
      <trkpt lat="45.14937" lon="4.13554">
        <ele>861.48</ele>
        <time>2011-10-15T05:59:31Z</time>
      </trkpt>
      <trkpt lat="45.14944" lon="4.13553">
        <ele>861</ele>
        <time>2011-10-15T05:59:32Z</time>
      </trkpt>
      <trkpt lat="45.1495" lon="4.13551">
        <ele>861</ele>
        <time>2011-10-15T05:59:33Z</time>
      </trkpt>
      <trkpt lat="45.14957" lon="4.13548">
        <ele>860.52</ele>
        <time>2011-10-15T05:59:34Z</time>
      </trkpt>
      <trkpt lat="45.14963" lon="4.13545">
        <ele>861</ele>
        <time>2011-10-15T05:59:35Z</time>
      </trkpt>
      <trkpt lat="45.1497" lon="4.13542">
        <ele>860.52</ele>
        <time>2011-10-15T05:59:36Z</time>
      </trkpt>
      <trkpt lat="45.15075" lon="4.13501">
        <ele>859.56</ele>
        <time>2011-10-15T05:59:52Z</time>
      </trkpt>
      <trkpt lat="45.15185" lon="4.13462">
        <ele>858.59</ele>
        <time>2011-10-15T06:00:09Z</time>
      </trkpt>
      <trkpt lat="45.15274" lon="4.13426">
        <ele>850.9</ele>
        <time>2011-10-15T06:00:20Z</time>
      </trkpt>
      <trkpt lat="45.15384" lon="4.13423">
        <ele>841.29</ele>
        <time>2011-10-15T06:00:30Z</time>
      </trkpt>
      <trkpt lat="45.15425" lon="4.13429">
        <ele>839.85</ele>
        <time>2011-10-15T06:00:34Z</time>
      </trkpt>
      <trkpt lat="45.15444" lon="4.13439">
        <ele>837.93</ele>
        <time>2011-10-15T06:00:36Z</time>
      </trkpt>
      <trkpt lat="45.15454" lon="4.13446">
        <ele>836.48</ele>
        <time>2011-10-15T06:00:37Z</time>
      </trkpt>
      <trkpt lat="45.15473" lon="4.1346">
        <ele>834.08</ele>
        <time>2011-10-15T06:00:39Z</time>
      </trkpt>
      <trkpt lat="45.15484" lon="4.13463">
        <ele>832.64</ele>
        <time>2011-10-15T06:00:40Z</time>
      </trkpt>
      <trkpt lat="45.15496" lon="4.13464">
        <ele>831.68</ele>
        <time>2011-10-15T06:00:41Z</time>
      </trkpt>
      <trkpt lat="45.15508" lon="4.13462">
        <ele>830.72</ele>
        <time>2011-10-15T06:00:42Z</time>
      </trkpt>
      <trkpt lat="45.15519" lon="4.1346">
        <ele>830.24</ele>
        <time>2011-10-15T06:00:43Z</time>
      </trkpt>
      <trkpt lat="45.15637" lon="4.13435">
        <ele>827.35</ele>
        <time>2011-10-15T06:00:55Z</time>
      </trkpt>
      <trkpt lat="45.15662" lon="4.13427">
        <ele>828.79</ele>
        <time>2011-10-15T06:00:58Z</time>
      </trkpt>
      <trkpt lat="45.15668" lon="4.13421">
        <ele>828.79</ele>
        <time>2011-10-15T06:00:59Z</time>
      </trkpt>
      <trkpt lat="45.15673" lon="4.13413">
        <ele>828.79</ele>
        <time>2011-10-15T06:01:00Z</time>
      </trkpt>
      <trkpt lat="45.15677" lon="4.13404">
        <ele>828.31</ele>
        <time>2011-10-15T06:01:01Z</time>
      </trkpt>
      <trkpt lat="45.15678" lon="4.13395">
        <ele>827.83</ele>
        <time>2011-10-15T06:01:02Z</time>
      </trkpt>
      <trkpt lat="45.15678" lon="4.13387">
        <ele>827.83</ele>
        <time>2011-10-15T06:01:03Z</time>
      </trkpt>
      <trkpt lat="45.1568" lon="4.1338">
        <ele>827.35</ele>
        <time>2011-10-15T06:01:04Z</time>
      </trkpt>
      <trkpt lat="45.15684" lon="4.13376">
        <ele>827.35</ele>
        <time>2011-10-15T06:01:05Z</time>
      </trkpt>
      <trkpt lat="45.15689" lon="4.13376">
        <ele>826.87</ele>
        <time>2011-10-15T06:01:06Z</time>
      </trkpt>
      <trkpt lat="45.15693" lon="4.13378">
        <ele>826.39</ele>
        <time>2011-10-15T06:01:07Z</time>
      </trkpt>
      <trkpt lat="45.15698" lon="4.13381">
        <ele>826.39</ele>
        <time>2011-10-15T06:01:08Z</time>
      </trkpt>
      <trkpt lat="45.15721" lon="4.13396">
        <ele>825.43</ele>
        <time>2011-10-15T06:01:13Z</time>
      </trkpt>
      <trkpt lat="45.15725" lon="4.13401">
        <ele>825.43</ele>
        <time>2011-10-15T06:01:14Z</time>
      </trkpt>
      <trkpt lat="45.15729" lon="4.13405">
        <ele>825.43</ele>
        <time>2011-10-15T06:01:15Z</time>
      </trkpt>
      <trkpt lat="45.15824" lon="4.13459">
        <ele>820.62</ele>
        <time>2011-10-15T06:01:29Z</time>
      </trkpt>
      <trkpt lat="45.15891" lon="4.13501">
        <ele>815.82</ele>
        <time>2011-10-15T06:01:37Z</time>
      </trkpt>
      <trkpt lat="45.15899" lon="4.13509">
        <ele>815.82</ele>
        <time>2011-10-15T06:01:38Z</time>
      </trkpt>
      <trkpt lat="45.15905" lon="4.13518">
        <ele>815.34</ele>
        <time>2011-10-15T06:01:39Z</time>
      </trkpt>
      <trkpt lat="45.1591" lon="4.13528">
        <ele>815.34</ele>
        <time>2011-10-15T06:01:40Z</time>
      </trkpt>
      <trkpt lat="45.15915" lon="4.13539">
        <ele>815.34</ele>
        <time>2011-10-15T06:01:41Z</time>
      </trkpt>
      <trkpt lat="45.15921" lon="4.13547">
        <ele>814.85</ele>
        <time>2011-10-15T06:01:42Z</time>
      </trkpt>
      <trkpt lat="45.15928" lon="4.13553">
        <ele>814.85</ele>
        <time>2011-10-15T06:01:43Z</time>
      </trkpt>
      <trkpt lat="45.15934" lon="4.13559">
        <ele>814.37</ele>
        <time>2011-10-15T06:01:44Z</time>
      </trkpt>
      <trkpt lat="45.15941" lon="4.13567">
        <ele>814.37</ele>
        <time>2011-10-15T06:01:45Z</time>
      </trkpt>
      <trkpt lat="45.15946" lon="4.13575">
        <ele>814.37</ele>
        <time>2011-10-15T06:01:46Z</time>
      </trkpt>
      <trkpt lat="45.1595" lon="4.13584">
        <ele>814.37</ele>
        <time>2011-10-15T06:01:47Z</time>
      </trkpt>
      <trkpt lat="45.15956" lon="4.13592">
        <ele>813.89</ele>
        <time>2011-10-15T06:01:48Z</time>
      </trkpt>
      <trkpt lat="45.15963" lon="4.13597">
        <ele>813.89</ele>
        <time>2011-10-15T06:01:49Z</time>
      </trkpt>
      <trkpt lat="45.1597" lon="4.13599">
        <ele>813.89</ele>
        <time>2011-10-15T06:01:50Z</time>
      </trkpt>
      <trkpt lat="45.15978" lon="4.13599">
        <ele>813.41</ele>
        <time>2011-10-15T06:01:51Z</time>
      </trkpt>
      <trkpt lat="45.15985" lon="4.13598">
        <ele>813.41</ele>
        <time>2011-10-15T06:01:52Z</time>
      </trkpt>
      <trkpt lat="45.15992" lon="4.13598">
        <ele>812.93</ele>
        <time>2011-10-15T06:01:53Z</time>
      </trkpt>
      <trkpt lat="45.16" lon="4.13599">
        <ele>812.93</ele>
        <time>2011-10-15T06:01:54Z</time>
      </trkpt>
      <trkpt lat="45.1608" lon="4.13611">
        <ele>812.93</ele>
        <time>2011-10-15T06:02:05Z</time>
      </trkpt>
      <trkpt lat="45.16086" lon="4.1361">
        <ele>812.93</ele>
        <time>2011-10-15T06:02:06Z</time>
      </trkpt>
      <trkpt lat="45.16099" lon="4.13608">
        <ele>812.93</ele>
        <time>2011-10-15T06:02:08Z</time>
      </trkpt>
      <trkpt lat="45.16105" lon="4.13609">
        <ele>812.93</ele>
        <time>2011-10-15T06:02:09Z</time>
      </trkpt>
      <trkpt lat="45.16112" lon="4.13611">
        <ele>812.93</ele>
        <time>2011-10-15T06:02:10Z</time>
      </trkpt>
      <trkpt lat="45.16117" lon="4.13614">
        <ele>813.41</ele>
        <time>2011-10-15T06:02:11Z</time>
      </trkpt>
      <trkpt lat="45.16123" lon="4.13619">
        <ele>812.93</ele>
        <time>2011-10-15T06:02:12Z</time>
      </trkpt>
      <trkpt lat="45.16128" lon="4.13624">
        <ele>813.41</ele>
        <time>2011-10-15T06:02:13Z</time>
      </trkpt>
      <trkpt lat="45.16132" lon="4.1363">
        <ele>813.41</ele>
        <time>2011-10-15T06:02:14Z</time>
      </trkpt>
      <trkpt lat="45.16136" lon="4.13637">
        <ele>813.41</ele>
        <time>2011-10-15T06:02:15Z</time>
      </trkpt>
      <trkpt lat="45.1614" lon="4.13643">
        <ele>813.41</ele>
        <time>2011-10-15T06:02:16Z</time>
      </trkpt>
      <trkpt lat="45.16153" lon="4.1367">
        <ele>813.89</ele>
        <time>2011-10-15T06:02:20Z</time>
      </trkpt>
      <trkpt lat="45.16157" lon="4.13677">
        <ele>813.89</ele>
        <time>2011-10-15T06:02:21Z</time>
      </trkpt>
      <trkpt lat="45.16161" lon="4.13682">
        <ele>813.89</ele>
        <time>2011-10-15T06:02:22Z</time>
      </trkpt>
      <trkpt lat="45.16166" lon="4.13686">
        <ele>813.89</ele>
        <time>2011-10-15T06:02:23Z</time>
      </trkpt>
      <trkpt lat="45.1617" lon="4.13689">
        <ele>814.37</ele>
        <time>2011-10-15T06:02:24Z</time>
      </trkpt>
      <trkpt lat="45.16217" lon="4.13735">
        <ele>815.82</ele>
        <time>2011-10-15T06:02:34Z</time>
      </trkpt>
      <trkpt lat="45.16221" lon="4.13739">
        <ele>816.3</ele>
        <time>2011-10-15T06:02:35Z</time>
      </trkpt>
      <trkpt lat="45.16226" lon="4.13742">
        <ele>816.78</ele>
        <time>2011-10-15T06:02:36Z</time>
      </trkpt>
      <trkpt lat="45.16233" lon="4.13748">
        <ele>817.26</ele>
        <time>2011-10-15T06:02:38Z</time>
      </trkpt>
      <trkpt lat="45.16236" lon="4.13752">
        <ele>817.74</ele>
        <time>2011-10-15T06:02:39Z</time>
      </trkpt>
      <trkpt lat="45.1629" lon="4.13818">
        <ele>818.7</ele>
        <time>2011-10-15T06:02:54Z</time>
      </trkpt>
      <trkpt lat="45.16294" lon="4.13821">
        <ele>818.7</ele>
        <time>2011-10-15T06:02:55Z</time>
      </trkpt>
      <trkpt lat="45.16303" lon="4.13828">
        <ele>818.7</ele>
        <time>2011-10-15T06:02:57Z</time>
      </trkpt>
      <trkpt lat="45.16307" lon="4.13832">
        <ele>818.7</ele>
        <time>2011-10-15T06:02:58Z</time>
      </trkpt>
      <trkpt lat="45.16311" lon="4.13836">
        <ele>819.18</ele>
        <time>2011-10-15T06:02:59Z</time>
      </trkpt>
      <trkpt lat="45.16332" lon="4.13859">
        <ele>818.7</ele>
        <time>2011-10-15T06:03:04Z</time>
      </trkpt>
      <trkpt lat="45.16334" lon="4.13864">
        <ele>818.22</ele>
        <time>2011-10-15T06:03:05Z</time>
      </trkpt>
      <trkpt lat="45.16335" lon="4.13871">
        <ele>818.22</ele>
        <time>2011-10-15T06:03:06Z</time>
      </trkpt>
      <trkpt lat="45.16334" lon="4.13877">
        <ele>817.74</ele>
        <time>2011-10-15T06:03:07Z</time>
      </trkpt>
      <trkpt lat="45.16333" lon="4.13884">
        <ele>817.74</ele>
        <time>2011-10-15T06:03:08Z</time>
      </trkpt>
      <trkpt lat="45.16332" lon="4.1389">
        <ele>817.74</ele>
        <time>2011-10-15T06:03:09Z</time>
      </trkpt>
      <trkpt lat="45.16333" lon="4.13896">
        <ele>817.74</ele>
        <time>2011-10-15T06:03:10Z</time>
      </trkpt>
      <trkpt lat="45.16334" lon="4.13902">
        <ele>817.74</ele>
        <time>2011-10-15T06:03:11Z</time>
      </trkpt>
      <trkpt lat="45.16336" lon="4.13907">
        <ele>817.74</ele>
        <time>2011-10-15T06:03:12Z</time>
      </trkpt>
      <trkpt lat="45.16338" lon="4.13912">
        <ele>817.74</ele>
        <time>2011-10-15T06:03:13Z</time>
      </trkpt>
      <trkpt lat="45.16366" lon="4.13975">
        <ele>818.22</ele>
        <time>2011-10-15T06:03:26Z</time>
      </trkpt>
      <trkpt lat="45.16374" lon="4.13991">
        <ele>818.7</ele>
        <time>2011-10-15T06:03:29Z</time>
      </trkpt>
      <trkpt lat="45.16376" lon="4.13996">
        <ele>818.7</ele>
        <time>2011-10-15T06:03:30Z</time>
      </trkpt>
      <trkpt lat="45.16418" lon="4.14075">
        <ele>822.06</ele>
        <time>2011-10-15T06:03:46Z</time>
      </trkpt>
      <trkpt lat="45.16453" lon="4.14152">
        <ele>822.06</ele>
        <time>2011-10-15T06:04:01Z</time>
      </trkpt>
      <trkpt lat="45.16464" lon="4.14185">
        <ele>823.51</ele>
        <time>2011-10-15T06:04:07Z</time>
      </trkpt>
      <trkpt lat="45.16465" lon="4.1419">
        <ele>823.51</ele>
        <time>2011-10-15T06:04:08Z</time>
      </trkpt>
      <trkpt lat="45.16465" lon="4.14196">
        <ele>823.99</ele>
        <time>2011-10-15T06:04:09Z</time>
      </trkpt>
      <trkpt lat="45.16463" lon="4.14201">
        <ele>823.99</ele>
        <time>2011-10-15T06:04:10Z</time>
      </trkpt>
      <trkpt lat="45.16461" lon="4.14206">
        <ele>823.51</ele>
        <time>2011-10-15T06:04:11Z</time>
      </trkpt>
      <trkpt lat="45.16459" lon="4.14209">
        <ele>823.51</ele>
        <time>2011-10-15T06:04:12Z</time>
      </trkpt>
      <trkpt lat="45.16455" lon="4.1423">
        <ele>823.03</ele>
        <time>2011-10-15T06:04:16Z</time>
      </trkpt>
      <trkpt lat="45.16457" lon="4.14235">
        <ele>823.03</ele>
        <time>2011-10-15T06:04:17Z</time>
      </trkpt>
      <trkpt lat="45.16487" lon="4.143">
        <ele>825.91</ele>
        <time>2011-10-15T06:04:32Z</time>
      </trkpt>
      <trkpt lat="45.16509" lon="4.14349">
        <ele>829.27</ele>
        <time>2011-10-15T06:04:45Z</time>
      </trkpt>
      <trkpt lat="45.16535" lon="4.14412">
        <ele>832.16</ele>
        <time>2011-10-15T06:05:00Z</time>
      </trkpt>
      <trkpt lat="45.16556" lon="4.14496">
        <ele>833.12</ele>
        <time>2011-10-15T06:05:16Z</time>
      </trkpt>
      <trkpt lat="45.16581" lon="4.14601">
        <ele>832.64</ele>
        <time>2011-10-15T06:05:32Z</time>
      </trkpt>
      <trkpt lat="45.16603" lon="4.14705">
        <ele>831.68</ele>
        <time>2011-10-15T06:05:48Z</time>
      </trkpt>
      <trkpt lat="45.16605" lon="4.14711">
        <ele>831.2</ele>
        <time>2011-10-15T06:05:49Z</time>
      </trkpt>
      <trkpt lat="45.16608" lon="4.14716">
        <ele>830.72</ele>
        <time>2011-10-15T06:05:50Z</time>
      </trkpt>
      <trkpt lat="45.16612" lon="4.1472">
        <ele>830.72</ele>
        <time>2011-10-15T06:05:51Z</time>
      </trkpt>
      <trkpt lat="45.16622" lon="4.14722">
        <ele>830.72</ele>
        <time>2011-10-15T06:05:53Z</time>
      </trkpt>
      <trkpt lat="45.16717" lon="4.14724">
        <ele>829.27</ele>
        <time>2011-10-15T06:06:10Z</time>
      </trkpt>
      <trkpt lat="45.16733" lon="4.14724">
        <ele>829.27</ele>
        <time>2011-10-15T06:06:13Z</time>
      </trkpt>
      <trkpt lat="45.16789" lon="4.14721">
        <ele>830.72</ele>
        <time>2011-10-15T06:06:26Z</time>
      </trkpt>
      <trkpt lat="45.16813" lon="4.1472">
        <ele>830.72</ele>
        <time>2011-10-15T06:06:31Z</time>
      </trkpt>
      <trkpt lat="45.16838" lon="4.14735">
        <ele>830.24</ele>
        <time>2011-10-15T06:06:37Z</time>
      </trkpt>
      <trkpt lat="45.16867" lon="4.1476">
        <ele>829.76</ele>
        <time>2011-10-15T06:06:45Z</time>
      </trkpt>
      <trkpt lat="45.16897" lon="4.14748">
        <ele>826.87</ele>
        <time>2011-10-15T06:06:52Z</time>
      </trkpt>
      <trkpt lat="45.16921" lon="4.14741">
        <ele>823.03</ele>
        <time>2011-10-15T06:06:56Z</time>
      </trkpt>
      <trkpt lat="45.16948" lon="4.14747">
        <ele>819.18</ele>
        <time>2011-10-15T06:07:00Z</time>
      </trkpt>
      <trkpt lat="45.17042" lon="4.14754">
        <ele>807.64</ele>
        <time>2011-10-15T06:07:11Z</time>
      </trkpt>
      <trkpt lat="45.17057" lon="4.14755">
        <ele>806.2</ele>
        <time>2011-10-15T06:07:13Z</time>
      </trkpt>
      <trkpt lat="45.17079" lon="4.14799">
        <ele>803.8</ele>
        <time>2011-10-15T06:07:19Z</time>
      </trkpt>
      <trkpt lat="45.1708" lon="4.14817">
        <ele>803.8</ele>
        <time>2011-10-15T06:07:21Z</time>
      </trkpt>
      <trkpt lat="45.17079" lon="4.14886">
        <ele>804.76</ele>
        <time>2011-10-15T06:07:30Z</time>
      </trkpt>
      <trkpt lat="45.17088" lon="4.14921">
        <ele>805.72</ele>
        <time>2011-10-15T06:07:36Z</time>
      </trkpt>
      <trkpt lat="45.17091" lon="4.1494">
        <ele>805.72</ele>
        <time>2011-10-15T06:07:39Z</time>
      </trkpt>
      <trkpt lat="45.17117" lon="4.14961">
        <ele>803.8</ele>
        <time>2011-10-15T06:07:45Z</time>
      </trkpt>
      <trkpt lat="45.17175" lon="4.1495">
        <ele>796.59</ele>
        <time>2011-10-15T06:07:53Z</time>
      </trkpt>
      <trkpt lat="45.17202" lon="4.14963">
        <ele>789.38</ele>
        <time>2011-10-15T06:08:00Z</time>
      </trkpt>
      <trkpt lat="45.17201" lon="4.14969">
        <ele>789.38</ele>
        <time>2011-10-15T06:08:01Z</time>
      </trkpt>
      <trkpt lat="45.172" lon="4.14975">
        <ele>788.9</ele>
        <time>2011-10-15T06:08:02Z</time>
      </trkpt>
      <trkpt lat="45.17198" lon="4.14982">
        <ele>788.9</ele>
        <time>2011-10-15T06:08:03Z</time>
      </trkpt>
      <trkpt lat="45.17197" lon="4.14989">
        <ele>788.9</ele>
        <time>2011-10-15T06:08:04Z</time>
      </trkpt>
      <trkpt lat="45.17163" lon="4.15086">
        <ele>783.13</ele>
        <time>2011-10-15T06:08:14Z</time>
      </trkpt>
      <trkpt lat="45.17111" lon="4.15248">
        <ele>778.32</ele>
        <time>2011-10-15T06:08:28Z</time>
      </trkpt>
      <trkpt lat="45.17089" lon="4.15287">
        <ele>776.88</ele>
        <time>2011-10-15T06:08:33Z</time>
      </trkpt>
      <trkpt lat="45.17074" lon="4.15301">
        <ele>775.44</ele>
        <time>2011-10-15T06:08:36Z</time>
      </trkpt>
      <trkpt lat="45.17055" lon="4.15311">
        <ele>774.48</ele>
        <time>2011-10-15T06:08:39Z</time>
      </trkpt>
      <trkpt lat="45.1701" lon="4.15347">
        <ele>774</ele>
        <time>2011-10-15T06:08:47Z</time>
      </trkpt>
      <trkpt lat="45.16996" lon="4.15363">
        <ele>772.56</ele>
        <time>2011-10-15T06:08:50Z</time>
      </trkpt>
      <trkpt lat="45.16938" lon="4.15431">
        <ele>769.19</ele>
        <time>2011-10-15T06:09:02Z</time>
      </trkpt>
      <trkpt lat="45.16932" lon="4.15435">
        <ele>769.19</ele>
        <time>2011-10-15T06:09:03Z</time>
      </trkpt>
      <trkpt lat="45.16925" lon="4.15436">
        <ele>769.19</ele>
        <time>2011-10-15T06:09:04Z</time>
      </trkpt>
      <trkpt lat="45.16918" lon="4.15436">
        <ele>769.19</ele>
        <time>2011-10-15T06:09:05Z</time>
      </trkpt>
      <trkpt lat="45.16912" lon="4.15435">
        <ele>769.19</ele>
        <time>2011-10-15T06:09:06Z</time>
      </trkpt>
      <trkpt lat="45.16905" lon="4.15434">
        <ele>769.67</ele>
        <time>2011-10-15T06:09:07Z</time>
      </trkpt>
      <trkpt lat="45.16874" lon="4.1542">
        <ele>770.63</ele>
        <time>2011-10-15T06:09:12Z</time>
      </trkpt>
      <trkpt lat="45.16829" lon="4.15384">
        <ele>771.11</ele>
        <time>2011-10-15T06:09:21Z</time>
      </trkpt>
      <trkpt lat="45.16825" lon="4.15379">
        <ele>771.11</ele>
        <time>2011-10-15T06:09:22Z</time>
      </trkpt>
      <trkpt lat="45.16822" lon="4.15372">
        <ele>770.63</ele>
        <time>2011-10-15T06:09:23Z</time>
      </trkpt>
      <trkpt lat="45.1682" lon="4.15365">
        <ele>770.63</ele>
        <time>2011-10-15T06:09:24Z</time>
      </trkpt>
      <trkpt lat="45.1682" lon="4.15358">
        <ele>770.63</ele>
        <time>2011-10-15T06:09:25Z</time>
      </trkpt>
      <trkpt lat="45.16819" lon="4.1535">
        <ele>770.63</ele>
        <time>2011-10-15T06:09:26Z</time>
      </trkpt>
      <trkpt lat="45.16818" lon="4.15342">
        <ele>770.63</ele>
        <time>2011-10-15T06:09:27Z</time>
      </trkpt>
      <trkpt lat="45.16817" lon="4.15335">
        <ele>770.63</ele>
        <time>2011-10-15T06:09:28Z</time>
      </trkpt>
      <trkpt lat="45.16814" lon="4.1533">
        <ele>770.63</ele>
        <time>2011-10-15T06:09:29Z</time>
      </trkpt>
      <trkpt lat="45.1681" lon="4.15325">
        <ele>770.63</ele>
        <time>2011-10-15T06:09:30Z</time>
      </trkpt>
      <trkpt lat="45.16805" lon="4.15321">
        <ele>771.11</ele>
        <time>2011-10-15T06:09:31Z</time>
      </trkpt>
      <trkpt lat="45.16801" lon="4.15318">
        <ele>771.11</ele>
        <time>2011-10-15T06:09:32Z</time>
      </trkpt>
      <trkpt lat="45.16792" lon="4.15312">
        <ele>771.11</ele>
        <time>2011-10-15T06:09:34Z</time>
      </trkpt>
      <trkpt lat="45.16726" lon="4.15291">
        <ele>775.44</ele>
        <time>2011-10-15T06:09:49Z</time>
      </trkpt>
      <trkpt lat="45.16686" lon="4.15282">
        <ele>780.25</ele>
        <time>2011-10-15T06:10:02Z</time>
      </trkpt>
      <trkpt lat="45.16648" lon="4.15271">
        <ele>785.53</ele>
        <time>2011-10-15T06:10:16Z</time>
      </trkpt>
      <trkpt lat="45.16625" lon="4.15252">
        <ele>788.9</ele>
        <time>2011-10-15T06:10:27Z</time>
      </trkpt>
      <trkpt lat="45.166" lon="4.15228">
        <ele>789.38</ele>
        <time>2011-10-15T06:10:40Z</time>
      </trkpt>
      <trkpt lat="45.16596" lon="4.15227">
        <ele>788.9</ele>
        <time>2011-10-15T06:10:42Z</time>
      </trkpt>
      <trkpt lat="45.16595" lon="4.15228">
        <ele>788.9</ele>
        <time>2011-10-15T06:10:43Z</time>
      </trkpt>
      <trkpt lat="45.16594" lon="4.15231">
        <ele>788.9</ele>
        <time>2011-10-15T06:10:44Z</time>
      </trkpt>
      <trkpt lat="45.16595" lon="4.15235">
        <ele>788.42</ele>
        <time>2011-10-15T06:10:45Z</time>
      </trkpt>
      <trkpt lat="45.16596" lon="4.15239">
        <ele>787.46</ele>
        <time>2011-10-15T06:10:46Z</time>
      </trkpt>
      <trkpt lat="45.16596" lon="4.15243">
        <ele>786.98</ele>
        <time>2011-10-15T06:10:47Z</time>
      </trkpt>
      <trkpt lat="45.16595" lon="4.15248">
        <ele>786.5</ele>
        <time>2011-10-15T06:10:48Z</time>
      </trkpt>
      <trkpt lat="45.16594" lon="4.15252">
        <ele>785.53</ele>
        <time>2011-10-15T06:10:49Z</time>
      </trkpt>
      <trkpt lat="45.16593" lon="4.15255">
        <ele>785.05</ele>
        <time>2011-10-15T06:10:50Z</time>
      </trkpt>
      <trkpt lat="45.16591" lon="4.15259">
        <ele>784.57</ele>
        <time>2011-10-15T06:10:51Z</time>
      </trkpt>
      <trkpt lat="45.16591" lon="4.15262">
        <ele>784.09</ele>
        <time>2011-10-15T06:10:52Z</time>
      </trkpt>
      <trkpt lat="45.1659" lon="4.15265">
        <ele>783.61</ele>
        <time>2011-10-15T06:10:53Z</time>
      </trkpt>
      <trkpt lat="45.1659" lon="4.15268">
        <ele>783.13</ele>
        <time>2011-10-15T06:10:54Z</time>
      </trkpt>
      <trkpt lat="45.1659" lon="4.15272">
        <ele>783.13</ele>
        <time>2011-10-15T06:10:55Z</time>
      </trkpt>
      <trkpt lat="45.1659" lon="4.15276">
        <ele>782.65</ele>
        <time>2011-10-15T06:10:56Z</time>
      </trkpt>
      <trkpt lat="45.16588" lon="4.15285">
        <ele>782.65</ele>
        <time>2011-10-15T06:10:58Z</time>
      </trkpt>
      <trkpt lat="45.16588" lon="4.1529">
        <ele>782.65</ele>
        <time>2011-10-15T06:10:59Z</time>
      </trkpt>
      <trkpt lat="45.16588" lon="4.15296">
        <ele>783.13</ele>
        <time>2011-10-15T06:11:00Z</time>
      </trkpt>
      <trkpt lat="45.16589" lon="4.153">
        <ele>783.13</ele>
        <time>2011-10-15T06:11:01Z</time>
      </trkpt>
      <trkpt lat="45.1659" lon="4.15305">
        <ele>783.61</ele>
        <time>2011-10-15T06:11:02Z</time>
      </trkpt>
      <trkpt lat="45.1659" lon="4.15309">
        <ele>783.61</ele>
        <time>2011-10-15T06:11:03Z</time>
      </trkpt>
      <trkpt lat="45.1659" lon="4.15313">
        <ele>783.61</ele>
        <time>2011-10-15T06:11:04Z</time>
      </trkpt>
      <trkpt lat="45.1659" lon="4.15317">
        <ele>783.61</ele>
        <time>2011-10-15T06:11:05Z</time>
      </trkpt>
      <trkpt lat="45.16589" lon="4.15322">
        <ele>783.61</ele>
        <time>2011-10-15T06:11:06Z</time>
      </trkpt>
      <trkpt lat="45.16588" lon="4.15328">
        <ele>783.61</ele>
        <time>2011-10-15T06:11:07Z</time>
      </trkpt>
      <trkpt lat="45.16586" lon="4.15333">
        <ele>783.61</ele>
        <time>2011-10-15T06:11:08Z</time>
      </trkpt>
      <trkpt lat="45.16576" lon="4.15362">
        <ele>782.65</ele>
        <time>2011-10-15T06:11:13Z</time>
      </trkpt>
      <trkpt lat="45.16567" lon="4.15378">
        <ele>782.17</ele>
        <time>2011-10-15T06:11:16Z</time>
      </trkpt>
      <trkpt lat="45.1653" lon="4.15427">
        <ele>778.81</ele>
        <time>2011-10-15T06:11:26Z</time>
      </trkpt>
      <trkpt lat="45.16527" lon="4.15433">
        <ele>778.81</ele>
        <time>2011-10-15T06:11:27Z</time>
      </trkpt>
      <trkpt lat="45.16524" lon="4.15439">
        <ele>778.81</ele>
        <time>2011-10-15T06:11:28Z</time>
      </trkpt>
      <trkpt lat="45.16521" lon="4.15445">
        <ele>778.32</ele>
        <time>2011-10-15T06:11:29Z</time>
      </trkpt>
      <trkpt lat="45.16519" lon="4.15451">
        <ele>778.32</ele>
        <time>2011-10-15T06:11:30Z</time>
      </trkpt>
      <trkpt lat="45.16518" lon="4.15457">
        <ele>777.36</ele>
        <time>2011-10-15T06:11:31Z</time>
      </trkpt>
      <trkpt lat="45.16519" lon="4.15464">
        <ele>776.88</ele>
        <time>2011-10-15T06:11:32Z</time>
      </trkpt>
      <trkpt lat="45.16521" lon="4.15471">
        <ele>775.92</ele>
        <time>2011-10-15T06:11:33Z</time>
      </trkpt>
      <trkpt lat="45.16525" lon="4.15478">
        <ele>775.44</ele>
        <time>2011-10-15T06:11:34Z</time>
      </trkpt>
      <trkpt lat="45.1653" lon="4.15486">
        <ele>774.96</ele>
        <time>2011-10-15T06:11:35Z</time>
      </trkpt>
      <trkpt lat="45.16586" lon="4.15612">
        <ele>770.63</ele>
        <time>2011-10-15T06:11:49Z</time>
      </trkpt>
      <trkpt lat="45.16635" lon="4.15718">
        <ele>767.27</ele>
        <time>2011-10-15T06:12:02Z</time>
      </trkpt>
      <trkpt lat="45.16639" lon="4.15726">
        <ele>766.79</ele>
        <time>2011-10-15T06:12:03Z</time>
      </trkpt>
      <trkpt lat="45.16642" lon="4.15736">
        <ele>766.31</ele>
        <time>2011-10-15T06:12:04Z</time>
      </trkpt>
      <trkpt lat="45.16644" lon="4.15746">
        <ele>765.35</ele>
        <time>2011-10-15T06:12:05Z</time>
      </trkpt>
      <trkpt lat="45.16663" lon="4.15839">
        <ele>760.54</ele>
        <time>2011-10-15T06:12:13Z</time>
      </trkpt>
      <trkpt lat="45.16665" lon="4.15853">
        <ele>759.58</ele>
        <time>2011-10-15T06:12:14Z</time>
      </trkpt>
      <trkpt lat="45.16672" lon="4.16004">
        <ele>756.69</ele>
        <time>2011-10-15T06:12:26Z</time>
      </trkpt>
      <trkpt lat="45.16675" lon="4.16024">
        <ele>757.18</ele>
        <time>2011-10-15T06:12:28Z</time>
      </trkpt>
      <trkpt lat="45.16688" lon="4.16078">
        <ele>759.58</ele>
        <time>2011-10-15T06:12:34Z</time>
      </trkpt>
      <trkpt lat="45.16705" lon="4.16113">
        <ele>762.46</ele>
        <time>2011-10-15T06:12:40Z</time>
      </trkpt>
      <trkpt lat="45.16707" lon="4.16118">
        <ele>762.94</ele>
        <time>2011-10-15T06:12:41Z</time>
      </trkpt>
      <trkpt lat="45.1671" lon="4.16123">
        <ele>763.42</ele>
        <time>2011-10-15T06:12:42Z</time>
      </trkpt>
      <trkpt lat="45.16712" lon="4.16128">
        <ele>763.9</ele>
        <time>2011-10-15T06:12:43Z</time>
      </trkpt>
      <trkpt lat="45.16713" lon="4.16133">
        <ele>764.39</ele>
        <time>2011-10-15T06:12:44Z</time>
      </trkpt>
      <trkpt lat="45.16716" lon="4.16144">
        <ele>764.87</ele>
        <time>2011-10-15T06:12:46Z</time>
      </trkpt>
      <trkpt lat="45.16717" lon="4.1615">
        <ele>765.35</ele>
        <time>2011-10-15T06:12:47Z</time>
      </trkpt>
      <trkpt lat="45.16723" lon="4.16203">
        <ele>767.75</ele>
        <time>2011-10-15T06:12:56Z</time>
      </trkpt>
      <trkpt lat="45.16733" lon="4.16272">
        <ele>770.63</ele>
        <time>2011-10-15T06:13:09Z</time>
      </trkpt>
      <trkpt lat="45.16736" lon="4.16295">
        <ele>771.11</ele>
        <time>2011-10-15T06:13:13Z</time>
      </trkpt>
      <trkpt lat="45.16736" lon="4.16301">
        <ele>771.11</ele>
        <time>2011-10-15T06:13:14Z</time>
      </trkpt>
      <trkpt lat="45.1675" lon="4.16405">
        <ele>771.6</ele>
        <time>2011-10-15T06:13:31Z</time>
      </trkpt>
      <trkpt lat="45.16762" lon="4.1649">
        <ele>771.6</ele>
        <time>2011-10-15T06:13:44Z</time>
      </trkpt>
      <trkpt lat="45.16763" lon="4.16495">
        <ele>772.08</ele>
        <time>2011-10-15T06:13:45Z</time>
      </trkpt>
      <trkpt lat="45.16773" lon="4.16524">
        <ele>771.6</ele>
        <time>2011-10-15T06:13:50Z</time>
      </trkpt>
      <trkpt lat="45.16811" lon="4.16609">
        <ele>765.35</ele>
        <time>2011-10-15T06:14:02Z</time>
      </trkpt>
      <trkpt lat="45.16814" lon="4.16619">
        <ele>764.87</ele>
        <time>2011-10-15T06:14:03Z</time>
      </trkpt>
      <trkpt lat="45.16815" lon="4.16629">
        <ele>763.9</ele>
        <time>2011-10-15T06:14:04Z</time>
      </trkpt>
      <trkpt lat="45.16815" lon="4.1664">
        <ele>763.42</ele>
        <time>2011-10-15T06:14:05Z</time>
      </trkpt>
      <trkpt lat="45.16814" lon="4.16651">
        <ele>762.94</ele>
        <time>2011-10-15T06:14:06Z</time>
      </trkpt>
      <trkpt lat="45.16809" lon="4.16703">
        <ele>760.54</ele>
        <time>2011-10-15T06:14:11Z</time>
      </trkpt>
      <trkpt lat="45.1681" lon="4.16713">
        <ele>760.06</ele>
        <time>2011-10-15T06:14:12Z</time>
      </trkpt>
      <trkpt lat="45.16812" lon="4.16723">
        <ele>759.1</ele>
        <time>2011-10-15T06:14:13Z</time>
      </trkpt>
      <trkpt lat="45.16815" lon="4.16733">
        <ele>758.14</ele>
        <time>2011-10-15T06:14:14Z</time>
      </trkpt>
      <trkpt lat="45.16818" lon="4.16743">
        <ele>757.18</ele>
        <time>2011-10-15T06:14:15Z</time>
      </trkpt>
      <trkpt lat="45.16822" lon="4.16753">
        <ele>756.69</ele>
        <time>2011-10-15T06:14:16Z</time>
      </trkpt>
      <trkpt lat="45.16827" lon="4.16762">
        <ele>755.73</ele>
        <time>2011-10-15T06:14:17Z</time>
      </trkpt>
      <trkpt lat="45.16836" lon="4.16779">
        <ele>754.29</ele>
        <time>2011-10-15T06:14:19Z</time>
      </trkpt>
      <trkpt lat="45.16845" lon="4.16809">
        <ele>753.33</ele>
        <time>2011-10-15T06:14:22Z</time>
      </trkpt>
      <trkpt lat="45.16846" lon="4.1682">
        <ele>752.85</ele>
        <time>2011-10-15T06:14:23Z</time>
      </trkpt>
      <trkpt lat="45.16846" lon="4.16832">
        <ele>752.37</ele>
        <time>2011-10-15T06:14:24Z</time>
      </trkpt>
      <trkpt lat="45.16843" lon="4.16843">
        <ele>751.41</ele>
        <time>2011-10-15T06:14:25Z</time>
      </trkpt>
      <trkpt lat="45.16839" lon="4.16854">
        <ele>750.93</ele>
        <time>2011-10-15T06:14:26Z</time>
      </trkpt>
      <trkpt lat="45.16835" lon="4.16864">
        <ele>749.97</ele>
        <time>2011-10-15T06:14:27Z</time>
      </trkpt>
      <trkpt lat="45.16776" lon="4.16993">
        <ele>741.31</ele>
        <time>2011-10-15T06:14:38Z</time>
      </trkpt>
      <trkpt lat="45.16755" lon="4.17034">
        <ele>738.43</ele>
        <time>2011-10-15T06:14:42Z</time>
      </trkpt>
      <trkpt lat="45.16751" lon="4.17045">
        <ele>737.95</ele>
        <time>2011-10-15T06:14:43Z</time>
      </trkpt>
      <trkpt lat="45.16747" lon="4.17056">
        <ele>737.47</ele>
        <time>2011-10-15T06:14:44Z</time>
      </trkpt>
      <trkpt lat="45.16744" lon="4.17068">
        <ele>736.51</ele>
        <time>2011-10-15T06:14:45Z</time>
      </trkpt>
      <trkpt lat="45.16742" lon="4.17079">
        <ele>736.03</ele>
        <time>2011-10-15T06:14:46Z</time>
      </trkpt>
      <trkpt lat="45.16741" lon="4.17091">
        <ele>735.07</ele>
        <time>2011-10-15T06:14:47Z</time>
      </trkpt>
      <trkpt lat="45.1674" lon="4.17106">
        <ele>734.1</ele>
        <time>2011-10-15T06:14:48Z</time>
      </trkpt>
      <trkpt lat="45.16737" lon="4.17138">
        <ele>732.18</ele>
        <time>2011-10-15T06:14:50Z</time>
      </trkpt>
      <trkpt lat="45.16737" lon="4.17154">
        <ele>731.7</ele>
        <time>2011-10-15T06:14:51Z</time>
      </trkpt>
      <trkpt lat="45.16737" lon="4.1717">
        <ele>730.74</ele>
        <time>2011-10-15T06:14:52Z</time>
      </trkpt>
      <trkpt lat="45.16737" lon="4.17185">
        <ele>730.74</ele>
        <time>2011-10-15T06:14:53Z</time>
      </trkpt>
      <trkpt lat="45.16736" lon="4.172">
        <ele>730.26</ele>
        <time>2011-10-15T06:14:54Z</time>
      </trkpt>
      <trkpt lat="45.16731" lon="4.173">
        <ele>727.37</ele>
        <time>2011-10-15T06:15:02Z</time>
      </trkpt>
      <trkpt lat="45.1673" lon="4.17312">
        <ele>726.89</ele>
        <time>2011-10-15T06:15:03Z</time>
      </trkpt>
      <trkpt lat="45.16727" lon="4.17324">
        <ele>726.89</ele>
        <time>2011-10-15T06:15:04Z</time>
      </trkpt>
      <trkpt lat="45.16714" lon="4.17385">
        <ele>724.01</ele>
        <time>2011-10-15T06:15:10Z</time>
      </trkpt>
      <trkpt lat="45.16711" lon="4.17393">
        <ele>723.53</ele>
        <time>2011-10-15T06:15:11Z</time>
      </trkpt>
      <trkpt lat="45.16705" lon="4.17411">
        <ele>723.05</ele>
        <time>2011-10-15T06:15:13Z</time>
      </trkpt>
      <trkpt lat="45.16703" lon="4.1743">
        <ele>721.61</ele>
        <time>2011-10-15T06:15:15Z</time>
      </trkpt>
      <trkpt lat="45.16704" lon="4.17438">
        <ele>720.65</ele>
        <time>2011-10-15T06:15:16Z</time>
      </trkpt>
      <trkpt lat="45.16706" lon="4.17444">
        <ele>719.68</ele>
        <time>2011-10-15T06:15:17Z</time>
      </trkpt>
      <trkpt lat="45.1671" lon="4.17448">
        <ele>718.24</ele>
        <time>2011-10-15T06:15:18Z</time>
      </trkpt>
      <trkpt lat="45.16716" lon="4.17449">
        <ele>716.8</ele>
        <time>2011-10-15T06:15:19Z</time>
      </trkpt>
      <trkpt lat="45.16724" lon="4.17449">
        <ele>715.36</ele>
        <time>2011-10-15T06:15:20Z</time>
      </trkpt>
      <trkpt lat="45.16732" lon="4.17447">
        <ele>714.4</ele>
        <time>2011-10-15T06:15:21Z</time>
      </trkpt>
      <trkpt lat="45.1674" lon="4.17444">
        <ele>712.95</ele>
        <time>2011-10-15T06:15:22Z</time>
      </trkpt>
      <trkpt lat="45.16749" lon="4.17438">
        <ele>711.99</ele>
        <time>2011-10-15T06:15:23Z</time>
      </trkpt>
      <trkpt lat="45.16757" lon="4.17431">
        <ele>710.55</ele>
        <time>2011-10-15T06:15:24Z</time>
      </trkpt>
      <trkpt lat="45.16764" lon="4.17423">
        <ele>709.59</ele>
        <time>2011-10-15T06:15:25Z</time>
      </trkpt>
      <trkpt lat="45.1677" lon="4.17414">
        <ele>709.11</ele>
        <time>2011-10-15T06:15:26Z</time>
      </trkpt>
      <trkpt lat="45.16776" lon="4.17405">
        <ele>708.15</ele>
        <time>2011-10-15T06:15:27Z</time>
      </trkpt>
      <trkpt lat="45.168" lon="4.17357">
        <ele>702.86</ele>
        <time>2011-10-15T06:15:32Z</time>
      </trkpt>
      <trkpt lat="45.16818" lon="4.17331">
        <ele>700.46</ele>
        <time>2011-10-15T06:15:35Z</time>
      </trkpt>
      <trkpt lat="45.16826" lon="4.17324">
        <ele>700.46</ele>
        <time>2011-10-15T06:15:36Z</time>
      </trkpt>
      <trkpt lat="45.16841" lon="4.17313">
        <ele>700.46</ele>
        <time>2011-10-15T06:15:38Z</time>
      </trkpt>
      <trkpt lat="45.16849" lon="4.1731">
        <ele>700.46</ele>
        <time>2011-10-15T06:15:39Z</time>
      </trkpt>
      <trkpt lat="45.16875" lon="4.17303">
        <ele>699.98</ele>
        <time>2011-10-15T06:15:42Z</time>
      </trkpt>
      <trkpt lat="45.16884" lon="4.17299">
        <ele>699.98</ele>
        <time>2011-10-15T06:15:43Z</time>
      </trkpt>
      <trkpt lat="45.16913" lon="4.17285">
        <ele>699.98</ele>
        <time>2011-10-15T06:15:46Z</time>
      </trkpt>
      <trkpt lat="45.16921" lon="4.17285">
        <ele>699.98</ele>
        <time>2011-10-15T06:15:47Z</time>
      </trkpt>
      <trkpt lat="45.16928" lon="4.17286">
        <ele>699.98</ele>
        <time>2011-10-15T06:15:48Z</time>
      </trkpt>
      <trkpt lat="45.16935" lon="4.17289">
        <ele>699.98</ele>
        <time>2011-10-15T06:15:49Z</time>
      </trkpt>
      <trkpt lat="45.16941" lon="4.17294">
        <ele>700.46</ele>
        <time>2011-10-15T06:15:50Z</time>
      </trkpt>
      <trkpt lat="45.16945" lon="4.17301">
        <ele>700.46</ele>
        <time>2011-10-15T06:15:51Z</time>
      </trkpt>
      <trkpt lat="45.16946" lon="4.1731">
        <ele>699.5</ele>
        <time>2011-10-15T06:15:52Z</time>
      </trkpt>
      <trkpt lat="45.16947" lon="4.17318">
        <ele>699.5</ele>
        <time>2011-10-15T06:15:53Z</time>
      </trkpt>
      <trkpt lat="45.16948" lon="4.17326">
        <ele>699.5</ele>
        <time>2011-10-15T06:15:54Z</time>
      </trkpt>
      <trkpt lat="45.16965" lon="4.17403">
        <ele>699.02</ele>
        <time>2011-10-15T06:16:06Z</time>
      </trkpt>
      <trkpt lat="45.16967" lon="4.17405">
        <ele>699.02</ele>
        <time>2011-10-15T06:16:07Z</time>
      </trkpt>
      <trkpt lat="45.1697" lon="4.17406">
        <ele>699.02</ele>
        <time>2011-10-15T06:16:08Z</time>
      </trkpt>
      <trkpt lat="45.16973" lon="4.17406">
        <ele>698.53</ele>
        <time>2011-10-15T06:16:09Z</time>
      </trkpt>
      <trkpt lat="45.16976" lon="4.17405">
        <ele>698.53</ele>
        <time>2011-10-15T06:16:10Z</time>
      </trkpt>
      <trkpt lat="45.16978" lon="4.17404">
        <ele>699.02</ele>
        <time>2011-10-15T06:16:11Z</time>
      </trkpt>
      <trkpt lat="45.17004" lon="4.17398">
        <ele>700.94</ele>
        <time>2011-10-15T06:16:23Z</time>
      </trkpt>
      <trkpt lat="45.17006" lon="4.17398">
        <ele>700.94</ele>
        <time>2011-10-15T06:16:24Z</time>
      </trkpt>
      <trkpt lat="45.17008" lon="4.174">
        <ele>701.42</ele>
        <time>2011-10-15T06:16:25Z</time>
      </trkpt>
      <trkpt lat="45.1701" lon="4.17401">
        <ele>701.42</ele>
        <time>2011-10-15T06:16:26Z</time>
      </trkpt>
      <trkpt lat="45.17024" lon="4.17409">
        <ele>701.9</ele>
        <time>2011-10-15T06:16:34Z</time>
      </trkpt>
      <trkpt lat="45.17026" lon="4.17409">
        <ele>701.9</ele>
        <time>2011-10-15T06:16:35Z</time>
      </trkpt>
      <trkpt lat="45.17028" lon="4.1741">
        <ele>701.9</ele>
        <time>2011-10-15T06:16:36Z</time>
      </trkpt>
      <trkpt lat="45.1703" lon="4.17411">
        <ele>702.38</ele>
        <time>2011-10-15T06:16:37Z</time>
      </trkpt>
      <trkpt lat="45.17034" lon="4.17412">
        <ele>702.86</ele>
        <time>2011-10-15T06:16:39Z</time>
      </trkpt>
      <trkpt lat="45.17045" lon="4.1741">
        <ele>703.34</ele>
        <time>2011-10-15T06:16:45Z</time>
      </trkpt>
      <trkpt lat="45.17048" lon="4.17409">
        <ele>703.34</ele>
        <time>2011-10-15T06:16:46Z</time>
      </trkpt>
      <trkpt lat="45.17051" lon="4.17408">
        <ele>703.34</ele>
        <time>2011-10-15T06:16:47Z</time>
      </trkpt>
      <trkpt lat="45.17053" lon="4.17406">
        <ele>702.86</ele>
        <time>2011-10-15T06:16:48Z</time>
      </trkpt>
      <trkpt lat="45.17055" lon="4.17404">
        <ele>702.86</ele>
        <time>2011-10-15T06:16:49Z</time>
      </trkpt>
      <trkpt lat="45.17057" lon="4.17402">
        <ele>702.86</ele>
        <time>2011-10-15T06:16:50Z</time>
      </trkpt>
      <trkpt lat="45.1706" lon="4.174">
        <ele>702.38</ele>
        <time>2011-10-15T06:16:51Z</time>
      </trkpt>
      <trkpt lat="45.17062" lon="4.17398">
        <ele>702.86</ele>
        <time>2011-10-15T06:16:52Z</time>
      </trkpt>
      <trkpt lat="45.17064" lon="4.17396">
        <ele>702.86</ele>
        <time>2011-10-15T06:16:53Z</time>
      </trkpt>
      <trkpt lat="45.17066" lon="4.17395">
        <ele>702.86</ele>
        <time>2011-10-15T06:16:54Z</time>
      </trkpt>
      <trkpt lat="45.17068" lon="4.17394">
        <ele>702.86</ele>
        <time>2011-10-15T06:16:55Z</time>
      </trkpt>
      <trkpt lat="45.17069" lon="4.17393">
        <ele>702.86</ele>
        <time>2011-10-15T06:16:56Z</time>
      </trkpt>
      <trkpt lat="45.17071" lon="4.17391">
        <ele>703.34</ele>
        <time>2011-10-15T06:16:57Z</time>
      </trkpt>
      <trkpt lat="45.17078" lon="4.17387">
        <ele>702.86</ele>
        <time>2011-10-15T06:17:00Z</time>
      </trkpt>
      <trkpt lat="45.17082" lon="4.17384">
        <ele>703.82</ele>
        <time>2011-10-15T06:17:02Z</time>
      </trkpt>
      <trkpt lat="45.17084" lon="4.17382">
        <ele>704.3</ele>
        <time>2011-10-15T06:17:03Z</time>
      </trkpt>
      <trkpt lat="45.17086" lon="4.1738">
        <ele>704.78</ele>
        <time>2011-10-15T06:17:04Z</time>
      </trkpt>
      <trkpt lat="45.17088" lon="4.17379">
        <ele>705.26</ele>
        <time>2011-10-15T06:17:05Z</time>
      </trkpt>
      <trkpt lat="45.17089" lon="4.17376">
        <ele>705.26</ele>
        <time>2011-10-15T06:17:06Z</time>
      </trkpt>
      <trkpt lat="45.17091" lon="4.17374">
        <ele>705.75</ele>
        <time>2011-10-15T06:17:07Z</time>
      </trkpt>
      <trkpt lat="45.17092" lon="4.17373">
        <ele>706.23</ele>
        <time>2011-10-15T06:17:08Z</time>
      </trkpt>
      <trkpt lat="45.17094" lon="4.1737">
        <ele>706.23</ele>
        <time>2011-10-15T06:17:09Z</time>
      </trkpt>
      <trkpt lat="45.17097" lon="4.17367">
        <ele>706.23</ele>
        <time>2011-10-15T06:17:11Z</time>
      </trkpt>
      <trkpt lat="45.17099" lon="4.17366">
        <ele>706.71</ele>
        <time>2011-10-15T06:17:12Z</time>
      </trkpt>
      <trkpt lat="45.171" lon="4.17365">
        <ele>706.71</ele>
        <time>2011-10-15T06:17:13Z</time>
      </trkpt>
      <trkpt lat="45.17101" lon="4.17364">
        <ele>706.71</ele>
        <time>2011-10-15T06:17:14Z</time>
      </trkpt>
      <trkpt lat="45.17118" lon="4.17359">
        <ele>708.15</ele>
        <time>2011-10-15T06:17:24Z</time>
      </trkpt>
      <trkpt lat="45.17122" lon="4.17359">
        <ele>708.15</ele>
        <time>2011-10-15T06:17:27Z</time>
      </trkpt>
      <trkpt lat="45.17123" lon="4.17359">
        <ele>708.15</ele>
        <time>2011-10-15T06:17:28Z</time>
      </trkpt>
      <trkpt lat="45.17126" lon="4.17359">
        <ele>708.63</ele>
        <time>2011-10-15T06:17:30Z</time>
      </trkpt>
      <trkpt lat="45.17127" lon="4.17359">
        <ele>708.15</ele>
        <time>2011-10-15T06:17:31Z</time>
      </trkpt>
      <trkpt lat="45.17128" lon="4.17359">
        <ele>708.15</ele>
        <time>2011-10-15T06:17:32Z</time>
      </trkpt>
      <trkpt lat="45.1713" lon="4.17359">
        <ele>708.15</ele>
        <time>2011-10-15T06:17:33Z</time>
      </trkpt>
      <trkpt lat="45.17131" lon="4.17359">
        <ele>708.63</ele>
        <time>2011-10-15T06:17:34Z</time>
      </trkpt>
      <trkpt lat="45.17134" lon="4.17358">
        <ele>708.63</ele>
        <time>2011-10-15T06:17:36Z</time>
      </trkpt>
      <trkpt lat="45.17135" lon="4.17359">
        <ele>708.63</ele>
        <time>2011-10-15T06:17:37Z</time>
      </trkpt>
      <trkpt lat="45.17137" lon="4.17359">
        <ele>708.63</ele>
        <time>2011-10-15T06:17:38Z</time>
      </trkpt>
      <trkpt lat="45.17139" lon="4.1736">
        <ele>708.63</ele>
        <time>2011-10-15T06:17:39Z</time>
      </trkpt>
      <trkpt lat="45.1714" lon="4.17359">
        <ele>708.63</ele>
        <time>2011-10-15T06:17:40Z</time>
      </trkpt>
      <trkpt lat="45.17148" lon="4.17354">
        <ele>710.55</ele>
        <time>2011-10-15T06:17:47Z</time>
      </trkpt>
      <trkpt lat="45.1715" lon="4.17354">
        <ele>710.55</ele>
        <time>2011-10-15T06:17:48Z</time>
      </trkpt>
      <trkpt lat="45.17151" lon="4.17352">
        <ele>710.55</ele>
        <time>2011-10-15T06:17:49Z</time>
      </trkpt>
      <trkpt lat="45.17156" lon="4.17351">
        <ele>710.55</ele>
        <time>2011-10-15T06:17:53Z</time>
      </trkpt>
      <trkpt lat="45.17157" lon="4.1735">
        <ele>710.55</ele>
        <time>2011-10-15T06:17:54Z</time>
      </trkpt>
      <trkpt lat="45.17159" lon="4.1735">
        <ele>710.55</ele>
        <time>2011-10-15T06:17:55Z</time>
      </trkpt>
      <trkpt lat="45.17175" lon="4.17344">
        <ele>712.47</ele>
        <time>2011-10-15T06:18:05Z</time>
      </trkpt>
      <trkpt lat="45.17177" lon="4.17343">
        <ele>712.47</ele>
        <time>2011-10-15T06:18:13Z</time>
      </trkpt>
      <trkpt lat="45.17179" lon="4.17342">
        <ele>712.95</ele>
        <time>2011-10-15T06:18:14Z</time>
      </trkpt>
      <trkpt lat="45.1718" lon="4.17341">
        <ele>712.95</ele>
        <time>2011-10-15T06:18:15Z</time>
      </trkpt>
      <trkpt lat="45.17184" lon="4.17341">
        <ele>713.92</ele>
        <time>2011-10-15T06:18:18Z</time>
      </trkpt>
      <trkpt lat="45.17196" lon="4.17332">
        <ele>716.8</ele>
        <time>2011-10-15T06:18:26Z</time>
      </trkpt>
      <trkpt lat="45.17198" lon="4.17331">
        <ele>716.8</ele>
        <time>2011-10-15T06:18:27Z</time>
      </trkpt>
      <trkpt lat="45.17199" lon="4.17331">
        <ele>716.32</ele>
        <time>2011-10-15T06:18:28Z</time>
      </trkpt>
      <trkpt lat="45.172" lon="4.17331">
        <ele>715.84</ele>
        <time>2011-10-15T06:18:29Z</time>
      </trkpt>
      <trkpt lat="45.17202" lon="4.17331">
        <ele>715.36</ele>
        <time>2011-10-15T06:18:30Z</time>
      </trkpt>
      <trkpt lat="45.17213" lon="4.17323">
        <ele>715.36</ele>
        <time>2011-10-15T06:18:37Z</time>
      </trkpt>
      <trkpt lat="45.17214" lon="4.17322">
        <ele>714.88</ele>
        <time>2011-10-15T06:18:38Z</time>
      </trkpt>
      <trkpt lat="45.17216" lon="4.1732">
        <ele>715.36</ele>
        <time>2011-10-15T06:18:39Z</time>
      </trkpt>
      <trkpt lat="45.17217" lon="4.17318">
        <ele>715.36</ele>
        <time>2011-10-15T06:18:40Z</time>
      </trkpt>
      <trkpt lat="45.17219" lon="4.17317">
        <ele>715.84</ele>
        <time>2011-10-15T06:18:41Z</time>
      </trkpt>
      <trkpt lat="45.1722" lon="4.17315">
        <ele>715.84</ele>
        <time>2011-10-15T06:18:42Z</time>
      </trkpt>
      <trkpt lat="45.17222" lon="4.17314">
        <ele>716.32</ele>
        <time>2011-10-15T06:18:43Z</time>
      </trkpt>
      <trkpt lat="45.17223" lon="4.17313">
        <ele>716.32</ele>
        <time>2011-10-15T06:18:44Z</time>
      </trkpt>
      <trkpt lat="45.17224" lon="4.17312">
        <ele>716.32</ele>
        <time>2011-10-15T06:18:45Z</time>
      </trkpt>
      <trkpt lat="45.17226" lon="4.17311">
        <ele>716.8</ele>
        <time>2011-10-15T06:18:46Z</time>
      </trkpt>
      <trkpt lat="45.17228" lon="4.17309">
        <ele>717.28</ele>
        <time>2011-10-15T06:18:47Z</time>
      </trkpt>
      <trkpt lat="45.17229" lon="4.17308">
        <ele>717.76</ele>
        <time>2011-10-15T06:18:48Z</time>
      </trkpt>
      <trkpt lat="45.17231" lon="4.17307">
        <ele>717.76</ele>
        <time>2011-10-15T06:18:49Z</time>
      </trkpt>
      <trkpt lat="45.17232" lon="4.17306">
        <ele>717.76</ele>
        <time>2011-10-15T06:18:50Z</time>
      </trkpt>
      <trkpt lat="45.17234" lon="4.17304">
        <ele>718.24</ele>
        <time>2011-10-15T06:18:51Z</time>
      </trkpt>
      <trkpt lat="45.17235" lon="4.17303">
        <ele>718.72</ele>
        <time>2011-10-15T06:18:52Z</time>
      </trkpt>
      <trkpt lat="45.17237" lon="4.17302">
        <ele>719.2</ele>
        <time>2011-10-15T06:18:53Z</time>
      </trkpt>
      <trkpt lat="45.17239" lon="4.17301">
        <ele>719.68</ele>
        <time>2011-10-15T06:18:54Z</time>
      </trkpt>
      <trkpt lat="45.17258" lon="4.17278">
        <ele>724.01</ele>
        <time>2011-10-15T06:19:06Z</time>
      </trkpt>
      <trkpt lat="45.17269" lon="4.17259">
        <ele>725.45</ele>
        <time>2011-10-15T06:19:16Z</time>
      </trkpt>
      <trkpt lat="45.1727" lon="4.17257">
        <ele>725.93</ele>
        <time>2011-10-15T06:19:17Z</time>
      </trkpt>
      <trkpt lat="45.17271" lon="4.17255">
        <ele>725.93</ele>
        <time>2011-10-15T06:19:18Z</time>
      </trkpt>
      <trkpt lat="45.17272" lon="4.17253">
        <ele>726.41</ele>
        <time>2011-10-15T06:19:19Z</time>
      </trkpt>
      <trkpt lat="45.17276" lon="4.17238">
        <ele>728.82</ele>
        <time>2011-10-15T06:19:29Z</time>
      </trkpt>
      <trkpt lat="45.17282" lon="4.17227">
        <ele>733.14</ele>
        <time>2011-10-15T06:19:41Z</time>
      </trkpt>
      <trkpt lat="45.17282" lon="4.17221">
        <ele>735.55</ele>
        <time>2011-10-15T06:19:48Z</time>
      </trkpt>
      <trkpt lat="45.17285" lon="4.17216">
        <ele>736.99</ele>
        <time>2011-10-15T06:19:59Z</time>
      </trkpt>
      <trkpt lat="45.17287" lon="4.17209">
        <ele>738.91</ele>
        <time>2011-10-15T06:20:03Z</time>
      </trkpt>
      <trkpt lat="45.17287" lon="4.17207">
        <ele>738.91</ele>
        <time>2011-10-15T06:20:04Z</time>
      </trkpt>
      <trkpt lat="45.17287" lon="4.17204">
        <ele>739.39</ele>
        <time>2011-10-15T06:20:05Z</time>
      </trkpt>
      <trkpt lat="45.17288" lon="4.17202">
        <ele>739.39</ele>
        <time>2011-10-15T06:20:06Z</time>
      </trkpt>
      <trkpt lat="45.17288" lon="4.172">
        <ele>739.39</ele>
        <time>2011-10-15T06:20:07Z</time>
      </trkpt>
      <trkpt lat="45.17289" lon="4.17198">
        <ele>739.87</ele>
        <time>2011-10-15T06:20:08Z</time>
      </trkpt>
      <trkpt lat="45.17289" lon="4.17185">
        <ele>742.28</ele>
        <time>2011-10-15T06:20:13Z</time>
      </trkpt>
      <trkpt lat="45.17289" lon="4.17183">
        <ele>742.28</ele>
        <time>2011-10-15T06:20:14Z</time>
      </trkpt>
      <trkpt lat="45.1729" lon="4.17181">
        <ele>742.28</ele>
        <time>2011-10-15T06:20:15Z</time>
      </trkpt>
      <trkpt lat="45.17292" lon="4.17175">
        <ele>742.76</ele>
        <time>2011-10-15T06:20:18Z</time>
      </trkpt>
      <trkpt lat="45.17293" lon="4.17173">
        <ele>742.76</ele>
        <time>2011-10-15T06:20:19Z</time>
      </trkpt>
      <trkpt lat="45.17293" lon="4.1717">
        <ele>742.76</ele>
        <time>2011-10-15T06:20:20Z</time>
      </trkpt>
      <trkpt lat="45.17295" lon="4.17155">
        <ele>743.24</ele>
        <time>2011-10-15T06:20:27Z</time>
      </trkpt>
      <trkpt lat="45.17296" lon="4.17153">
        <ele>743.24</ele>
        <time>2011-10-15T06:20:28Z</time>
      </trkpt>
      <trkpt lat="45.17298" lon="4.17151">
        <ele>743.72</ele>
        <time>2011-10-15T06:20:29Z</time>
      </trkpt>
      <trkpt lat="45.17299" lon="4.17149">
        <ele>744.2</ele>
        <time>2011-10-15T06:20:30Z</time>
      </trkpt>
      <trkpt lat="45.173" lon="4.17146">
        <ele>744.68</ele>
        <time>2011-10-15T06:20:31Z</time>
      </trkpt>
      <trkpt lat="45.173" lon="4.17144">
        <ele>745.64</ele>
        <time>2011-10-15T06:20:32Z</time>
      </trkpt>
      <trkpt lat="45.17301" lon="4.17141">
        <ele>745.64</ele>
        <time>2011-10-15T06:20:33Z</time>
      </trkpt>
      <trkpt lat="45.17302" lon="4.1714">
        <ele>746.12</ele>
        <time>2011-10-15T06:20:34Z</time>
      </trkpt>
      <trkpt lat="45.17303" lon="4.17138">
        <ele>746.6</ele>
        <time>2011-10-15T06:20:35Z</time>
      </trkpt>
      <trkpt lat="45.17308" lon="4.17135">
        <ele>747.56</ele>
        <time>2011-10-15T06:20:42Z</time>
      </trkpt>
      <trkpt lat="45.17319" lon="4.17134">
        <ele>748.04</ele>
        <time>2011-10-15T06:20:50Z</time>
      </trkpt>
      <trkpt lat="45.17322" lon="4.17134">
        <ele>748.52</ele>
        <time>2011-10-15T06:20:52Z</time>
      </trkpt>
      <trkpt lat="45.17343" lon="4.17147">
        <ele>746.12</ele>
        <time>2011-10-15T06:21:03Z</time>
      </trkpt>
      <trkpt lat="45.1736" lon="4.1717">
        <ele>744.2</ele>
        <time>2011-10-15T06:21:15Z</time>
      </trkpt>
      <trkpt lat="45.17369" lon="4.17185">
        <ele>743.72</ele>
        <time>2011-10-15T06:21:23Z</time>
      </trkpt>
      <trkpt lat="45.1737" lon="4.17188">
        <ele>743.72</ele>
        <time>2011-10-15T06:21:24Z</time>
      </trkpt>
      <trkpt lat="45.17371" lon="4.17191">
        <ele>743.24</ele>
        <time>2011-10-15T06:21:25Z</time>
      </trkpt>
      <trkpt lat="45.17372" lon="4.17193">
        <ele>743.24</ele>
        <time>2011-10-15T06:21:26Z</time>
      </trkpt>
      <trkpt lat="45.17371" lon="4.17213">
        <ele>743.24</ele>
        <time>2011-10-15T06:21:34Z</time>
      </trkpt>
      <trkpt lat="45.17375" lon="4.1723">
        <ele>743.72</ele>
        <time>2011-10-15T06:21:40Z</time>
      </trkpt>
      <trkpt lat="45.17392" lon="4.17258">
        <ele>744.68</ele>
        <time>2011-10-15T06:21:52Z</time>
      </trkpt>
      <trkpt lat="45.17394" lon="4.17264">
        <ele>744.2</ele>
        <time>2011-10-15T06:21:55Z</time>
      </trkpt>
      <trkpt lat="45.17398" lon="4.17285">
        <ele>738.43</ele>
        <time>2011-10-15T06:22:06Z</time>
      </trkpt>
      <trkpt lat="45.17433" lon="4.17289">
        <ele>741.31</ele>
        <time>2011-10-15T06:22:17Z</time>
      </trkpt>
      <trkpt lat="45.17475" lon="4.17279">
        <ele>746.12</ele>
        <time>2011-10-15T06:22:30Z</time>
      </trkpt>
      <trkpt lat="45.17508" lon="4.17274">
        <ele>749.97</ele>
        <time>2011-10-15T06:22:40Z</time>
      </trkpt>
      <trkpt lat="45.17541" lon="4.17262">
        <ele>754.29</ele>
        <time>2011-10-15T06:22:52Z</time>
      </trkpt>
      <trkpt lat="45.17575" lon="4.17246">
        <ele>756.69</ele>
        <time>2011-10-15T06:23:03Z</time>
      </trkpt>
      <trkpt lat="45.17605" lon="4.1724">
        <ele>760.06</ele>
        <time>2011-10-15T06:23:14Z</time>
      </trkpt>
      <trkpt lat="45.17633" lon="4.17266">
        <ele>759.1</ele>
        <time>2011-10-15T06:23:27Z</time>
      </trkpt>
      <trkpt lat="45.17657" lon="4.17298">
        <ele>753.33</ele>
        <time>2011-10-15T06:23:40Z</time>
      </trkpt>
      <trkpt lat="45.17684" lon="4.17329">
        <ele>757.18</ele>
        <time>2011-10-15T06:23:52Z</time>
      </trkpt>
      <trkpt lat="45.17686" lon="4.17332">
        <ele>757.18</ele>
        <time>2011-10-15T06:23:53Z</time>
      </trkpt>
      <trkpt lat="45.17714" lon="4.17365">
        <ele>762.46</ele>
        <time>2011-10-15T06:24:05Z</time>
      </trkpt>
      <trkpt lat="45.17752" lon="4.17372">
        <ele>769.19</ele>
        <time>2011-10-15T06:24:17Z</time>
      </trkpt>
      <trkpt lat="45.17759" lon="4.1737">
        <ele>770.63</ele>
        <time>2011-10-15T06:24:20Z</time>
      </trkpt>
      <trkpt lat="45.17779" lon="4.1736">
        <ele>773.04</ele>
        <time>2011-10-15T06:24:29Z</time>
      </trkpt>
      <trkpt lat="45.17817" lon="4.17359">
        <ele>777.36</ele>
        <time>2011-10-15T06:24:42Z</time>
      </trkpt>
      <trkpt lat="45.17856" lon="4.17359">
        <ele>780.25</ele>
        <time>2011-10-15T06:24:55Z</time>
      </trkpt>
      <trkpt lat="45.17894" lon="4.1736">
        <ele>783.61</ele>
        <time>2011-10-15T06:25:08Z</time>
      </trkpt>
      <trkpt lat="45.17925" lon="4.1736">
        <ele>785.53</ele>
        <time>2011-10-15T06:25:21Z</time>
      </trkpt>
      <trkpt lat="45.17925" lon="4.17371">
        <ele>786.5</ele>
        <time>2011-10-15T06:25:26Z</time>
      </trkpt>
      <trkpt lat="45.17908" lon="4.17406">
        <ele>788.9</ele>
        <time>2011-10-15T06:25:39Z</time>
      </trkpt>
      <trkpt lat="45.17876" lon="4.17443">
        <ele>788.9</ele>
        <time>2011-10-15T06:25:52Z</time>
      </trkpt>
      <trkpt lat="45.17853" lon="4.17473">
        <ele>791.3</ele>
        <time>2011-10-15T06:26:02Z</time>
      </trkpt>
      <trkpt lat="45.17821" lon="4.17518">
        <ele>793.71</ele>
        <time>2011-10-15T06:26:17Z</time>
      </trkpt>
      <trkpt lat="45.17797" lon="4.17536">
        <ele>795.15</ele>
        <time>2011-10-15T06:26:29Z</time>
      </trkpt>
      <trkpt lat="45.17776" lon="4.17546">
        <ele>798.51</ele>
        <time>2011-10-15T06:26:42Z</time>
      </trkpt>
      <trkpt lat="45.17772" lon="4.17548">
        <ele>798.03</ele>
        <time>2011-10-15T06:26:44Z</time>
      </trkpt>
      <trkpt lat="45.17764" lon="4.17557">
        <ele>797.55</ele>
        <time>2011-10-15T06:26:49Z</time>
      </trkpt>
      <trkpt lat="45.17739" lon="4.17578">
        <ele>799.95</ele>
        <time>2011-10-15T06:27:02Z</time>
      </trkpt>
      <trkpt lat="45.17712" lon="4.17603">
        <ele>800.92</ele>
        <time>2011-10-15T06:27:15Z</time>
      </trkpt>
      <trkpt lat="45.17695" lon="4.17619">
        <ele>800.44</ele>
        <time>2011-10-15T06:27:23Z</time>
      </trkpt>
      <trkpt lat="45.17682" lon="4.17627">
        <ele>801.4</ele>
        <time>2011-10-15T06:27:34Z</time>
      </trkpt>
      <trkpt lat="45.17681" lon="4.17627">
        <ele>800.92</ele>
        <time>2011-10-15T06:27:35Z</time>
      </trkpt>
      <trkpt lat="45.17665" lon="4.1763">
        <ele>802.84</ele>
        <time>2011-10-15T06:27:41Z</time>
      </trkpt>
      <trkpt lat="45.17657" lon="4.17632">
        <ele>803.32</ele>
        <time>2011-10-15T06:27:45Z</time>
      </trkpt>
      <trkpt lat="45.17624" lon="4.1764">
        <ele>807.64</ele>
        <time>2011-10-15T06:28:00Z</time>
      </trkpt>
      <trkpt lat="45.17601" lon="4.17645">
        <ele>812.45</ele>
        <time>2011-10-15T06:28:13Z</time>
      </trkpt>
      <trkpt lat="45.17575" lon="4.17641">
        <ele>815.82</ele>
        <time>2011-10-15T06:28:28Z</time>
      </trkpt>
      <trkpt lat="45.17554" lon="4.17652">
        <ele>817.26</ele>
        <time>2011-10-15T06:28:40Z</time>
      </trkpt>
      <trkpt lat="45.17535" lon="4.17669">
        <ele>819.18</ele>
        <time>2011-10-15T06:28:52Z</time>
      </trkpt>
      <trkpt lat="45.17519" lon="4.17697">
        <ele>821.58</ele>
        <time>2011-10-15T06:29:06Z</time>
      </trkpt>
      <trkpt lat="45.17506" lon="4.17726">
        <ele>822.06</ele>
        <time>2011-10-15T06:29:19Z</time>
      </trkpt>
      <trkpt lat="45.17501" lon="4.17738">
        <ele>823.03</ele>
        <time>2011-10-15T06:29:24Z</time>
      </trkpt>
      <trkpt lat="45.17499" lon="4.17781">
        <ele>825.91</ele>
        <time>2011-10-15T06:29:38Z</time>
      </trkpt>
      <trkpt lat="45.17502" lon="4.17823">
        <ele>828.31</ele>
        <time>2011-10-15T06:29:51Z</time>
      </trkpt>
      <trkpt lat="45.17503" lon="4.17859">
        <ele>830.72</ele>
        <time>2011-10-15T06:30:03Z</time>
      </trkpt>
      <trkpt lat="45.17502" lon="4.17871">
        <ele>832.16</ele>
        <time>2011-10-15T06:30:08Z</time>
      </trkpt>
      <trkpt lat="45.17517" lon="4.17912">
        <ele>832.16</ele>
        <time>2011-10-15T06:30:21Z</time>
      </trkpt>
      <trkpt lat="45.17546" lon="4.17969">
        <ele>831.68</ele>
        <time>2011-10-15T06:30:35Z</time>
      </trkpt>
      <trkpt lat="45.17578" lon="4.18075">
        <ele>829.76</ele>
        <time>2011-10-15T06:30:53Z</time>
      </trkpt>
      <trkpt lat="45.17592" lon="4.18109">
        <ele>829.27</ele>
        <time>2011-10-15T06:30:58Z</time>
      </trkpt>
      <trkpt lat="45.17595" lon="4.18115">
        <ele>828.79</ele>
        <time>2011-10-15T06:30:59Z</time>
      </trkpt>
      <trkpt lat="45.176" lon="4.18121">
        <ele>828.79</ele>
        <time>2011-10-15T06:31:00Z</time>
      </trkpt>
      <trkpt lat="45.17604" lon="4.18127">
        <ele>828.79</ele>
        <time>2011-10-15T06:31:01Z</time>
      </trkpt>
      <trkpt lat="45.17609" lon="4.18132">
        <ele>828.31</ele>
        <time>2011-10-15T06:31:02Z</time>
      </trkpt>
      <trkpt lat="45.17671" lon="4.18206">
        <ele>826.87</ele>
        <time>2011-10-15T06:31:17Z</time>
      </trkpt>
      <trkpt lat="45.17727" lon="4.18294">
        <ele>822.06</ele>
        <time>2011-10-15T06:31:28Z</time>
      </trkpt>
      <trkpt lat="45.17736" lon="4.18307">
        <ele>822.06</ele>
        <time>2011-10-15T06:31:30Z</time>
      </trkpt>
      <trkpt lat="45.17741" lon="4.18312">
        <ele>822.55</ele>
        <time>2011-10-15T06:31:31Z</time>
      </trkpt>
      <trkpt lat="45.17743" lon="4.18317">
        <ele>822.55</ele>
        <time>2011-10-15T06:31:32Z</time>
      </trkpt>
      <trkpt lat="45.17744" lon="4.18322">
        <ele>823.03</ele>
        <time>2011-10-15T06:31:33Z</time>
      </trkpt>
      <trkpt lat="45.17744" lon="4.18328">
        <ele>823.03</ele>
        <time>2011-10-15T06:31:34Z</time>
      </trkpt>
      <trkpt lat="45.17745" lon="4.1837">
        <ele>823.51</ele>
        <time>2011-10-15T06:31:42Z</time>
      </trkpt>
      <trkpt lat="45.17745" lon="4.18376">
        <ele>823.51</ele>
        <time>2011-10-15T06:31:43Z</time>
      </trkpt>
      <trkpt lat="45.17746" lon="4.18382">
        <ele>823.03</ele>
        <time>2011-10-15T06:31:44Z</time>
      </trkpt>
      <trkpt lat="45.17746" lon="4.18387">
        <ele>823.51</ele>
        <time>2011-10-15T06:31:45Z</time>
      </trkpt>
      <trkpt lat="45.17747" lon="4.18392">
        <ele>823.51</ele>
        <time>2011-10-15T06:31:46Z</time>
      </trkpt>
      <trkpt lat="45.17754" lon="4.18465">
        <ele>824.95</ele>
        <time>2011-10-15T06:32:00Z</time>
      </trkpt>
      <trkpt lat="45.17775" lon="4.18542">
        <ele>821.58</ele>
        <time>2011-10-15T06:32:13Z</time>
      </trkpt>
      <trkpt lat="45.17791" lon="4.18601">
        <ele>819.18</ele>
        <time>2011-10-15T06:32:24Z</time>
      </trkpt>
      <trkpt lat="45.17792" lon="4.18607">
        <ele>818.7</ele>
        <time>2011-10-15T06:32:25Z</time>
      </trkpt>
      <trkpt lat="45.17793" lon="4.18614">
        <ele>817.74</ele>
        <time>2011-10-15T06:32:26Z</time>
      </trkpt>
      <trkpt lat="45.17793" lon="4.18622">
        <ele>817.26</ele>
        <time>2011-10-15T06:32:27Z</time>
      </trkpt>
      <trkpt lat="45.17795" lon="4.1863">
        <ele>816.3</ele>
        <time>2011-10-15T06:32:28Z</time>
      </trkpt>
      <trkpt lat="45.17797" lon="4.18637">
        <ele>815.34</ele>
        <time>2011-10-15T06:32:29Z</time>
      </trkpt>
      <trkpt lat="45.17801" lon="4.18645">
        <ele>814.37</ele>
        <time>2011-10-15T06:32:30Z</time>
      </trkpt>
      <trkpt lat="45.17804" lon="4.18652">
        <ele>813.41</ele>
        <time>2011-10-15T06:32:31Z</time>
      </trkpt>
      <trkpt lat="45.17846" lon="4.18736">
        <ele>808.13</ele>
        <time>2011-10-15T06:32:43Z</time>
      </trkpt>
      <trkpt lat="45.17866" lon="4.18771">
        <ele>805.72</ele>
        <time>2011-10-15T06:32:49Z</time>
      </trkpt>
      <trkpt lat="45.1787" lon="4.18777">
        <ele>805.24</ele>
        <time>2011-10-15T06:32:50Z</time>
      </trkpt>
      <trkpt lat="45.17896" lon="4.18824">
        <ele>800.92</ele>
        <time>2011-10-15T06:33:00Z</time>
      </trkpt>
      <trkpt lat="45.17899" lon="4.18834">
        <ele>798.99</ele>
        <time>2011-10-15T06:33:07Z</time>
      </trkpt>
      <trkpt lat="45.179" lon="4.18836">
        <ele>798.99</ele>
        <time>2011-10-15T06:33:08Z</time>
      </trkpt>
      <trkpt lat="45.17901" lon="4.18838">
        <ele>798.51</ele>
        <time>2011-10-15T06:33:09Z</time>
      </trkpt>
      <trkpt lat="45.17901" lon="4.18841">
        <ele>798.51</ele>
        <time>2011-10-15T06:33:10Z</time>
      </trkpt>
      <trkpt lat="45.17902" lon="4.18844">
        <ele>798.03</ele>
        <time>2011-10-15T06:33:11Z</time>
      </trkpt>
      <trkpt lat="45.17903" lon="4.18847">
        <ele>798.03</ele>
        <time>2011-10-15T06:33:12Z</time>
      </trkpt>
      <trkpt lat="45.17904" lon="4.1885">
        <ele>798.03</ele>
        <time>2011-10-15T06:33:13Z</time>
      </trkpt>
      <trkpt lat="45.17906" lon="4.18853">
        <ele>798.03</ele>
        <time>2011-10-15T06:33:14Z</time>
      </trkpt>
      <trkpt lat="45.17907" lon="4.18856">
        <ele>798.51</ele>
        <time>2011-10-15T06:33:15Z</time>
      </trkpt>
      <trkpt lat="45.17908" lon="4.18859">
        <ele>798.99</ele>
        <time>2011-10-15T06:33:16Z</time>
      </trkpt>
      <trkpt lat="45.1791" lon="4.18862">
        <ele>798.99</ele>
        <time>2011-10-15T06:33:17Z</time>
      </trkpt>
      <trkpt lat="45.17922" lon="4.18894">
        <ele>801.88</ele>
        <time>2011-10-15T06:33:29Z</time>
      </trkpt>
      <trkpt lat="45.17927" lon="4.18929">
        <ele>805.24</ele>
        <time>2011-10-15T06:33:41Z</time>
      </trkpt>
      <trkpt lat="45.17951" lon="4.18943">
        <ele>807.64</ele>
        <time>2011-10-15T06:33:53Z</time>
      </trkpt>
      <trkpt lat="45.1797" lon="4.18957">
        <ele>810.05</ele>
        <time>2011-10-15T06:34:03Z</time>
      </trkpt>
      <trkpt lat="45.17974" lon="4.18957">
        <ele>810.53</ele>
        <time>2011-10-15T06:34:05Z</time>
      </trkpt>
      <trkpt lat="45.17975" lon="4.18955">
        <ele>810.53</ele>
        <time>2011-10-15T06:34:06Z</time>
      </trkpt>
      <trkpt lat="45.17978" lon="4.18953">
        <ele>811.01</ele>
        <time>2011-10-15T06:34:07Z</time>
      </trkpt>
      <trkpt lat="45.17981" lon="4.1895">
        <ele>811.01</ele>
        <time>2011-10-15T06:34:08Z</time>
      </trkpt>
      <trkpt lat="45.17983" lon="4.18946">
        <ele>811.49</ele>
        <time>2011-10-15T06:34:09Z</time>
      </trkpt>
      <trkpt lat="45.17986" lon="4.18944">
        <ele>811.49</ele>
        <time>2011-10-15T06:34:10Z</time>
      </trkpt>
      <trkpt lat="45.1799" lon="4.18943">
        <ele>811.49</ele>
        <time>2011-10-15T06:34:11Z</time>
      </trkpt>
      <trkpt lat="45.18049" lon="4.18931">
        <ele>804.76</ele>
        <time>2011-10-15T06:34:21Z</time>
      </trkpt>
      <trkpt lat="45.18057" lon="4.18927">
        <ele>804.28</ele>
        <time>2011-10-15T06:34:22Z</time>
      </trkpt>
      <trkpt lat="45.18065" lon="4.18922">
        <ele>803.32</ele>
        <time>2011-10-15T06:34:23Z</time>
      </trkpt>
      <trkpt lat="45.18072" lon="4.18916">
        <ele>802.84</ele>
        <time>2011-10-15T06:34:24Z</time>
      </trkpt>
      <trkpt lat="45.18079" lon="4.18909">
        <ele>801.88</ele>
        <time>2011-10-15T06:34:25Z</time>
      </trkpt>
      <trkpt lat="45.18085" lon="4.18902">
        <ele>800.92</ele>
        <time>2011-10-15T06:34:26Z</time>
      </trkpt>
      <trkpt lat="45.1809" lon="4.18896">
        <ele>800.44</ele>
        <time>2011-10-15T06:34:27Z</time>
      </trkpt>
      <trkpt lat="45.18093" lon="4.18891">
        <ele>799.95</ele>
        <time>2011-10-15T06:34:28Z</time>
      </trkpt>
      <trkpt lat="45.18097" lon="4.18889">
        <ele>798.99</ele>
        <time>2011-10-15T06:34:29Z</time>
      </trkpt>
      <trkpt lat="45.18101" lon="4.18889">
        <ele>798.51</ele>
        <time>2011-10-15T06:34:30Z</time>
      </trkpt>
      <trkpt lat="45.18104" lon="4.18892">
        <ele>798.03</ele>
        <time>2011-10-15T06:34:31Z</time>
      </trkpt>
      <trkpt lat="45.18108" lon="4.18897">
        <ele>798.03</ele>
        <time>2011-10-15T06:34:32Z</time>
      </trkpt>
      <trkpt lat="45.1811" lon="4.18903">
        <ele>797.07</ele>
        <time>2011-10-15T06:34:33Z</time>
      </trkpt>
      <trkpt lat="45.18111" lon="4.18909">
        <ele>796.59</ele>
        <time>2011-10-15T06:34:34Z</time>
      </trkpt>
      <trkpt lat="45.18114" lon="4.18916">
        <ele>796.11</ele>
        <time>2011-10-15T06:34:35Z</time>
      </trkpt>
      <trkpt lat="45.18117" lon="4.18922">
        <ele>795.63</ele>
        <time>2011-10-15T06:34:36Z</time>
      </trkpt>
      <trkpt lat="45.18123" lon="4.18934">
        <ele>794.19</ele>
        <time>2011-10-15T06:34:38Z</time>
      </trkpt>
      <trkpt lat="45.18125" lon="4.18939">
        <ele>793.22</ele>
        <time>2011-10-15T06:34:39Z</time>
      </trkpt>
      <trkpt lat="45.18145" lon="4.18988">
        <ele>789.86</ele>
        <time>2011-10-15T06:34:49Z</time>
      </trkpt>
      <trkpt lat="45.18152" lon="4.19018">
        <ele>790.82</ele>
        <time>2011-10-15T06:34:54Z</time>
      </trkpt>
      <trkpt lat="45.18155" lon="4.19054">
        <ele>792.74</ele>
        <time>2011-10-15T06:35:00Z</time>
      </trkpt>
      <trkpt lat="45.18155" lon="4.19061">
        <ele>792.74</ele>
        <time>2011-10-15T06:35:01Z</time>
      </trkpt>
      <trkpt lat="45.18155" lon="4.19078">
        <ele>795.15</ele>
        <time>2011-10-15T06:35:04Z</time>
      </trkpt>
      <trkpt lat="45.18146" lon="4.1913">
        <ele>799.47</ele>
        <time>2011-10-15T06:35:13Z</time>
      </trkpt>
      <trkpt lat="45.18144" lon="4.19135">
        <ele>799.95</ele>
        <time>2011-10-15T06:35:14Z</time>
      </trkpt>
      <trkpt lat="45.18134" lon="4.19201">
        <ele>801.88</ele>
        <time>2011-10-15T06:35:25Z</time>
      </trkpt>
      <trkpt lat="45.18135" lon="4.19207">
        <ele>802.36</ele>
        <time>2011-10-15T06:35:26Z</time>
      </trkpt>
      <trkpt lat="45.18137" lon="4.19225">
        <ele>802.84</ele>
        <time>2011-10-15T06:35:29Z</time>
      </trkpt>
      <trkpt lat="45.1814" lon="4.19243">
        <ele>803.32</ele>
        <time>2011-10-15T06:35:32Z</time>
      </trkpt>
      <trkpt lat="45.18144" lon="4.1926">
        <ele>803.8</ele>
        <time>2011-10-15T06:35:35Z</time>
      </trkpt>
      <trkpt lat="45.18149" lon="4.19276">
        <ele>804.28</ele>
        <time>2011-10-15T06:35:38Z</time>
      </trkpt>
      <trkpt lat="45.18151" lon="4.1928">
        <ele>804.28</ele>
        <time>2011-10-15T06:35:39Z</time>
      </trkpt>
      <trkpt lat="45.18162" lon="4.19297">
        <ele>804.28</ele>
        <time>2011-10-15T06:35:43Z</time>
      </trkpt>
      <trkpt lat="45.18169" lon="4.19304">
        <ele>804.28</ele>
        <time>2011-10-15T06:35:45Z</time>
      </trkpt>
      <trkpt lat="45.18172" lon="4.19307">
        <ele>804.28</ele>
        <time>2011-10-15T06:35:46Z</time>
      </trkpt>
      <trkpt lat="45.18217" lon="4.19335">
        <ele>805.72</ele>
        <time>2011-10-15T06:35:57Z</time>
      </trkpt>
      <trkpt lat="45.18293" lon="4.19376">
        <ele>810.05</ele>
        <time>2011-10-15T06:36:15Z</time>
      </trkpt>
      <trkpt lat="45.18324" lon="4.19395">
        <ele>811.49</ele>
        <time>2011-10-15T06:36:23Z</time>
      </trkpt>
      <trkpt lat="45.18374" lon="4.19424">
        <ele>813.41</ele>
        <time>2011-10-15T06:36:38Z</time>
      </trkpt>
      <trkpt lat="45.18424" lon="4.19452">
        <ele>816.3</ele>
        <time>2011-10-15T06:36:54Z</time>
      </trkpt>
      <trkpt lat="45.18473" lon="4.19481">
        <ele>818.7</ele>
        <time>2011-10-15T06:37:09Z</time>
      </trkpt>
      <trkpt lat="45.18507" lon="4.19516">
        <ele>819.18</ele>
        <time>2011-10-15T06:37:21Z</time>
      </trkpt>
      <trkpt lat="45.18529" lon="4.19546">
        <ele>821.1</ele>
        <time>2011-10-15T06:37:31Z</time>
      </trkpt>
      <trkpt lat="45.18531" lon="4.19546">
        <ele>821.58</ele>
        <time>2011-10-15T06:37:32Z</time>
      </trkpt>
      <trkpt lat="45.18534" lon="4.19545">
        <ele>821.58</ele>
        <time>2011-10-15T06:37:33Z</time>
      </trkpt>
      <trkpt lat="45.18537" lon="4.19546">
        <ele>821.58</ele>
        <time>2011-10-15T06:37:34Z</time>
      </trkpt>
      <trkpt lat="45.18539" lon="4.19547">
        <ele>822.06</ele>
        <time>2011-10-15T06:37:35Z</time>
      </trkpt>
      <trkpt lat="45.18541" lon="4.19549">
        <ele>822.06</ele>
        <time>2011-10-15T06:37:36Z</time>
      </trkpt>
      <trkpt lat="45.18542" lon="4.19552">
        <ele>822.06</ele>
        <time>2011-10-15T06:37:37Z</time>
      </trkpt>
      <trkpt lat="45.18543" lon="4.19555">
        <ele>822.06</ele>
        <time>2011-10-15T06:37:38Z</time>
      </trkpt>
      <trkpt lat="45.1857" lon="4.19587">
        <ele>820.14</ele>
        <time>2011-10-15T06:37:49Z</time>
      </trkpt>
      <trkpt lat="45.18588" lon="4.19591">
        <ele>820.14</ele>
        <time>2011-10-15T06:37:55Z</time>
      </trkpt>
      <trkpt lat="45.18591" lon="4.19592">
        <ele>820.14</ele>
        <time>2011-10-15T06:37:56Z</time>
      </trkpt>
      <trkpt lat="45.18626" lon="4.19589">
        <ele>819.18</ele>
        <time>2011-10-15T06:38:06Z</time>
      </trkpt>
      <trkpt lat="45.18665" lon="4.19593">
        <ele>816.78</ele>
        <time>2011-10-15T06:38:17Z</time>
      </trkpt>
      <trkpt lat="45.18696" lon="4.19595">
        <ele>818.7</ele>
        <time>2011-10-15T06:38:25Z</time>
      </trkpt>
      <trkpt lat="45.18759" lon="4.19581">
        <ele>824.47</ele>
        <time>2011-10-15T06:38:40Z</time>
      </trkpt>
      <trkpt lat="45.18771" lon="4.19578">
        <ele>825.43</ele>
        <time>2011-10-15T06:38:44Z</time>
      </trkpt>
      <trkpt lat="45.18773" lon="4.1958">
        <ele>825.43</ele>
        <time>2011-10-15T06:38:45Z</time>
      </trkpt>
      <trkpt lat="45.18774" lon="4.19583">
        <ele>825.43</ele>
        <time>2011-10-15T06:38:46Z</time>
      </trkpt>
      <trkpt lat="45.18774" lon="4.19586">
        <ele>825.43</ele>
        <time>2011-10-15T06:38:47Z</time>
      </trkpt>
      <trkpt lat="45.18775" lon="4.19591">
        <ele>824.95</ele>
        <time>2011-10-15T06:38:48Z</time>
      </trkpt>
      <trkpt lat="45.18775" lon="4.19596">
        <ele>824.95</ele>
        <time>2011-10-15T06:38:49Z</time>
      </trkpt>
      <trkpt lat="45.18776" lon="4.19601">
        <ele>824.47</ele>
        <time>2011-10-15T06:38:50Z</time>
      </trkpt>
      <trkpt lat="45.18787" lon="4.19682">
        <ele>825.43</ele>
        <time>2011-10-15T06:39:07Z</time>
      </trkpt>
      <trkpt lat="45.18795" lon="4.19741">
        <ele>826.39</ele>
        <time>2011-10-15T06:39:20Z</time>
      </trkpt>
      <trkpt lat="45.18809" lon="4.19824">
        <ele>826.39</ele>
        <time>2011-10-15T06:39:36Z</time>
      </trkpt>
      <trkpt lat="45.18812" lon="4.1987">
        <ele>826.39</ele>
        <time>2011-10-15T06:39:44Z</time>
      </trkpt>
      <trkpt lat="45.18812" lon="4.19876">
        <ele>826.39</ele>
        <time>2011-10-15T06:39:45Z</time>
      </trkpt>
      <trkpt lat="45.18812" lon="4.19902">
        <ele>825.43</ele>
        <time>2011-10-15T06:39:49Z</time>
      </trkpt>
      <trkpt lat="45.18812" lon="4.19909">
        <ele>825.43</ele>
        <time>2011-10-15T06:39:50Z</time>
      </trkpt>
      <trkpt lat="45.18812" lon="4.19915">
        <ele>825.43</ele>
        <time>2011-10-15T06:39:51Z</time>
      </trkpt>
      <trkpt lat="45.18812" lon="4.19922">
        <ele>825.43</ele>
        <time>2011-10-15T06:39:52Z</time>
      </trkpt>
      <trkpt lat="45.18812" lon="4.1993">
        <ele>825.43</ele>
        <time>2011-10-15T06:39:53Z</time>
      </trkpt>
      <trkpt lat="45.18811" lon="4.19944">
        <ele>825.43</ele>
        <time>2011-10-15T06:39:55Z</time>
      </trkpt>
      <trkpt lat="45.1881" lon="4.19952">
        <ele>825.43</ele>
        <time>2011-10-15T06:39:56Z</time>
      </trkpt>
      <trkpt lat="45.1881" lon="4.19959">
        <ele>825.43</ele>
        <time>2011-10-15T06:39:57Z</time>
      </trkpt>
      <trkpt lat="45.18807" lon="4.19975">
        <ele>824.95</ele>
        <time>2011-10-15T06:39:59Z</time>
      </trkpt>
      <trkpt lat="45.18806" lon="4.19982">
        <ele>824.95</ele>
        <time>2011-10-15T06:40:00Z</time>
      </trkpt>
      <trkpt lat="45.188" lon="4.20059">
        <ele>823.99</ele>
        <time>2011-10-15T06:40:10Z</time>
      </trkpt>
      <trkpt lat="45.18796" lon="4.20086">
        <ele>823.99</ele>
        <time>2011-10-15T06:40:14Z</time>
      </trkpt>
      <trkpt lat="45.18791" lon="4.20111">
        <ele>823.99</ele>
        <time>2011-10-15T06:40:18Z</time>
      </trkpt>
      <trkpt lat="45.18784" lon="4.20146">
        <ele>824.47</ele>
        <time>2011-10-15T06:40:24Z</time>
      </trkpt>
      <trkpt lat="45.18785" lon="4.20151">
        <ele>824.95</ele>
        <time>2011-10-15T06:40:25Z</time>
      </trkpt>
      <trkpt lat="45.18787" lon="4.20155">
        <ele>824.95</ele>
        <time>2011-10-15T06:40:26Z</time>
      </trkpt>
      <trkpt lat="45.1879" lon="4.20158">
        <ele>824.95</ele>
        <time>2011-10-15T06:40:27Z</time>
      </trkpt>
      <trkpt lat="45.18793" lon="4.20162">
        <ele>824.95</ele>
        <time>2011-10-15T06:40:28Z</time>
      </trkpt>
      <trkpt lat="45.18796" lon="4.20166">
        <ele>825.43</ele>
        <time>2011-10-15T06:40:29Z</time>
      </trkpt>
      <trkpt lat="45.18798" lon="4.20171">
        <ele>825.43</ele>
        <time>2011-10-15T06:40:30Z</time>
      </trkpt>
      <trkpt lat="45.188" lon="4.20176">
        <ele>825.43</ele>
        <time>2011-10-15T06:40:31Z</time>
      </trkpt>
      <trkpt lat="45.18809" lon="4.20196">
        <ele>825.43</ele>
        <time>2011-10-15T06:40:35Z</time>
      </trkpt>
      <trkpt lat="45.18811" lon="4.20201">
        <ele>825.43</ele>
        <time>2011-10-15T06:40:36Z</time>
      </trkpt>
      <trkpt lat="45.18814" lon="4.20205">
        <ele>825.43</ele>
        <time>2011-10-15T06:40:37Z</time>
      </trkpt>
      <trkpt lat="45.1885" lon="4.20283">
        <ele>822.55</ele>
        <time>2011-10-15T06:40:49Z</time>
      </trkpt>
      <trkpt lat="45.18885" lon="4.2036">
        <ele>818.22</ele>
        <time>2011-10-15T06:40:57Z</time>
      </trkpt>
      <trkpt lat="45.18888" lon="4.20371">
        <ele>817.74</ele>
        <time>2011-10-15T06:40:58Z</time>
      </trkpt>
      <trkpt lat="45.18889" lon="4.20382">
        <ele>817.74</ele>
        <time>2011-10-15T06:40:59Z</time>
      </trkpt>
      <trkpt lat="45.18888" lon="4.20393">
        <ele>817.26</ele>
        <time>2011-10-15T06:41:00Z</time>
      </trkpt>
      <trkpt lat="45.18888" lon="4.20404">
        <ele>816.78</ele>
        <time>2011-10-15T06:41:01Z</time>
      </trkpt>
      <trkpt lat="45.18888" lon="4.20414">
        <ele>816.78</ele>
        <time>2011-10-15T06:41:02Z</time>
      </trkpt>
      <trkpt lat="45.18889" lon="4.20423">
        <ele>816.78</ele>
        <time>2011-10-15T06:41:03Z</time>
      </trkpt>
      <trkpt lat="45.18892" lon="4.20431">
        <ele>817.26</ele>
        <time>2011-10-15T06:41:04Z</time>
      </trkpt>
      <trkpt lat="45.18896" lon="4.20437">
        <ele>817.26</ele>
        <time>2011-10-15T06:41:05Z</time>
      </trkpt>
      <trkpt lat="45.189" lon="4.20442">
        <ele>816.78</ele>
        <time>2011-10-15T06:41:06Z</time>
      </trkpt>
      <trkpt lat="45.18904" lon="4.20447">
        <ele>816.78</ele>
        <time>2011-10-15T06:41:07Z</time>
      </trkpt>
      <trkpt lat="45.18909" lon="4.20451">
        <ele>816.78</ele>
        <time>2011-10-15T06:41:08Z</time>
      </trkpt>
      <trkpt lat="45.18914" lon="4.20455">
        <ele>816.78</ele>
        <time>2011-10-15T06:41:09Z</time>
      </trkpt>
      <trkpt lat="45.18949" lon="4.20469">
        <ele>819.18</ele>
        <time>2011-10-15T06:41:17Z</time>
      </trkpt>
      <trkpt lat="45.18953" lon="4.2047">
        <ele>819.18</ele>
        <time>2011-10-15T06:41:18Z</time>
      </trkpt>
      <trkpt lat="45.18957" lon="4.20471">
        <ele>820.14</ele>
        <time>2011-10-15T06:41:19Z</time>
      </trkpt>
      <trkpt lat="45.18996" lon="4.20481">
        <ele>822.55</ele>
        <time>2011-10-15T06:41:31Z</time>
      </trkpt>
      <trkpt lat="45.19024" lon="4.20507">
        <ele>823.99</ele>
        <time>2011-10-15T06:41:41Z</time>
      </trkpt>
      <trkpt lat="45.19059" lon="4.20511">
        <ele>825.43</ele>
        <time>2011-10-15T06:41:52Z</time>
      </trkpt>
      <trkpt lat="45.19067" lon="4.20514">
        <ele>825.91</ele>
        <time>2011-10-15T06:41:55Z</time>
      </trkpt>
      <trkpt lat="45.19069" lon="4.20515">
        <ele>825.91</ele>
        <time>2011-10-15T06:41:56Z</time>
      </trkpt>
      <trkpt lat="45.19071" lon="4.20516">
        <ele>825.91</ele>
        <time>2011-10-15T06:41:57Z</time>
      </trkpt>
      <trkpt lat="45.19073" lon="4.20516">
        <ele>825.91</ele>
        <time>2011-10-15T06:41:58Z</time>
      </trkpt>
      <trkpt lat="45.19075" lon="4.20518">
        <ele>825.91</ele>
        <time>2011-10-15T06:41:59Z</time>
      </trkpt>
      <trkpt lat="45.19077" lon="4.2052">
        <ele>825.43</ele>
        <time>2011-10-15T06:42:00Z</time>
      </trkpt>
      <trkpt lat="45.1908" lon="4.20521">
        <ele>825.43</ele>
        <time>2011-10-15T06:42:01Z</time>
      </trkpt>
      <trkpt lat="45.19083" lon="4.20523">
        <ele>825.43</ele>
        <time>2011-10-15T06:42:02Z</time>
      </trkpt>
      <trkpt lat="45.19086" lon="4.20525">
        <ele>825.43</ele>
        <time>2011-10-15T06:42:03Z</time>
      </trkpt>
      <trkpt lat="45.19103" lon="4.2054">
        <ele>824.95</ele>
        <time>2011-10-15T06:42:10Z</time>
      </trkpt>
      <trkpt lat="45.19105" lon="4.20544">
        <ele>824.47</ele>
        <time>2011-10-15T06:42:11Z</time>
      </trkpt>
      <trkpt lat="45.19105" lon="4.20547">
        <ele>823.99</ele>
        <time>2011-10-15T06:42:12Z</time>
      </trkpt>
      <trkpt lat="45.19107" lon="4.20551">
        <ele>823.51</ele>
        <time>2011-10-15T06:42:13Z</time>
      </trkpt>
      <trkpt lat="45.19111" lon="4.20553">
        <ele>824.95</ele>
        <time>2011-10-15T06:42:14Z</time>
      </trkpt>
      <trkpt lat="45.19114" lon="4.20556">
        <ele>825.43</ele>
        <time>2011-10-15T06:42:15Z</time>
      </trkpt>
      <trkpt lat="45.19148" lon="4.20588">
        <ele>825.91</ele>
        <time>2011-10-15T06:42:25Z</time>
      </trkpt>
      <trkpt lat="45.19152" lon="4.20592">
        <ele>825.91</ele>
        <time>2011-10-15T06:42:26Z</time>
      </trkpt>
      <trkpt lat="45.1916" lon="4.20598">
        <ele>824.47</ele>
        <time>2011-10-15T06:42:28Z</time>
      </trkpt>
      <trkpt lat="45.19164" lon="4.20601">
        <ele>823.99</ele>
        <time>2011-10-15T06:42:29Z</time>
      </trkpt>
      <trkpt lat="45.19168" lon="4.20605">
        <ele>823.51</ele>
        <time>2011-10-15T06:42:30Z</time>
      </trkpt>
      <trkpt lat="45.19171" lon="4.20609">
        <ele>823.03</ele>
        <time>2011-10-15T06:42:31Z</time>
      </trkpt>
      <trkpt lat="45.19175" lon="4.20615">
        <ele>822.06</ele>
        <time>2011-10-15T06:42:32Z</time>
      </trkpt>
      <trkpt lat="45.19179" lon="4.20621">
        <ele>821.58</ele>
        <time>2011-10-15T06:42:33Z</time>
      </trkpt>
      <trkpt lat="45.19182" lon="4.20628">
        <ele>821.1</ele>
        <time>2011-10-15T06:42:34Z</time>
      </trkpt>
      <trkpt lat="45.192" lon="4.20657">
        <ele>820.62</ele>
        <time>2011-10-15T06:42:39Z</time>
      </trkpt>
      <trkpt lat="45.19214" lon="4.20675">
        <ele>819.18</ele>
        <time>2011-10-15T06:42:43Z</time>
      </trkpt>
      <trkpt lat="45.19222" lon="4.20686">
        <ele>817.74</ele>
        <time>2011-10-15T06:42:46Z</time>
      </trkpt>
      <trkpt lat="45.19224" lon="4.20689">
        <ele>817.74</ele>
        <time>2011-10-15T06:42:47Z</time>
      </trkpt>
      <trkpt lat="45.19226" lon="4.20692">
        <ele>817.26</ele>
        <time>2011-10-15T06:42:48Z</time>
      </trkpt>
      <trkpt lat="45.19229" lon="4.20696">
        <ele>817.26</ele>
        <time>2011-10-15T06:42:49Z</time>
      </trkpt>
      <trkpt lat="45.19232" lon="4.20699">
        <ele>817.26</ele>
        <time>2011-10-15T06:42:50Z</time>
      </trkpt>
      <trkpt lat="45.19234" lon="4.20702">
        <ele>817.26</ele>
        <time>2011-10-15T06:42:51Z</time>
      </trkpt>
      <trkpt lat="45.19253" lon="4.20723">
        <ele>818.7</ele>
        <time>2011-10-15T06:43:01Z</time>
      </trkpt>
      <trkpt lat="45.19254" lon="4.20725">
        <ele>818.7</ele>
        <time>2011-10-15T06:43:02Z</time>
      </trkpt>
      <trkpt lat="45.19255" lon="4.20726">
        <ele>819.18</ele>
        <time>2011-10-15T06:43:03Z</time>
      </trkpt>
      <trkpt lat="45.19256" lon="4.20728">
        <ele>819.66</ele>
        <time>2011-10-15T06:43:04Z</time>
      </trkpt>
      <trkpt lat="45.19257" lon="4.20731">
        <ele>820.14</ele>
        <time>2011-10-15T06:43:05Z</time>
      </trkpt>
      <trkpt lat="45.19257" lon="4.20732">
        <ele>821.1</ele>
        <time>2011-10-15T06:43:06Z</time>
      </trkpt>
      <trkpt lat="45.19259" lon="4.20734">
        <ele>821.1</ele>
        <time>2011-10-15T06:43:07Z</time>
      </trkpt>
      <trkpt lat="45.1926" lon="4.20736">
        <ele>821.58</ele>
        <time>2011-10-15T06:43:08Z</time>
      </trkpt>
      <trkpt lat="45.19262" lon="4.20739">
        <ele>822.06</ele>
        <time>2011-10-15T06:43:09Z</time>
      </trkpt>
      <trkpt lat="45.19263" lon="4.20741">
        <ele>822.55</ele>
        <time>2011-10-15T06:43:10Z</time>
      </trkpt>
      <trkpt lat="45.19265" lon="4.20743">
        <ele>822.55</ele>
        <time>2011-10-15T06:43:11Z</time>
      </trkpt>
      <trkpt lat="45.19271" lon="4.20775">
        <ele>821.58</ele>
        <time>2011-10-15T06:43:20Z</time>
      </trkpt>
      <trkpt lat="45.19276" lon="4.20796">
        <ele>819.66</ele>
        <time>2011-10-15T06:43:24Z</time>
      </trkpt>
      <trkpt lat="45.19278" lon="4.20803">
        <ele>819.18</ele>
        <time>2011-10-15T06:43:25Z</time>
      </trkpt>
      <trkpt lat="45.1928" lon="4.2081">
        <ele>819.18</ele>
        <time>2011-10-15T06:43:26Z</time>
      </trkpt>
      <trkpt lat="45.19288" lon="4.20849">
        <ele>819.18</ele>
        <time>2011-10-15T06:43:31Z</time>
      </trkpt>
      <trkpt lat="45.19289" lon="4.20865">
        <ele>818.7</ele>
        <time>2011-10-15T06:43:33Z</time>
      </trkpt>
      <trkpt lat="45.19289" lon="4.20873">
        <ele>819.18</ele>
        <time>2011-10-15T06:43:34Z</time>
      </trkpt>
      <trkpt lat="45.19288" lon="4.20881">
        <ele>818.7</ele>
        <time>2011-10-15T06:43:35Z</time>
      </trkpt>
      <trkpt lat="45.19276" lon="4.20932">
        <ele>817.74</ele>
        <time>2011-10-15T06:43:41Z</time>
      </trkpt>
      <trkpt lat="45.19276" lon="4.2094">
        <ele>817.74</ele>
        <time>2011-10-15T06:43:42Z</time>
      </trkpt>
      <trkpt lat="45.19276" lon="4.20948">
        <ele>817.26</ele>
        <time>2011-10-15T06:43:43Z</time>
      </trkpt>
      <trkpt lat="45.19276" lon="4.20956">
        <ele>817.26</ele>
        <time>2011-10-15T06:43:44Z</time>
      </trkpt>
      <trkpt lat="45.19277" lon="4.20964">
        <ele>817.26</ele>
        <time>2011-10-15T06:43:45Z</time>
      </trkpt>
      <trkpt lat="45.19278" lon="4.20972">
        <ele>817.26</ele>
        <time>2011-10-15T06:43:46Z</time>
      </trkpt>
      <trkpt lat="45.1928" lon="4.2098">
        <ele>817.26</ele>
        <time>2011-10-15T06:43:47Z</time>
      </trkpt>
      <trkpt lat="45.19281" lon="4.20987">
        <ele>817.26</ele>
        <time>2011-10-15T06:43:48Z</time>
      </trkpt>
      <trkpt lat="45.1929" lon="4.21024">
        <ele>819.18</ele>
        <time>2011-10-15T06:43:53Z</time>
      </trkpt>
      <trkpt lat="45.19292" lon="4.2103">
        <ele>819.66</ele>
        <time>2011-10-15T06:43:54Z</time>
      </trkpt>
      <trkpt lat="45.19297" lon="4.21042">
        <ele>820.14</ele>
        <time>2011-10-15T06:43:56Z</time>
      </trkpt>
      <trkpt lat="45.19301" lon="4.21046">
        <ele>820.62</ele>
        <time>2011-10-15T06:43:57Z</time>
      </trkpt>
      <trkpt lat="45.19313" lon="4.21056">
        <ele>821.58</ele>
        <time>2011-10-15T06:44:00Z</time>
      </trkpt>
      <trkpt lat="45.19317" lon="4.21058">
        <ele>822.06</ele>
        <time>2011-10-15T06:44:01Z</time>
      </trkpt>
      <trkpt lat="45.19321" lon="4.21061">
        <ele>822.06</ele>
        <time>2011-10-15T06:44:02Z</time>
      </trkpt>
      <trkpt lat="45.19325" lon="4.21064">
        <ele>822.55</ele>
        <time>2011-10-15T06:44:03Z</time>
      </trkpt>
      <trkpt lat="45.19329" lon="4.21068">
        <ele>822.55</ele>
        <time>2011-10-15T06:44:04Z</time>
      </trkpt>
      <trkpt lat="45.19334" lon="4.2107">
        <ele>822.55</ele>
        <time>2011-10-15T06:44:05Z</time>
      </trkpt>
      <trkpt lat="45.19339" lon="4.21072">
        <ele>822.55</ele>
        <time>2011-10-15T06:44:06Z</time>
      </trkpt>
      <trkpt lat="45.19413" lon="4.21098">
        <ele>819.66</ele>
        <time>2011-10-15T06:44:20Z</time>
      </trkpt>
      <trkpt lat="45.19422" lon="4.21098">
        <ele>819.18</ele>
        <time>2011-10-15T06:44:22Z</time>
      </trkpt>
      <trkpt lat="45.19435" lon="4.21097">
        <ele>818.7</ele>
        <time>2011-10-15T06:44:25Z</time>
      </trkpt>
      <trkpt lat="45.1944" lon="4.21098">
        <ele>818.22</ele>
        <time>2011-10-15T06:44:26Z</time>
      </trkpt>
      <trkpt lat="45.19444" lon="4.211">
        <ele>818.22</ele>
        <time>2011-10-15T06:44:27Z</time>
      </trkpt>
      <trkpt lat="45.19447" lon="4.21104">
        <ele>817.74</ele>
        <time>2011-10-15T06:44:28Z</time>
      </trkpt>
      <trkpt lat="45.19448" lon="4.2111">
        <ele>817.26</ele>
        <time>2011-10-15T06:44:29Z</time>
      </trkpt>
      <trkpt lat="45.19448" lon="4.21116">
        <ele>817.26</ele>
        <time>2011-10-15T06:44:30Z</time>
      </trkpt>
      <trkpt lat="45.19446" lon="4.21121">
        <ele>817.26</ele>
        <time>2011-10-15T06:44:31Z</time>
      </trkpt>
      <trkpt lat="45.19444" lon="4.21126">
        <ele>817.26</ele>
        <time>2011-10-15T06:44:32Z</time>
      </trkpt>
      <trkpt lat="45.19442" lon="4.2113">
        <ele>817.26</ele>
        <time>2011-10-15T06:44:33Z</time>
      </trkpt>
      <trkpt lat="45.19437" lon="4.2114">
        <ele>817.26</ele>
        <time>2011-10-15T06:44:35Z</time>
      </trkpt>
      <trkpt lat="45.19436" lon="4.21147">
        <ele>816.78</ele>
        <time>2011-10-15T06:44:36Z</time>
      </trkpt>
      <trkpt lat="45.19435" lon="4.21156">
        <ele>816.3</ele>
        <time>2011-10-15T06:44:37Z</time>
      </trkpt>
      <trkpt lat="45.19435" lon="4.21167">
        <ele>815.34</ele>
        <time>2011-10-15T06:44:38Z</time>
      </trkpt>
      <trkpt lat="45.19436" lon="4.21178">
        <ele>814.85</ele>
        <time>2011-10-15T06:44:39Z</time>
      </trkpt>
      <trkpt lat="45.19441" lon="4.21214">
        <ele>812.93</ele>
        <time>2011-10-15T06:44:42Z</time>
      </trkpt>
      <trkpt lat="45.19444" lon="4.21226">
        <ele>812.93</ele>
        <time>2011-10-15T06:44:43Z</time>
      </trkpt>
      <trkpt lat="45.19488" lon="4.21337">
        <ele>811.97</ele>
        <time>2011-10-15T06:44:55Z</time>
      </trkpt>
      <trkpt lat="45.19495" lon="4.2135">
        <ele>811.49</ele>
        <time>2011-10-15T06:44:57Z</time>
      </trkpt>
      <trkpt lat="45.19498" lon="4.21354">
        <ele>811.49</ele>
        <time>2011-10-15T06:44:58Z</time>
      </trkpt>
      <trkpt lat="45.19501" lon="4.21357">
        <ele>811.49</ele>
        <time>2011-10-15T06:44:59Z</time>
      </trkpt>
      <trkpt lat="45.19504" lon="4.21359">
        <ele>811.01</ele>
        <time>2011-10-15T06:45:00Z</time>
      </trkpt>
      <trkpt lat="45.19506" lon="4.2136">
        <ele>811.01</ele>
        <time>2011-10-15T06:45:01Z</time>
      </trkpt>
      <trkpt lat="45.19509" lon="4.21362">
        <ele>810.53</ele>
        <time>2011-10-15T06:45:02Z</time>
      </trkpt>
      <trkpt lat="45.19511" lon="4.21363">
        <ele>810.53</ele>
        <time>2011-10-15T06:45:03Z</time>
      </trkpt>
      <trkpt lat="45.19513" lon="4.21365">
        <ele>810.53</ele>
        <time>2011-10-15T06:45:04Z</time>
      </trkpt>
      <trkpt lat="45.19514" lon="4.21366">
        <ele>810.53</ele>
        <time>2011-10-15T06:45:05Z</time>
      </trkpt>
      <trkpt lat="45.1952" lon="4.21374">
        <ele>811.49</ele>
        <time>2011-10-15T06:45:15Z</time>
      </trkpt>
      <trkpt lat="45.19522" lon="4.21374">
        <ele>811.97</ele>
        <time>2011-10-15T06:45:27Z</time>
      </trkpt>
      <trkpt lat="45.19523" lon="4.21373">
        <ele>813.41</ele>
        <time>2011-10-15T06:50:13Z</time>
      </trkpt>
      <trkpt lat="45.19524" lon="4.2138">
        <ele>812.45</ele>
        <time>2011-10-15T06:50:33Z</time>
      </trkpt>
      <trkpt lat="45.19524" lon="4.2138">
        <ele>812.45</ele>
        <time>2011-10-15T06:50:54Z</time>
      </trkpt>
      <trkpt lat="45.19525" lon="4.2138">
        <ele>812.45</ele>
        <time>2011-10-15T06:51:30Z</time>
      </trkpt>
      <trkpt lat="45.19536" lon="4.21401">
        <ele>810.05</ele>
        <time>2011-10-15T06:51:53Z</time>
      </trkpt>
      <trkpt lat="45.19539" lon="4.21407">
        <ele>809.57</ele>
        <time>2011-10-15T06:51:54Z</time>
      </trkpt>
      <trkpt lat="45.19541" lon="4.21414">
        <ele>808.61</ele>
        <time>2011-10-15T06:51:55Z</time>
      </trkpt>
      <trkpt lat="45.19553" lon="4.21448">
        <ele>805.24</ele>
        <time>2011-10-15T06:51:59Z</time>
      </trkpt>
      <trkpt lat="45.19555" lon="4.21458">
        <ele>804.28</ele>
        <time>2011-10-15T06:52:00Z</time>
      </trkpt>
      <trkpt lat="45.19556" lon="4.21469">
        <ele>803.32</ele>
        <time>2011-10-15T06:52:01Z</time>
      </trkpt>
      <trkpt lat="45.19558" lon="4.21493">
        <ele>801.88</ele>
        <time>2011-10-15T06:52:03Z</time>
      </trkpt>
      <trkpt lat="45.19562" lon="4.21504">
        <ele>801.4</ele>
        <time>2011-10-15T06:52:04Z</time>
      </trkpt>
      <trkpt lat="45.19567" lon="4.21514">
        <ele>800.44</ele>
        <time>2011-10-15T06:52:05Z</time>
      </trkpt>
      <trkpt lat="45.19573" lon="4.21523">
        <ele>799.95</ele>
        <time>2011-10-15T06:52:06Z</time>
      </trkpt>
      <trkpt lat="45.19578" lon="4.21533">
        <ele>799.47</ele>
        <time>2011-10-15T06:52:07Z</time>
      </trkpt>
      <trkpt lat="45.19582" lon="4.21543">
        <ele>798.99</ele>
        <time>2011-10-15T06:52:08Z</time>
      </trkpt>
      <trkpt lat="45.19586" lon="4.21552">
        <ele>798.99</ele>
        <time>2011-10-15T06:52:09Z</time>
      </trkpt>
      <trkpt lat="45.19591" lon="4.2156">
        <ele>798.51</ele>
        <time>2011-10-15T06:52:10Z</time>
      </trkpt>
      <trkpt lat="45.19597" lon="4.21566">
        <ele>798.51</ele>
        <time>2011-10-15T06:52:11Z</time>
      </trkpt>
      <trkpt lat="45.19603" lon="4.21571">
        <ele>798.03</ele>
        <time>2011-10-15T06:52:12Z</time>
      </trkpt>
      <trkpt lat="45.19608" lon="4.21576">
        <ele>797.55</ele>
        <time>2011-10-15T06:52:13Z</time>
      </trkpt>
      <trkpt lat="45.19614" lon="4.21578">
        <ele>798.03</ele>
        <time>2011-10-15T06:52:14Z</time>
      </trkpt>
      <trkpt lat="45.19644" lon="4.21603">
        <ele>797.07</ele>
        <time>2011-10-15T06:52:23Z</time>
      </trkpt>
      <trkpt lat="45.19647" lon="4.21613">
        <ele>797.55</ele>
        <time>2011-10-15T06:52:26Z</time>
      </trkpt>
      <trkpt lat="45.19647" lon="4.21617">
        <ele>797.07</ele>
        <time>2011-10-15T06:52:27Z</time>
      </trkpt>
      <trkpt lat="45.19646" lon="4.21621">
        <ele>797.07</ele>
        <time>2011-10-15T06:52:28Z</time>
      </trkpt>
      <trkpt lat="45.19645" lon="4.21626">
        <ele>796.59</ele>
        <time>2011-10-15T06:52:29Z</time>
      </trkpt>
      <trkpt lat="45.19645" lon="4.2163">
        <ele>796.59</ele>
        <time>2011-10-15T06:52:30Z</time>
      </trkpt>
      <trkpt lat="45.19645" lon="4.21635">
        <ele>796.11</ele>
        <time>2011-10-15T06:52:31Z</time>
      </trkpt>
      <trkpt lat="45.19646" lon="4.2164">
        <ele>796.11</ele>
        <time>2011-10-15T06:52:32Z</time>
      </trkpt>
      <trkpt lat="45.19647" lon="4.21644">
        <ele>796.11</ele>
        <time>2011-10-15T06:52:33Z</time>
      </trkpt>
      <trkpt lat="45.1965" lon="4.2165">
        <ele>796.59</ele>
        <time>2011-10-15T06:52:34Z</time>
      </trkpt>
      <trkpt lat="45.19653" lon="4.21654">
        <ele>797.07</ele>
        <time>2011-10-15T06:52:35Z</time>
      </trkpt>
      <trkpt lat="45.19657" lon="4.21657">
        <ele>797.07</ele>
        <time>2011-10-15T06:52:36Z</time>
      </trkpt>
      <trkpt lat="45.19661" lon="4.21661">
        <ele>797.07</ele>
        <time>2011-10-15T06:52:37Z</time>
      </trkpt>
      <trkpt lat="45.19666" lon="4.21663">
        <ele>796.59</ele>
        <time>2011-10-15T06:52:38Z</time>
      </trkpt>
      <trkpt lat="45.19674" lon="4.21667">
        <ele>796.59</ele>
        <time>2011-10-15T06:52:40Z</time>
      </trkpt>
      <trkpt lat="45.19678" lon="4.2167">
        <ele>796.11</ele>
        <time>2011-10-15T06:52:41Z</time>
      </trkpt>
      <trkpt lat="45.19682" lon="4.21672">
        <ele>796.11</ele>
        <time>2011-10-15T06:52:42Z</time>
      </trkpt>
      <trkpt lat="45.19691" lon="4.21678">
        <ele>795.63</ele>
        <time>2011-10-15T06:52:44Z</time>
      </trkpt>
      <trkpt lat="45.197" lon="4.21683">
        <ele>795.15</ele>
        <time>2011-10-15T06:52:46Z</time>
      </trkpt>
      <trkpt lat="45.19705" lon="4.21685">
        <ele>795.15</ele>
        <time>2011-10-15T06:52:47Z</time>
      </trkpt>
      <trkpt lat="45.1971" lon="4.21685">
        <ele>795.15</ele>
        <time>2011-10-15T06:52:48Z</time>
      </trkpt>
      <trkpt lat="45.19715" lon="4.21682">
        <ele>794.67</ele>
        <time>2011-10-15T06:52:49Z</time>
      </trkpt>
      <trkpt lat="45.1972" lon="4.21678">
        <ele>794.67</ele>
        <time>2011-10-15T06:52:50Z</time>
      </trkpt>
      <trkpt lat="45.19723" lon="4.21673">
        <ele>794.67</ele>
        <time>2011-10-15T06:52:51Z</time>
      </trkpt>
      <trkpt lat="45.19727" lon="4.21668">
        <ele>794.67</ele>
        <time>2011-10-15T06:52:52Z</time>
      </trkpt>
      <trkpt lat="45.1973" lon="4.21662">
        <ele>794.67</ele>
        <time>2011-10-15T06:52:53Z</time>
      </trkpt>
      <trkpt lat="45.19733" lon="4.21658">
        <ele>794.67</ele>
        <time>2011-10-15T06:52:54Z</time>
      </trkpt>
      <trkpt lat="45.19736" lon="4.21654">
        <ele>794.67</ele>
        <time>2011-10-15T06:52:55Z</time>
      </trkpt>
      <trkpt lat="45.1974" lon="4.2165">
        <ele>794.67</ele>
        <time>2011-10-15T06:52:56Z</time>
      </trkpt>
      <trkpt lat="45.19744" lon="4.21648">
        <ele>794.19</ele>
        <time>2011-10-15T06:52:57Z</time>
      </trkpt>
      <trkpt lat="45.19748" lon="4.21647">
        <ele>794.19</ele>
        <time>2011-10-15T06:52:58Z</time>
      </trkpt>
      <trkpt lat="45.19751" lon="4.21645">
        <ele>793.71</ele>
        <time>2011-10-15T06:52:59Z</time>
      </trkpt>
      <trkpt lat="45.19771" lon="4.21631">
        <ele>793.22</ele>
        <time>2011-10-15T06:53:04Z</time>
      </trkpt>
      <trkpt lat="45.19779" lon="4.21628">
        <ele>794.19</ele>
        <time>2011-10-15T06:53:06Z</time>
      </trkpt>
      <trkpt lat="45.19784" lon="4.21626">
        <ele>794.19</ele>
        <time>2011-10-15T06:53:07Z</time>
      </trkpt>
      <trkpt lat="45.19788" lon="4.21624">
        <ele>794.67</ele>
        <time>2011-10-15T06:53:08Z</time>
      </trkpt>
      <trkpt lat="45.19793" lon="4.21623">
        <ele>795.15</ele>
        <time>2011-10-15T06:53:09Z</time>
      </trkpt>
      <trkpt lat="45.19797" lon="4.21621">
        <ele>795.15</ele>
        <time>2011-10-15T06:53:10Z</time>
      </trkpt>
      <trkpt lat="45.19828" lon="4.21615">
        <ele>793.71</ele>
        <time>2011-10-15T06:53:18Z</time>
      </trkpt>
      <trkpt lat="45.19848" lon="4.21609">
        <ele>794.67</ele>
        <time>2011-10-15T06:53:23Z</time>
      </trkpt>
      <trkpt lat="45.19885" lon="4.21608">
        <ele>796.11</ele>
        <time>2011-10-15T06:53:32Z</time>
      </trkpt>
      <trkpt lat="45.1989" lon="4.21608">
        <ele>796.11</ele>
        <time>2011-10-15T06:53:33Z</time>
      </trkpt>
      <trkpt lat="45.19894" lon="4.21608">
        <ele>795.63</ele>
        <time>2011-10-15T06:53:34Z</time>
      </trkpt>
      <trkpt lat="45.19898" lon="4.21607">
        <ele>795.63</ele>
        <time>2011-10-15T06:53:35Z</time>
      </trkpt>
      <trkpt lat="45.199" lon="4.21605">
        <ele>795.63</ele>
        <time>2011-10-15T06:53:36Z</time>
      </trkpt>
      <trkpt lat="45.19902" lon="4.21604">
        <ele>796.11</ele>
        <time>2011-10-15T06:53:37Z</time>
      </trkpt>
      <trkpt lat="45.19926" lon="4.21596">
        <ele>800.92</ele>
        <time>2011-10-15T06:53:45Z</time>
      </trkpt>
      <trkpt lat="45.19929" lon="4.21597">
        <ele>801.4</ele>
        <time>2011-10-15T06:53:46Z</time>
      </trkpt>
      <trkpt lat="45.19957" lon="4.21595">
        <ele>808.61</ele>
        <time>2011-10-15T06:53:56Z</time>
      </trkpt>
      <trkpt lat="45.1999" lon="4.21577">
        <ele>811.01</ele>
        <time>2011-10-15T06:54:08Z</time>
      </trkpt>
      <trkpt lat="45.20017" lon="4.21569">
        <ele>811.01</ele>
        <time>2011-10-15T06:54:18Z</time>
      </trkpt>
      <trkpt lat="45.20021" lon="4.21566">
        <ele>811.49</ele>
        <time>2011-10-15T06:54:20Z</time>
      </trkpt>
      <trkpt lat="45.20023" lon="4.21564">
        <ele>811.49</ele>
        <time>2011-10-15T06:54:21Z</time>
      </trkpt>
      <trkpt lat="45.20059" lon="4.21545">
        <ele>810.53</ele>
        <time>2011-10-15T06:54:32Z</time>
      </trkpt>
      <trkpt lat="45.20082" lon="4.21512">
        <ele>809.57</ele>
        <time>2011-10-15T06:54:42Z</time>
      </trkpt>
      <trkpt lat="45.20113" lon="4.21482">
        <ele>809.57</ele>
        <time>2011-10-15T06:54:53Z</time>
      </trkpt>
      <trkpt lat="45.20144" lon="4.2145">
        <ele>810.05</ele>
        <time>2011-10-15T06:55:03Z</time>
      </trkpt>
      <trkpt lat="45.20162" lon="4.21419">
        <ele>811.97</ele>
        <time>2011-10-15T06:55:14Z</time>
      </trkpt>
      <trkpt lat="45.20163" lon="4.21417">
        <ele>811.97</ele>
        <time>2011-10-15T06:55:15Z</time>
      </trkpt>
      <trkpt lat="45.20168" lon="4.21408">
        <ele>811.97</ele>
        <time>2011-10-15T06:55:20Z</time>
      </trkpt>
      <trkpt lat="45.20168" lon="4.21405">
        <ele>811.49</ele>
        <time>2011-10-15T06:55:24Z</time>
      </trkpt>
      <trkpt lat="45.20169" lon="4.21403">
        <ele>811.01</ele>
        <time>2011-10-15T06:55:25Z</time>
      </trkpt>
      <trkpt lat="45.20171" lon="4.21401">
        <ele>810.53</ele>
        <time>2011-10-15T06:55:26Z</time>
      </trkpt>
      <trkpt lat="45.20172" lon="4.21398">
        <ele>810.05</ele>
        <time>2011-10-15T06:55:27Z</time>
      </trkpt>
      <trkpt lat="45.20173" lon="4.21397">
        <ele>809.57</ele>
        <time>2011-10-15T06:55:28Z</time>
      </trkpt>
      <trkpt lat="45.20176" lon="4.21396">
        <ele>809.57</ele>
        <time>2011-10-15T06:55:29Z</time>
      </trkpt>
      <trkpt lat="45.20178" lon="4.21394">
        <ele>809.09</ele>
        <time>2011-10-15T06:55:30Z</time>
      </trkpt>
      <trkpt lat="45.20179" lon="4.21392">
        <ele>809.09</ele>
        <time>2011-10-15T06:55:31Z</time>
      </trkpt>
      <trkpt lat="45.2018" lon="4.21389">
        <ele>809.09</ele>
        <time>2011-10-15T06:55:32Z</time>
      </trkpt>
      <trkpt lat="45.20182" lon="4.21387">
        <ele>809.09</ele>
        <time>2011-10-15T06:55:33Z</time>
      </trkpt>
      <trkpt lat="45.20184" lon="4.21385">
        <ele>808.61</ele>
        <time>2011-10-15T06:55:34Z</time>
      </trkpt>
      <trkpt lat="45.20185" lon="4.21383">
        <ele>808.61</ele>
        <time>2011-10-15T06:55:35Z</time>
      </trkpt>
      <trkpt lat="45.20186" lon="4.2138">
        <ele>808.61</ele>
        <time>2011-10-15T06:55:36Z</time>
      </trkpt>
      <trkpt lat="45.20187" lon="4.21377">
        <ele>808.61</ele>
        <time>2011-10-15T06:55:37Z</time>
      </trkpt>
      <trkpt lat="45.20189" lon="4.21375">
        <ele>809.09</ele>
        <time>2011-10-15T06:55:38Z</time>
      </trkpt>
      <trkpt lat="45.20193" lon="4.21367">
        <ele>809.57</ele>
        <time>2011-10-15T06:55:42Z</time>
      </trkpt>
      <trkpt lat="45.20195" lon="4.21366">
        <ele>809.09</ele>
        <time>2011-10-15T06:55:43Z</time>
      </trkpt>
      <trkpt lat="45.20209" lon="4.21355">
        <ele>806.68</ele>
        <time>2011-10-15T06:55:52Z</time>
      </trkpt>
      <trkpt lat="45.2021" lon="4.21353">
        <ele>806.2</ele>
        <time>2011-10-15T06:55:53Z</time>
      </trkpt>
      <trkpt lat="45.20211" lon="4.21352">
        <ele>806.2</ele>
        <time>2011-10-15T06:55:54Z</time>
      </trkpt>
      <trkpt lat="45.20212" lon="4.2135">
        <ele>806.2</ele>
        <time>2011-10-15T06:55:55Z</time>
      </trkpt>
      <trkpt lat="45.20213" lon="4.21348">
        <ele>806.2</ele>
        <time>2011-10-15T06:55:56Z</time>
      </trkpt>
      <trkpt lat="45.20215" lon="4.21344">
        <ele>805.72</ele>
        <time>2011-10-15T06:55:59Z</time>
      </trkpt>
      <trkpt lat="45.20215" lon="4.21336">
        <ele>806.68</ele>
        <time>2011-10-15T06:56:03Z</time>
      </trkpt>
      <trkpt lat="45.20218" lon="4.21321">
        <ele>811.49</ele>
        <time>2011-10-15T06:56:12Z</time>
      </trkpt>
      <trkpt lat="45.20218" lon="4.21319">
        <ele>812.45</ele>
        <time>2011-10-15T06:56:13Z</time>
      </trkpt>
      <trkpt lat="45.20224" lon="4.21301">
        <ele>816.78</ele>
        <time>2011-10-15T06:56:26Z</time>
      </trkpt>
      <trkpt lat="45.20234" lon="4.21294">
        <ele>817.74</ele>
        <time>2011-10-15T06:56:35Z</time>
      </trkpt>
      <trkpt lat="45.20258" lon="4.21278">
        <ele>816.78</ele>
        <time>2011-10-15T06:56:47Z</time>
      </trkpt>
      <trkpt lat="45.20289" lon="4.21259">
        <ele>820.62</ele>
        <time>2011-10-15T06:56:59Z</time>
      </trkpt>
      <trkpt lat="45.2029" lon="4.21258">
        <ele>820.62</ele>
        <time>2011-10-15T06:57:00Z</time>
      </trkpt>
      <trkpt lat="45.20301" lon="4.21253">
        <ele>820.14</ele>
        <time>2011-10-15T06:57:04Z</time>
      </trkpt>
      <trkpt lat="45.20305" lon="4.21251">
        <ele>820.14</ele>
        <time>2011-10-15T06:57:05Z</time>
      </trkpt>
      <trkpt lat="45.20308" lon="4.21248">
        <ele>820.14</ele>
        <time>2011-10-15T06:57:06Z</time>
      </trkpt>
      <trkpt lat="45.2034" lon="4.21228">
        <ele>818.22</ele>
        <time>2011-10-15T06:57:16Z</time>
      </trkpt>
      <trkpt lat="45.20364" lon="4.21232">
        <ele>817.26</ele>
        <time>2011-10-15T06:57:22Z</time>
      </trkpt>
      <trkpt lat="45.20367" lon="4.21233">
        <ele>817.26</ele>
        <time>2011-10-15T06:57:23Z</time>
      </trkpt>
      <trkpt lat="45.2037" lon="4.21235">
        <ele>817.26</ele>
        <time>2011-10-15T06:57:24Z</time>
      </trkpt>
      <trkpt lat="45.20376" lon="4.2124">
        <ele>816.3</ele>
        <time>2011-10-15T06:57:26Z</time>
      </trkpt>
      <trkpt lat="45.20377" lon="4.21242">
        <ele>815.82</ele>
        <time>2011-10-15T06:57:27Z</time>
      </trkpt>
      <trkpt lat="45.20377" lon="4.21245">
        <ele>815.34</ele>
        <time>2011-10-15T06:57:28Z</time>
      </trkpt>
      <trkpt lat="45.20378" lon="4.21247">
        <ele>815.34</ele>
        <time>2011-10-15T06:57:29Z</time>
      </trkpt>
      <trkpt lat="45.20377" lon="4.21248">
        <ele>815.34</ele>
        <time>2011-10-15T06:57:31Z</time>
      </trkpt>
      <trkpt lat="45.20376" lon="4.2125">
        <ele>815.34</ele>
        <time>2011-10-15T06:57:34Z</time>
      </trkpt>
      <trkpt lat="45.20362" lon="4.2128">
        <ele>819.66</ele>
        <time>2011-10-15T06:57:44Z</time>
      </trkpt>
      <trkpt lat="45.20349" lon="4.21317">
        <ele>826.87</ele>
        <time>2011-10-15T06:57:54Z</time>
      </trkpt>
      <trkpt lat="45.20347" lon="4.21329">
        <ele>828.79</ele>
        <time>2011-10-15T06:57:57Z</time>
      </trkpt>
      <trkpt lat="45.20346" lon="4.21332">
        <ele>829.27</ele>
        <time>2011-10-15T06:57:58Z</time>
      </trkpt>
      <trkpt lat="45.20345" lon="4.21336">
        <ele>829.76</ele>
        <time>2011-10-15T06:57:59Z</time>
      </trkpt>
      <trkpt lat="45.20345" lon="4.21339">
        <ele>830.24</ele>
        <time>2011-10-15T06:58:00Z</time>
      </trkpt>
      <trkpt lat="45.20343" lon="4.21342">
        <ele>830.24</ele>
        <time>2011-10-15T06:58:01Z</time>
      </trkpt>
      <trkpt lat="45.20342" lon="4.21345">
        <ele>830.24</ele>
        <time>2011-10-15T06:58:02Z</time>
      </trkpt>
      <trkpt lat="45.20342" lon="4.21349">
        <ele>830.24</ele>
        <time>2011-10-15T06:58:03Z</time>
      </trkpt>
      <trkpt lat="45.20341" lon="4.21351">
        <ele>830.24</ele>
        <time>2011-10-15T06:58:04Z</time>
      </trkpt>
      <trkpt lat="45.20341" lon="4.21354">
        <ele>830.24</ele>
        <time>2011-10-15T06:58:05Z</time>
      </trkpt>
      <trkpt lat="45.20341" lon="4.21358">
        <ele>830.72</ele>
        <time>2011-10-15T06:58:06Z</time>
      </trkpt>
      <trkpt lat="45.20342" lon="4.21363">
        <ele>830.72</ele>
        <time>2011-10-15T06:58:07Z</time>
      </trkpt>
      <trkpt lat="45.20343" lon="4.21368">
        <ele>830.72</ele>
        <time>2011-10-15T06:58:08Z</time>
      </trkpt>
      <trkpt lat="45.20344" lon="4.21376">
        <ele>831.68</ele>
        <time>2011-10-15T06:58:10Z</time>
      </trkpt>
      <trkpt lat="45.20344" lon="4.21379">
        <ele>831.68</ele>
        <time>2011-10-15T06:58:11Z</time>
      </trkpt>
      <trkpt lat="45.20344" lon="4.21383">
        <ele>831.68</ele>
        <time>2011-10-15T06:58:12Z</time>
      </trkpt>
      <trkpt lat="45.20343" lon="4.21387">
        <ele>831.68</ele>
        <time>2011-10-15T06:58:13Z</time>
      </trkpt>
      <trkpt lat="45.20342" lon="4.21392">
        <ele>831.68</ele>
        <time>2011-10-15T06:58:14Z</time>
      </trkpt>
      <trkpt lat="45.20342" lon="4.21396">
        <ele>831.68</ele>
        <time>2011-10-15T06:58:15Z</time>
      </trkpt>
      <trkpt lat="45.20343" lon="4.21401">
        <ele>831.68</ele>
        <time>2011-10-15T06:58:16Z</time>
      </trkpt>
      <trkpt lat="45.20344" lon="4.21407">
        <ele>831.68</ele>
        <time>2011-10-15T06:58:17Z</time>
      </trkpt>
      <trkpt lat="45.20345" lon="4.21413">
        <ele>831.2</ele>
        <time>2011-10-15T06:58:18Z</time>
      </trkpt>
      <trkpt lat="45.20346" lon="4.21419">
        <ele>830.72</ele>
        <time>2011-10-15T06:58:19Z</time>
      </trkpt>
      <trkpt lat="45.20348" lon="4.21425">
        <ele>830.72</ele>
        <time>2011-10-15T06:58:20Z</time>
      </trkpt>
      <trkpt lat="45.20349" lon="4.21431">
        <ele>830.24</ele>
        <time>2011-10-15T06:58:21Z</time>
      </trkpt>
      <trkpt lat="45.20349" lon="4.21435">
        <ele>830.72</ele>
        <time>2011-10-15T06:58:22Z</time>
      </trkpt>
      <trkpt lat="45.20349" lon="4.2144">
        <ele>830.72</ele>
        <time>2011-10-15T06:58:23Z</time>
      </trkpt>
      <trkpt lat="45.20349" lon="4.21444">
        <ele>830.72</ele>
        <time>2011-10-15T06:58:24Z</time>
      </trkpt>
      <trkpt lat="45.20349" lon="4.21448">
        <ele>830.72</ele>
        <time>2011-10-15T06:58:25Z</time>
      </trkpt>
      <trkpt lat="45.20349" lon="4.21451">
        <ele>830.72</ele>
        <time>2011-10-15T06:58:26Z</time>
      </trkpt>
      <trkpt lat="45.20348" lon="4.21454">
        <ele>831.2</ele>
        <time>2011-10-15T06:58:27Z</time>
      </trkpt>
      <trkpt lat="45.20348" lon="4.21457">
        <ele>831.2</ele>
        <time>2011-10-15T06:58:28Z</time>
      </trkpt>
      <trkpt lat="45.20346" lon="4.21472">
        <ele>831.2</ele>
        <time>2011-10-15T06:58:34Z</time>
      </trkpt>
      <trkpt lat="45.20358" lon="4.21501">
        <ele>834.56</ele>
        <time>2011-10-15T06:58:41Z</time>
      </trkpt>
      <trkpt lat="45.2036" lon="4.21509">
        <ele>835.04</ele>
        <time>2011-10-15T06:58:45Z</time>
      </trkpt>
      <trkpt lat="45.20363" lon="4.21519">
        <ele>835.52</ele>
        <time>2011-10-15T06:58:49Z</time>
      </trkpt>
      <trkpt lat="45.20379" lon="4.21551">
        <ele>837.45</ele>
        <time>2011-10-15T06:58:59Z</time>
      </trkpt>
      <trkpt lat="45.2038" lon="4.21554">
        <ele>837.45</ele>
        <time>2011-10-15T06:59:00Z</time>
      </trkpt>
      <trkpt lat="45.20377" lon="4.21563">
        <ele>838.41</ele>
        <time>2011-10-15T06:59:04Z</time>
      </trkpt>
      <trkpt lat="45.20373" lon="4.21574">
        <ele>836.96</ele>
        <time>2011-10-15T06:59:09Z</time>
      </trkpt>
      <trkpt lat="45.2037" lon="4.21578">
        <ele>836</ele>
        <time>2011-10-15T06:59:11Z</time>
      </trkpt>
      <trkpt lat="45.20366" lon="4.21602">
        <ele>828.31</ele>
        <time>2011-10-15T06:59:21Z</time>
      </trkpt>
      <trkpt lat="45.20366" lon="4.21606">
        <ele>825.91</ele>
        <time>2011-10-15T06:59:23Z</time>
      </trkpt>
      <trkpt lat="45.20354" lon="4.21626">
        <ele>817.74</ele>
        <time>2011-10-15T06:59:32Z</time>
      </trkpt>
      <trkpt lat="45.2035" lon="4.2163">
        <ele>817.74</ele>
        <time>2011-10-15T06:59:35Z</time>
      </trkpt>
      <trkpt lat="45.20333" lon="4.21649">
        <ele>817.74</ele>
        <time>2011-10-15T06:59:44Z</time>
      </trkpt>
      <trkpt lat="45.2033" lon="4.21656">
        <ele>819.18</ele>
        <time>2011-10-15T06:59:49Z</time>
      </trkpt>
      <trkpt lat="45.20315" lon="4.21676">
        <ele>821.1</ele>
        <time>2011-10-15T06:59:56Z</time>
      </trkpt>
      <trkpt lat="45.20307" lon="4.21679">
        <ele>821.1</ele>
        <time>2011-10-15T06:59:58Z</time>
      </trkpt>
      <trkpt lat="45.20303" lon="4.21681">
        <ele>822.06</ele>
        <time>2011-10-15T06:59:59Z</time>
      </trkpt>
      <trkpt lat="45.20299" lon="4.21683">
        <ele>822.55</ele>
        <time>2011-10-15T07:00:00Z</time>
      </trkpt>
      <trkpt lat="45.20295" lon="4.21685">
        <ele>822.55</ele>
        <time>2011-10-15T07:00:01Z</time>
      </trkpt>
      <trkpt lat="45.20293" lon="4.21688">
        <ele>823.51</ele>
        <time>2011-10-15T07:00:02Z</time>
      </trkpt>
      <trkpt lat="45.20291" lon="4.21685">
        <ele>823.03</ele>
        <time>2011-10-15T07:00:04Z</time>
      </trkpt>
      <trkpt lat="45.20291" lon="4.21681">
        <ele>823.03</ele>
        <time>2011-10-15T07:00:06Z</time>
      </trkpt>
      <trkpt lat="45.20279" lon="4.21719">
        <ele>821.1</ele>
        <time>2011-10-15T07:00:13Z</time>
      </trkpt>
      <trkpt lat="45.20277" lon="4.21724">
        <ele>821.1</ele>
        <time>2011-10-15T07:00:14Z</time>
      </trkpt>
      <trkpt lat="45.20252" lon="4.2179">
        <ele>828.31</ele>
        <time>2011-10-15T07:00:22Z</time>
      </trkpt>
      <trkpt lat="45.20249" lon="4.21799">
        <ele>830.24</ele>
        <time>2011-10-15T07:00:23Z</time>
      </trkpt>
      <trkpt lat="45.20237" lon="4.21841">
        <ele>837.93</ele>
        <time>2011-10-15T07:00:29Z</time>
      </trkpt>
      <trkpt lat="45.20233" lon="4.21848">
        <ele>838.41</ele>
        <time>2011-10-15T07:00:30Z</time>
      </trkpt>
      <trkpt lat="45.20229" lon="4.21854">
        <ele>839.37</ele>
        <time>2011-10-15T07:00:31Z</time>
      </trkpt>
      <trkpt lat="45.20226" lon="4.2186">
        <ele>840.33</ele>
        <time>2011-10-15T07:00:32Z</time>
      </trkpt>
      <trkpt lat="45.20223" lon="4.21866">
        <ele>841.29</ele>
        <time>2011-10-15T07:00:33Z</time>
      </trkpt>
      <trkpt lat="45.20217" lon="4.21877">
        <ele>842.73</ele>
        <time>2011-10-15T07:00:35Z</time>
      </trkpt>
      <trkpt lat="45.20214" lon="4.21881">
        <ele>843.21</ele>
        <time>2011-10-15T07:00:36Z</time>
      </trkpt>
      <trkpt lat="45.20212" lon="4.21885">
        <ele>843.21</ele>
        <time>2011-10-15T07:00:37Z</time>
      </trkpt>
      <trkpt lat="45.20209" lon="4.2189">
        <ele>843.69</ele>
        <time>2011-10-15T07:00:38Z</time>
      </trkpt>
      <trkpt lat="45.20207" lon="4.21895">
        <ele>843.69</ele>
        <time>2011-10-15T07:00:39Z</time>
      </trkpt>
      <trkpt lat="45.202" lon="4.21909">
        <ele>844.18</ele>
        <time>2011-10-15T07:00:42Z</time>
      </trkpt>
      <trkpt lat="45.20176" lon="4.21945">
        <ele>845.62</ele>
        <time>2011-10-15T07:00:51Z</time>
      </trkpt>
      <trkpt lat="45.20172" lon="4.21948">
        <ele>845.62</ele>
        <time>2011-10-15T07:00:52Z</time>
      </trkpt>
      <trkpt lat="45.20169" lon="4.21951">
        <ele>846.1</ele>
        <time>2011-10-15T07:00:53Z</time>
      </trkpt>
      <trkpt lat="45.20153" lon="4.2198">
        <ele>848.02</ele>
        <time>2011-10-15T07:01:01Z</time>
      </trkpt>
      <trkpt lat="45.20152" lon="4.21984">
        <ele>847.06</ele>
        <time>2011-10-15T07:01:02Z</time>
      </trkpt>
      <trkpt lat="45.2015" lon="4.21987">
        <ele>846.58</ele>
        <time>2011-10-15T07:01:03Z</time>
      </trkpt>
      <trkpt lat="45.20148" lon="4.21991">
        <ele>846.1</ele>
        <time>2011-10-15T07:01:04Z</time>
      </trkpt>
      <trkpt lat="45.20146" lon="4.21994">
        <ele>846.1</ele>
        <time>2011-10-15T07:01:05Z</time>
      </trkpt>
      <trkpt lat="45.20144" lon="4.21998">
        <ele>845.62</ele>
        <time>2011-10-15T07:01:06Z</time>
      </trkpt>
      <trkpt lat="45.20142" lon="4.22002">
        <ele>846.1</ele>
        <time>2011-10-15T07:01:07Z</time>
      </trkpt>
      <trkpt lat="45.20139" lon="4.22006">
        <ele>845.62</ele>
        <time>2011-10-15T07:01:08Z</time>
      </trkpt>
      <trkpt lat="45.20139" lon="4.22015">
        <ele>845.14</ele>
        <time>2011-10-15T07:01:10Z</time>
      </trkpt>
      <trkpt lat="45.20132" lon="4.22065">
        <ele>845.14</ele>
        <time>2011-10-15T07:01:18Z</time>
      </trkpt>
      <trkpt lat="45.2013" lon="4.22072">
        <ele>844.66</ele>
        <time>2011-10-15T07:01:19Z</time>
      </trkpt>
      <trkpt lat="45.20129" lon="4.22079">
        <ele>844.66</ele>
        <time>2011-10-15T07:01:20Z</time>
      </trkpt>
      <trkpt lat="45.20128" lon="4.22086">
        <ele>844.18</ele>
        <time>2011-10-15T07:01:21Z</time>
      </trkpt>
      <trkpt lat="45.20127" lon="4.22094">
        <ele>844.18</ele>
        <time>2011-10-15T07:01:22Z</time>
      </trkpt>
      <trkpt lat="45.20123" lon="4.22113">
        <ele>844.18</ele>
        <time>2011-10-15T07:01:25Z</time>
      </trkpt>
      <trkpt lat="45.20121" lon="4.22119">
        <ele>844.18</ele>
        <time>2011-10-15T07:01:26Z</time>
      </trkpt>
      <trkpt lat="45.2012" lon="4.22125">
        <ele>844.66</ele>
        <time>2011-10-15T07:01:27Z</time>
      </trkpt>
      <trkpt lat="45.2012" lon="4.22131">
        <ele>845.14</ele>
        <time>2011-10-15T07:01:28Z</time>
      </trkpt>
      <trkpt lat="45.20123" lon="4.22138">
        <ele>846.58</ele>
        <time>2011-10-15T07:01:29Z</time>
      </trkpt>
      <trkpt lat="45.20126" lon="4.22144">
        <ele>847.54</ele>
        <time>2011-10-15T07:01:30Z</time>
      </trkpt>
      <trkpt lat="45.20136" lon="4.22174">
        <ele>849.94</ele>
        <time>2011-10-15T07:01:37Z</time>
      </trkpt>
      <trkpt lat="45.20135" lon="4.22178">
        <ele>850.42</ele>
        <time>2011-10-15T07:01:38Z</time>
      </trkpt>
      <trkpt lat="45.20134" lon="4.22181">
        <ele>850.9</ele>
        <time>2011-10-15T07:01:39Z</time>
      </trkpt>
      <trkpt lat="45.20132" lon="4.22185">
        <ele>850.9</ele>
        <time>2011-10-15T07:01:40Z</time>
      </trkpt>
      <trkpt lat="45.20131" lon="4.22189">
        <ele>851.38</ele>
        <time>2011-10-15T07:01:41Z</time>
      </trkpt>
      <trkpt lat="45.2013" lon="4.22193">
        <ele>851.87</ele>
        <time>2011-10-15T07:01:42Z</time>
      </trkpt>
      <trkpt lat="45.20128" lon="4.22198">
        <ele>852.83</ele>
        <time>2011-10-15T07:01:43Z</time>
      </trkpt>
      <trkpt lat="45.20127" lon="4.22202">
        <ele>853.31</ele>
        <time>2011-10-15T07:01:44Z</time>
      </trkpt>
      <trkpt lat="45.20125" lon="4.22206">
        <ele>853.31</ele>
        <time>2011-10-15T07:01:45Z</time>
      </trkpt>
      <trkpt lat="45.20123" lon="4.22211">
        <ele>853.79</ele>
        <time>2011-10-15T07:01:46Z</time>
      </trkpt>
      <trkpt lat="45.20121" lon="4.22216">
        <ele>854.27</ele>
        <time>2011-10-15T07:01:47Z</time>
      </trkpt>
      <trkpt lat="45.2012" lon="4.22221">
        <ele>855.23</ele>
        <time>2011-10-15T07:01:48Z</time>
      </trkpt>
      <trkpt lat="45.20114" lon="4.22246">
        <ele>856.19</ele>
        <time>2011-10-15T07:01:53Z</time>
      </trkpt>
      <trkpt lat="45.201" lon="4.223">
        <ele>858.59</ele>
        <time>2011-10-15T07:02:02Z</time>
      </trkpt>
      <trkpt lat="45.20098" lon="4.22309">
        <ele>857.63</ele>
        <time>2011-10-15T07:02:03Z</time>
      </trkpt>
      <trkpt lat="45.20097" lon="4.22317">
        <ele>856.67</ele>
        <time>2011-10-15T07:02:04Z</time>
      </trkpt>
      <trkpt lat="45.20096" lon="4.22325">
        <ele>856.19</ele>
        <time>2011-10-15T07:02:05Z</time>
      </trkpt>
      <trkpt lat="45.20086" lon="4.22383">
        <ele>851.87</ele>
        <time>2011-10-15T07:02:12Z</time>
      </trkpt>
      <trkpt lat="45.20084" lon="4.22391">
        <ele>850.9</ele>
        <time>2011-10-15T07:02:13Z</time>
      </trkpt>
      <trkpt lat="45.20074" lon="4.22427">
        <ele>848.5</ele>
        <time>2011-10-15T07:02:17Z</time>
      </trkpt>
      <trkpt lat="45.20069" lon="4.22457">
        <ele>847.54</ele>
        <time>2011-10-15T07:02:20Z</time>
      </trkpt>
      <trkpt lat="45.20061" lon="4.2249">
        <ele>846.1</ele>
        <time>2011-10-15T07:02:24Z</time>
      </trkpt>
      <trkpt lat="45.20058" lon="4.22498">
        <ele>845.62</ele>
        <time>2011-10-15T07:02:25Z</time>
      </trkpt>
      <trkpt lat="45.20047" lon="4.2252">
        <ele>845.14</ele>
        <time>2011-10-15T07:02:28Z</time>
      </trkpt>
      <trkpt lat="45.20036" lon="4.22539">
        <ele>844.66</ele>
        <time>2011-10-15T07:02:31Z</time>
      </trkpt>
      <trkpt lat="45.20029" lon="4.22549">
        <ele>844.66</ele>
        <time>2011-10-15T07:02:33Z</time>
      </trkpt>
      <trkpt lat="45.20025" lon="4.22554">
        <ele>844.66</ele>
        <time>2011-10-15T07:02:34Z</time>
      </trkpt>
      <trkpt lat="45.20021" lon="4.22558">
        <ele>844.66</ele>
        <time>2011-10-15T07:02:35Z</time>
      </trkpt>
      <trkpt lat="45.20016" lon="4.22567">
        <ele>844.66</ele>
        <time>2011-10-15T07:02:37Z</time>
      </trkpt>
      <trkpt lat="45.20005" lon="4.22582">
        <ele>844.18</ele>
        <time>2011-10-15T07:02:40Z</time>
      </trkpt>
      <trkpt lat="45.19989" lon="4.226">
        <ele>844.18</ele>
        <time>2011-10-15T07:02:44Z</time>
      </trkpt>
      <trkpt lat="45.19987" lon="4.22607">
        <ele>843.69</ele>
        <time>2011-10-15T07:02:45Z</time>
      </trkpt>
      <trkpt lat="45.19985" lon="4.22614">
        <ele>843.21</ele>
        <time>2011-10-15T07:02:46Z</time>
      </trkpt>
      <trkpt lat="45.19984" lon="4.22623">
        <ele>841.77</ele>
        <time>2011-10-15T07:02:47Z</time>
      </trkpt>
      <trkpt lat="45.19984" lon="4.22631">
        <ele>840.33</ele>
        <time>2011-10-15T07:02:48Z</time>
      </trkpt>
      <trkpt lat="45.19983" lon="4.22637">
        <ele>839.37</ele>
        <time>2011-10-15T07:02:49Z</time>
      </trkpt>
      <trkpt lat="45.19983" lon="4.22644">
        <ele>838.41</ele>
        <time>2011-10-15T07:02:50Z</time>
      </trkpt>
      <trkpt lat="45.19982" lon="4.2265">
        <ele>837.45</ele>
        <time>2011-10-15T07:02:51Z</time>
      </trkpt>
      <trkpt lat="45.1998" lon="4.22655">
        <ele>836.48</ele>
        <time>2011-10-15T07:02:52Z</time>
      </trkpt>
      <trkpt lat="45.1998" lon="4.22661">
        <ele>836</ele>
        <time>2011-10-15T07:02:53Z</time>
      </trkpt>
      <trkpt lat="45.19981" lon="4.22665">
        <ele>835.52</ele>
        <time>2011-10-15T07:02:54Z</time>
      </trkpt>
      <trkpt lat="45.19982" lon="4.22673">
        <ele>835.04</ele>
        <time>2011-10-15T07:02:56Z</time>
      </trkpt>
      <trkpt lat="45.19983" lon="4.22677">
        <ele>835.04</ele>
        <time>2011-10-15T07:02:57Z</time>
      </trkpt>
      <trkpt lat="45.19983" lon="4.22681">
        <ele>834.08</ele>
        <time>2011-10-15T07:02:58Z</time>
      </trkpt>
      <trkpt lat="45.19983" lon="4.22686">
        <ele>832.64</ele>
        <time>2011-10-15T07:02:59Z</time>
      </trkpt>
      <trkpt lat="45.19982" lon="4.2269">
        <ele>831.68</ele>
        <time>2011-10-15T07:03:00Z</time>
      </trkpt>
      <trkpt lat="45.1998" lon="4.22695">
        <ele>830.72</ele>
        <time>2011-10-15T07:03:01Z</time>
      </trkpt>
      <trkpt lat="45.19979" lon="4.22699">
        <ele>830.24</ele>
        <time>2011-10-15T07:03:02Z</time>
      </trkpt>
      <trkpt lat="45.19979" lon="4.22703">
        <ele>830.24</ele>
        <time>2011-10-15T07:03:03Z</time>
      </trkpt>
      <trkpt lat="45.19979" lon="4.22707">
        <ele>829.76</ele>
        <time>2011-10-15T07:03:04Z</time>
      </trkpt>
      <trkpt lat="45.19979" lon="4.2271">
        <ele>829.76</ele>
        <time>2011-10-15T07:03:05Z</time>
      </trkpt>
      <trkpt lat="45.19979" lon="4.22713">
        <ele>829.27</ele>
        <time>2011-10-15T07:03:06Z</time>
      </trkpt>
      <trkpt lat="45.1998" lon="4.22716">
        <ele>829.27</ele>
        <time>2011-10-15T07:03:07Z</time>
      </trkpt>
      <trkpt lat="45.19981" lon="4.2272">
        <ele>829.27</ele>
        <time>2011-10-15T07:03:08Z</time>
      </trkpt>
      <trkpt lat="45.19984" lon="4.22724">
        <ele>828.79</ele>
        <time>2011-10-15T07:03:09Z</time>
      </trkpt>
      <trkpt lat="45.19988" lon="4.22727">
        <ele>828.79</ele>
        <time>2011-10-15T07:03:10Z</time>
      </trkpt>
      <trkpt lat="45.19991" lon="4.2273">
        <ele>828.31</ele>
        <time>2011-10-15T07:03:11Z</time>
      </trkpt>
      <trkpt lat="45.19995" lon="4.22733">
        <ele>827.83</ele>
        <time>2011-10-15T07:03:12Z</time>
      </trkpt>
      <trkpt lat="45.19999" lon="4.22736">
        <ele>827.35</ele>
        <time>2011-10-15T07:03:13Z</time>
      </trkpt>
      <trkpt lat="45.20002" lon="4.2274">
        <ele>826.87</ele>
        <time>2011-10-15T07:03:14Z</time>
      </trkpt>
      <trkpt lat="45.20005" lon="4.22743">
        <ele>825.91</ele>
        <time>2011-10-15T07:03:15Z</time>
      </trkpt>
      <trkpt lat="45.20008" lon="4.22746">
        <ele>825.43</ele>
        <time>2011-10-15T07:03:16Z</time>
      </trkpt>
      <trkpt lat="45.20013" lon="4.22749">
        <ele>824.95</ele>
        <time>2011-10-15T07:03:17Z</time>
      </trkpt>
      <trkpt lat="45.20042" lon="4.2276">
        <ele>821.58</ele>
        <time>2011-10-15T07:03:24Z</time>
      </trkpt>
      <trkpt lat="45.20067" lon="4.2276">
        <ele>823.51</ele>
        <time>2011-10-15T07:03:29Z</time>
      </trkpt>
      <trkpt lat="45.20072" lon="4.2276">
        <ele>823.51</ele>
        <time>2011-10-15T07:03:30Z</time>
      </trkpt>
      <trkpt lat="45.20097" lon="4.22762">
        <ele>825.91</ele>
        <time>2011-10-15T07:03:35Z</time>
      </trkpt>
      <trkpt lat="45.20114" lon="4.22757">
        <ele>828.31</ele>
        <time>2011-10-15T07:03:40Z</time>
      </trkpt>
      <trkpt lat="45.20117" lon="4.22754">
        <ele>828.31</ele>
        <time>2011-10-15T07:03:41Z</time>
      </trkpt>
      <trkpt lat="45.2012" lon="4.22752">
        <ele>828.31</ele>
        <time>2011-10-15T07:03:42Z</time>
      </trkpt>
      <trkpt lat="45.20123" lon="4.2275">
        <ele>828.79</ele>
        <time>2011-10-15T07:03:43Z</time>
      </trkpt>
      <trkpt lat="45.20127" lon="4.22749">
        <ele>829.27</ele>
        <time>2011-10-15T07:03:44Z</time>
      </trkpt>
      <trkpt lat="45.20129" lon="4.22746">
        <ele>829.76</ele>
        <time>2011-10-15T07:03:45Z</time>
      </trkpt>
      <trkpt lat="45.20132" lon="4.22743">
        <ele>829.76</ele>
        <time>2011-10-15T07:03:46Z</time>
      </trkpt>
      <trkpt lat="45.20134" lon="4.2274">
        <ele>830.24</ele>
        <time>2011-10-15T07:03:47Z</time>
      </trkpt>
      <trkpt lat="45.20139" lon="4.22734">
        <ele>830.24</ele>
        <time>2011-10-15T07:03:49Z</time>
      </trkpt>
      <trkpt lat="45.20142" lon="4.22732">
        <ele>830.24</ele>
        <time>2011-10-15T07:03:50Z</time>
      </trkpt>
      <trkpt lat="45.20145" lon="4.22729">
        <ele>830.24</ele>
        <time>2011-10-15T07:03:51Z</time>
      </trkpt>
      <trkpt lat="45.20149" lon="4.22722">
        <ele>829.27</ele>
        <time>2011-10-15T07:03:52Z</time>
      </trkpt>
      <trkpt lat="45.20154" lon="4.22716">
        <ele>828.31</ele>
        <time>2011-10-15T07:03:53Z</time>
      </trkpt>
      <trkpt lat="45.20158" lon="4.2271">
        <ele>827.35</ele>
        <time>2011-10-15T07:03:54Z</time>
      </trkpt>
      <trkpt lat="45.20163" lon="4.22705">
        <ele>826.39</ele>
        <time>2011-10-15T07:03:55Z</time>
      </trkpt>
      <trkpt lat="45.20166" lon="4.227">
        <ele>825.43</ele>
        <time>2011-10-15T07:03:56Z</time>
      </trkpt>
      <trkpt lat="45.2017" lon="4.22694">
        <ele>824.95</ele>
        <time>2011-10-15T07:03:57Z</time>
      </trkpt>
      <trkpt lat="45.20179" lon="4.22681">
        <ele>823.03</ele>
        <time>2011-10-15T07:04:00Z</time>
      </trkpt>
      <trkpt lat="45.20182" lon="4.22676">
        <ele>822.55</ele>
        <time>2011-10-15T07:04:01Z</time>
      </trkpt>
      <trkpt lat="45.20194" lon="4.22654">
        <ele>820.14</ele>
        <time>2011-10-15T07:04:05Z</time>
      </trkpt>
      <trkpt lat="45.20196" lon="4.22648">
        <ele>819.18</ele>
        <time>2011-10-15T07:04:06Z</time>
      </trkpt>
      <trkpt lat="45.20235" lon="4.22583">
        <ele>812.93</ele>
        <time>2011-10-15T07:04:17Z</time>
      </trkpt>
      <trkpt lat="45.2026" lon="4.22517">
        <ele>811.01</ele>
        <time>2011-10-15T07:04:26Z</time>
      </trkpt>
      <trkpt lat="45.20262" lon="4.22509">
        <ele>811.01</ele>
        <time>2011-10-15T07:04:27Z</time>
      </trkpt>
      <trkpt lat="45.20273" lon="4.22454">
        <ele>810.53</ele>
        <time>2011-10-15T07:04:34Z</time>
      </trkpt>
      <trkpt lat="45.20275" lon="4.22448">
        <ele>810.53</ele>
        <time>2011-10-15T07:04:35Z</time>
      </trkpt>
      <trkpt lat="45.2028" lon="4.22435">
        <ele>811.01</ele>
        <time>2011-10-15T07:04:37Z</time>
      </trkpt>
      <trkpt lat="45.20283" lon="4.2243">
        <ele>811.49</ele>
        <time>2011-10-15T07:04:38Z</time>
      </trkpt>
      <trkpt lat="45.20301" lon="4.22404">
        <ele>812.93</ele>
        <time>2011-10-15T07:04:44Z</time>
      </trkpt>
      <trkpt lat="45.20335" lon="4.22351">
        <ele>817.26</ele>
        <time>2011-10-15T07:04:57Z</time>
      </trkpt>
      <trkpt lat="45.20339" lon="4.22349">
        <ele>817.74</ele>
        <time>2011-10-15T07:04:58Z</time>
      </trkpt>
      <trkpt lat="45.20375" lon="4.22334">
        <ele>820.14</ele>
        <time>2011-10-15T07:05:08Z</time>
      </trkpt>
      <trkpt lat="45.20407" lon="4.22332">
        <ele>819.66</ele>
        <time>2011-10-15T07:05:16Z</time>
      </trkpt>
      <trkpt lat="45.20412" lon="4.22335">
        <ele>819.18</ele>
        <time>2011-10-15T07:05:17Z</time>
      </trkpt>
      <trkpt lat="45.20417" lon="4.2234">
        <ele>818.22</ele>
        <time>2011-10-15T07:05:18Z</time>
      </trkpt>
      <trkpt lat="45.20423" lon="4.22346">
        <ele>817.74</ele>
        <time>2011-10-15T07:05:19Z</time>
      </trkpt>
      <trkpt lat="45.2043" lon="4.22354">
        <ele>816.78</ele>
        <time>2011-10-15T07:05:20Z</time>
      </trkpt>
      <trkpt lat="45.20436" lon="4.22363">
        <ele>815.82</ele>
        <time>2011-10-15T07:05:21Z</time>
      </trkpt>
      <trkpt lat="45.20442" lon="4.22374">
        <ele>814.85</ele>
        <time>2011-10-15T07:05:22Z</time>
      </trkpt>
      <trkpt lat="45.20456" lon="4.22395">
        <ele>812.93</ele>
        <time>2011-10-15T07:05:24Z</time>
      </trkpt>
      <trkpt lat="45.20486" lon="4.22435">
        <ele>810.05</ele>
        <time>2011-10-15T07:05:28Z</time>
      </trkpt>
      <trkpt lat="45.20492" lon="4.22446">
        <ele>809.57</ele>
        <time>2011-10-15T07:05:29Z</time>
      </trkpt>
      <trkpt lat="45.20496" lon="4.22457">
        <ele>809.09</ele>
        <time>2011-10-15T07:05:30Z</time>
      </trkpt>
      <trkpt lat="45.20499" lon="4.2247">
        <ele>809.09</ele>
        <time>2011-10-15T07:05:31Z</time>
      </trkpt>
      <trkpt lat="45.20501" lon="4.22482">
        <ele>808.61</ele>
        <time>2011-10-15T07:05:32Z</time>
      </trkpt>
      <trkpt lat="45.20507" lon="4.22516">
        <ele>807.64</ele>
        <time>2011-10-15T07:05:35Z</time>
      </trkpt>
      <trkpt lat="45.2051" lon="4.22527">
        <ele>807.16</ele>
        <time>2011-10-15T07:05:36Z</time>
      </trkpt>
      <trkpt lat="45.20518" lon="4.22548">
        <ele>805.72</ele>
        <time>2011-10-15T07:05:38Z</time>
      </trkpt>
      <trkpt lat="45.20524" lon="4.22558">
        <ele>804.76</ele>
        <time>2011-10-15T07:05:39Z</time>
      </trkpt>
      <trkpt lat="45.20531" lon="4.22565">
        <ele>803.32</ele>
        <time>2011-10-15T07:05:40Z</time>
      </trkpt>
      <trkpt lat="45.20539" lon="4.22572">
        <ele>802.36</ele>
        <time>2011-10-15T07:05:41Z</time>
      </trkpt>
      <trkpt lat="45.20547" lon="4.22578">
        <ele>800.92</ele>
        <time>2011-10-15T07:05:42Z</time>
      </trkpt>
      <trkpt lat="45.20564" lon="4.22588">
        <ele>798.51</ele>
        <time>2011-10-15T07:05:44Z</time>
      </trkpt>
      <trkpt lat="45.20574" lon="4.22591">
        <ele>797.07</ele>
        <time>2011-10-15T07:05:45Z</time>
      </trkpt>
      <trkpt lat="45.20583" lon="4.22591">
        <ele>796.11</ele>
        <time>2011-10-15T07:05:46Z</time>
      </trkpt>
      <trkpt lat="45.20592" lon="4.22589">
        <ele>794.67</ele>
        <time>2011-10-15T07:05:47Z</time>
      </trkpt>
      <trkpt lat="45.206" lon="4.22586">
        <ele>793.71</ele>
        <time>2011-10-15T07:05:48Z</time>
      </trkpt>
      <trkpt lat="45.20608" lon="4.22585">
        <ele>792.26</ele>
        <time>2011-10-15T07:05:49Z</time>
      </trkpt>
      <trkpt lat="45.20616" lon="4.22585">
        <ele>790.82</ele>
        <time>2011-10-15T07:05:50Z</time>
      </trkpt>
      <trkpt lat="45.20624" lon="4.22585">
        <ele>789.86</ele>
        <time>2011-10-15T07:05:51Z</time>
      </trkpt>
      <trkpt lat="45.20639" lon="4.22587">
        <ele>787.46</ele>
        <time>2011-10-15T07:05:53Z</time>
      </trkpt>
      <trkpt lat="45.20647" lon="4.22591">
        <ele>786.02</ele>
        <time>2011-10-15T07:05:54Z</time>
      </trkpt>
      <trkpt lat="45.20696" lon="4.22615">
        <ele>777.84</ele>
        <time>2011-10-15T07:06:00Z</time>
      </trkpt>
      <trkpt lat="45.20704" lon="4.22617">
        <ele>776.4</ele>
        <time>2011-10-15T07:06:01Z</time>
      </trkpt>
      <trkpt lat="45.20713" lon="4.22617">
        <ele>774.48</ele>
        <time>2011-10-15T07:06:02Z</time>
      </trkpt>
      <trkpt lat="45.20731" lon="4.22615">
        <ele>770.15</ele>
        <time>2011-10-15T07:06:05Z</time>
      </trkpt>
      <trkpt lat="45.20736" lon="4.22616">
        <ele>768.71</ele>
        <time>2011-10-15T07:06:06Z</time>
      </trkpt>
      <trkpt lat="45.20751" lon="4.22621">
        <ele>763.42</ele>
        <time>2011-10-15T07:06:10Z</time>
      </trkpt>
      <trkpt lat="45.20753" lon="4.22624">
        <ele>761.98</ele>
        <time>2011-10-15T07:06:11Z</time>
      </trkpt>
      <trkpt lat="45.20754" lon="4.22628">
        <ele>761.02</ele>
        <time>2011-10-15T07:06:12Z</time>
      </trkpt>
      <trkpt lat="45.20755" lon="4.22632">
        <ele>760.06</ele>
        <time>2011-10-15T07:06:13Z</time>
      </trkpt>
      <trkpt lat="45.20756" lon="4.22636">
        <ele>759.1</ele>
        <time>2011-10-15T07:06:14Z</time>
      </trkpt>
      <trkpt lat="45.20756" lon="4.22639">
        <ele>758.14</ele>
        <time>2011-10-15T07:06:15Z</time>
      </trkpt>
      <trkpt lat="45.20755" lon="4.22641">
        <ele>757.66</ele>
        <time>2011-10-15T07:06:16Z</time>
      </trkpt>
      <trkpt lat="45.20746" lon="4.22652">
        <ele>754.77</ele>
        <time>2011-10-15T07:06:20Z</time>
      </trkpt>
      <trkpt lat="45.20743" lon="4.22658">
        <ele>753.33</ele>
        <time>2011-10-15T07:06:21Z</time>
      </trkpt>
      <trkpt lat="45.20741" lon="4.22663">
        <ele>752.85</ele>
        <time>2011-10-15T07:06:22Z</time>
      </trkpt>
      <trkpt lat="45.20743" lon="4.22669">
        <ele>752.85</ele>
        <time>2011-10-15T07:06:23Z</time>
      </trkpt>
      <trkpt lat="45.20747" lon="4.22675">
        <ele>752.37</ele>
        <time>2011-10-15T07:06:24Z</time>
      </trkpt>
      <trkpt lat="45.20752" lon="4.2268">
        <ele>752.37</ele>
        <time>2011-10-15T07:06:25Z</time>
      </trkpt>
      <trkpt lat="45.20758" lon="4.22685">
        <ele>751.89</ele>
        <time>2011-10-15T07:06:26Z</time>
      </trkpt>
      <trkpt lat="45.20774" lon="4.227">
        <ele>751.41</ele>
        <time>2011-10-15T07:06:28Z</time>
      </trkpt>
      <trkpt lat="45.20783" lon="4.22709">
        <ele>751.41</ele>
        <time>2011-10-15T07:06:29Z</time>
      </trkpt>
      <trkpt lat="45.20813" lon="4.22732">
        <ele>750.93</ele>
        <time>2011-10-15T07:06:33Z</time>
      </trkpt>
      <trkpt lat="45.2082" lon="4.22739">
        <ele>750.45</ele>
        <time>2011-10-15T07:06:34Z</time>
      </trkpt>
      <trkpt lat="45.20836" lon="4.22752">
        <ele>749.49</ele>
        <time>2011-10-15T07:06:36Z</time>
      </trkpt>
      <trkpt lat="45.20854" lon="4.22762">
        <ele>746.12</ele>
        <time>2011-10-15T07:06:38Z</time>
      </trkpt>
      <trkpt lat="45.20859" lon="4.22763">
        <ele>746.12</ele>
        <time>2011-10-15T07:06:39Z</time>
      </trkpt>
      <trkpt lat="45.20864" lon="4.22764">
        <ele>745.16</ele>
        <time>2011-10-15T07:06:40Z</time>
      </trkpt>
      <trkpt lat="45.209" lon="4.22776">
        <ele>736.99</ele>
        <time>2011-10-15T07:06:50Z</time>
      </trkpt>
      <trkpt lat="45.20908" lon="4.22784">
        <ele>733.14</ele>
        <time>2011-10-15T07:06:53Z</time>
      </trkpt>
      <trkpt lat="45.20916" lon="4.22789">
        <ele>730.26</ele>
        <time>2011-10-15T07:06:56Z</time>
      </trkpt>
      <trkpt lat="45.20919" lon="4.22789">
        <ele>728.34</ele>
        <time>2011-10-15T07:06:59Z</time>
      </trkpt>
      <trkpt lat="45.20921" lon="4.22785">
        <ele>727.37</ele>
        <time>2011-10-15T07:07:00Z</time>
      </trkpt>
      <trkpt lat="45.20931" lon="4.22768">
        <ele>724.49</ele>
        <time>2011-10-15T07:07:03Z</time>
      </trkpt>
      <trkpt lat="45.20934" lon="4.22762">
        <ele>723.05</ele>
        <time>2011-10-15T07:07:04Z</time>
      </trkpt>
      <trkpt lat="45.20936" lon="4.22758">
        <ele>722.09</ele>
        <time>2011-10-15T07:07:05Z</time>
      </trkpt>
      <trkpt lat="45.20938" lon="4.22753">
        <ele>720.65</ele>
        <time>2011-10-15T07:07:06Z</time>
      </trkpt>
      <trkpt lat="45.2094" lon="4.22749">
        <ele>719.2</ele>
        <time>2011-10-15T07:07:07Z</time>
      </trkpt>
      <trkpt lat="45.20942" lon="4.22723">
        <ele>711.99</ele>
        <time>2011-10-15T07:07:12Z</time>
      </trkpt>
      <trkpt lat="45.20944" lon="4.22717">
        <ele>710.55</ele>
        <time>2011-10-15T07:07:13Z</time>
      </trkpt>
      <trkpt lat="45.20945" lon="4.22711">
        <ele>709.59</ele>
        <time>2011-10-15T07:07:14Z</time>
      </trkpt>
      <trkpt lat="45.20948" lon="4.22702">
        <ele>706.71</ele>
        <time>2011-10-15T07:07:16Z</time>
      </trkpt>
      <trkpt lat="45.20945" lon="4.22684">
        <ele>701.9</ele>
        <time>2011-10-15T07:07:20Z</time>
      </trkpt>
      <trkpt lat="45.20937" lon="4.22653">
        <ele>693.25</ele>
        <time>2011-10-15T07:07:29Z</time>
      </trkpt>
      <trkpt lat="45.20937" lon="4.22638">
        <ele>689.4</ele>
        <time>2011-10-15T07:07:33Z</time>
      </trkpt>
      <trkpt lat="45.20933" lon="4.22627">
        <ele>686.04</ele>
        <time>2011-10-15T07:07:37Z</time>
      </trkpt>
      <trkpt lat="45.20934" lon="4.22624">
        <ele>685.08</ele>
        <time>2011-10-15T07:07:39Z</time>
      </trkpt>
      <trkpt lat="45.20938" lon="4.22621">
        <ele>684.6</ele>
        <time>2011-10-15T07:07:45Z</time>
      </trkpt>
      <trkpt lat="45.20943" lon="4.22624">
        <ele>684.6</ele>
        <time>2011-10-15T07:07:49Z</time>
      </trkpt>
      <trkpt lat="45.20951" lon="4.22621">
        <ele>685.56</ele>
        <time>2011-10-15T07:07:55Z</time>
      </trkpt>
      <trkpt lat="45.20953" lon="4.22616">
        <ele>685.56</ele>
        <time>2011-10-15T07:07:57Z</time>
      </trkpt>
      <trkpt lat="45.20955" lon="4.22608">
        <ele>685.08</ele>
        <time>2011-10-15T07:08:00Z</time>
      </trkpt>
      <trkpt lat="45.20954" lon="4.22591">
        <ele>683.63</ele>
        <time>2011-10-15T07:08:05Z</time>
      </trkpt>
      <trkpt lat="45.20955" lon="4.22581">
        <ele>683.63</ele>
        <time>2011-10-15T07:08:08Z</time>
      </trkpt>
      <trkpt lat="45.2095" lon="4.22569">
        <ele>684.12</ele>
        <time>2011-10-15T07:08:11Z</time>
      </trkpt>
      <trkpt lat="45.20949" lon="4.22557">
        <ele>683.15</ele>
        <time>2011-10-15T07:08:17Z</time>
      </trkpt>
      <trkpt lat="45.20944" lon="4.22543">
        <ele>682.19</ele>
        <time>2011-10-15T07:08:21Z</time>
      </trkpt>
      <trkpt lat="45.20937" lon="4.22528">
        <ele>682.67</ele>
        <time>2011-10-15T07:08:27Z</time>
      </trkpt>
      <trkpt lat="45.20934" lon="4.22512">
        <ele>682.19</ele>
        <time>2011-10-15T07:08:36Z</time>
      </trkpt>
      <trkpt lat="45.20938" lon="4.22508">
        <ele>682.19</ele>
        <time>2011-10-15T07:08:41Z</time>
      </trkpt>
      <trkpt lat="45.20951" lon="4.22504">
        <ele>680.27</ele>
        <time>2011-10-15T07:08:52Z</time>
      </trkpt>
      <trkpt lat="45.20952" lon="4.22503">
        <ele>680.27</ele>
        <time>2011-10-15T07:08:53Z</time>
      </trkpt>
      <trkpt lat="45.20964" lon="4.22502">
        <ele>679.79</ele>
        <time>2011-10-15T07:09:01Z</time>
      </trkpt>
      <trkpt lat="45.20965" lon="4.22499">
        <ele>679.79</ele>
        <time>2011-10-15T07:09:04Z</time>
      </trkpt>
      <trkpt lat="45.20973" lon="4.22498">
        <ele>678.83</ele>
        <time>2011-10-15T07:09:14Z</time>
      </trkpt>
      <trkpt lat="45.20973" lon="4.22492">
        <ele>677.39</ele>
        <time>2011-10-15T07:09:16Z</time>
      </trkpt>
      <trkpt lat="45.20993" lon="4.22474">
        <ele>676.42</ele>
        <time>2011-10-15T07:09:27Z</time>
      </trkpt>
      <trkpt lat="45.20994" lon="4.22473">
        <ele>675.94</ele>
        <time>2011-10-15T07:09:28Z</time>
      </trkpt>
      <trkpt lat="45.21" lon="4.22473">
        <ele>674.98</ele>
        <time>2011-10-15T07:09:33Z</time>
      </trkpt>
      <trkpt lat="45.21005" lon="4.22474">
        <ele>674.5</ele>
        <time>2011-10-15T07:09:36Z</time>
      </trkpt>
      <trkpt lat="45.21029" lon="4.22475">
        <ele>669.22</ele>
        <time>2011-10-15T07:09:46Z</time>
      </trkpt>
      <trkpt lat="45.21035" lon="4.22475">
        <ele>664.89</ele>
        <time>2011-10-15T07:09:54Z</time>
      </trkpt>
      <trkpt lat="45.21036" lon="4.22476">
        <ele>664.41</ele>
        <time>2011-10-15T07:09:55Z</time>
      </trkpt>
      <trkpt lat="45.21047" lon="4.2248">
        <ele>660.56</ele>
        <time>2011-10-15T07:10:02Z</time>
      </trkpt>
      <trkpt lat="45.2105" lon="4.22481">
        <ele>659.12</ele>
        <time>2011-10-15T07:10:04Z</time>
      </trkpt>
      <trkpt lat="45.21058" lon="4.22483">
        <ele>655.28</ele>
        <time>2011-10-15T07:10:08Z</time>
      </trkpt>
      <trkpt lat="45.21077" lon="4.22516">
        <ele>649.51</ele>
        <time>2011-10-15T07:10:16Z</time>
      </trkpt>
      <trkpt lat="45.21078" lon="4.22523">
        <ele>649.03</ele>
        <time>2011-10-15T07:10:17Z</time>
      </trkpt>
      <trkpt lat="45.21079" lon="4.2253">
        <ele>648.07</ele>
        <time>2011-10-15T07:10:18Z</time>
      </trkpt>
      <trkpt lat="45.21079" lon="4.22539">
        <ele>647.1</ele>
        <time>2011-10-15T07:10:19Z</time>
      </trkpt>
      <trkpt lat="45.21079" lon="4.22548">
        <ele>646.62</ele>
        <time>2011-10-15T07:10:20Z</time>
      </trkpt>
      <trkpt lat="45.2108" lon="4.22582">
        <ele>646.62</ele>
        <time>2011-10-15T07:10:24Z</time>
      </trkpt>
      <trkpt lat="45.21083" lon="4.22598">
        <ele>646.62</ele>
        <time>2011-10-15T07:10:27Z</time>
      </trkpt>
      <trkpt lat="45.21083" lon="4.22602">
        <ele>646.62</ele>
        <time>2011-10-15T07:10:28Z</time>
      </trkpt>
      <trkpt lat="45.21085" lon="4.22605">
        <ele>646.14</ele>
        <time>2011-10-15T07:10:29Z</time>
      </trkpt>
      <trkpt lat="45.21086" lon="4.22608">
        <ele>646.14</ele>
        <time>2011-10-15T07:10:30Z</time>
      </trkpt>
      <trkpt lat="45.21087" lon="4.22611">
        <ele>646.14</ele>
        <time>2011-10-15T07:10:31Z</time>
      </trkpt>
      <trkpt lat="45.21089" lon="4.22613">
        <ele>645.66</ele>
        <time>2011-10-15T07:10:32Z</time>
      </trkpt>
      <trkpt lat="45.21092" lon="4.22618">
        <ele>645.66</ele>
        <time>2011-10-15T07:10:36Z</time>
      </trkpt>
      <trkpt lat="45.21093" lon="4.22618">
        <ele>645.66</ele>
        <time>2011-10-15T07:10:37Z</time>
      </trkpt>
      <trkpt lat="45.21094" lon="4.22619">
        <ele>645.66</ele>
        <time>2011-10-15T07:10:39Z</time>
      </trkpt>
      <trkpt lat="45.21095" lon="4.22621">
        <ele>645.18</ele>
        <time>2011-10-15T07:10:40Z</time>
      </trkpt>
      <trkpt lat="45.21096" lon="4.22621">
        <ele>645.66</ele>
        <time>2011-10-15T07:10:43Z</time>
      </trkpt>
      <trkpt lat="45.21111" lon="4.22621">
        <ele>646.62</ele>
        <time>2011-10-15T07:10:53Z</time>
      </trkpt>
      <trkpt lat="45.21121" lon="4.22624">
        <ele>648.55</ele>
        <time>2011-10-15T07:11:05Z</time>
      </trkpt>
      <trkpt lat="45.21124" lon="4.22623">
        <ele>649.51</ele>
        <time>2011-10-15T07:11:17Z</time>
      </trkpt>
      <trkpt lat="45.21126" lon="4.22622">
        <ele>649.99</ele>
        <time>2011-10-15T07:11:18Z</time>
      </trkpt>
      <trkpt lat="45.21127" lon="4.22622">
        <ele>649.99</ele>
        <time>2011-10-15T07:11:19Z</time>
      </trkpt>
      <trkpt lat="45.21129" lon="4.22622">
        <ele>649.99</ele>
        <time>2011-10-15T07:11:20Z</time>
      </trkpt>
      <trkpt lat="45.21131" lon="4.22623">
        <ele>650.47</ele>
        <time>2011-10-15T07:11:21Z</time>
      </trkpt>
      <trkpt lat="45.21133" lon="4.22623">
        <ele>650.47</ele>
        <time>2011-10-15T07:11:22Z</time>
      </trkpt>
      <trkpt lat="45.21134" lon="4.22622">
        <ele>650.47</ele>
        <time>2011-10-15T07:11:23Z</time>
      </trkpt>
      <trkpt lat="45.21136" lon="4.22622">
        <ele>650.47</ele>
        <time>2011-10-15T07:11:24Z</time>
      </trkpt>
      <trkpt lat="45.21144" lon="4.2262">
        <ele>649.51</ele>
        <time>2011-10-15T07:11:30Z</time>
      </trkpt>
      <trkpt lat="45.21146" lon="4.22617">
        <ele>649.51</ele>
        <time>2011-10-15T07:11:32Z</time>
      </trkpt>
      <trkpt lat="45.21147" lon="4.22617">
        <ele>649.03</ele>
        <time>2011-10-15T07:11:33Z</time>
      </trkpt>
      <trkpt lat="45.21149" lon="4.22616">
        <ele>649.03</ele>
        <time>2011-10-15T07:11:34Z</time>
      </trkpt>
      <trkpt lat="45.21158" lon="4.22612">
        <ele>649.03</ele>
        <time>2011-10-15T07:11:44Z</time>
      </trkpt>
      <trkpt lat="45.21161" lon="4.2261">
        <ele>649.03</ele>
        <time>2011-10-15T07:11:47Z</time>
      </trkpt>
      <trkpt lat="45.21175" lon="4.22603">
        <ele>651.43</ele>
        <time>2011-10-15T07:12:00Z</time>
      </trkpt>
      <trkpt lat="45.21183" lon="4.22603">
        <ele>653.83</ele>
        <time>2011-10-15T07:12:12Z</time>
      </trkpt>
      <trkpt lat="45.21187" lon="4.22601">
        <ele>653.83</ele>
        <time>2011-10-15T07:12:32Z</time>
      </trkpt>
      <trkpt lat="45.21188" lon="4.226">
        <ele>654.31</ele>
        <time>2011-10-15T07:12:33Z</time>
      </trkpt>
      <trkpt lat="45.21189" lon="4.22599">
        <ele>654.8</ele>
        <time>2011-10-15T07:12:34Z</time>
      </trkpt>
      <trkpt lat="45.21191" lon="4.22599">
        <ele>655.28</ele>
        <time>2011-10-15T07:12:35Z</time>
      </trkpt>
      <trkpt lat="45.21192" lon="4.22599">
        <ele>655.76</ele>
        <time>2011-10-15T07:12:36Z</time>
      </trkpt>
      <trkpt lat="45.21198" lon="4.22596">
        <ele>658.16</ele>
        <time>2011-10-15T07:12:40Z</time>
      </trkpt>
      <trkpt lat="45.212" lon="4.22595">
        <ele>658.64</ele>
        <time>2011-10-15T07:12:41Z</time>
      </trkpt>
      <trkpt lat="45.21204" lon="4.22595">
        <ele>659.6</ele>
        <time>2011-10-15T07:12:44Z</time>
      </trkpt>
      <trkpt lat="45.21228" lon="4.22589">
        <ele>658.64</ele>
        <time>2011-10-15T07:12:57Z</time>
      </trkpt>
      <trkpt lat="45.21234" lon="4.22585">
        <ele>658.64</ele>
        <time>2011-10-15T07:13:00Z</time>
      </trkpt>
      <trkpt lat="45.21236" lon="4.22584">
        <ele>658.16</ele>
        <time>2011-10-15T07:13:01Z</time>
      </trkpt>
      <trkpt lat="45.21237" lon="4.22582">
        <ele>658.16</ele>
        <time>2011-10-15T07:13:02Z</time>
      </trkpt>
      <trkpt lat="45.21239" lon="4.2258">
        <ele>658.16</ele>
        <time>2011-10-15T07:13:03Z</time>
      </trkpt>
      <trkpt lat="45.2124" lon="4.22579">
        <ele>658.16</ele>
        <time>2011-10-15T07:13:04Z</time>
      </trkpt>
      <trkpt lat="45.21242" lon="4.22577">
        <ele>658.16</ele>
        <time>2011-10-15T07:13:05Z</time>
      </trkpt>
      <trkpt lat="45.21243" lon="4.22576">
        <ele>658.16</ele>
        <time>2011-10-15T07:13:06Z</time>
      </trkpt>
      <trkpt lat="45.21245" lon="4.22576">
        <ele>658.64</ele>
        <time>2011-10-15T07:13:07Z</time>
      </trkpt>
      <trkpt lat="45.21247" lon="4.22575">
        <ele>658.64</ele>
        <time>2011-10-15T07:13:08Z</time>
      </trkpt>
      <trkpt lat="45.21249" lon="4.22575">
        <ele>658.64</ele>
        <time>2011-10-15T07:13:09Z</time>
      </trkpt>
      <trkpt lat="45.21251" lon="4.22574">
        <ele>658.64</ele>
        <time>2011-10-15T07:13:10Z</time>
      </trkpt>
      <trkpt lat="45.21253" lon="4.22574">
        <ele>658.64</ele>
        <time>2011-10-15T07:13:11Z</time>
      </trkpt>
      <trkpt lat="45.21255" lon="4.22573">
        <ele>658.64</ele>
        <time>2011-10-15T07:13:12Z</time>
      </trkpt>
      <trkpt lat="45.21257" lon="4.22573">
        <ele>658.64</ele>
        <time>2011-10-15T07:13:13Z</time>
      </trkpt>
      <trkpt lat="45.21279" lon="4.22574">
        <ele>661.52</ele>
        <time>2011-10-15T07:13:24Z</time>
      </trkpt>
      <trkpt lat="45.21301" lon="4.22579">
        <ele>664.41</ele>
        <time>2011-10-15T07:13:35Z</time>
      </trkpt>
      <trkpt lat="45.21304" lon="4.2258">
        <ele>665.37</ele>
        <time>2011-10-15T07:13:37Z</time>
      </trkpt>
      <trkpt lat="45.21305" lon="4.22581">
        <ele>665.37</ele>
        <time>2011-10-15T07:13:38Z</time>
      </trkpt>
      <trkpt lat="45.21328" lon="4.2258">
        <ele>665.37</ele>
        <time>2011-10-15T07:13:50Z</time>
      </trkpt>
      <trkpt lat="45.21364" lon="4.2259">
        <ele>664.41</ele>
        <time>2011-10-15T07:14:01Z</time>
      </trkpt>
      <trkpt lat="45.21371" lon="4.22595">
        <ele>664.41</ele>
        <time>2011-10-15T07:14:03Z</time>
      </trkpt>
      <trkpt lat="45.21378" lon="4.22602">
        <ele>663.93</ele>
        <time>2011-10-15T07:14:05Z</time>
      </trkpt>
      <trkpt lat="45.21381" lon="4.22605">
        <ele>663.45</ele>
        <time>2011-10-15T07:14:06Z</time>
      </trkpt>
      <trkpt lat="45.21387" lon="4.22609">
        <ele>662.97</ele>
        <time>2011-10-15T07:14:08Z</time>
      </trkpt>
      <trkpt lat="45.21407" lon="4.2262">
        <ele>660.56</ele>
        <time>2011-10-15T07:14:13Z</time>
      </trkpt>
      <trkpt lat="45.2143" lon="4.22636">
        <ele>651.91</ele>
        <time>2011-10-15T07:14:22Z</time>
      </trkpt>
      <trkpt lat="45.21437" lon="4.22648">
        <ele>648.07</ele>
        <time>2011-10-15T07:14:25Z</time>
      </trkpt>
      <trkpt lat="45.21455" lon="4.22691">
        <ele>644.7</ele>
        <time>2011-10-15T07:14:35Z</time>
      </trkpt>
      <trkpt lat="45.21456" lon="4.22694">
        <ele>644.7</ele>
        <time>2011-10-15T07:14:36Z</time>
      </trkpt>
      <trkpt lat="45.21456" lon="4.22708">
        <ele>644.22</ele>
        <time>2011-10-15T07:14:39Z</time>
      </trkpt>
      <trkpt lat="45.21462" lon="4.2275">
        <ele>643.26</ele>
        <time>2011-10-15T07:14:51Z</time>
      </trkpt>
      <trkpt lat="45.21468" lon="4.22793">
        <ele>642.78</ele>
        <time>2011-10-15T07:15:00Z</time>
      </trkpt>
      <trkpt lat="45.21466" lon="4.22819">
        <ele>643.26</ele>
        <time>2011-10-15T07:15:06Z</time>
      </trkpt>
      <trkpt lat="45.21442" lon="4.22827">
        <ele>643.26</ele>
        <time>2011-10-15T07:15:16Z</time>
      </trkpt>
      <trkpt lat="45.21427" lon="4.22832">
        <ele>642.78</ele>
        <time>2011-10-15T07:15:26Z</time>
      </trkpt>
      <trkpt lat="45.21423" lon="4.22836">
        <ele>642.78</ele>
        <time>2011-10-15T07:15:31Z</time>
      </trkpt>
      <trkpt lat="45.21427" lon="4.22846">
        <ele>642.3</ele>
        <time>2011-10-15T07:15:37Z</time>
      </trkpt>
      <trkpt lat="45.21432" lon="4.22849">
        <ele>642.3</ele>
        <time>2011-10-15T07:15:41Z</time>
      </trkpt>
      <trkpt lat="45.21435" lon="4.2285">
        <ele>642.3</ele>
        <time>2011-10-15T07:15:43Z</time>
      </trkpt>
      <trkpt lat="45.21452" lon="4.22854">
        <ele>641.82</ele>
        <time>2011-10-15T07:15:56Z</time>
      </trkpt>
      <trkpt lat="45.21457" lon="4.22861">
        <ele>641.34</ele>
        <time>2011-10-15T07:15:58Z</time>
      </trkpt>
      <trkpt lat="45.21483" lon="4.22891">
        <ele>638.45</ele>
        <time>2011-10-15T07:16:11Z</time>
      </trkpt>
      <trkpt lat="45.21489" lon="4.22899">
        <ele>637.01</ele>
        <time>2011-10-15T07:16:17Z</time>
      </trkpt>
      <trkpt lat="45.21496" lon="4.22901">
        <ele>631.24</ele>
        <time>2011-10-15T07:16:27Z</time>
      </trkpt>
      <trkpt lat="45.21513" lon="4.22885">
        <ele>625.47</ele>
        <time>2011-10-15T07:16:36Z</time>
      </trkpt>
      <trkpt lat="45.21523" lon="4.22862">
        <ele>624.03</ele>
        <time>2011-10-15T07:16:45Z</time>
      </trkpt>
      <trkpt lat="45.21528" lon="4.22856">
        <ele>623.55</ele>
        <time>2011-10-15T07:16:48Z</time>
      </trkpt>
      <trkpt lat="45.21542" lon="4.2286">
        <ele>620.67</ele>
        <time>2011-10-15T07:17:02Z</time>
      </trkpt>
      <trkpt lat="45.21548" lon="4.22857">
        <ele>618.26</ele>
        <time>2011-10-15T07:17:12Z</time>
      </trkpt>
      <trkpt lat="45.21555" lon="4.22856">
        <ele>619.71</ele>
        <time>2011-10-15T07:17:21Z</time>
      </trkpt>
      <trkpt lat="45.21559" lon="4.22853">
        <ele>622.11</ele>
        <time>2011-10-15T07:17:32Z</time>
      </trkpt>
      <trkpt lat="45.2156" lon="4.22851">
        <ele>622.59</ele>
        <time>2011-10-15T07:17:36Z</time>
      </trkpt>
      <trkpt lat="45.2157" lon="4.22858">
        <ele>620.67</ele>
        <time>2011-10-15T07:17:47Z</time>
      </trkpt>
      <trkpt lat="45.21573" lon="4.22858">
        <ele>618.75</ele>
        <time>2011-10-15T07:17:56Z</time>
      </trkpt>
      <trkpt lat="45.21577" lon="4.22861">
        <ele>621.15</ele>
        <time>2011-10-15T07:18:06Z</time>
      </trkpt>
      <trkpt lat="45.21577" lon="4.22867">
        <ele>622.59</ele>
        <time>2011-10-15T07:18:10Z</time>
      </trkpt>
      <trkpt lat="45.21577" lon="4.2287">
        <ele>623.07</ele>
        <time>2011-10-15T07:18:12Z</time>
      </trkpt>
      <trkpt lat="45.21575" lon="4.22873">
        <ele>623.55</ele>
        <time>2011-10-15T07:18:16Z</time>
      </trkpt>
      <trkpt lat="45.21575" lon="4.2288">
        <ele>625.47</ele>
        <time>2011-10-15T07:18:20Z</time>
      </trkpt>
      <trkpt lat="45.21575" lon="4.22886">
        <ele>625.96</ele>
        <time>2011-10-15T07:18:24Z</time>
      </trkpt>
      <trkpt lat="45.21574" lon="4.22896">
        <ele>627.4</ele>
        <time>2011-10-15T07:18:32Z</time>
      </trkpt>
      <trkpt lat="45.21575" lon="4.22911">
        <ele>627.88</ele>
        <time>2011-10-15T07:18:43Z</time>
      </trkpt>
      <trkpt lat="45.21575" lon="4.22915">
        <ele>628.36</ele>
        <time>2011-10-15T07:18:47Z</time>
      </trkpt>
      <trkpt lat="45.21572" lon="4.22928">
        <ele>631.72</ele>
        <time>2011-10-15T07:18:58Z</time>
      </trkpt>
      <trkpt lat="45.21569" lon="4.22939">
        <ele>635.57</ele>
        <time>2011-10-15T07:19:10Z</time>
      </trkpt>
      <trkpt lat="45.21568" lon="4.22942">
        <ele>637.01</ele>
        <time>2011-10-15T07:19:13Z</time>
      </trkpt>
      <trkpt lat="45.2157" lon="4.22945">
        <ele>636.05</ele>
        <time>2011-10-15T07:19:16Z</time>
      </trkpt>
      <trkpt lat="45.21573" lon="4.22942">
        <ele>634.61</ele>
        <time>2011-10-15T07:19:21Z</time>
      </trkpt>
      <trkpt lat="45.21578" lon="4.22934">
        <ele>634.13</ele>
        <time>2011-10-15T07:19:27Z</time>
      </trkpt>
      <trkpt lat="45.21588" lon="4.22925">
        <ele>632.68</ele>
        <time>2011-10-15T07:19:38Z</time>
      </trkpt>
      <trkpt lat="45.21592" lon="4.22912">
        <ele>632.68</ele>
        <time>2011-10-15T07:19:50Z</time>
      </trkpt>
      <trkpt lat="45.21597" lon="4.22903">
        <ele>632.68</ele>
        <time>2011-10-15T07:19:56Z</time>
      </trkpt>
      <trkpt lat="45.21602" lon="4.22893">
        <ele>633.65</ele>
        <time>2011-10-15T07:20:00Z</time>
      </trkpt>
      <trkpt lat="45.21605" lon="4.22887">
        <ele>635.57</ele>
        <time>2011-10-15T07:20:03Z</time>
      </trkpt>
      <trkpt lat="45.21607" lon="4.22899">
        <ele>639.41</ele>
        <time>2011-10-15T07:20:10Z</time>
      </trkpt>
      <trkpt lat="45.21608" lon="4.22905">
        <ele>640.38</ele>
        <time>2011-10-15T07:20:13Z</time>
      </trkpt>
      <trkpt lat="45.2161" lon="4.22922">
        <ele>641.82</ele>
        <time>2011-10-15T07:20:25Z</time>
      </trkpt>
      <trkpt lat="45.21615" lon="4.22938">
        <ele>647.1</ele>
        <time>2011-10-15T07:20:39Z</time>
      </trkpt>
      <trkpt lat="45.21616" lon="4.22943">
        <ele>648.07</ele>
        <time>2011-10-15T07:20:42Z</time>
      </trkpt>
      <trkpt lat="45.21624" lon="4.22955">
        <ele>648.55</ele>
        <time>2011-10-15T07:20:55Z</time>
      </trkpt>
      <trkpt lat="45.21633" lon="4.22953">
        <ele>651.43</ele>
        <time>2011-10-15T07:21:07Z</time>
      </trkpt>
      <trkpt lat="45.21632" lon="4.22943">
        <ele>653.35</ele>
        <time>2011-10-15T07:21:17Z</time>
      </trkpt>
      <trkpt lat="45.21633" lon="4.2293">
        <ele>652.87</ele>
        <time>2011-10-15T07:21:28Z</time>
      </trkpt>
      <trkpt lat="45.21633" lon="4.22909">
        <ele>654.8</ele>
        <time>2011-10-15T07:21:40Z</time>
      </trkpt>
      <trkpt lat="45.21639" lon="4.22888">
        <ele>654.31</ele>
        <time>2011-10-15T07:21:54Z</time>
      </trkpt>
      <trkpt lat="45.21645" lon="4.22872">
        <ele>654.8</ele>
        <time>2011-10-15T07:22:07Z</time>
      </trkpt>
      <trkpt lat="45.21648" lon="4.22861">
        <ele>655.76</ele>
        <time>2011-10-15T07:22:19Z</time>
      </trkpt>
      <trkpt lat="45.21652" lon="4.22842">
        <ele>656.24</ele>
        <time>2011-10-15T07:22:33Z</time>
      </trkpt>
      <trkpt lat="45.21657" lon="4.22826">
        <ele>653.83</ele>
        <time>2011-10-15T07:22:46Z</time>
      </trkpt>
      <trkpt lat="45.21659" lon="4.22818">
        <ele>654.31</ele>
        <time>2011-10-15T07:22:54Z</time>
      </trkpt>
      <trkpt lat="45.21661" lon="4.22803">
        <ele>653.35</ele>
        <time>2011-10-15T07:23:06Z</time>
      </trkpt>
      <trkpt lat="45.2166" lon="4.22786">
        <ele>662.01</ele>
        <time>2011-10-15T07:23:16Z</time>
      </trkpt>
      <trkpt lat="45.2166" lon="4.22783">
        <ele>663.45</ele>
        <time>2011-10-15T07:23:18Z</time>
      </trkpt>
      <trkpt lat="45.21662" lon="4.22777">
        <ele>664.89</ele>
        <time>2011-10-15T07:23:23Z</time>
      </trkpt>
      <trkpt lat="45.21664" lon="4.22769">
        <ele>666.33</ele>
        <time>2011-10-15T07:23:31Z</time>
      </trkpt>
      <trkpt lat="45.21665" lon="4.22767">
        <ele>666.33</ele>
        <time>2011-10-15T07:23:35Z</time>
      </trkpt>
      <trkpt lat="45.21666" lon="4.22749">
        <ele>671.62</ele>
        <time>2011-10-15T07:23:48Z</time>
      </trkpt>
      <trkpt lat="45.21666" lon="4.22746">
        <ele>672.58</ele>
        <time>2011-10-15T07:23:51Z</time>
      </trkpt>
      <trkpt lat="45.21671" lon="4.22728">
        <ele>673.54</ele>
        <time>2011-10-15T07:24:06Z</time>
      </trkpt>
      <trkpt lat="45.21675" lon="4.22717">
        <ele>675.46</ele>
        <time>2011-10-15T07:24:18Z</time>
      </trkpt>
      <trkpt lat="45.21678" lon="4.2271">
        <ele>677.39</ele>
        <time>2011-10-15T07:24:25Z</time>
      </trkpt>
      <trkpt lat="45.21684" lon="4.22709">
        <ele>679.79</ele>
        <time>2011-10-15T07:24:36Z</time>
      </trkpt>
      <trkpt lat="45.21686" lon="4.22716">
        <ele>681.23</ele>
        <time>2011-10-15T07:24:43Z</time>
      </trkpt>
      <trkpt lat="45.21687" lon="4.22723">
        <ele>685.08</ele>
        <time>2011-10-15T07:24:48Z</time>
      </trkpt>
      <trkpt lat="45.2169" lon="4.22738">
        <ele>687</ele>
        <time>2011-10-15T07:25:00Z</time>
      </trkpt>
      <trkpt lat="45.21689" lon="4.2275">
        <ele>687.96</ele>
        <time>2011-10-15T07:25:07Z</time>
      </trkpt>
      <trkpt lat="45.21689" lon="4.22754">
        <ele>689.88</ele>
        <time>2011-10-15T07:25:12Z</time>
      </trkpt>
      <trkpt lat="45.21689" lon="4.22782">
        <ele>693.73</ele>
        <time>2011-10-15T07:25:24Z</time>
      </trkpt>
      <trkpt lat="45.21691" lon="4.2279">
        <ele>694.21</ele>
        <time>2011-10-15T07:25:27Z</time>
      </trkpt>
      <trkpt lat="45.21692" lon="4.22803">
        <ele>694.21</ele>
        <time>2011-10-15T07:25:32Z</time>
      </trkpt>
      <trkpt lat="45.21694" lon="4.22833">
        <ele>697.09</ele>
        <time>2011-10-15T07:25:44Z</time>
      </trkpt>
      <trkpt lat="45.21697" lon="4.22842">
        <ele>697.09</ele>
        <time>2011-10-15T07:25:49Z</time>
      </trkpt>
      <trkpt lat="45.21708" lon="4.22863">
        <ele>696.13</ele>
        <time>2011-10-15T07:26:01Z</time>
      </trkpt>
      <trkpt lat="45.21716" lon="4.2287">
        <ele>699.5</ele>
        <time>2011-10-15T07:26:08Z</time>
      </trkpt>
      <trkpt lat="45.21724" lon="4.22876">
        <ele>700.46</ele>
        <time>2011-10-15T07:26:13Z</time>
      </trkpt>
      <trkpt lat="45.21742" lon="4.22883">
        <ele>703.82</ele>
        <time>2011-10-15T07:26:26Z</time>
      </trkpt>
      <trkpt lat="45.21759" lon="4.22888">
        <ele>705.26</ele>
        <time>2011-10-15T07:26:36Z</time>
      </trkpt>
      <trkpt lat="45.21772" lon="4.22884">
        <ele>706.23</ele>
        <time>2011-10-15T07:26:45Z</time>
      </trkpt>
      <trkpt lat="45.21774" lon="4.22879">
        <ele>706.23</ele>
        <time>2011-10-15T07:26:48Z</time>
      </trkpt>
      <trkpt lat="45.21783" lon="4.2286">
        <ele>705.75</ele>
        <time>2011-10-15T07:26:59Z</time>
      </trkpt>
      <trkpt lat="45.21776" lon="4.22863">
        <ele>706.23</ele>
        <time>2011-10-15T07:27:04Z</time>
      </trkpt>
      <trkpt lat="45.21768" lon="4.22863">
        <ele>707.67</ele>
        <time>2011-10-15T07:27:10Z</time>
      </trkpt>
      <trkpt lat="45.21762" lon="4.22854">
        <ele>710.55</ele>
        <time>2011-10-15T07:27:16Z</time>
      </trkpt>
      <trkpt lat="45.21761" lon="4.22846">
        <ele>711.99</ele>
        <time>2011-10-15T07:27:20Z</time>
      </trkpt>
      <trkpt lat="45.21761" lon="4.22828">
        <ele>712.95</ele>
        <time>2011-10-15T07:27:30Z</time>
      </trkpt>
      <trkpt lat="45.21761" lon="4.22825">
        <ele>712.47</ele>
        <time>2011-10-15T07:27:32Z</time>
      </trkpt>
      <trkpt lat="45.21764" lon="4.22815">
        <ele>712.95</ele>
        <time>2011-10-15T07:27:39Z</time>
      </trkpt>
      <trkpt lat="45.21767" lon="4.2281">
        <ele>710.55</ele>
        <time>2011-10-15T07:27:43Z</time>
      </trkpt>
      <trkpt lat="45.21769" lon="4.22808">
        <ele>709.11</ele>
        <time>2011-10-15T07:27:46Z</time>
      </trkpt>
      <trkpt lat="45.21773" lon="4.22799">
        <ele>706.71</ele>
        <time>2011-10-15T07:27:52Z</time>
      </trkpt>
      <trkpt lat="45.21777" lon="4.22785">
        <ele>706.23</ele>
        <time>2011-10-15T07:28:04Z</time>
      </trkpt>
      <trkpt lat="45.2178" lon="4.22779">
        <ele>707.67</ele>
        <time>2011-10-15T07:28:13Z</time>
      </trkpt>
      <trkpt lat="45.21784" lon="4.22768">
        <ele>707.19</ele>
        <time>2011-10-15T07:28:20Z</time>
      </trkpt>
      <trkpt lat="45.21787" lon="4.22764">
        <ele>707.19</ele>
        <time>2011-10-15T07:28:23Z</time>
      </trkpt>
      <trkpt lat="45.21789" lon="4.22758">
        <ele>706.23</ele>
        <time>2011-10-15T07:28:26Z</time>
      </trkpt>
      <trkpt lat="45.21798" lon="4.22741">
        <ele>707.67</ele>
        <time>2011-10-15T07:28:35Z</time>
      </trkpt>
      <trkpt lat="45.21801" lon="4.22734">
        <ele>707.19</ele>
        <time>2011-10-15T07:28:39Z</time>
      </trkpt>
      <trkpt lat="45.21808" lon="4.22717">
        <ele>703.34</ele>
        <time>2011-10-15T07:28:48Z</time>
      </trkpt>
      <trkpt lat="45.21819" lon="4.22692">
        <ele>699.98</ele>
        <time>2011-10-15T07:28:55Z</time>
      </trkpt>
      <trkpt lat="45.2183" lon="4.22672">
        <ele>697.57</ele>
        <time>2011-10-15T07:29:02Z</time>
      </trkpt>
      <trkpt lat="45.21856" lon="4.22646">
        <ele>698.53</ele>
        <time>2011-10-15T07:29:14Z</time>
      </trkpt>
      <trkpt lat="45.21863" lon="4.22635">
        <ele>700.46</ele>
        <time>2011-10-15T07:29:20Z</time>
      </trkpt>
      <trkpt lat="45.21869" lon="4.22618">
        <ele>700.94</ele>
        <time>2011-10-15T07:29:26Z</time>
      </trkpt>
      <trkpt lat="45.21872" lon="4.22615">
        <ele>700.94</ele>
        <time>2011-10-15T07:29:27Z</time>
      </trkpt>
      <trkpt lat="45.21876" lon="4.2261">
        <ele>701.42</ele>
        <time>2011-10-15T07:29:28Z</time>
      </trkpt>
      <trkpt lat="45.2188" lon="4.22606">
        <ele>701.42</ele>
        <time>2011-10-15T07:29:29Z</time>
      </trkpt>
      <trkpt lat="45.21895" lon="4.22573">
        <ele>703.82</ele>
        <time>2011-10-15T07:29:39Z</time>
      </trkpt>
      <trkpt lat="45.21917" lon="4.22527">
        <ele>710.07</ele>
        <time>2011-10-15T07:29:51Z</time>
      </trkpt>
      <trkpt lat="45.21937" lon="4.22494">
        <ele>710.07</ele>
        <time>2011-10-15T07:30:00Z</time>
      </trkpt>
      <trkpt lat="45.21943" lon="4.22484">
        <ele>710.07</ele>
        <time>2011-10-15T07:30:02Z</time>
      </trkpt>
      <trkpt lat="45.21947" lon="4.2248">
        <ele>710.07</ele>
        <time>2011-10-15T07:30:03Z</time>
      </trkpt>
      <trkpt lat="45.21951" lon="4.22476">
        <ele>709.59</ele>
        <time>2011-10-15T07:30:04Z</time>
      </trkpt>
      <trkpt lat="45.21956" lon="4.22473">
        <ele>709.11</ele>
        <time>2011-10-15T07:30:05Z</time>
      </trkpt>
      <trkpt lat="45.21962" lon="4.2247">
        <ele>708.63</ele>
        <time>2011-10-15T07:30:06Z</time>
      </trkpt>
      <trkpt lat="45.21968" lon="4.22465">
        <ele>708.63</ele>
        <time>2011-10-15T07:30:07Z</time>
      </trkpt>
      <trkpt lat="45.21973" lon="4.22459">
        <ele>708.15</ele>
        <time>2011-10-15T07:30:08Z</time>
      </trkpt>
      <trkpt lat="45.21977" lon="4.22453">
        <ele>708.15</ele>
        <time>2011-10-15T07:30:09Z</time>
      </trkpt>
      <trkpt lat="45.21988" lon="4.22441">
        <ele>708.63</ele>
        <time>2011-10-15T07:30:14Z</time>
      </trkpt>
      <trkpt lat="45.21989" lon="4.2244">
        <ele>708.63</ele>
        <time>2011-10-15T07:30:15Z</time>
      </trkpt>
      <trkpt lat="45.21991" lon="4.2244">
        <ele>709.11</ele>
        <time>2011-10-15T07:30:16Z</time>
      </trkpt>
      <trkpt lat="45.21993" lon="4.22439">
        <ele>710.55</ele>
        <time>2011-10-15T07:30:17Z</time>
      </trkpt>
      <trkpt lat="45.21994" lon="4.22438">
        <ele>710.55</ele>
        <time>2011-10-15T07:30:18Z</time>
      </trkpt>
      <trkpt lat="45.21996" lon="4.22438">
        <ele>711.03</ele>
        <time>2011-10-15T07:30:19Z</time>
      </trkpt>
      <trkpt lat="45.22004" lon="4.22437">
        <ele>714.88</ele>
        <time>2011-10-15T07:30:24Z</time>
      </trkpt>
      <trkpt lat="45.22006" lon="4.22437">
        <ele>715.36</ele>
        <time>2011-10-15T07:30:25Z</time>
      </trkpt>
      <trkpt lat="45.22008" lon="4.22437">
        <ele>715.84</ele>
        <time>2011-10-15T07:30:26Z</time>
      </trkpt>
      <trkpt lat="45.22009" lon="4.22437">
        <ele>716.32</ele>
        <time>2011-10-15T07:30:27Z</time>
      </trkpt>
      <trkpt lat="45.22013" lon="4.22438">
        <ele>717.76</ele>
        <time>2011-10-15T07:30:30Z</time>
      </trkpt>
      <trkpt lat="45.22014" lon="4.22438">
        <ele>718.24</ele>
        <time>2011-10-15T07:30:31Z</time>
      </trkpt>
      <trkpt lat="45.22019" lon="4.22437">
        <ele>719.2</ele>
        <time>2011-10-15T07:30:34Z</time>
      </trkpt>
      <trkpt lat="45.22021" lon="4.22436">
        <ele>720.16</ele>
        <time>2011-10-15T07:30:36Z</time>
      </trkpt>
      <trkpt lat="45.22022" lon="4.22435">
        <ele>720.16</ele>
        <time>2011-10-15T07:30:37Z</time>
      </trkpt>
      <trkpt lat="45.22023" lon="4.22433">
        <ele>720.65</ele>
        <time>2011-10-15T07:30:38Z</time>
      </trkpt>
      <trkpt lat="45.22025" lon="4.22432">
        <ele>720.16</ele>
        <time>2011-10-15T07:30:39Z</time>
      </trkpt>
      <trkpt lat="45.22026" lon="4.2243">
        <ele>720.65</ele>
        <time>2011-10-15T07:30:40Z</time>
      </trkpt>
      <trkpt lat="45.22027" lon="4.22428">
        <ele>720.65</ele>
        <time>2011-10-15T07:30:41Z</time>
      </trkpt>
      <trkpt lat="45.22028" lon="4.22426">
        <ele>720.16</ele>
        <time>2011-10-15T07:30:42Z</time>
      </trkpt>
      <trkpt lat="45.22031" lon="4.22413">
        <ele>721.61</ele>
        <time>2011-10-15T07:30:49Z</time>
      </trkpt>
      <trkpt lat="45.22032" lon="4.22412">
        <ele>721.61</ele>
        <time>2011-10-15T07:30:50Z</time>
      </trkpt>
      <trkpt lat="45.22033" lon="4.22409">
        <ele>722.09</ele>
        <time>2011-10-15T07:30:51Z</time>
      </trkpt>
      <trkpt lat="45.22034" lon="4.22407">
        <ele>722.09</ele>
        <time>2011-10-15T07:30:52Z</time>
      </trkpt>
      <trkpt lat="45.22035" lon="4.22405">
        <ele>722.57</ele>
        <time>2011-10-15T07:30:53Z</time>
      </trkpt>
      <trkpt lat="45.22036" lon="4.22404">
        <ele>723.53</ele>
        <time>2011-10-15T07:30:54Z</time>
      </trkpt>
      <trkpt lat="45.22037" lon="4.22401">
        <ele>724.01</ele>
        <time>2011-10-15T07:30:55Z</time>
      </trkpt>
      <trkpt lat="45.22038" lon="4.22399">
        <ele>724.49</ele>
        <time>2011-10-15T07:30:56Z</time>
      </trkpt>
      <trkpt lat="45.22039" lon="4.22398">
        <ele>725.45</ele>
        <time>2011-10-15T07:30:57Z</time>
      </trkpt>
      <trkpt lat="45.2204" lon="4.22396">
        <ele>725.93</ele>
        <time>2011-10-15T07:30:58Z</time>
      </trkpt>
      <trkpt lat="45.22041" lon="4.22394">
        <ele>726.41</ele>
        <time>2011-10-15T07:30:59Z</time>
      </trkpt>
      <trkpt lat="45.22042" lon="4.22392">
        <ele>726.89</ele>
        <time>2011-10-15T07:31:00Z</time>
      </trkpt>
      <trkpt lat="45.22043" lon="4.2239">
        <ele>727.37</ele>
        <time>2011-10-15T07:31:01Z</time>
      </trkpt>
      <trkpt lat="45.22049" lon="4.22376">
        <ele>730.26</ele>
        <time>2011-10-15T07:31:09Z</time>
      </trkpt>
      <trkpt lat="45.22049" lon="4.22374">
        <ele>730.74</ele>
        <time>2011-10-15T07:31:10Z</time>
      </trkpt>
      <trkpt lat="45.2205" lon="4.22372">
        <ele>731.22</ele>
        <time>2011-10-15T07:31:11Z</time>
      </trkpt>
      <trkpt lat="45.22065" lon="4.22338">
        <ele>730.26</ele>
        <time>2011-10-15T07:31:23Z</time>
      </trkpt>
      <trkpt lat="45.22069" lon="4.22316">
        <ele>732.18</ele>
        <time>2011-10-15T07:31:31Z</time>
      </trkpt>
      <trkpt lat="45.22069" lon="4.22313">
        <ele>733.14</ele>
        <time>2011-10-15T07:31:32Z</time>
      </trkpt>
      <trkpt lat="45.2207" lon="4.2231">
        <ele>734.1</ele>
        <time>2011-10-15T07:31:33Z</time>
      </trkpt>
      <trkpt lat="45.2207" lon="4.22308">
        <ele>734.58</ele>
        <time>2011-10-15T07:31:34Z</time>
      </trkpt>
      <trkpt lat="45.2207" lon="4.22305">
        <ele>735.07</ele>
        <time>2011-10-15T07:31:35Z</time>
      </trkpt>
      <trkpt lat="45.22072" lon="4.22289">
        <ele>738.91</ele>
        <time>2011-10-15T07:31:41Z</time>
      </trkpt>
      <trkpt lat="45.22073" lon="4.22286">
        <ele>739.39</ele>
        <time>2011-10-15T07:31:42Z</time>
      </trkpt>
      <trkpt lat="45.22074" lon="4.22283">
        <ele>739.87</ele>
        <time>2011-10-15T07:31:43Z</time>
      </trkpt>
      <trkpt lat="45.22075" lon="4.2228">
        <ele>740.35</ele>
        <time>2011-10-15T07:31:44Z</time>
      </trkpt>
      <trkpt lat="45.22075" lon="4.22277">
        <ele>740.35</ele>
        <time>2011-10-15T07:31:45Z</time>
      </trkpt>
      <trkpt lat="45.22075" lon="4.22274">
        <ele>740.35</ele>
        <time>2011-10-15T07:31:46Z</time>
      </trkpt>
      <trkpt lat="45.22076" lon="4.22272">
        <ele>740.83</ele>
        <time>2011-10-15T07:31:47Z</time>
      </trkpt>
      <trkpt lat="45.22077" lon="4.2227">
        <ele>740.83</ele>
        <time>2011-10-15T07:31:48Z</time>
      </trkpt>
      <trkpt lat="45.22078" lon="4.22268">
        <ele>740.83</ele>
        <time>2011-10-15T07:31:49Z</time>
      </trkpt>
      <trkpt lat="45.22079" lon="4.22267">
        <ele>741.31</ele>
        <time>2011-10-15T07:31:50Z</time>
      </trkpt>
      <trkpt lat="45.2208" lon="4.22264">
        <ele>741.79</ele>
        <time>2011-10-15T07:31:51Z</time>
      </trkpt>
      <trkpt lat="45.22081" lon="4.22262">
        <ele>741.79</ele>
        <time>2011-10-15T07:31:52Z</time>
      </trkpt>
      <trkpt lat="45.22083" lon="4.22261">
        <ele>741.79</ele>
        <time>2011-10-15T07:31:53Z</time>
      </trkpt>
      <trkpt lat="45.22089" lon="4.22253">
        <ele>742.28</ele>
        <time>2011-10-15T07:31:58Z</time>
      </trkpt>
      <trkpt lat="45.22096" lon="4.22245">
        <ele>743.72</ele>
        <time>2011-10-15T07:32:03Z</time>
      </trkpt>
      <trkpt lat="45.22098" lon="4.22243">
        <ele>744.2</ele>
        <time>2011-10-15T07:32:04Z</time>
      </trkpt>
      <trkpt lat="45.221" lon="4.22242">
        <ele>744.68</ele>
        <time>2011-10-15T07:32:05Z</time>
      </trkpt>
      <trkpt lat="45.22101" lon="4.2224">
        <ele>744.68</ele>
        <time>2011-10-15T07:32:06Z</time>
      </trkpt>
      <trkpt lat="45.22103" lon="4.2224">
        <ele>744.68</ele>
        <time>2011-10-15T07:32:07Z</time>
      </trkpt>
      <trkpt lat="45.22105" lon="4.22239">
        <ele>745.16</ele>
        <time>2011-10-15T07:32:08Z</time>
      </trkpt>
      <trkpt lat="45.22114" lon="4.22229">
        <ele>747.08</ele>
        <time>2011-10-15T07:32:17Z</time>
      </trkpt>
      <trkpt lat="45.22116" lon="4.22229">
        <ele>747.08</ele>
        <time>2011-10-15T07:32:18Z</time>
      </trkpt>
      <trkpt lat="45.22118" lon="4.22228">
        <ele>747.08</ele>
        <time>2011-10-15T07:32:19Z</time>
      </trkpt>
      <trkpt lat="45.22125" lon="4.22219">
        <ele>748.52</ele>
        <time>2011-10-15T07:32:26Z</time>
      </trkpt>
      <trkpt lat="45.22127" lon="4.22218">
        <ele>748.52</ele>
        <time>2011-10-15T07:32:27Z</time>
      </trkpt>
      <trkpt lat="45.22131" lon="4.22213">
        <ele>748.04</ele>
        <time>2011-10-15T07:32:31Z</time>
      </trkpt>
      <trkpt lat="45.22132" lon="4.22211">
        <ele>748.04</ele>
        <time>2011-10-15T07:32:32Z</time>
      </trkpt>
      <trkpt lat="45.22133" lon="4.22209">
        <ele>748.04</ele>
        <time>2011-10-15T07:32:33Z</time>
      </trkpt>
      <trkpt lat="45.22142" lon="4.22195">
        <ele>749.49</ele>
        <time>2011-10-15T07:32:42Z</time>
      </trkpt>
      <trkpt lat="45.22144" lon="4.22193">
        <ele>749.49</ele>
        <time>2011-10-15T07:32:43Z</time>
      </trkpt>
      <trkpt lat="45.22145" lon="4.22193">
        <ele>749.49</ele>
        <time>2011-10-15T07:32:44Z</time>
      </trkpt>
      <trkpt lat="45.22146" lon="4.22192">
        <ele>749.97</ele>
        <time>2011-10-15T07:32:45Z</time>
      </trkpt>
      <trkpt lat="45.22148" lon="4.22191">
        <ele>750.45</ele>
        <time>2011-10-15T07:32:46Z</time>
      </trkpt>
      <trkpt lat="45.22177" lon="4.22183">
        <ele>751.89</ele>
        <time>2011-10-15T07:32:59Z</time>
      </trkpt>
      <trkpt lat="45.22216" lon="4.22145">
        <ele>752.37</ele>
        <time>2011-10-15T07:33:13Z</time>
      </trkpt>
      <trkpt lat="45.22261" lon="4.22097">
        <ele>753.81</ele>
        <time>2011-10-15T07:33:28Z</time>
      </trkpt>
      <trkpt lat="45.223" lon="4.2207">
        <ele>756.21</ele>
        <time>2011-10-15T07:33:42Z</time>
      </trkpt>
      <trkpt lat="45.22337" lon="4.22077">
        <ele>762.94</ele>
        <time>2011-10-15T07:33:59Z</time>
      </trkpt>
      <trkpt lat="45.22369" lon="4.22105">
        <ele>763.42</ele>
        <time>2011-10-15T07:34:13Z</time>
      </trkpt>
      <trkpt lat="45.22404" lon="4.22108">
        <ele>764.39</ele>
        <time>2011-10-15T07:34:26Z</time>
      </trkpt>
      <trkpt lat="45.22412" lon="4.22076">
        <ele>764.39</ele>
        <time>2011-10-15T07:34:36Z</time>
      </trkpt>
      <trkpt lat="45.22391" lon="4.22029">
        <ele>764.87</ele>
        <time>2011-10-15T07:34:49Z</time>
      </trkpt>
      <trkpt lat="45.22383" lon="4.21979">
        <ele>764.87</ele>
        <time>2011-10-15T07:35:00Z</time>
      </trkpt>
      <trkpt lat="45.22383" lon="4.21975">
        <ele>765.35</ele>
        <time>2011-10-15T07:35:01Z</time>
      </trkpt>
      <trkpt lat="45.22384" lon="4.21971">
        <ele>765.83</ele>
        <time>2011-10-15T07:35:02Z</time>
      </trkpt>
      <trkpt lat="45.22383" lon="4.21967">
        <ele>766.31</ele>
        <time>2011-10-15T07:35:03Z</time>
      </trkpt>
      <trkpt lat="45.22384" lon="4.21962">
        <ele>766.79</ele>
        <time>2011-10-15T07:35:04Z</time>
      </trkpt>
      <trkpt lat="45.22384" lon="4.21958">
        <ele>766.79</ele>
        <time>2011-10-15T07:35:05Z</time>
      </trkpt>
      <trkpt lat="45.22384" lon="4.21953">
        <ele>767.27</ele>
        <time>2011-10-15T07:35:06Z</time>
      </trkpt>
      <trkpt lat="45.22391" lon="4.21899">
        <ele>768.23</ele>
        <time>2011-10-15T07:35:18Z</time>
      </trkpt>
      <trkpt lat="45.22408" lon="4.21828">
        <ele>771.11</ele>
        <time>2011-10-15T07:35:33Z</time>
      </trkpt>
      <trkpt lat="45.22439" lon="4.21761">
        <ele>772.56</ele>
        <time>2011-10-15T07:35:48Z</time>
      </trkpt>
      <trkpt lat="45.22472" lon="4.21712">
        <ele>774.48</ele>
        <time>2011-10-15T07:36:01Z</time>
      </trkpt>
      <trkpt lat="45.22495" lon="4.21634">
        <ele>774</ele>
        <time>2011-10-15T07:36:17Z</time>
      </trkpt>
      <trkpt lat="45.22544" lon="4.21584">
        <ele>776.4</ele>
        <time>2011-10-15T07:36:32Z</time>
      </trkpt>
      <trkpt lat="45.22588" lon="4.21535">
        <ele>777.36</ele>
        <time>2011-10-15T07:36:45Z</time>
      </trkpt>
      <trkpt lat="45.22631" lon="4.21487">
        <ele>781.21</ele>
        <time>2011-10-15T07:36:59Z</time>
      </trkpt>
      <trkpt lat="45.22665" lon="4.21416">
        <ele>782.17</ele>
        <time>2011-10-15T07:37:15Z</time>
      </trkpt>
      <trkpt lat="45.22686" lon="4.21357">
        <ele>780.73</ele>
        <time>2011-10-15T07:37:27Z</time>
      </trkpt>
      <trkpt lat="45.22688" lon="4.21351">
        <ele>780.73</ele>
        <time>2011-10-15T07:37:28Z</time>
      </trkpt>
      <trkpt lat="45.2269" lon="4.21346">
        <ele>780.73</ele>
        <time>2011-10-15T07:37:29Z</time>
      </trkpt>
      <trkpt lat="45.22692" lon="4.2134">
        <ele>780.25</ele>
        <time>2011-10-15T07:37:30Z</time>
      </trkpt>
      <trkpt lat="45.22694" lon="4.21335">
        <ele>780.25</ele>
        <time>2011-10-15T07:37:31Z</time>
      </trkpt>
      <trkpt lat="45.22696" lon="4.2133">
        <ele>779.77</ele>
        <time>2011-10-15T07:37:32Z</time>
      </trkpt>
      <trkpt lat="45.22701" lon="4.21319">
        <ele>779.77</ele>
        <time>2011-10-15T07:37:34Z</time>
      </trkpt>
      <trkpt lat="45.22715" lon="4.21283">
        <ele>778.32</ele>
        <time>2011-10-15T07:37:40Z</time>
      </trkpt>
      <trkpt lat="45.22726" lon="4.21264">
        <ele>776.88</ele>
        <time>2011-10-15T07:37:43Z</time>
      </trkpt>
      <trkpt lat="45.22776" lon="4.21197">
        <ele>773.52</ele>
        <time>2011-10-15T07:37:54Z</time>
      </trkpt>
      <trkpt lat="45.22851" lon="4.21129">
        <ele>773.04</ele>
        <time>2011-10-15T07:38:09Z</time>
      </trkpt>
      <trkpt lat="45.22856" lon="4.21124">
        <ele>773.04</ele>
        <time>2011-10-15T07:38:10Z</time>
      </trkpt>
      <trkpt lat="45.22862" lon="4.2112">
        <ele>773.04</ele>
        <time>2011-10-15T07:38:11Z</time>
      </trkpt>
      <trkpt lat="45.22925" lon="4.21094">
        <ele>774.48</ele>
        <time>2011-10-15T07:38:23Z</time>
      </trkpt>
      <trkpt lat="45.2293" lon="4.21091">
        <ele>774.96</ele>
        <time>2011-10-15T07:38:24Z</time>
      </trkpt>
      <trkpt lat="45.22938" lon="4.21085">
        <ele>775.44</ele>
        <time>2011-10-15T07:38:26Z</time>
      </trkpt>
      <trkpt lat="45.22941" lon="4.21081">
        <ele>775.44</ele>
        <time>2011-10-15T07:38:27Z</time>
      </trkpt>
      <trkpt lat="45.22948" lon="4.21071">
        <ele>775.92</ele>
        <time>2011-10-15T07:38:29Z</time>
      </trkpt>
      <trkpt lat="45.22958" lon="4.21056">
        <ele>776.4</ele>
        <time>2011-10-15T07:38:32Z</time>
      </trkpt>
      <trkpt lat="45.22979" lon="4.21021">
        <ele>775.44</ele>
        <time>2011-10-15T07:38:38Z</time>
      </trkpt>
      <trkpt lat="45.22983" lon="4.21016">
        <ele>774.96</ele>
        <time>2011-10-15T07:38:39Z</time>
      </trkpt>
      <trkpt lat="45.22991" lon="4.21005">
        <ele>774.48</ele>
        <time>2011-10-15T07:38:41Z</time>
      </trkpt>
      <trkpt lat="45.22995" lon="4.21">
        <ele>774</ele>
        <time>2011-10-15T07:38:42Z</time>
      </trkpt>
      <trkpt lat="45.23" lon="4.20995">
        <ele>773.52</ele>
        <time>2011-10-15T07:38:43Z</time>
      </trkpt>
      <trkpt lat="45.23035" lon="4.20957">
        <ele>770.63</ele>
        <time>2011-10-15T07:38:50Z</time>
      </trkpt>
      <trkpt lat="45.2304" lon="4.20952">
        <ele>770.63</ele>
        <time>2011-10-15T07:38:51Z</time>
      </trkpt>
      <trkpt lat="45.23087" lon="4.20926">
        <ele>769.19</ele>
        <time>2011-10-15T07:39:00Z</time>
      </trkpt>
      <trkpt lat="45.23097" lon="4.20924">
        <ele>769.19</ele>
        <time>2011-10-15T07:39:02Z</time>
      </trkpt>
      <trkpt lat="45.23102" lon="4.20924">
        <ele>769.19</ele>
        <time>2011-10-15T07:39:03Z</time>
      </trkpt>
      <trkpt lat="45.23107" lon="4.20925">
        <ele>769.19</ele>
        <time>2011-10-15T07:39:04Z</time>
      </trkpt>
      <trkpt lat="45.23117" lon="4.2093">
        <ele>769.19</ele>
        <time>2011-10-15T07:39:06Z</time>
      </trkpt>
      <trkpt lat="45.23141" lon="4.20945">
        <ele>769.67</ele>
        <time>2011-10-15T07:39:11Z</time>
      </trkpt>
      <trkpt lat="45.23146" lon="4.20947">
        <ele>769.67</ele>
        <time>2011-10-15T07:39:12Z</time>
      </trkpt>
      <trkpt lat="45.23151" lon="4.20949">
        <ele>770.15</ele>
        <time>2011-10-15T07:39:13Z</time>
      </trkpt>
      <trkpt lat="45.23156" lon="4.20949">
        <ele>770.15</ele>
        <time>2011-10-15T07:39:14Z</time>
      </trkpt>
      <trkpt lat="45.23161" lon="4.20949">
        <ele>770.15</ele>
        <time>2011-10-15T07:39:15Z</time>
      </trkpt>
      <trkpt lat="45.23166" lon="4.20948">
        <ele>770.15</ele>
        <time>2011-10-15T07:39:16Z</time>
      </trkpt>
      <trkpt lat="45.2317" lon="4.20949">
        <ele>770.63</ele>
        <time>2011-10-15T07:39:17Z</time>
      </trkpt>
      <trkpt lat="45.23174" lon="4.2095">
        <ele>770.63</ele>
        <time>2011-10-15T07:39:18Z</time>
      </trkpt>
      <trkpt lat="45.23178" lon="4.2095">
        <ele>770.63</ele>
        <time>2011-10-15T07:39:19Z</time>
      </trkpt>
      <trkpt lat="45.23181" lon="4.20949">
        <ele>771.11</ele>
        <time>2011-10-15T07:39:20Z</time>
      </trkpt>
      <trkpt lat="45.23183" lon="4.20946">
        <ele>771.11</ele>
        <time>2011-10-15T07:39:21Z</time>
      </trkpt>
      <trkpt lat="45.23187" lon="4.20943">
        <ele>771.11</ele>
        <time>2011-10-15T07:39:23Z</time>
      </trkpt>
      <trkpt lat="45.2319" lon="4.20942">
        <ele>771.6</ele>
        <time>2011-10-15T07:39:24Z</time>
      </trkpt>
      <trkpt lat="45.23208" lon="4.20939">
        <ele>773.04</ele>
        <time>2011-10-15T07:39:29Z</time>
      </trkpt>
      <trkpt lat="45.2322" lon="4.20934">
        <ele>774</ele>
        <time>2011-10-15T07:39:32Z</time>
      </trkpt>
      <trkpt lat="45.23224" lon="4.20933">
        <ele>774.48</ele>
        <time>2011-10-15T07:39:33Z</time>
      </trkpt>
      <trkpt lat="45.23227" lon="4.20931">
        <ele>774.48</ele>
        <time>2011-10-15T07:39:34Z</time>
      </trkpt>
      <trkpt lat="45.23231" lon="4.20929">
        <ele>774</ele>
        <time>2011-10-15T07:39:35Z</time>
      </trkpt>
      <trkpt lat="45.23235" lon="4.20927">
        <ele>774</ele>
        <time>2011-10-15T07:39:36Z</time>
      </trkpt>
      <trkpt lat="45.23247" lon="4.20921">
        <ele>773.52</ele>
        <time>2011-10-15T07:39:40Z</time>
      </trkpt>
      <trkpt lat="45.23249" lon="4.20921">
        <ele>773.52</ele>
        <time>2011-10-15T07:39:41Z</time>
      </trkpt>
      <trkpt lat="45.23252" lon="4.2093">
        <ele>772.56</ele>
        <time>2011-10-15T07:39:50Z</time>
      </trkpt>
      <trkpt lat="45.23252" lon="4.20932">
        <ele>770.63</ele>
        <time>2011-10-15T07:40:04Z</time>
      </trkpt>
      <trkpt lat="45.23252" lon="4.20933">
        <ele>770.63</ele>
        <time>2011-10-15T07:41:20Z</time>
      </trkpt>
      <trkpt lat="45.23252" lon="4.20933">
        <ele>770.63</ele>
        <time>2011-10-15T07:42:57Z</time>
      </trkpt>
      <trkpt lat="45.23253" lon="4.20932">
        <ele>771.11</ele>
        <time>2011-10-15T07:43:45Z</time>
      </trkpt>
      <trkpt lat="45.23255" lon="4.20929">
        <ele>772.08</ele>
        <time>2011-10-15T07:44:08Z</time>
      </trkpt>
      <trkpt lat="45.23255" lon="4.20927">
        <ele>772.08</ele>
        <time>2011-10-15T07:44:09Z</time>
      </trkpt>
      <trkpt lat="45.23255" lon="4.20924">
        <ele>772.56</ele>
        <time>2011-10-15T07:44:10Z</time>
      </trkpt>
      <trkpt lat="45.23252" lon="4.20922">
        <ele>772.08</ele>
        <time>2011-10-15T07:44:12Z</time>
      </trkpt>
      <trkpt lat="45.2325" lon="4.20922">
        <ele>771.6</ele>
        <time>2011-10-15T07:44:13Z</time>
      </trkpt>
      <trkpt lat="45.23253" lon="4.20914">
        <ele>771.11</ele>
        <time>2011-10-15T07:44:17Z</time>
      </trkpt>
      <trkpt lat="45.23319" lon="4.20879">
        <ele>773.04</ele>
        <time>2011-10-15T07:44:32Z</time>
      </trkpt>
      <trkpt lat="45.23375" lon="4.20841">
        <ele>770.63</ele>
        <time>2011-10-15T07:44:43Z</time>
      </trkpt>
      <trkpt lat="45.23379" lon="4.20835">
        <ele>770.15</ele>
        <time>2011-10-15T07:44:44Z</time>
      </trkpt>
      <trkpt lat="45.23412" lon="4.20765">
        <ele>771.6</ele>
        <time>2011-10-15T07:44:57Z</time>
      </trkpt>
      <trkpt lat="45.23421" lon="4.20744">
        <ele>773.04</ele>
        <time>2011-10-15T07:45:02Z</time>
      </trkpt>
      <trkpt lat="45.23424" lon="4.20743">
        <ele>773.04</ele>
        <time>2011-10-15T07:45:03Z</time>
      </trkpt>
      <trkpt lat="45.23427" lon="4.20743">
        <ele>773.52</ele>
        <time>2011-10-15T07:45:04Z</time>
      </trkpt>
      <trkpt lat="45.23468" lon="4.20759">
        <ele>776.4</ele>
        <time>2011-10-15T07:45:17Z</time>
      </trkpt>
      <trkpt lat="45.23489" lon="4.20772">
        <ele>780.73</ele>
        <time>2011-10-15T07:45:25Z</time>
      </trkpt>
      <trkpt lat="45.2349" lon="4.20776">
        <ele>780.73</ele>
        <time>2011-10-15T07:45:26Z</time>
      </trkpt>
      <trkpt lat="45.23492" lon="4.20803">
        <ele>781.21</ele>
        <time>2011-10-15T07:45:33Z</time>
      </trkpt>
      <trkpt lat="45.23494" lon="4.20805">
        <ele>781.21</ele>
        <time>2011-10-15T07:45:34Z</time>
      </trkpt>
      <trkpt lat="45.23497" lon="4.20805">
        <ele>781.21</ele>
        <time>2011-10-15T07:45:35Z</time>
      </trkpt>
      <trkpt lat="45.23537" lon="4.20797">
        <ele>782.65</ele>
        <time>2011-10-15T07:45:49Z</time>
      </trkpt>
      <trkpt lat="45.23574" lon="4.20793">
        <ele>784.09</ele>
        <time>2011-10-15T07:46:01Z</time>
      </trkpt>
      <trkpt lat="45.23612" lon="4.20788">
        <ele>786.02</ele>
        <time>2011-10-15T07:46:14Z</time>
      </trkpt>
      <trkpt lat="45.23644" lon="4.20783">
        <ele>789.38</ele>
        <time>2011-10-15T07:46:24Z</time>
      </trkpt>
      <trkpt lat="45.23683" lon="4.20773">
        <ele>791.3</ele>
        <time>2011-10-15T07:46:37Z</time>
      </trkpt>
      <trkpt lat="45.23682" lon="4.20735">
        <ele>789.86</ele>
        <time>2011-10-15T07:46:46Z</time>
      </trkpt>
      <trkpt lat="45.23664" lon="4.2066">
        <ele>784.57</ele>
        <time>2011-10-15T07:46:58Z</time>
      </trkpt>
      <trkpt lat="45.23659" lon="4.20641">
        <ele>783.13</ele>
        <time>2011-10-15T07:47:00Z</time>
      </trkpt>
      <trkpt lat="45.23657" lon="4.2063">
        <ele>782.17</ele>
        <time>2011-10-15T07:47:01Z</time>
      </trkpt>
      <trkpt lat="45.23656" lon="4.20619">
        <ele>781.69</ele>
        <time>2011-10-15T07:47:02Z</time>
      </trkpt>
      <trkpt lat="45.23652" lon="4.2057">
        <ele>777.84</ele>
        <time>2011-10-15T07:47:06Z</time>
      </trkpt>
      <trkpt lat="45.23644" lon="4.2048">
        <ele>772.08</ele>
        <time>2011-10-15T07:47:14Z</time>
      </trkpt>
      <trkpt lat="45.23645" lon="4.20471">
        <ele>771.11</ele>
        <time>2011-10-15T07:47:16Z</time>
      </trkpt>
      <trkpt lat="45.23647" lon="4.20469">
        <ele>770.63</ele>
        <time>2011-10-15T07:47:17Z</time>
      </trkpt>
      <trkpt lat="45.2365" lon="4.20468">
        <ele>770.63</ele>
        <time>2011-10-15T07:47:18Z</time>
      </trkpt>
      <trkpt lat="45.23669" lon="4.20466">
        <ele>771.11</ele>
        <time>2011-10-15T07:47:23Z</time>
      </trkpt>
      <trkpt lat="45.23678" lon="4.20463">
        <ele>771.6</ele>
        <time>2011-10-15T07:47:25Z</time>
      </trkpt>
      <trkpt lat="45.23699" lon="4.20453">
        <ele>771.6</ele>
        <time>2011-10-15T07:47:30Z</time>
      </trkpt>
      <trkpt lat="45.23708" lon="4.20449">
        <ele>771.11</ele>
        <time>2011-10-15T07:47:32Z</time>
      </trkpt>
      <trkpt lat="45.23712" lon="4.20445">
        <ele>771.11</ele>
        <time>2011-10-15T07:47:33Z</time>
      </trkpt>
      <trkpt lat="45.23747" lon="4.20424">
        <ele>772.08</ele>
        <time>2011-10-15T07:47:41Z</time>
      </trkpt>
      <trkpt lat="45.23751" lon="4.20423">
        <ele>772.08</ele>
        <time>2011-10-15T07:47:42Z</time>
      </trkpt>
      <trkpt lat="45.23754" lon="4.20421">
        <ele>772.08</ele>
        <time>2011-10-15T07:47:43Z</time>
      </trkpt>
      <trkpt lat="45.23809" lon="4.20399">
        <ele>775.44</ele>
        <time>2011-10-15T07:47:58Z</time>
      </trkpt>
      <trkpt lat="45.23854" lon="4.20386">
        <ele>776.88</ele>
        <time>2011-10-15T07:48:12Z</time>
      </trkpt>
      <trkpt lat="45.23896" lon="4.2038">
        <ele>777.84</ele>
        <time>2011-10-15T07:48:24Z</time>
      </trkpt>
      <trkpt lat="45.23948" lon="4.20353">
        <ele>778.32</ele>
        <time>2011-10-15T07:48:39Z</time>
      </trkpt>
      <trkpt lat="45.23988" lon="4.20338">
        <ele>779.77</ele>
        <time>2011-10-15T07:48:50Z</time>
      </trkpt>
      <trkpt lat="45.24023" lon="4.20316">
        <ele>781.21</ele>
        <time>2011-10-15T07:49:00Z</time>
      </trkpt>
      <trkpt lat="45.24035" lon="4.2031">
        <ele>781.21</ele>
        <time>2011-10-15T07:49:03Z</time>
      </trkpt>
      <trkpt lat="45.24039" lon="4.20307">
        <ele>781.21</ele>
        <time>2011-10-15T07:49:04Z</time>
      </trkpt>
      <trkpt lat="45.24065" lon="4.20294">
        <ele>780.25</ele>
        <time>2011-10-15T07:49:10Z</time>
      </trkpt>
      <trkpt lat="45.24116" lon="4.20263">
        <ele>779.77</ele>
        <time>2011-10-15T07:49:24Z</time>
      </trkpt>
      <trkpt lat="45.24156" lon="4.20238">
        <ele>781.21</ele>
        <time>2011-10-15T07:49:36Z</time>
      </trkpt>
      <trkpt lat="45.24191" lon="4.20219">
        <ele>784.09</ele>
        <time>2011-10-15T07:49:47Z</time>
      </trkpt>
      <trkpt lat="45.24219" lon="4.20197">
        <ele>788.42</ele>
        <time>2011-10-15T07:49:57Z</time>
      </trkpt>
      <trkpt lat="45.24254" lon="4.20177">
        <ele>789.38</ele>
        <time>2011-10-15T07:50:08Z</time>
      </trkpt>
      <trkpt lat="45.24285" lon="4.20178">
        <ele>789.86</ele>
        <time>2011-10-15T07:50:18Z</time>
      </trkpt>
      <trkpt lat="45.24298" lon="4.20173">
        <ele>787.46</ele>
        <time>2011-10-15T07:50:26Z</time>
      </trkpt>
      <trkpt lat="45.24325" lon="4.20164">
        <ele>784.57</ele>
        <time>2011-10-15T07:50:32Z</time>
      </trkpt>
      <trkpt lat="45.24337" lon="4.20157">
        <ele>783.13</ele>
        <time>2011-10-15T07:50:34Z</time>
      </trkpt>
      <trkpt lat="45.24343" lon="4.20154">
        <ele>782.65</ele>
        <time>2011-10-15T07:50:35Z</time>
      </trkpt>
      <trkpt lat="45.24364" lon="4.20142">
        <ele>781.21</ele>
        <time>2011-10-15T07:50:38Z</time>
      </trkpt>
      <trkpt lat="45.24386" lon="4.2013">
        <ele>778.81</ele>
        <time>2011-10-15T07:50:41Z</time>
      </trkpt>
      <trkpt lat="45.24405" lon="4.20111">
        <ele>776.88</ele>
        <time>2011-10-15T07:50:44Z</time>
      </trkpt>
      <trkpt lat="45.24415" lon="4.20106">
        <ele>775.92</ele>
        <time>2011-10-15T07:50:45Z</time>
      </trkpt>
      <trkpt lat="45.24437" lon="4.20091">
        <ele>773.52</ele>
        <time>2011-10-15T07:50:48Z</time>
      </trkpt>
      <trkpt lat="45.24443" lon="4.20084">
        <ele>772.56</ele>
        <time>2011-10-15T07:50:49Z</time>
      </trkpt>
      <trkpt lat="45.24458" lon="4.20066">
        <ele>769.19</ele>
        <time>2011-10-15T07:50:52Z</time>
      </trkpt>
      <trkpt lat="45.24477" lon="4.20042">
        <ele>766.79</ele>
        <time>2011-10-15T07:50:55Z</time>
      </trkpt>
      <trkpt lat="45.24513" lon="4.19977">
        <ele>759.58</ele>
        <time>2011-10-15T07:51:04Z</time>
      </trkpt>
      <trkpt lat="45.24516" lon="4.1997">
        <ele>758.62</ele>
        <time>2011-10-15T07:51:05Z</time>
      </trkpt>
      <trkpt lat="45.24518" lon="4.19962">
        <ele>757.66</ele>
        <time>2011-10-15T07:51:06Z</time>
      </trkpt>
      <trkpt lat="45.2452" lon="4.19955">
        <ele>757.18</ele>
        <time>2011-10-15T07:51:07Z</time>
      </trkpt>
      <trkpt lat="45.24521" lon="4.19948">
        <ele>756.21</ele>
        <time>2011-10-15T07:51:08Z</time>
      </trkpt>
      <trkpt lat="45.24521" lon="4.19941">
        <ele>755.73</ele>
        <time>2011-10-15T07:51:09Z</time>
      </trkpt>
      <trkpt lat="45.24519" lon="4.19934">
        <ele>754.77</ele>
        <time>2011-10-15T07:51:10Z</time>
      </trkpt>
      <trkpt lat="45.24517" lon="4.19929">
        <ele>753.81</ele>
        <time>2011-10-15T07:51:11Z</time>
      </trkpt>
      <trkpt lat="45.24514" lon="4.19923">
        <ele>752.85</ele>
        <time>2011-10-15T07:51:12Z</time>
      </trkpt>
      <trkpt lat="45.24513" lon="4.19916">
        <ele>752.37</ele>
        <time>2011-10-15T07:51:13Z</time>
      </trkpt>
      <trkpt lat="45.24514" lon="4.19907">
        <ele>751.89</ele>
        <time>2011-10-15T07:51:14Z</time>
      </trkpt>
      <trkpt lat="45.24517" lon="4.19889">
        <ele>750.93</ele>
        <time>2011-10-15T07:51:16Z</time>
      </trkpt>
      <trkpt lat="45.24523" lon="4.19858">
        <ele>749.49</ele>
        <time>2011-10-15T07:51:19Z</time>
      </trkpt>
      <trkpt lat="45.24524" lon="4.19847">
        <ele>748.52</ele>
        <time>2011-10-15T07:51:20Z</time>
      </trkpt>
      <trkpt lat="45.24519" lon="4.19716">
        <ele>744.2</ele>
        <time>2011-10-15T07:51:34Z</time>
      </trkpt>
      <trkpt lat="45.2452" lon="4.19708">
        <ele>743.72</ele>
        <time>2011-10-15T07:51:35Z</time>
      </trkpt>
      <trkpt lat="45.24525" lon="4.19693">
        <ele>743.72</ele>
        <time>2011-10-15T07:51:37Z</time>
      </trkpt>
      <trkpt lat="45.24527" lon="4.19686">
        <ele>743.72</ele>
        <time>2011-10-15T07:51:38Z</time>
      </trkpt>
      <trkpt lat="45.24529" lon="4.1968">
        <ele>743.72</ele>
        <time>2011-10-15T07:51:39Z</time>
      </trkpt>
      <trkpt lat="45.2453" lon="4.19673">
        <ele>743.24</ele>
        <time>2011-10-15T07:51:40Z</time>
      </trkpt>
      <trkpt lat="45.24531" lon="4.19665">
        <ele>743.24</ele>
        <time>2011-10-15T07:51:41Z</time>
      </trkpt>
      <trkpt lat="45.24533" lon="4.19655">
        <ele>742.76</ele>
        <time>2011-10-15T07:51:42Z</time>
      </trkpt>
      <trkpt lat="45.24534" lon="4.19645">
        <ele>742.28</ele>
        <time>2011-10-15T07:51:43Z</time>
      </trkpt>
      <trkpt lat="45.24535" lon="4.19635">
        <ele>741.79</ele>
        <time>2011-10-15T07:51:44Z</time>
      </trkpt>
      <trkpt lat="45.24538" lon="4.19625">
        <ele>740.83</ele>
        <time>2011-10-15T07:51:45Z</time>
      </trkpt>
      <trkpt lat="45.24542" lon="4.19616">
        <ele>740.35</ele>
        <time>2011-10-15T07:51:46Z</time>
      </trkpt>
      <trkpt lat="45.2455" lon="4.19597">
        <ele>739.39</ele>
        <time>2011-10-15T07:51:48Z</time>
      </trkpt>
      <trkpt lat="45.24554" lon="4.19588">
        <ele>738.91</ele>
        <time>2011-10-15T07:51:49Z</time>
      </trkpt>
      <trkpt lat="45.24615" lon="4.19481">
        <ele>728.82</ele>
        <time>2011-10-15T07:51:59Z</time>
      </trkpt>
      <trkpt lat="45.24678" lon="4.19389">
        <ele>720.16</ele>
        <time>2011-10-15T07:52:09Z</time>
      </trkpt>
      <trkpt lat="45.24683" lon="4.19384">
        <ele>719.2</ele>
        <time>2011-10-15T07:52:10Z</time>
      </trkpt>
      <trkpt lat="45.24688" lon="4.1938">
        <ele>718.24</ele>
        <time>2011-10-15T07:52:11Z</time>
      </trkpt>
      <trkpt lat="45.24694" lon="4.19378">
        <ele>717.76</ele>
        <time>2011-10-15T07:52:12Z</time>
      </trkpt>
      <trkpt lat="45.24699" lon="4.19378">
        <ele>716.8</ele>
        <time>2011-10-15T07:52:13Z</time>
      </trkpt>
      <trkpt lat="45.24704" lon="4.19378">
        <ele>716.32</ele>
        <time>2011-10-15T07:52:14Z</time>
      </trkpt>
      <trkpt lat="45.24714" lon="4.19378">
        <ele>715.36</ele>
        <time>2011-10-15T07:52:16Z</time>
      </trkpt>
      <trkpt lat="45.24719" lon="4.19379">
        <ele>714.88</ele>
        <time>2011-10-15T07:52:17Z</time>
      </trkpt>
      <trkpt lat="45.24723" lon="4.19382">
        <ele>714.4</ele>
        <time>2011-10-15T07:52:18Z</time>
      </trkpt>
      <trkpt lat="45.24727" lon="4.19385">
        <ele>713.92</ele>
        <time>2011-10-15T07:52:19Z</time>
      </trkpt>
      <trkpt lat="45.24731" lon="4.19389">
        <ele>713.44</ele>
        <time>2011-10-15T07:52:20Z</time>
      </trkpt>
      <trkpt lat="45.24734" lon="4.19394">
        <ele>712.95</ele>
        <time>2011-10-15T07:52:21Z</time>
      </trkpt>
      <trkpt lat="45.24737" lon="4.19399">
        <ele>712.47</ele>
        <time>2011-10-15T07:52:22Z</time>
      </trkpt>
      <trkpt lat="45.24739" lon="4.19404">
        <ele>711.99</ele>
        <time>2011-10-15T07:52:23Z</time>
      </trkpt>
      <trkpt lat="45.24752" lon="4.19433">
        <ele>710.07</ele>
        <time>2011-10-15T07:52:30Z</time>
      </trkpt>
      <trkpt lat="45.24755" lon="4.19438">
        <ele>709.59</ele>
        <time>2011-10-15T07:52:32Z</time>
      </trkpt>
      <trkpt lat="45.24756" lon="4.19441">
        <ele>709.59</ele>
        <time>2011-10-15T07:52:33Z</time>
      </trkpt>
      <trkpt lat="45.24757" lon="4.19445">
        <ele>709.59</ele>
        <time>2011-10-15T07:52:34Z</time>
      </trkpt>
      <trkpt lat="45.24758" lon="4.19448">
        <ele>709.59</ele>
        <time>2011-10-15T07:52:35Z</time>
      </trkpt>
      <trkpt lat="45.24759" lon="4.19452">
        <ele>709.59</ele>
        <time>2011-10-15T07:52:36Z</time>
      </trkpt>
      <trkpt lat="45.24759" lon="4.19455">
        <ele>709.59</ele>
        <time>2011-10-15T07:52:37Z</time>
      </trkpt>
      <trkpt lat="45.2476" lon="4.19458">
        <ele>709.11</ele>
        <time>2011-10-15T07:52:38Z</time>
      </trkpt>
      <trkpt lat="45.24761" lon="4.19461">
        <ele>709.11</ele>
        <time>2011-10-15T07:52:39Z</time>
      </trkpt>
      <trkpt lat="45.24762" lon="4.19465">
        <ele>708.63</ele>
        <time>2011-10-15T07:52:40Z</time>
      </trkpt>
      <trkpt lat="45.24763" lon="4.19468">
        <ele>708.15</ele>
        <time>2011-10-15T07:52:41Z</time>
      </trkpt>
      <trkpt lat="45.24764" lon="4.19471">
        <ele>708.15</ele>
        <time>2011-10-15T07:52:42Z</time>
      </trkpt>
      <trkpt lat="45.24764" lon="4.19474">
        <ele>708.15</ele>
        <time>2011-10-15T07:52:43Z</time>
      </trkpt>
      <trkpt lat="45.24765" lon="4.19477">
        <ele>707.67</ele>
        <time>2011-10-15T07:52:44Z</time>
      </trkpt>
      <trkpt lat="45.24769" lon="4.19488">
        <ele>707.19</ele>
        <time>2011-10-15T07:52:47Z</time>
      </trkpt>
      <trkpt lat="45.2477" lon="4.19531">
        <ele>710.07</ele>
        <time>2011-10-15T07:52:57Z</time>
      </trkpt>
      <trkpt lat="45.24776" lon="4.19589">
        <ele>720.65</ele>
        <time>2011-10-15T07:53:08Z</time>
      </trkpt>
      <trkpt lat="45.24776" lon="4.196">
        <ele>721.61</ele>
        <time>2011-10-15T07:53:10Z</time>
      </trkpt>
      <trkpt lat="45.24777" lon="4.19605">
        <ele>721.61</ele>
        <time>2011-10-15T07:53:11Z</time>
      </trkpt>
      <trkpt lat="45.24777" lon="4.1961">
        <ele>722.09</ele>
        <time>2011-10-15T07:53:12Z</time>
      </trkpt>
      <trkpt lat="45.24778" lon="4.19616">
        <ele>722.57</ele>
        <time>2011-10-15T07:53:13Z</time>
      </trkpt>
      <trkpt lat="45.24779" lon="4.19621">
        <ele>723.05</ele>
        <time>2011-10-15T07:53:14Z</time>
      </trkpt>
      <trkpt lat="45.24801" lon="4.19657">
        <ele>728.34</ele>
        <time>2011-10-15T07:53:24Z</time>
      </trkpt>
      <trkpt lat="45.24826" lon="4.19686">
        <ele>731.22</ele>
        <time>2011-10-15T07:53:35Z</time>
      </trkpt>
      <trkpt lat="45.24842" lon="4.19723">
        <ele>733.14</ele>
        <time>2011-10-15T07:53:46Z</time>
      </trkpt>
      <trkpt lat="45.24849" lon="4.19734">
        <ele>733.14</ele>
        <time>2011-10-15T07:53:50Z</time>
      </trkpt>
      <trkpt lat="45.24851" lon="4.19735">
        <ele>733.62</ele>
        <time>2011-10-15T07:53:51Z</time>
      </trkpt>
      <trkpt lat="45.24883" lon="4.19773">
        <ele>736.51</ele>
        <time>2011-10-15T07:54:03Z</time>
      </trkpt>
      <trkpt lat="45.24893" lon="4.1981">
        <ele>741.31</ele>
        <time>2011-10-15T07:54:13Z</time>
      </trkpt>
      <trkpt lat="45.24893" lon="4.19817">
        <ele>742.28</ele>
        <time>2011-10-15T07:54:15Z</time>
      </trkpt>
      <trkpt lat="45.24882" lon="4.19865">
        <ele>744.68</ele>
        <time>2011-10-15T07:54:26Z</time>
      </trkpt>
      <trkpt lat="45.2488" lon="4.19872">
        <ele>744.2</ele>
        <time>2011-10-15T07:54:27Z</time>
      </trkpt>
      <trkpt lat="45.24878" lon="4.1988">
        <ele>744.2</ele>
        <time>2011-10-15T07:54:28Z</time>
      </trkpt>
      <trkpt lat="45.24877" lon="4.19888">
        <ele>743.72</ele>
        <time>2011-10-15T07:54:29Z</time>
      </trkpt>
      <trkpt lat="45.24877" lon="4.19898">
        <ele>743.72</ele>
        <time>2011-10-15T07:54:30Z</time>
      </trkpt>
      <trkpt lat="45.24878" lon="4.19909">
        <ele>743.24</ele>
        <time>2011-10-15T07:54:31Z</time>
      </trkpt>
      <trkpt lat="45.2488" lon="4.19919">
        <ele>743.24</ele>
        <time>2011-10-15T07:54:32Z</time>
      </trkpt>
      <trkpt lat="45.24883" lon="4.19927">
        <ele>742.76</ele>
        <time>2011-10-15T07:54:33Z</time>
      </trkpt>
      <trkpt lat="45.24886" lon="4.19936">
        <ele>742.76</ele>
        <time>2011-10-15T07:54:34Z</time>
      </trkpt>
      <trkpt lat="45.24889" lon="4.19943">
        <ele>742.28</ele>
        <time>2011-10-15T07:54:35Z</time>
      </trkpt>
      <trkpt lat="45.24894" lon="4.19951">
        <ele>742.28</ele>
        <time>2011-10-15T07:54:36Z</time>
      </trkpt>
      <trkpt lat="45.249" lon="4.19958">
        <ele>742.28</ele>
        <time>2011-10-15T07:54:37Z</time>
      </trkpt>
      <trkpt lat="45.24906" lon="4.19963">
        <ele>741.79</ele>
        <time>2011-10-15T07:54:38Z</time>
      </trkpt>
      <trkpt lat="45.24914" lon="4.1997">
        <ele>741.31</ele>
        <time>2011-10-15T07:54:39Z</time>
      </trkpt>
      <trkpt lat="45.24946" lon="4.20014">
        <ele>738.91</ele>
        <time>2011-10-15T07:54:44Z</time>
      </trkpt>
      <trkpt lat="45.24957" lon="4.20039">
        <ele>737.47</ele>
        <time>2011-10-15T07:54:46Z</time>
      </trkpt>
      <trkpt lat="45.24971" lon="4.20096">
        <ele>734.1</ele>
        <time>2011-10-15T07:54:50Z</time>
      </trkpt>
      <trkpt lat="45.24972" lon="4.20111">
        <ele>733.14</ele>
        <time>2011-10-15T07:54:51Z</time>
      </trkpt>
      <trkpt lat="45.24986" lon="4.20258">
        <ele>726.89</ele>
        <time>2011-10-15T07:55:02Z</time>
      </trkpt>
      <trkpt lat="45.24986" lon="4.2027">
        <ele>726.41</ele>
        <time>2011-10-15T07:55:03Z</time>
      </trkpt>
      <trkpt lat="45.24986" lon="4.20283">
        <ele>725.45</ele>
        <time>2011-10-15T07:55:04Z</time>
      </trkpt>
      <trkpt lat="45.24984" lon="4.20294">
        <ele>724.97</ele>
        <time>2011-10-15T07:55:05Z</time>
      </trkpt>
      <trkpt lat="45.2498" lon="4.20305">
        <ele>724.01</ele>
        <time>2011-10-15T07:55:06Z</time>
      </trkpt>
      <trkpt lat="45.24976" lon="4.20315">
        <ele>723.05</ele>
        <time>2011-10-15T07:55:07Z</time>
      </trkpt>
      <trkpt lat="45.24972" lon="4.20325">
        <ele>721.61</ele>
        <time>2011-10-15T07:55:08Z</time>
      </trkpt>
      <trkpt lat="45.24968" lon="4.20345">
        <ele>719.68</ele>
        <time>2011-10-15T07:55:10Z</time>
      </trkpt>
      <trkpt lat="45.24967" lon="4.20352">
        <ele>719.2</ele>
        <time>2011-10-15T07:55:11Z</time>
      </trkpt>
      <trkpt lat="45.24967" lon="4.20358">
        <ele>718.72</ele>
        <time>2011-10-15T07:55:12Z</time>
      </trkpt>
      <trkpt lat="45.24967" lon="4.20361">
        <ele>718.24</ele>
        <time>2011-10-15T07:55:13Z</time>
      </trkpt>
      <trkpt lat="45.24967" lon="4.20365">
        <ele>717.76</ele>
        <time>2011-10-15T07:55:14Z</time>
      </trkpt>
      <trkpt lat="45.24965" lon="4.20399">
        <ele>717.76</ele>
        <time>2011-10-15T07:55:24Z</time>
      </trkpt>
      <trkpt lat="45.24967" lon="4.2044">
        <ele>721.13</ele>
        <time>2011-10-15T07:55:36Z</time>
      </trkpt>
      <trkpt lat="45.24971" lon="4.20451">
        <ele>721.61</ele>
        <time>2011-10-15T07:55:40Z</time>
      </trkpt>
      <trkpt lat="45.24972" lon="4.20453">
        <ele>722.09</ele>
        <time>2011-10-15T07:55:41Z</time>
      </trkpt>
      <trkpt lat="45.24973" lon="4.20455">
        <ele>722.09</ele>
        <time>2011-10-15T07:55:42Z</time>
      </trkpt>
      <trkpt lat="45.24974" lon="4.20458">
        <ele>722.09</ele>
        <time>2011-10-15T07:55:43Z</time>
      </trkpt>
      <trkpt lat="45.24975" lon="4.2046">
        <ele>722.09</ele>
        <time>2011-10-15T07:55:44Z</time>
      </trkpt>
      <trkpt lat="45.24975" lon="4.20463">
        <ele>722.09</ele>
        <time>2011-10-15T07:55:45Z</time>
      </trkpt>
      <trkpt lat="45.24975" lon="4.20465">
        <ele>722.09</ele>
        <time>2011-10-15T07:55:46Z</time>
      </trkpt>
      <trkpt lat="45.24976" lon="4.20468">
        <ele>722.09</ele>
        <time>2011-10-15T07:55:47Z</time>
      </trkpt>
      <trkpt lat="45.24976" lon="4.2047">
        <ele>722.09</ele>
        <time>2011-10-15T07:55:48Z</time>
      </trkpt>
      <trkpt lat="45.24977" lon="4.20473">
        <ele>722.09</ele>
        <time>2011-10-15T07:55:49Z</time>
      </trkpt>
      <trkpt lat="45.24977" lon="4.20476">
        <ele>722.09</ele>
        <time>2011-10-15T07:55:50Z</time>
      </trkpt>
      <trkpt lat="45.24977" lon="4.20479">
        <ele>721.61</ele>
        <time>2011-10-15T07:55:51Z</time>
      </trkpt>
      <trkpt lat="45.24978" lon="4.20483">
        <ele>721.61</ele>
        <time>2011-10-15T07:55:52Z</time>
      </trkpt>
      <trkpt lat="45.24978" lon="4.20486">
        <ele>721.61</ele>
        <time>2011-10-15T07:55:53Z</time>
      </trkpt>
      <trkpt lat="45.24979" lon="4.20489">
        <ele>722.09</ele>
        <time>2011-10-15T07:55:54Z</time>
      </trkpt>
      <trkpt lat="45.2498" lon="4.20492">
        <ele>722.09</ele>
        <time>2011-10-15T07:55:55Z</time>
      </trkpt>
      <trkpt lat="45.24981" lon="4.20494">
        <ele>722.57</ele>
        <time>2011-10-15T07:55:56Z</time>
      </trkpt>
      <trkpt lat="45.24982" lon="4.20497">
        <ele>722.57</ele>
        <time>2011-10-15T07:55:57Z</time>
      </trkpt>
      <trkpt lat="45.24985" lon="4.20509">
        <ele>722.57</ele>
        <time>2011-10-15T07:56:02Z</time>
      </trkpt>
      <trkpt lat="45.24986" lon="4.20511">
        <ele>722.57</ele>
        <time>2011-10-15T07:56:03Z</time>
      </trkpt>
      <trkpt lat="45.24988" lon="4.20515">
        <ele>722.09</ele>
        <time>2011-10-15T07:56:05Z</time>
      </trkpt>
      <trkpt lat="45.24989" lon="4.20516">
        <ele>722.09</ele>
        <time>2011-10-15T07:56:06Z</time>
      </trkpt>
      <trkpt lat="45.24992" lon="4.20519">
        <ele>720.65</ele>
        <time>2011-10-15T07:56:08Z</time>
      </trkpt>
      <trkpt lat="45.24993" lon="4.20521">
        <ele>719.68</ele>
        <time>2011-10-15T07:56:09Z</time>
      </trkpt>
      <trkpt lat="45.24996" lon="4.20525">
        <ele>717.76</ele>
        <time>2011-10-15T07:56:12Z</time>
      </trkpt>
      <trkpt lat="45.24998" lon="4.20528">
        <ele>717.28</ele>
        <time>2011-10-15T07:56:13Z</time>
      </trkpt>
      <trkpt lat="45.25011" lon="4.20572">
        <ele>723.05</ele>
        <time>2011-10-15T07:56:28Z</time>
      </trkpt>
      <trkpt lat="45.25029" lon="4.20601">
        <ele>728.34</ele>
        <time>2011-10-15T07:56:42Z</time>
      </trkpt>
      <trkpt lat="45.25043" lon="4.20622">
        <ele>733.14</ele>
        <time>2011-10-15T07:56:55Z</time>
      </trkpt>
      <trkpt lat="45.25056" lon="4.20638">
        <ele>738.43</ele>
        <time>2011-10-15T07:57:06Z</time>
      </trkpt>
      <trkpt lat="45.25067" lon="4.20645">
        <ele>740.35</ele>
        <time>2011-10-15T07:57:14Z</time>
      </trkpt>
      <trkpt lat="45.25082" lon="4.20654">
        <ele>741.31</ele>
        <time>2011-10-15T07:57:25Z</time>
      </trkpt>
      <trkpt lat="45.25104" lon="4.2067">
        <ele>743.72</ele>
        <time>2011-10-15T07:57:40Z</time>
      </trkpt>
      <trkpt lat="45.25111" lon="4.20676">
        <ele>744.68</ele>
        <time>2011-10-15T07:57:44Z</time>
      </trkpt>
      <trkpt lat="45.25134" lon="4.20699">
        <ele>746.12</ele>
        <time>2011-10-15T07:58:00Z</time>
      </trkpt>
      <trkpt lat="45.2515" lon="4.20732">
        <ele>748.52</ele>
        <time>2011-10-15T07:58:13Z</time>
      </trkpt>
      <trkpt lat="45.25166" lon="4.20766">
        <ele>749.97</ele>
        <time>2011-10-15T07:58:25Z</time>
      </trkpt>
      <trkpt lat="45.25186" lon="4.20796">
        <ele>752.37</ele>
        <time>2011-10-15T07:58:38Z</time>
      </trkpt>
      <trkpt lat="45.2519" lon="4.20803">
        <ele>752.85</ele>
        <time>2011-10-15T07:58:41Z</time>
      </trkpt>
      <trkpt lat="45.25204" lon="4.20829">
        <ele>756.21</ele>
        <time>2011-10-15T07:58:52Z</time>
      </trkpt>
      <trkpt lat="45.25209" lon="4.20869">
        <ele>758.14</ele>
        <time>2011-10-15T07:59:04Z</time>
      </trkpt>
      <trkpt lat="45.25209" lon="4.20876">
        <ele>759.1</ele>
        <time>2011-10-15T07:59:06Z</time>
      </trkpt>
      <trkpt lat="45.25207" lon="4.20903">
        <ele>766.31</ele>
        <time>2011-10-15T07:59:15Z</time>
      </trkpt>
      <trkpt lat="45.25207" lon="4.20907">
        <ele>767.27</ele>
        <time>2011-10-15T07:59:16Z</time>
      </trkpt>
      <trkpt lat="45.25217" lon="4.20933">
        <ele>777.36</ele>
        <time>2011-10-15T07:59:26Z</time>
      </trkpt>
      <trkpt lat="45.25223" lon="4.20959">
        <ele>786.98</ele>
        <time>2011-10-15T07:59:36Z</time>
      </trkpt>
      <trkpt lat="45.25233" lon="4.20996">
        <ele>790.82</ele>
        <time>2011-10-15T07:59:46Z</time>
      </trkpt>
      <trkpt lat="45.25235" lon="4.21022">
        <ele>787.46</ele>
        <time>2011-10-15T07:59:54Z</time>
      </trkpt>
      <trkpt lat="45.25234" lon="4.21027">
        <ele>786.02</ele>
        <time>2011-10-15T07:59:56Z</time>
      </trkpt>
      <trkpt lat="45.25234" lon="4.21085">
        <ele>779.29</ele>
        <time>2011-10-15T08:00:10Z</time>
      </trkpt>
      <trkpt lat="45.25254" lon="4.21153">
        <ele>773.04</ele>
        <time>2011-10-15T08:00:25Z</time>
      </trkpt>
      <trkpt lat="45.25274" lon="4.21214">
        <ele>768.23</ele>
        <time>2011-10-15T08:00:32Z</time>
      </trkpt>
      <trkpt lat="45.25277" lon="4.21222">
        <ele>768.23</ele>
        <time>2011-10-15T08:00:33Z</time>
      </trkpt>
      <trkpt lat="45.25291" lon="4.21257">
        <ele>768.71</ele>
        <time>2011-10-15T08:00:39Z</time>
      </trkpt>
      <trkpt lat="45.25293" lon="4.21258">
        <ele>768.71</ele>
        <time>2011-10-15T08:00:40Z</time>
      </trkpt>
      <trkpt lat="45.25295" lon="4.21259">
        <ele>769.19</ele>
        <time>2011-10-15T08:00:41Z</time>
      </trkpt>
      <trkpt lat="45.25297" lon="4.21259">
        <ele>769.19</ele>
        <time>2011-10-15T08:00:42Z</time>
      </trkpt>
      <trkpt lat="45.25299" lon="4.2126">
        <ele>769.67</ele>
        <time>2011-10-15T08:00:43Z</time>
      </trkpt>
      <trkpt lat="45.25306" lon="4.21262">
        <ele>770.15</ele>
        <time>2011-10-15T08:00:45Z</time>
      </trkpt>
      <trkpt lat="45.25311" lon="4.2126">
        <ele>770.15</ele>
        <time>2011-10-15T08:00:46Z</time>
      </trkpt>
      <trkpt lat="45.25315" lon="4.21259">
        <ele>769.67</ele>
        <time>2011-10-15T08:00:47Z</time>
      </trkpt>
      <trkpt lat="45.2532" lon="4.2126">
        <ele>769.67</ele>
        <time>2011-10-15T08:00:48Z</time>
      </trkpt>
      <trkpt lat="45.25325" lon="4.2126">
        <ele>769.67</ele>
        <time>2011-10-15T08:00:49Z</time>
      </trkpt>
      <trkpt lat="45.2533" lon="4.2126">
        <ele>769.67</ele>
        <time>2011-10-15T08:00:50Z</time>
      </trkpt>
      <trkpt lat="45.25335" lon="4.21259">
        <ele>769.67</ele>
        <time>2011-10-15T08:00:51Z</time>
      </trkpt>
      <trkpt lat="45.25368" lon="4.21262">
        <ele>770.63</ele>
        <time>2011-10-15T08:01:01Z</time>
      </trkpt>
      <trkpt lat="45.2541" lon="4.21257">
        <ele>771.6</ele>
        <time>2011-10-15T08:01:15Z</time>
      </trkpt>
      <trkpt lat="45.25437" lon="4.21255">
        <ele>771.6</ele>
        <time>2011-10-15T08:01:22Z</time>
      </trkpt>
      <trkpt lat="45.2545" lon="4.21257">
        <ele>772.08</ele>
        <time>2011-10-15T08:01:25Z</time>
      </trkpt>
      <trkpt lat="45.25463" lon="4.21262">
        <ele>772.56</ele>
        <time>2011-10-15T08:01:28Z</time>
      </trkpt>
      <trkpt lat="45.25466" lon="4.21264">
        <ele>772.56</ele>
        <time>2011-10-15T08:01:29Z</time>
      </trkpt>
      <trkpt lat="45.25477" lon="4.21274">
        <ele>773.04</ele>
        <time>2011-10-15T08:01:32Z</time>
      </trkpt>
      <trkpt lat="45.25481" lon="4.21278">
        <ele>773.04</ele>
        <time>2011-10-15T08:01:33Z</time>
      </trkpt>
      <trkpt lat="45.25484" lon="4.21281">
        <ele>773.52</ele>
        <time>2011-10-15T08:01:34Z</time>
      </trkpt>
      <trkpt lat="45.25533" lon="4.21322">
        <ele>775.92</ele>
        <time>2011-10-15T08:01:49Z</time>
      </trkpt>
      <trkpt lat="45.25567" lon="4.21353">
        <ele>779.29</ele>
        <time>2011-10-15T08:02:01Z</time>
      </trkpt>
      <trkpt lat="45.25611" lon="4.21401">
        <ele>780.25</ele>
        <time>2011-10-15T08:02:16Z</time>
      </trkpt>
      <trkpt lat="45.25657" lon="4.21435">
        <ele>783.61</ele>
        <time>2011-10-15T08:02:30Z</time>
      </trkpt>
      <trkpt lat="45.25714" lon="4.21452">
        <ele>783.61</ele>
        <time>2011-10-15T08:02:45Z</time>
      </trkpt>
      <trkpt lat="45.25763" lon="4.21491">
        <ele>786.98</ele>
        <time>2011-10-15T08:03:00Z</time>
      </trkpt>
      <trkpt lat="45.25802" lon="4.21517">
        <ele>790.82</ele>
        <time>2011-10-15T08:03:13Z</time>
      </trkpt>
      <trkpt lat="45.25815" lon="4.21551">
        <ele>793.22</ele>
        <time>2011-10-15T08:03:23Z</time>
      </trkpt>
      <trkpt lat="45.25833" lon="4.216">
        <ele>794.19</ele>
        <time>2011-10-15T08:03:36Z</time>
      </trkpt>
      <trkpt lat="45.25856" lon="4.21633">
        <ele>794.67</ele>
        <time>2011-10-15T08:03:47Z</time>
      </trkpt>
      <trkpt lat="45.25899" lon="4.21665">
        <ele>797.55</ele>
        <time>2011-10-15T08:04:02Z</time>
      </trkpt>
      <trkpt lat="45.25938" lon="4.21706">
        <ele>802.36</ele>
        <time>2011-10-15T08:04:17Z</time>
      </trkpt>
      <trkpt lat="45.2597" lon="4.21752">
        <ele>802.84</ele>
        <time>2011-10-15T08:04:30Z</time>
      </trkpt>
      <trkpt lat="45.26015" lon="4.21804">
        <ele>800.44</ele>
        <time>2011-10-15T08:04:45Z</time>
      </trkpt>
      <trkpt lat="45.26019" lon="4.21807">
        <ele>800.44</ele>
        <time>2011-10-15T08:04:46Z</time>
      </trkpt>
      <trkpt lat="45.26072" lon="4.21849">
        <ele>799.95</ele>
        <time>2011-10-15T08:05:00Z</time>
      </trkpt>
      <trkpt lat="45.26122" lon="4.21874">
        <ele>802.84</ele>
        <time>2011-10-15T08:05:14Z</time>
      </trkpt>
      <trkpt lat="45.26167" lon="4.21914">
        <ele>804.76</ele>
        <time>2011-10-15T08:05:29Z</time>
      </trkpt>
      <trkpt lat="45.26207" lon="4.21958">
        <ele>807.16</ele>
        <time>2011-10-15T08:05:44Z</time>
      </trkpt>
      <trkpt lat="45.26235" lon="4.21991">
        <ele>809.09</ele>
        <time>2011-10-15T08:05:55Z</time>
      </trkpt>
      <trkpt lat="45.26273" lon="4.22029">
        <ele>811.49</ele>
        <time>2011-10-15T08:06:09Z</time>
      </trkpt>
      <trkpt lat="45.26312" lon="4.22068">
        <ele>812.93</ele>
        <time>2011-10-15T08:06:23Z</time>
      </trkpt>
      <trkpt lat="45.26343" lon="4.22103">
        <ele>814.37</ele>
        <time>2011-10-15T08:06:35Z</time>
      </trkpt>
      <trkpt lat="45.26371" lon="4.22144">
        <ele>815.82</ele>
        <time>2011-10-15T08:06:47Z</time>
      </trkpt>
      <trkpt lat="45.26356" lon="4.22196">
        <ele>815.82</ele>
        <time>2011-10-15T08:06:57Z</time>
      </trkpt>
      <trkpt lat="45.26333" lon="4.2224">
        <ele>816.3</ele>
        <time>2011-10-15T08:07:06Z</time>
      </trkpt>
      <trkpt lat="45.26331" lon="4.22245">
        <ele>816.3</ele>
        <time>2011-10-15T08:07:07Z</time>
      </trkpt>
      <trkpt lat="45.26328" lon="4.2225">
        <ele>816.78</ele>
        <time>2011-10-15T08:07:08Z</time>
      </trkpt>
      <trkpt lat="45.26327" lon="4.22255">
        <ele>816.78</ele>
        <time>2011-10-15T08:07:09Z</time>
      </trkpt>
      <trkpt lat="45.26325" lon="4.22261">
        <ele>817.26</ele>
        <time>2011-10-15T08:07:10Z</time>
      </trkpt>
      <trkpt lat="45.26323" lon="4.22266">
        <ele>817.26</ele>
        <time>2011-10-15T08:07:11Z</time>
      </trkpt>
      <trkpt lat="45.26322" lon="4.22272">
        <ele>817.26</ele>
        <time>2011-10-15T08:07:12Z</time>
      </trkpt>
      <trkpt lat="45.26319" lon="4.22311">
        <ele>818.22</ele>
        <time>2011-10-15T08:07:19Z</time>
      </trkpt>
      <trkpt lat="45.26319" lon="4.22316">
        <ele>818.22</ele>
        <time>2011-10-15T08:07:20Z</time>
      </trkpt>
      <trkpt lat="45.26319" lon="4.22322">
        <ele>818.7</ele>
        <time>2011-10-15T08:07:21Z</time>
      </trkpt>
      <trkpt lat="45.26319" lon="4.22327">
        <ele>818.7</ele>
        <time>2011-10-15T08:07:22Z</time>
      </trkpt>
      <trkpt lat="45.26319" lon="4.22333">
        <ele>818.7</ele>
        <time>2011-10-15T08:07:23Z</time>
      </trkpt>
      <trkpt lat="45.26319" lon="4.22378">
        <ele>819.18</ele>
        <time>2011-10-15T08:07:31Z</time>
      </trkpt>
      <trkpt lat="45.26318" lon="4.22384">
        <ele>818.7</ele>
        <time>2011-10-15T08:07:32Z</time>
      </trkpt>
      <trkpt lat="45.26317" lon="4.22399">
        <ele>818.7</ele>
        <time>2011-10-15T08:07:34Z</time>
      </trkpt>
      <trkpt lat="45.26317" lon="4.22407">
        <ele>818.7</ele>
        <time>2011-10-15T08:07:35Z</time>
      </trkpt>
      <trkpt lat="45.26318" lon="4.22414">
        <ele>818.7</ele>
        <time>2011-10-15T08:07:36Z</time>
      </trkpt>
      <trkpt lat="45.26319" lon="4.22422">
        <ele>818.7</ele>
        <time>2011-10-15T08:07:37Z</time>
      </trkpt>
      <trkpt lat="45.2632" lon="4.2243">
        <ele>819.18</ele>
        <time>2011-10-15T08:07:38Z</time>
      </trkpt>
      <trkpt lat="45.26323" lon="4.22437">
        <ele>819.18</ele>
        <time>2011-10-15T08:07:39Z</time>
      </trkpt>
      <trkpt lat="45.26326" lon="4.22444">
        <ele>819.18</ele>
        <time>2011-10-15T08:07:40Z</time>
      </trkpt>
      <trkpt lat="45.26328" lon="4.22452">
        <ele>818.7</ele>
        <time>2011-10-15T08:07:41Z</time>
      </trkpt>
      <trkpt lat="45.26344" lon="4.22515">
        <ele>818.22</ele>
        <time>2011-10-15T08:07:48Z</time>
      </trkpt>
      <trkpt lat="45.26346" lon="4.22568">
        <ele>816.78</ele>
        <time>2011-10-15T08:07:57Z</time>
      </trkpt>
      <trkpt lat="45.26344" lon="4.22583">
        <ele>816.78</ele>
        <time>2011-10-15T08:08:10Z</time>
      </trkpt>
      <trkpt lat="45.26341" lon="4.22627">
        <ele>816.78</ele>
        <time>2011-10-15T08:08:22Z</time>
      </trkpt>
      <trkpt lat="45.26343" lon="4.22678">
        <ele>817.26</ele>
        <time>2011-10-15T08:08:32Z</time>
      </trkpt>
      <trkpt lat="45.26343" lon="4.22683">
        <ele>817.26</ele>
        <time>2011-10-15T08:08:33Z</time>
      </trkpt>
      <trkpt lat="45.26344" lon="4.22689">
        <ele>817.26</ele>
        <time>2011-10-15T08:08:34Z</time>
      </trkpt>
      <trkpt lat="45.26344" lon="4.22694">
        <ele>817.26</ele>
        <time>2011-10-15T08:08:35Z</time>
      </trkpt>
      <trkpt lat="45.26345" lon="4.227">
        <ele>817.26</ele>
        <time>2011-10-15T08:08:36Z</time>
      </trkpt>
      <trkpt lat="45.26345" lon="4.22705">
        <ele>817.26</ele>
        <time>2011-10-15T08:08:37Z</time>
      </trkpt>
      <trkpt lat="45.26359" lon="4.22774">
        <ele>814.85</ele>
        <time>2011-10-15T08:08:48Z</time>
      </trkpt>
      <trkpt lat="45.26365" lon="4.22795">
        <ele>813.89</ele>
        <time>2011-10-15T08:08:51Z</time>
      </trkpt>
      <trkpt lat="45.26366" lon="4.22802">
        <ele>813.89</ele>
        <time>2011-10-15T08:08:52Z</time>
      </trkpt>
      <trkpt lat="45.26368" lon="4.22809">
        <ele>814.37</ele>
        <time>2011-10-15T08:08:53Z</time>
      </trkpt>
      <trkpt lat="45.2637" lon="4.22816">
        <ele>814.37</ele>
        <time>2011-10-15T08:08:54Z</time>
      </trkpt>
      <trkpt lat="45.26372" lon="4.22822">
        <ele>813.89</ele>
        <time>2011-10-15T08:08:55Z</time>
      </trkpt>
      <trkpt lat="45.26373" lon="4.22829">
        <ele>813.89</ele>
        <time>2011-10-15T08:08:56Z</time>
      </trkpt>
      <trkpt lat="45.26375" lon="4.22835">
        <ele>813.41</ele>
        <time>2011-10-15T08:08:57Z</time>
      </trkpt>
      <trkpt lat="45.26379" lon="4.22849">
        <ele>812.93</ele>
        <time>2011-10-15T08:08:59Z</time>
      </trkpt>
      <trkpt lat="45.26387" lon="4.2289">
        <ele>812.45</ele>
        <time>2011-10-15T08:09:05Z</time>
      </trkpt>
      <trkpt lat="45.26387" lon="4.22897">
        <ele>812.45</ele>
        <time>2011-10-15T08:09:06Z</time>
      </trkpt>
      <trkpt lat="45.26387" lon="4.22904">
        <ele>811.97</ele>
        <time>2011-10-15T08:09:07Z</time>
      </trkpt>
      <trkpt lat="45.26385" lon="4.22911">
        <ele>811.97</ele>
        <time>2011-10-15T08:09:08Z</time>
      </trkpt>
      <trkpt lat="45.26384" lon="4.22917">
        <ele>812.45</ele>
        <time>2011-10-15T08:09:09Z</time>
      </trkpt>
      <trkpt lat="45.26382" lon="4.22923">
        <ele>812.45</ele>
        <time>2011-10-15T08:09:10Z</time>
      </trkpt>
      <trkpt lat="45.2638" lon="4.2293">
        <ele>811.97</ele>
        <time>2011-10-15T08:09:11Z</time>
      </trkpt>
      <trkpt lat="45.26343" lon="4.23008">
        <ele>811.97</ele>
        <time>2011-10-15T08:09:24Z</time>
      </trkpt>
      <trkpt lat="45.26309" lon="4.23059">
        <ele>812.45</ele>
        <time>2011-10-15T08:09:34Z</time>
      </trkpt>
      <trkpt lat="45.26306" lon="4.23064">
        <ele>812.45</ele>
        <time>2011-10-15T08:09:35Z</time>
      </trkpt>
      <trkpt lat="45.26296" lon="4.23078">
        <ele>813.89</ele>
        <time>2011-10-15T08:09:38Z</time>
      </trkpt>
      <trkpt lat="45.26295" lon="4.23084">
        <ele>814.37</ele>
        <time>2011-10-15T08:09:39Z</time>
      </trkpt>
      <trkpt lat="45.26295" lon="4.2309">
        <ele>814.85</ele>
        <time>2011-10-15T08:09:40Z</time>
      </trkpt>
      <trkpt lat="45.26296" lon="4.23095">
        <ele>815.34</ele>
        <time>2011-10-15T08:09:41Z</time>
      </trkpt>
      <trkpt lat="45.26298" lon="4.23099">
        <ele>815.34</ele>
        <time>2011-10-15T08:09:42Z</time>
      </trkpt>
      <trkpt lat="45.263" lon="4.23103">
        <ele>815.34</ele>
        <time>2011-10-15T08:09:43Z</time>
      </trkpt>
      <trkpt lat="45.26302" lon="4.23108">
        <ele>815.34</ele>
        <time>2011-10-15T08:09:44Z</time>
      </trkpt>
      <trkpt lat="45.26304" lon="4.23114">
        <ele>815.34</ele>
        <time>2011-10-15T08:09:45Z</time>
      </trkpt>
      <trkpt lat="45.26305" lon="4.2312">
        <ele>815.34</ele>
        <time>2011-10-15T08:09:46Z</time>
      </trkpt>
      <trkpt lat="45.26306" lon="4.23126">
        <ele>815.34</ele>
        <time>2011-10-15T08:09:47Z</time>
      </trkpt>
      <trkpt lat="45.26306" lon="4.23132">
        <ele>815.82</ele>
        <time>2011-10-15T08:09:48Z</time>
      </trkpt>
      <trkpt lat="45.26306" lon="4.23138">
        <ele>816.3</ele>
        <time>2011-10-15T08:09:49Z</time>
      </trkpt>
      <trkpt lat="45.26305" lon="4.23191">
        <ele>820.14</ele>
        <time>2011-10-15T08:09:59Z</time>
      </trkpt>
      <trkpt lat="45.26303" lon="4.23197">
        <ele>821.1</ele>
        <time>2011-10-15T08:10:00Z</time>
      </trkpt>
      <trkpt lat="45.26301" lon="4.23201">
        <ele>821.58</ele>
        <time>2011-10-15T08:10:01Z</time>
      </trkpt>
      <trkpt lat="45.26298" lon="4.23205">
        <ele>822.06</ele>
        <time>2011-10-15T08:10:02Z</time>
      </trkpt>
      <trkpt lat="45.26294" lon="4.23209">
        <ele>822.55</ele>
        <time>2011-10-15T08:10:03Z</time>
      </trkpt>
      <trkpt lat="45.26255" lon="4.23238">
        <ele>820.62</ele>
        <time>2011-10-15T08:10:14Z</time>
      </trkpt>
      <trkpt lat="45.2625" lon="4.23243">
        <ele>820.14</ele>
        <time>2011-10-15T08:10:15Z</time>
      </trkpt>
      <trkpt lat="45.26247" lon="4.23248">
        <ele>819.18</ele>
        <time>2011-10-15T08:10:16Z</time>
      </trkpt>
      <trkpt lat="45.26246" lon="4.23255">
        <ele>819.18</ele>
        <time>2011-10-15T08:10:17Z</time>
      </trkpt>
      <trkpt lat="45.26245" lon="4.23262">
        <ele>818.7</ele>
        <time>2011-10-15T08:10:18Z</time>
      </trkpt>
      <trkpt lat="45.26244" lon="4.23268">
        <ele>818.22</ele>
        <time>2011-10-15T08:10:19Z</time>
      </trkpt>
      <trkpt lat="45.26244" lon="4.23275">
        <ele>818.7</ele>
        <time>2011-10-15T08:10:20Z</time>
      </trkpt>
      <trkpt lat="45.26243" lon="4.23281">
        <ele>818.7</ele>
        <time>2011-10-15T08:10:21Z</time>
      </trkpt>
      <trkpt lat="45.26241" lon="4.23287">
        <ele>818.22</ele>
        <time>2011-10-15T08:10:22Z</time>
      </trkpt>
      <trkpt lat="45.26237" lon="4.23341">
        <ele>819.18</ele>
        <time>2011-10-15T08:10:32Z</time>
      </trkpt>
      <trkpt lat="45.26236" lon="4.23347">
        <ele>818.7</ele>
        <time>2011-10-15T08:10:33Z</time>
      </trkpt>
      <trkpt lat="45.26235" lon="4.23362">
        <ele>818.22</ele>
        <time>2011-10-15T08:10:35Z</time>
      </trkpt>
      <trkpt lat="45.26234" lon="4.23369">
        <ele>817.74</ele>
        <time>2011-10-15T08:10:36Z</time>
      </trkpt>
      <trkpt lat="45.26233" lon="4.23375">
        <ele>817.26</ele>
        <time>2011-10-15T08:10:37Z</time>
      </trkpt>
      <trkpt lat="45.26233" lon="4.23382">
        <ele>816.78</ele>
        <time>2011-10-15T08:10:38Z</time>
      </trkpt>
      <trkpt lat="45.26232" lon="4.23389">
        <ele>816.3</ele>
        <time>2011-10-15T08:10:39Z</time>
      </trkpt>
      <trkpt lat="45.26231" lon="4.23395">
        <ele>816.3</ele>
        <time>2011-10-15T08:10:40Z</time>
      </trkpt>
      <trkpt lat="45.26231" lon="4.23401">
        <ele>815.82</ele>
        <time>2011-10-15T08:10:41Z</time>
      </trkpt>
      <trkpt lat="45.26228" lon="4.23432">
        <ele>811.97</ele>
        <time>2011-10-15T08:10:47Z</time>
      </trkpt>
      <trkpt lat="45.26227" lon="4.23435">
        <ele>811.01</ele>
        <time>2011-10-15T08:10:48Z</time>
      </trkpt>
      <trkpt lat="45.26225" lon="4.23445">
        <ele>809.09</ele>
        <time>2011-10-15T08:10:50Z</time>
      </trkpt>
      <trkpt lat="45.26221" lon="4.23462">
        <ele>805.72</ele>
        <time>2011-10-15T08:10:54Z</time>
      </trkpt>
      <trkpt lat="45.26222" lon="4.23466">
        <ele>804.76</ele>
        <time>2011-10-15T08:10:55Z</time>
      </trkpt>
      <trkpt lat="45.26224" lon="4.2347">
        <ele>803.8</ele>
        <time>2011-10-15T08:10:56Z</time>
      </trkpt>
      <trkpt lat="45.26226" lon="4.23474">
        <ele>802.84</ele>
        <time>2011-10-15T08:10:57Z</time>
      </trkpt>
      <trkpt lat="45.26228" lon="4.23479">
        <ele>801.88</ele>
        <time>2011-10-15T08:10:58Z</time>
      </trkpt>
      <trkpt lat="45.26231" lon="4.23483">
        <ele>801.4</ele>
        <time>2011-10-15T08:10:59Z</time>
      </trkpt>
      <trkpt lat="45.26234" lon="4.23486">
        <ele>800.92</ele>
        <time>2011-10-15T08:11:00Z</time>
      </trkpt>
      <trkpt lat="45.26238" lon="4.23491">
        <ele>799.47</ele>
        <time>2011-10-15T08:11:02Z</time>
      </trkpt>
      <trkpt lat="45.26243" lon="4.235">
        <ele>798.51</ele>
        <time>2011-10-15T08:11:04Z</time>
      </trkpt>
      <trkpt lat="45.26244" lon="4.23506">
        <ele>797.55</ele>
        <time>2011-10-15T08:11:05Z</time>
      </trkpt>
      <trkpt lat="45.26241" lon="4.23509">
        <ele>796.59</ele>
        <time>2011-10-15T08:11:06Z</time>
      </trkpt>
      <trkpt lat="45.26238" lon="4.23511">
        <ele>795.63</ele>
        <time>2011-10-15T08:11:07Z</time>
      </trkpt>
      <trkpt lat="45.26233" lon="4.23513">
        <ele>794.67</ele>
        <time>2011-10-15T08:11:08Z</time>
      </trkpt>
      <trkpt lat="45.26225" lon="4.23516">
        <ele>792.74</ele>
        <time>2011-10-15T08:11:10Z</time>
      </trkpt>
      <trkpt lat="45.26222" lon="4.23521">
        <ele>791.78</ele>
        <time>2011-10-15T08:11:11Z</time>
      </trkpt>
      <trkpt lat="45.2622" lon="4.23526">
        <ele>790.82</ele>
        <time>2011-10-15T08:11:12Z</time>
      </trkpt>
      <trkpt lat="45.26219" lon="4.23533">
        <ele>790.34</ele>
        <time>2011-10-15T08:11:13Z</time>
      </trkpt>
      <trkpt lat="45.26219" lon="4.2354">
        <ele>789.38</ele>
        <time>2011-10-15T08:11:14Z</time>
      </trkpt>
      <trkpt lat="45.2622" lon="4.23545">
        <ele>788.42</ele>
        <time>2011-10-15T08:11:15Z</time>
      </trkpt>
      <trkpt lat="45.26221" lon="4.23549">
        <ele>787.46</ele>
        <time>2011-10-15T08:11:16Z</time>
      </trkpt>
      <trkpt lat="45.26239" lon="4.23561">
        <ele>786.02</ele>
        <time>2011-10-15T08:11:20Z</time>
      </trkpt>
      <trkpt lat="45.26254" lon="4.23564">
        <ele>785.05</ele>
        <time>2011-10-15T08:11:23Z</time>
      </trkpt>
      <trkpt lat="45.26268" lon="4.23567">
        <ele>784.09</ele>
        <time>2011-10-15T08:11:26Z</time>
      </trkpt>
      <trkpt lat="45.26279" lon="4.23571">
        <ele>783.13</ele>
        <time>2011-10-15T08:11:28Z</time>
      </trkpt>
      <trkpt lat="45.26288" lon="4.23581">
        <ele>782.65</ele>
        <time>2011-10-15T08:11:30Z</time>
      </trkpt>
      <trkpt lat="45.26302" lon="4.23607">
        <ele>781.69</ele>
        <time>2011-10-15T08:11:34Z</time>
      </trkpt>
      <trkpt lat="45.26306" lon="4.23622">
        <ele>781.69</ele>
        <time>2011-10-15T08:11:36Z</time>
      </trkpt>
      <trkpt lat="45.26323" lon="4.23652">
        <ele>781.69</ele>
        <time>2011-10-15T08:11:41Z</time>
      </trkpt>
      <trkpt lat="45.26341" lon="4.23669">
        <ele>782.65</ele>
        <time>2011-10-15T08:11:45Z</time>
      </trkpt>
      <trkpt lat="45.26368" lon="4.23688">
        <ele>785.53</ele>
        <time>2011-10-15T08:11:52Z</time>
      </trkpt>
      <trkpt lat="45.26376" lon="4.23711">
        <ele>785.05</ele>
        <time>2011-10-15T08:11:56Z</time>
      </trkpt>
      <trkpt lat="45.26382" lon="4.23756">
        <ele>783.61</ele>
        <time>2011-10-15T08:12:01Z</time>
      </trkpt>
      <trkpt lat="45.26382" lon="4.23785">
        <ele>783.13</ele>
        <time>2011-10-15T08:12:04Z</time>
      </trkpt>
      <trkpt lat="45.26381" lon="4.23803">
        <ele>782.65</ele>
        <time>2011-10-15T08:12:06Z</time>
      </trkpt>
      <trkpt lat="45.26376" lon="4.23828">
        <ele>782.17</ele>
        <time>2011-10-15T08:12:09Z</time>
      </trkpt>
      <trkpt lat="45.26373" lon="4.23835">
        <ele>782.17</ele>
        <time>2011-10-15T08:12:10Z</time>
      </trkpt>
      <trkpt lat="45.26376" lon="4.23851">
        <ele>780.25</ele>
        <time>2011-10-15T08:12:15Z</time>
      </trkpt>
      <trkpt lat="45.26381" lon="4.23847">
        <ele>779.29</ele>
        <time>2011-10-15T08:12:17Z</time>
      </trkpt>
      <trkpt lat="45.26385" lon="4.23846">
        <ele>778.81</ele>
        <time>2011-10-15T08:12:18Z</time>
      </trkpt>
      <trkpt lat="45.26389" lon="4.23845">
        <ele>778.32</ele>
        <time>2011-10-15T08:12:19Z</time>
      </trkpt>
      <trkpt lat="45.26392" lon="4.23844">
        <ele>777.84</ele>
        <time>2011-10-15T08:12:20Z</time>
      </trkpt>
      <trkpt lat="45.26395" lon="4.23844">
        <ele>777.84</ele>
        <time>2011-10-15T08:12:21Z</time>
      </trkpt>
      <trkpt lat="45.26397" lon="4.23844">
        <ele>777.84</ele>
        <time>2011-10-15T08:12:22Z</time>
      </trkpt>
      <trkpt lat="45.26399" lon="4.23846">
        <ele>777.84</ele>
        <time>2011-10-15T08:12:23Z</time>
      </trkpt>
      <trkpt lat="45.26402" lon="4.23847">
        <ele>778.32</ele>
        <time>2011-10-15T08:12:24Z</time>
      </trkpt>
      <trkpt lat="45.26406" lon="4.23849">
        <ele>778.32</ele>
        <time>2011-10-15T08:12:25Z</time>
      </trkpt>
      <trkpt lat="45.26411" lon="4.23852">
        <ele>778.32</ele>
        <time>2011-10-15T08:12:26Z</time>
      </trkpt>
      <trkpt lat="45.26468" lon="4.23897">
        <ele>780.73</ele>
        <time>2011-10-15T08:12:39Z</time>
      </trkpt>
      <trkpt lat="45.26521" lon="4.2395">
        <ele>779.77</ele>
        <time>2011-10-15T08:12:53Z</time>
      </trkpt>
      <trkpt lat="45.26525" lon="4.23953">
        <ele>779.77</ele>
        <time>2011-10-15T08:12:54Z</time>
      </trkpt>
      <trkpt lat="45.26554" lon="4.23982">
        <ele>779.77</ele>
        <time>2011-10-15T08:13:04Z</time>
      </trkpt>
      <trkpt lat="45.26575" lon="4.24018">
        <ele>784.57</ele>
        <time>2011-10-15T08:13:16Z</time>
      </trkpt>
      <trkpt lat="45.26596" lon="4.24039">
        <ele>788.42</ele>
        <time>2011-10-15T08:13:26Z</time>
      </trkpt>
      <trkpt lat="45.26614" lon="4.24062">
        <ele>792.26</ele>
        <time>2011-10-15T08:13:36Z</time>
      </trkpt>
      <trkpt lat="45.26625" lon="4.24075">
        <ele>795.63</ele>
        <time>2011-10-15T08:13:42Z</time>
      </trkpt>
      <trkpt lat="45.26626" lon="4.24078">
        <ele>795.63</ele>
        <time>2011-10-15T08:13:43Z</time>
      </trkpt>
      <trkpt lat="45.26628" lon="4.24083">
        <ele>796.11</ele>
        <time>2011-10-15T08:13:45Z</time>
      </trkpt>
      <trkpt lat="45.26629" lon="4.24086">
        <ele>796.59</ele>
        <time>2011-10-15T08:13:46Z</time>
      </trkpt>
      <trkpt lat="45.26633" lon="4.24099">
        <ele>798.51</ele>
        <time>2011-10-15T08:13:54Z</time>
      </trkpt>
      <trkpt lat="45.26633" lon="4.241">
        <ele>798.51</ele>
        <time>2011-10-15T08:13:55Z</time>
      </trkpt>
      <trkpt lat="45.26624" lon="4.24137">
        <ele>797.07</ele>
        <time>2011-10-15T08:14:08Z</time>
      </trkpt>
      <trkpt lat="45.26602" lon="4.24204">
        <ele>795.63</ele>
        <time>2011-10-15T08:14:21Z</time>
      </trkpt>
      <trkpt lat="45.26597" lon="4.24223">
        <ele>794.67</ele>
        <time>2011-10-15T08:14:24Z</time>
      </trkpt>
      <trkpt lat="45.26592" lon="4.2424">
        <ele>793.71</ele>
        <time>2011-10-15T08:14:27Z</time>
      </trkpt>
      <trkpt lat="45.26592" lon="4.24247">
        <ele>793.71</ele>
        <time>2011-10-15T08:14:28Z</time>
      </trkpt>
      <trkpt lat="45.26593" lon="4.24253">
        <ele>793.71</ele>
        <time>2011-10-15T08:14:29Z</time>
      </trkpt>
      <trkpt lat="45.26599" lon="4.24327">
        <ele>796.11</ele>
        <time>2011-10-15T08:14:42Z</time>
      </trkpt>
      <trkpt lat="45.26603" lon="4.24372">
        <ele>799.47</ele>
        <time>2011-10-15T08:14:52Z</time>
      </trkpt>
      <trkpt lat="45.26608" lon="4.24427">
        <ele>805.24</ele>
        <time>2011-10-15T08:15:05Z</time>
      </trkpt>
      <trkpt lat="45.26637" lon="4.24438">
        <ele>806.2</ele>
        <time>2011-10-15T08:15:15Z</time>
      </trkpt>
      <trkpt lat="45.26638" lon="4.2444">
        <ele>806.2</ele>
        <time>2011-10-15T08:15:16Z</time>
      </trkpt>
      <trkpt lat="45.26635" lon="4.24441">
        <ele>805.24</ele>
        <time>2011-10-15T08:15:25Z</time>
      </trkpt>
      <trkpt lat="45.26635" lon="4.24441">
        <ele>805.24</ele>
        <time>2011-10-15T08:17:22Z</time>
      </trkpt>
      <trkpt lat="45.26636" lon="4.24441">
        <ele>805.72</ele>
        <time>2011-10-15T08:22:51Z</time>
      </trkpt>
      <trkpt lat="45.26636" lon="4.2444">
        <ele>805.24</ele>
        <time>2011-10-15T08:25:58Z</time>
      </trkpt>
      <trkpt lat="45.26639" lon="4.24442">
        <ele>805.72</ele>
        <time>2011-10-15T08:26:17Z</time>
      </trkpt>
      <trkpt lat="45.26641" lon="4.24437">
        <ele>804.28</ele>
        <time>2011-10-15T08:26:32Z</time>
      </trkpt>
      <trkpt lat="45.26641" lon="4.24437">
        <ele>803.8</ele>
        <time>2011-10-15T08:27:04Z</time>
      </trkpt>
      <trkpt lat="45.26643" lon="4.24438">
        <ele>804.76</ele>
        <time>2011-10-15T08:27:15Z</time>
      </trkpt>
      <trkpt lat="45.26645" lon="4.24437">
        <ele>805.24</ele>
        <time>2011-10-15T08:27:16Z</time>
      </trkpt>
      <trkpt lat="45.26646" lon="4.24437">
        <ele>805.72</ele>
        <time>2011-10-15T08:27:17Z</time>
      </trkpt>
      <trkpt lat="45.26647" lon="4.24437">
        <ele>806.2</ele>
        <time>2011-10-15T08:27:18Z</time>
      </trkpt>
      <trkpt lat="45.26649" lon="4.24436">
        <ele>806.2</ele>
        <time>2011-10-15T08:27:19Z</time>
      </trkpt>
      <trkpt lat="45.26651" lon="4.24436">
        <ele>806.2</ele>
        <time>2011-10-15T08:27:20Z</time>
      </trkpt>
      <trkpt lat="45.26653" lon="4.24436">
        <ele>806.68</ele>
        <time>2011-10-15T08:27:21Z</time>
      </trkpt>
      <trkpt lat="45.26655" lon="4.24436">
        <ele>806.68</ele>
        <time>2011-10-15T08:27:22Z</time>
      </trkpt>
      <trkpt lat="45.26657" lon="4.24436">
        <ele>806.68</ele>
        <time>2011-10-15T08:27:23Z</time>
      </trkpt>
      <trkpt lat="45.26659" lon="4.24436">
        <ele>806.68</ele>
        <time>2011-10-15T08:27:24Z</time>
      </trkpt>
      <trkpt lat="45.26661" lon="4.24435">
        <ele>807.16</ele>
        <time>2011-10-15T08:27:25Z</time>
      </trkpt>
      <trkpt lat="45.26672" lon="4.24434">
        <ele>806.68</ele>
        <time>2011-10-15T08:27:34Z</time>
      </trkpt>
      <trkpt lat="45.26682" lon="4.24437">
        <ele>806.68</ele>
        <time>2011-10-15T08:27:46Z</time>
      </trkpt>
      <trkpt lat="45.26708" lon="4.24453">
        <ele>807.16</ele>
        <time>2011-10-15T08:27:57Z</time>
      </trkpt>
      <trkpt lat="45.26735" lon="4.24463">
        <ele>810.05</ele>
        <time>2011-10-15T08:28:07Z</time>
      </trkpt>
      <trkpt lat="45.26778" lon="4.24451">
        <ele>809.09</ele>
        <time>2011-10-15T08:28:19Z</time>
      </trkpt>
      <trkpt lat="45.26787" lon="4.2445">
        <ele>808.13</ele>
        <time>2011-10-15T08:28:21Z</time>
      </trkpt>
      <trkpt lat="45.26792" lon="4.24448">
        <ele>807.64</ele>
        <time>2011-10-15T08:28:22Z</time>
      </trkpt>
      <trkpt lat="45.268" lon="4.24443">
        <ele>807.16</ele>
        <time>2011-10-15T08:28:23Z</time>
      </trkpt>
      <trkpt lat="45.26808" lon="4.24437">
        <ele>806.68</ele>
        <time>2011-10-15T08:28:24Z</time>
      </trkpt>
      <trkpt lat="45.26817" lon="4.24429">
        <ele>805.72</ele>
        <time>2011-10-15T08:28:25Z</time>
      </trkpt>
      <trkpt lat="45.26825" lon="4.24421">
        <ele>805.24</ele>
        <time>2011-10-15T08:28:26Z</time>
      </trkpt>
      <trkpt lat="45.26884" lon="4.24368">
        <ele>801.4</ele>
        <time>2011-10-15T08:28:35Z</time>
      </trkpt>
      <trkpt lat="45.2689" lon="4.24363">
        <ele>801.4</ele>
        <time>2011-10-15T08:28:36Z</time>
      </trkpt>
      <trkpt lat="45.26896" lon="4.24358">
        <ele>801.4</ele>
        <time>2011-10-15T08:28:37Z</time>
      </trkpt>
      <trkpt lat="45.26955" lon="4.24304">
        <ele>799.47</ele>
        <time>2011-10-15T08:28:47Z</time>
      </trkpt>
      <trkpt lat="45.27018" lon="4.24243">
        <ele>794.67</ele>
        <time>2011-10-15T08:28:56Z</time>
      </trkpt>
      <trkpt lat="45.27097" lon="4.24163">
        <ele>786.98</ele>
        <time>2011-10-15T08:29:04Z</time>
      </trkpt>
      <trkpt lat="45.2716" lon="4.24108">
        <ele>782.65</ele>
        <time>2011-10-15T08:29:11Z</time>
      </trkpt>
      <trkpt lat="45.27168" lon="4.24106">
        <ele>782.65</ele>
        <time>2011-10-15T08:29:12Z</time>
      </trkpt>
      <trkpt lat="45.27176" lon="4.24105">
        <ele>782.17</ele>
        <time>2011-10-15T08:29:13Z</time>
      </trkpt>
      <trkpt lat="45.27211" lon="4.24106">
        <ele>782.17</ele>
        <time>2011-10-15T08:29:18Z</time>
      </trkpt>
      <trkpt lat="45.27218" lon="4.24107">
        <ele>782.65</ele>
        <time>2011-10-15T08:29:19Z</time>
      </trkpt>
      <trkpt lat="45.2723" lon="4.2411">
        <ele>782.65</ele>
        <time>2011-10-15T08:29:21Z</time>
      </trkpt>
      <trkpt lat="45.27236" lon="4.24109">
        <ele>783.13</ele>
        <time>2011-10-15T08:29:22Z</time>
      </trkpt>
      <trkpt lat="45.27241" lon="4.24106">
        <ele>783.61</ele>
        <time>2011-10-15T08:29:23Z</time>
      </trkpt>
      <trkpt lat="45.27246" lon="4.24103">
        <ele>784.09</ele>
        <time>2011-10-15T08:29:24Z</time>
      </trkpt>
      <trkpt lat="45.2725" lon="4.24099">
        <ele>784.09</ele>
        <time>2011-10-15T08:29:25Z</time>
      </trkpt>
      <trkpt lat="45.27253" lon="4.24096">
        <ele>783.61</ele>
        <time>2011-10-15T08:29:26Z</time>
      </trkpt>
      <trkpt lat="45.27256" lon="4.24094">
        <ele>783.61</ele>
        <time>2011-10-15T08:29:27Z</time>
      </trkpt>
      <trkpt lat="45.27259" lon="4.24091">
        <ele>783.61</ele>
        <time>2011-10-15T08:29:28Z</time>
      </trkpt>
      <trkpt lat="45.27284" lon="4.24064">
        <ele>786.02</ele>
        <time>2011-10-15T08:29:39Z</time>
      </trkpt>
      <trkpt lat="45.27313" lon="4.24058">
        <ele>789.38</ele>
        <time>2011-10-15T08:29:51Z</time>
      </trkpt>
      <trkpt lat="45.27345" lon="4.2407">
        <ele>791.78</ele>
        <time>2011-10-15T08:30:04Z</time>
      </trkpt>
      <trkpt lat="45.27372" lon="4.24079">
        <ele>794.19</ele>
        <time>2011-10-15T08:30:16Z</time>
      </trkpt>
      <trkpt lat="45.27383" lon="4.24075">
        <ele>795.15</ele>
        <time>2011-10-15T08:30:21Z</time>
      </trkpt>
      <trkpt lat="45.27385" lon="4.24072">
        <ele>795.15</ele>
        <time>2011-10-15T08:30:22Z</time>
      </trkpt>
      <trkpt lat="45.27386" lon="4.2407">
        <ele>795.15</ele>
        <time>2011-10-15T08:30:23Z</time>
      </trkpt>
      <trkpt lat="45.27387" lon="4.24068">
        <ele>795.15</ele>
        <time>2011-10-15T08:30:24Z</time>
      </trkpt>
      <trkpt lat="45.27388" lon="4.24066">
        <ele>795.15</ele>
        <time>2011-10-15T08:30:25Z</time>
      </trkpt>
      <trkpt lat="45.27389" lon="4.24063">
        <ele>795.15</ele>
        <time>2011-10-15T08:30:26Z</time>
      </trkpt>
      <trkpt lat="45.27399" lon="4.24043">
        <ele>796.59</ele>
        <time>2011-10-15T08:30:35Z</time>
      </trkpt>
      <trkpt lat="45.27401" lon="4.24043">
        <ele>797.55</ele>
        <time>2011-10-15T08:30:36Z</time>
      </trkpt>
      <trkpt lat="45.27403" lon="4.24043">
        <ele>797.55</ele>
        <time>2011-10-15T08:30:37Z</time>
      </trkpt>
      <trkpt lat="45.27405" lon="4.24043">
        <ele>798.51</ele>
        <time>2011-10-15T08:30:38Z</time>
      </trkpt>
      <trkpt lat="45.27408" lon="4.24042">
        <ele>798.99</ele>
        <time>2011-10-15T08:30:39Z</time>
      </trkpt>
      <trkpt lat="45.2741" lon="4.24042">
        <ele>799.47</ele>
        <time>2011-10-15T08:30:40Z</time>
      </trkpt>
      <trkpt lat="45.27412" lon="4.2404">
        <ele>799.47</ele>
        <time>2011-10-15T08:30:41Z</time>
      </trkpt>
      <trkpt lat="45.27437" lon="4.24009">
        <ele>800.92</ele>
        <time>2011-10-15T08:30:56Z</time>
      </trkpt>
      <trkpt lat="45.2745" lon="4.23964">
        <ele>802.36</ele>
        <time>2011-10-15T08:31:11Z</time>
      </trkpt>
      <trkpt lat="45.27471" lon="4.2393">
        <ele>804.28</ele>
        <time>2011-10-15T08:31:24Z</time>
      </trkpt>
      <trkpt lat="45.27486" lon="4.23906">
        <ele>804.76</ele>
        <time>2011-10-15T08:31:32Z</time>
      </trkpt>
      <trkpt lat="45.27485" lon="4.23902">
        <ele>804.76</ele>
        <time>2011-10-15T08:31:33Z</time>
      </trkpt>
      <trkpt lat="45.27483" lon="4.23898">
        <ele>804.28</ele>
        <time>2011-10-15T08:31:34Z</time>
      </trkpt>
      <trkpt lat="45.27479" lon="4.23894">
        <ele>803.32</ele>
        <time>2011-10-15T08:31:35Z</time>
      </trkpt>
      <trkpt lat="45.27475" lon="4.23889">
        <ele>802.84</ele>
        <time>2011-10-15T08:31:36Z</time>
      </trkpt>
      <trkpt lat="45.27469" lon="4.23884">
        <ele>801.88</ele>
        <time>2011-10-15T08:31:37Z</time>
      </trkpt>
      <trkpt lat="45.27463" lon="4.2388">
        <ele>801.4</ele>
        <time>2011-10-15T08:31:38Z</time>
      </trkpt>
      <trkpt lat="45.27433" lon="4.23862">
        <ele>798.03</ele>
        <time>2011-10-15T08:31:42Z</time>
      </trkpt>
      <trkpt lat="45.27425" lon="4.23858">
        <ele>797.55</ele>
        <time>2011-10-15T08:31:43Z</time>
      </trkpt>
      <trkpt lat="45.27418" lon="4.23851">
        <ele>797.07</ele>
        <time>2011-10-15T08:31:44Z</time>
      </trkpt>
      <trkpt lat="45.27412" lon="4.23843">
        <ele>796.11</ele>
        <time>2011-10-15T08:31:45Z</time>
      </trkpt>
      <trkpt lat="45.27407" lon="4.23833">
        <ele>794.67</ele>
        <time>2011-10-15T08:31:46Z</time>
      </trkpt>
      <trkpt lat="45.27402" lon="4.23822">
        <ele>793.71</ele>
        <time>2011-10-15T08:31:47Z</time>
      </trkpt>
      <trkpt lat="45.27396" lon="4.23813">
        <ele>793.22</ele>
        <time>2011-10-15T08:31:48Z</time>
      </trkpt>
      <trkpt lat="45.27389" lon="4.23806">
        <ele>792.74</ele>
        <time>2011-10-15T08:31:49Z</time>
      </trkpt>
      <trkpt lat="45.27381" lon="4.23802">
        <ele>792.26</ele>
        <time>2011-10-15T08:31:50Z</time>
      </trkpt>
      <trkpt lat="45.27374" lon="4.238">
        <ele>791.78</ele>
        <time>2011-10-15T08:31:51Z</time>
      </trkpt>
      <trkpt lat="45.27366" lon="4.23799">
        <ele>791.78</ele>
        <time>2011-10-15T08:31:52Z</time>
      </trkpt>
      <trkpt lat="45.27359" lon="4.23799">
        <ele>791.78</ele>
        <time>2011-10-15T08:31:53Z</time>
      </trkpt>
      <trkpt lat="45.27352" lon="4.23799">
        <ele>791.78</ele>
        <time>2011-10-15T08:31:54Z</time>
      </trkpt>
      <trkpt lat="45.27345" lon="4.23798">
        <ele>791.78</ele>
        <time>2011-10-15T08:31:55Z</time>
      </trkpt>
      <trkpt lat="45.27276" lon="4.23761">
        <ele>792.74</ele>
        <time>2011-10-15T08:32:07Z</time>
      </trkpt>
      <trkpt lat="45.27255" lon="4.23737">
        <ele>793.22</ele>
        <time>2011-10-15T08:32:13Z</time>
      </trkpt>
      <trkpt lat="45.27252" lon="4.23734">
        <ele>793.22</ele>
        <time>2011-10-15T08:32:14Z</time>
      </trkpt>
      <trkpt lat="45.27249" lon="4.23731">
        <ele>793.71</ele>
        <time>2011-10-15T08:32:15Z</time>
      </trkpt>
      <trkpt lat="45.27245" lon="4.23727">
        <ele>793.71</ele>
        <time>2011-10-15T08:32:16Z</time>
      </trkpt>
      <trkpt lat="45.27242" lon="4.23722">
        <ele>793.71</ele>
        <time>2011-10-15T08:32:17Z</time>
      </trkpt>
      <trkpt lat="45.2724" lon="4.23716">
        <ele>793.71</ele>
        <time>2011-10-15T08:32:18Z</time>
      </trkpt>
      <trkpt lat="45.2724" lon="4.23709">
        <ele>793.71</ele>
        <time>2011-10-15T08:32:19Z</time>
      </trkpt>
      <trkpt lat="45.2724" lon="4.237">
        <ele>793.22</ele>
        <time>2011-10-15T08:32:20Z</time>
      </trkpt>
      <trkpt lat="45.2724" lon="4.2369">
        <ele>793.22</ele>
        <time>2011-10-15T08:32:21Z</time>
      </trkpt>
      <trkpt lat="45.27236" lon="4.23678">
        <ele>792.74</ele>
        <time>2011-10-15T08:32:22Z</time>
      </trkpt>
      <trkpt lat="45.2723" lon="4.23668">
        <ele>792.26</ele>
        <time>2011-10-15T08:32:23Z</time>
      </trkpt>
      <trkpt lat="45.27223" lon="4.23658">
        <ele>791.78</ele>
        <time>2011-10-15T08:32:24Z</time>
      </trkpt>
      <trkpt lat="45.27215" lon="4.2365">
        <ele>791.78</ele>
        <time>2011-10-15T08:32:25Z</time>
      </trkpt>
      <trkpt lat="45.27206" lon="4.23643">
        <ele>791.3</ele>
        <time>2011-10-15T08:32:26Z</time>
      </trkpt>
      <trkpt lat="45.27197" lon="4.23637">
        <ele>790.82</ele>
        <time>2011-10-15T08:32:27Z</time>
      </trkpt>
      <trkpt lat="45.27178" lon="4.23622">
        <ele>789.86</ele>
        <time>2011-10-15T08:32:29Z</time>
      </trkpt>
      <trkpt lat="45.27171" lon="4.23613">
        <ele>789.38</ele>
        <time>2011-10-15T08:32:30Z</time>
      </trkpt>
      <trkpt lat="45.27164" lon="4.23602">
        <ele>788.42</ele>
        <time>2011-10-15T08:32:31Z</time>
      </trkpt>
      <trkpt lat="45.27152" lon="4.23579">
        <ele>787.46</ele>
        <time>2011-10-15T08:32:33Z</time>
      </trkpt>
      <trkpt lat="45.27143" lon="4.23569">
        <ele>786.5</ele>
        <time>2011-10-15T08:32:34Z</time>
      </trkpt>
      <trkpt lat="45.27134" lon="4.2356">
        <ele>786.02</ele>
        <time>2011-10-15T08:32:35Z</time>
      </trkpt>
      <trkpt lat="45.27124" lon="4.23553">
        <ele>785.05</ele>
        <time>2011-10-15T08:32:36Z</time>
      </trkpt>
      <trkpt lat="45.27114" lon="4.23546">
        <ele>784.57</ele>
        <time>2011-10-15T08:32:37Z</time>
      </trkpt>
      <trkpt lat="45.27091" lon="4.23533">
        <ele>783.13</ele>
        <time>2011-10-15T08:32:39Z</time>
      </trkpt>
      <trkpt lat="45.27021" lon="4.23512">
        <ele>777.36</ele>
        <time>2011-10-15T08:32:45Z</time>
      </trkpt>
      <trkpt lat="45.27011" lon="4.23505">
        <ele>776.88</ele>
        <time>2011-10-15T08:32:46Z</time>
      </trkpt>
      <trkpt lat="45.26985" lon="4.23484">
        <ele>774.96</ele>
        <time>2011-10-15T08:32:49Z</time>
      </trkpt>
      <trkpt lat="45.2698" lon="4.23476">
        <ele>774</ele>
        <time>2011-10-15T08:32:50Z</time>
      </trkpt>
      <trkpt lat="45.26978" lon="4.23466">
        <ele>773.52</ele>
        <time>2011-10-15T08:32:51Z</time>
      </trkpt>
      <trkpt lat="45.26978" lon="4.23457">
        <ele>772.56</ele>
        <time>2011-10-15T08:32:52Z</time>
      </trkpt>
      <trkpt lat="45.26981" lon="4.23448">
        <ele>772.08</ele>
        <time>2011-10-15T08:32:53Z</time>
      </trkpt>
      <trkpt lat="45.26984" lon="4.2344">
        <ele>771.6</ele>
        <time>2011-10-15T08:32:54Z</time>
      </trkpt>
      <trkpt lat="45.26997" lon="4.23413">
        <ele>771.11</ele>
        <time>2011-10-15T08:32:58Z</time>
      </trkpt>
      <trkpt lat="45.27014" lon="4.23378">
        <ele>773.04</ele>
        <time>2011-10-15T08:33:06Z</time>
      </trkpt>
      <trkpt lat="45.27042" lon="4.23339">
        <ele>775.92</ele>
        <time>2011-10-15T08:33:19Z</time>
      </trkpt>
      <trkpt lat="45.27061" lon="4.23298">
        <ele>774.96</ele>
        <time>2011-10-15T08:33:31Z</time>
      </trkpt>
      <trkpt lat="45.27078" lon="4.2324">
        <ele>775.92</ele>
        <time>2011-10-15T08:33:45Z</time>
      </trkpt>
      <trkpt lat="45.2708" lon="4.23193">
        <ele>777.36</ele>
        <time>2011-10-15T08:33:58Z</time>
      </trkpt>
      <trkpt lat="45.27093" lon="4.23165">
        <ele>781.69</ele>
        <time>2011-10-15T08:34:08Z</time>
      </trkpt>
      <trkpt lat="45.27093" lon="4.23162">
        <ele>782.17</ele>
        <time>2011-10-15T08:34:09Z</time>
      </trkpt>
      <trkpt lat="45.27093" lon="4.23159">
        <ele>782.17</ele>
        <time>2011-10-15T08:34:10Z</time>
      </trkpt>
      <trkpt lat="45.27094" lon="4.23156">
        <ele>782.65</ele>
        <time>2011-10-15T08:34:11Z</time>
      </trkpt>
      <trkpt lat="45.27094" lon="4.23153">
        <ele>782.65</ele>
        <time>2011-10-15T08:34:12Z</time>
      </trkpt>
      <trkpt lat="45.27093" lon="4.23151">
        <ele>783.13</ele>
        <time>2011-10-15T08:34:13Z</time>
      </trkpt>
      <trkpt lat="45.27093" lon="4.23148">
        <ele>783.13</ele>
        <time>2011-10-15T08:34:14Z</time>
      </trkpt>
      <trkpt lat="45.27093" lon="4.23146">
        <ele>783.61</ele>
        <time>2011-10-15T08:34:15Z</time>
      </trkpt>
      <trkpt lat="45.27092" lon="4.23143">
        <ele>784.09</ele>
        <time>2011-10-15T08:34:16Z</time>
      </trkpt>
      <trkpt lat="45.27091" lon="4.2314">
        <ele>784.09</ele>
        <time>2011-10-15T08:34:17Z</time>
      </trkpt>
      <trkpt lat="45.2709" lon="4.23137">
        <ele>784.09</ele>
        <time>2011-10-15T08:34:18Z</time>
      </trkpt>
      <trkpt lat="45.27089" lon="4.23134">
        <ele>784.09</ele>
        <time>2011-10-15T08:34:19Z</time>
      </trkpt>
      <trkpt lat="45.27089" lon="4.23131">
        <ele>784.09</ele>
        <time>2011-10-15T08:34:20Z</time>
      </trkpt>
      <trkpt lat="45.27088" lon="4.23128">
        <ele>784.09</ele>
        <time>2011-10-15T08:34:21Z</time>
      </trkpt>
      <trkpt lat="45.27087" lon="4.23126">
        <ele>784.09</ele>
        <time>2011-10-15T08:34:22Z</time>
      </trkpt>
      <trkpt lat="45.27087" lon="4.23123">
        <ele>784.09</ele>
        <time>2011-10-15T08:34:23Z</time>
      </trkpt>
      <trkpt lat="45.27087" lon="4.2312">
        <ele>784.57</ele>
        <time>2011-10-15T08:34:24Z</time>
      </trkpt>
      <trkpt lat="45.27087" lon="4.23118">
        <ele>784.09</ele>
        <time>2011-10-15T08:34:25Z</time>
      </trkpt>
      <trkpt lat="45.27087" lon="4.23115">
        <ele>784.57</ele>
        <time>2011-10-15T08:34:26Z</time>
      </trkpt>
      <trkpt lat="45.27087" lon="4.23112">
        <ele>784.57</ele>
        <time>2011-10-15T08:34:27Z</time>
      </trkpt>
      <trkpt lat="45.27087" lon="4.23109">
        <ele>784.57</ele>
        <time>2011-10-15T08:34:28Z</time>
      </trkpt>
      <trkpt lat="45.27101" lon="4.23078">
        <ele>786.98</ele>
        <time>2011-10-15T08:34:41Z</time>
      </trkpt>
      <trkpt lat="45.27124" lon="4.23061">
        <ele>790.34</ele>
        <time>2011-10-15T08:34:54Z</time>
      </trkpt>
      <trkpt lat="45.27127" lon="4.23059">
        <ele>791.78</ele>
        <time>2011-10-15T08:34:56Z</time>
      </trkpt>
      <trkpt lat="45.27129" lon="4.23057">
        <ele>792.26</ele>
        <time>2011-10-15T08:34:57Z</time>
      </trkpt>
      <trkpt lat="45.2713" lon="4.23056">
        <ele>792.74</ele>
        <time>2011-10-15T08:34:58Z</time>
      </trkpt>
      <trkpt lat="45.27132" lon="4.23054">
        <ele>792.74</ele>
        <time>2011-10-15T08:34:59Z</time>
      </trkpt>
      <trkpt lat="45.27133" lon="4.23053">
        <ele>793.22</ele>
        <time>2011-10-15T08:35:00Z</time>
      </trkpt>
      <trkpt lat="45.27135" lon="4.23051">
        <ele>793.22</ele>
        <time>2011-10-15T08:35:01Z</time>
      </trkpt>
      <trkpt lat="45.27159" lon="4.23027">
        <ele>797.55</ele>
        <time>2011-10-15T08:35:16Z</time>
      </trkpt>
      <trkpt lat="45.27184" lon="4.23007">
        <ele>799.47</ele>
        <time>2011-10-15T08:35:29Z</time>
      </trkpt>
      <trkpt lat="45.2721" lon="4.2297">
        <ele>797.55</ele>
        <time>2011-10-15T08:35:43Z</time>
      </trkpt>
      <trkpt lat="45.27243" lon="4.22932">
        <ele>798.51</ele>
        <time>2011-10-15T08:35:56Z</time>
      </trkpt>
      <trkpt lat="45.27285" lon="4.22891">
        <ele>796.59</ele>
        <time>2011-10-15T08:36:12Z</time>
      </trkpt>
      <trkpt lat="45.27319" lon="4.2287">
        <ele>791.78</ele>
        <time>2011-10-15T08:36:24Z</time>
      </trkpt>
      <trkpt lat="45.27349" lon="4.2285">
        <ele>794.19</ele>
        <time>2011-10-15T08:36:32Z</time>
      </trkpt>
      <trkpt lat="45.27362" lon="4.22844">
        <ele>794.67</ele>
        <time>2011-10-15T08:36:35Z</time>
      </trkpt>
      <trkpt lat="45.27371" lon="4.2284">
        <ele>795.63</ele>
        <time>2011-10-15T08:36:37Z</time>
      </trkpt>
      <trkpt lat="45.27375" lon="4.22838">
        <ele>795.63</ele>
        <time>2011-10-15T08:36:38Z</time>
      </trkpt>
      <trkpt lat="45.27392" lon="4.22828">
        <ele>796.59</ele>
        <time>2011-10-15T08:36:42Z</time>
      </trkpt>
      <trkpt lat="45.27397" lon="4.22826">
        <ele>796.59</ele>
        <time>2011-10-15T08:36:43Z</time>
      </trkpt>
      <trkpt lat="45.27441" lon="4.22802">
        <ele>795.15</ele>
        <time>2011-10-15T08:36:54Z</time>
      </trkpt>
      <trkpt lat="45.27446" lon="4.22797">
        <ele>795.15</ele>
        <time>2011-10-15T08:36:56Z</time>
      </trkpt>
      <trkpt lat="45.2745" lon="4.22795">
        <ele>796.11</ele>
        <time>2011-10-15T08:36:57Z</time>
      </trkpt>
      <trkpt lat="45.27453" lon="4.22792">
        <ele>796.11</ele>
        <time>2011-10-15T08:36:58Z</time>
      </trkpt>
      <trkpt lat="45.27458" lon="4.22789">
        <ele>796.59</ele>
        <time>2011-10-15T08:36:59Z</time>
      </trkpt>
      <trkpt lat="45.27463" lon="4.22785">
        <ele>796.59</ele>
        <time>2011-10-15T08:37:00Z</time>
      </trkpt>
      <trkpt lat="45.27468" lon="4.2278">
        <ele>796.59</ele>
        <time>2011-10-15T08:37:01Z</time>
      </trkpt>
      <trkpt lat="45.27473" lon="4.22776">
        <ele>796.59</ele>
        <time>2011-10-15T08:37:02Z</time>
      </trkpt>
      <trkpt lat="45.27477" lon="4.22772">
        <ele>797.07</ele>
        <time>2011-10-15T08:37:03Z</time>
      </trkpt>
      <trkpt lat="45.27482" lon="4.22768">
        <ele>797.07</ele>
        <time>2011-10-15T08:37:04Z</time>
      </trkpt>
      <trkpt lat="45.27485" lon="4.22764">
        <ele>797.07</ele>
        <time>2011-10-15T08:37:05Z</time>
      </trkpt>
      <trkpt lat="45.27489" lon="4.22759">
        <ele>797.07</ele>
        <time>2011-10-15T08:37:06Z</time>
      </trkpt>
      <trkpt lat="45.27523" lon="4.22707">
        <ele>800.92</ele>
        <time>2011-10-15T08:37:18Z</time>
      </trkpt>
      <trkpt lat="45.27527" lon="4.22685">
        <ele>803.8</ele>
        <time>2011-10-15T08:37:23Z</time>
      </trkpt>
      <trkpt lat="45.27526" lon="4.22681">
        <ele>803.8</ele>
        <time>2011-10-15T08:37:24Z</time>
      </trkpt>
      <trkpt lat="45.27526" lon="4.22676">
        <ele>804.28</ele>
        <time>2011-10-15T08:37:25Z</time>
      </trkpt>
      <trkpt lat="45.27526" lon="4.22672">
        <ele>804.28</ele>
        <time>2011-10-15T08:37:26Z</time>
      </trkpt>
      <trkpt lat="45.27525" lon="4.22669">
        <ele>804.28</ele>
        <time>2011-10-15T08:37:27Z</time>
      </trkpt>
      <trkpt lat="45.27525" lon="4.22665">
        <ele>804.76</ele>
        <time>2011-10-15T08:37:28Z</time>
      </trkpt>
      <trkpt lat="45.27524" lon="4.22661">
        <ele>804.76</ele>
        <time>2011-10-15T08:37:29Z</time>
      </trkpt>
      <trkpt lat="45.27524" lon="4.22657">
        <ele>804.76</ele>
        <time>2011-10-15T08:37:30Z</time>
      </trkpt>
      <trkpt lat="45.27524" lon="4.22652">
        <ele>804.76</ele>
        <time>2011-10-15T08:37:31Z</time>
      </trkpt>
      <trkpt lat="45.27524" lon="4.22647">
        <ele>805.24</ele>
        <time>2011-10-15T08:37:32Z</time>
      </trkpt>
      <trkpt lat="45.27524" lon="4.22642">
        <ele>805.24</ele>
        <time>2011-10-15T08:37:33Z</time>
      </trkpt>
      <trkpt lat="45.27525" lon="4.22637">
        <ele>805.24</ele>
        <time>2011-10-15T08:37:34Z</time>
      </trkpt>
      <trkpt lat="45.27525" lon="4.22633">
        <ele>805.72</ele>
        <time>2011-10-15T08:37:35Z</time>
      </trkpt>
      <trkpt lat="45.27526" lon="4.22629">
        <ele>805.72</ele>
        <time>2011-10-15T08:37:36Z</time>
      </trkpt>
      <trkpt lat="45.27527" lon="4.22624">
        <ele>805.72</ele>
        <time>2011-10-15T08:37:37Z</time>
      </trkpt>
      <trkpt lat="45.27528" lon="4.22619">
        <ele>806.2</ele>
        <time>2011-10-15T08:37:38Z</time>
      </trkpt>
      <trkpt lat="45.27529" lon="4.22615">
        <ele>806.68</ele>
        <time>2011-10-15T08:37:39Z</time>
      </trkpt>
      <trkpt lat="45.2753" lon="4.2261">
        <ele>806.68</ele>
        <time>2011-10-15T08:37:40Z</time>
      </trkpt>
      <trkpt lat="45.27531" lon="4.22606">
        <ele>806.68</ele>
        <time>2011-10-15T08:37:41Z</time>
      </trkpt>
      <trkpt lat="45.27532" lon="4.22601">
        <ele>806.68</ele>
        <time>2011-10-15T08:37:42Z</time>
      </trkpt>
      <trkpt lat="45.27533" lon="4.22596">
        <ele>807.16</ele>
        <time>2011-10-15T08:37:43Z</time>
      </trkpt>
      <trkpt lat="45.27559" lon="4.22508">
        <ele>811.49</ele>
        <time>2011-10-15T08:37:56Z</time>
      </trkpt>
      <trkpt lat="45.27588" lon="4.22429">
        <ele>811.97</ele>
        <time>2011-10-15T08:38:07Z</time>
      </trkpt>
      <trkpt lat="45.27604" lon="4.22399">
        <ele>811.49</ele>
        <time>2011-10-15T08:38:12Z</time>
      </trkpt>
      <trkpt lat="45.27607" lon="4.22393">
        <ele>811.49</ele>
        <time>2011-10-15T08:38:13Z</time>
      </trkpt>
      <trkpt lat="45.2761" lon="4.22389">
        <ele>811.49</ele>
        <time>2011-10-15T08:38:14Z</time>
      </trkpt>
      <trkpt lat="45.27615" lon="4.22386">
        <ele>811.01</ele>
        <time>2011-10-15T08:38:15Z</time>
      </trkpt>
      <trkpt lat="45.27619" lon="4.22385">
        <ele>811.01</ele>
        <time>2011-10-15T08:38:16Z</time>
      </trkpt>
      <trkpt lat="45.27624" lon="4.22385">
        <ele>812.93</ele>
        <time>2011-10-15T08:38:17Z</time>
      </trkpt>
      <trkpt lat="45.27628" lon="4.22387">
        <ele>812.93</ele>
        <time>2011-10-15T08:38:18Z</time>
      </trkpt>
      <trkpt lat="45.27634" lon="4.2239">
        <ele>813.41</ele>
        <time>2011-10-15T08:38:19Z</time>
      </trkpt>
      <trkpt lat="45.27639" lon="4.22394">
        <ele>812.93</ele>
        <time>2011-10-15T08:38:20Z</time>
      </trkpt>
      <trkpt lat="45.27644" lon="4.224">
        <ele>813.41</ele>
        <time>2011-10-15T08:38:21Z</time>
      </trkpt>
      <trkpt lat="45.27647" lon="4.22409">
        <ele>813.41</ele>
        <time>2011-10-15T08:38:22Z</time>
      </trkpt>
      <trkpt lat="45.2765" lon="4.22418">
        <ele>812.93</ele>
        <time>2011-10-15T08:38:23Z</time>
      </trkpt>
      <trkpt lat="45.27652" lon="4.22427">
        <ele>812.93</ele>
        <time>2011-10-15T08:38:24Z</time>
      </trkpt>
      <trkpt lat="45.27652" lon="4.22436">
        <ele>812.45</ele>
        <time>2011-10-15T08:38:25Z</time>
      </trkpt>
      <trkpt lat="45.2765" lon="4.22446">
        <ele>811.97</ele>
        <time>2011-10-15T08:38:26Z</time>
      </trkpt>
      <trkpt lat="45.27648" lon="4.22456">
        <ele>811.49</ele>
        <time>2011-10-15T08:38:27Z</time>
      </trkpt>
      <trkpt lat="45.27645" lon="4.22464">
        <ele>811.01</ele>
        <time>2011-10-15T08:38:28Z</time>
      </trkpt>
      <trkpt lat="45.27641" lon="4.22472">
        <ele>810.53</ele>
        <time>2011-10-15T08:38:29Z</time>
      </trkpt>
      <trkpt lat="45.27638" lon="4.2248">
        <ele>810.05</ele>
        <time>2011-10-15T08:38:30Z</time>
      </trkpt>
      <trkpt lat="45.27637" lon="4.22489">
        <ele>810.53</ele>
        <time>2011-10-15T08:38:31Z</time>
      </trkpt>
      <trkpt lat="45.27638" lon="4.22496">
        <ele>810.53</ele>
        <time>2011-10-15T08:38:32Z</time>
      </trkpt>
      <trkpt lat="45.2764" lon="4.22503">
        <ele>810.53</ele>
        <time>2011-10-15T08:38:33Z</time>
      </trkpt>
      <trkpt lat="45.27641" lon="4.2251">
        <ele>811.01</ele>
        <time>2011-10-15T08:38:34Z</time>
      </trkpt>
      <trkpt lat="45.27645" lon="4.22524">
        <ele>811.49</ele>
        <time>2011-10-15T08:38:36Z</time>
      </trkpt>
      <trkpt lat="45.27646" lon="4.2253">
        <ele>811.01</ele>
        <time>2011-10-15T08:38:37Z</time>
      </trkpt>
      <trkpt lat="45.27648" lon="4.22536">
        <ele>811.01</ele>
        <time>2011-10-15T08:38:38Z</time>
      </trkpt>
      <trkpt lat="45.27653" lon="4.22548">
        <ele>811.97</ele>
        <time>2011-10-15T08:38:40Z</time>
      </trkpt>
      <trkpt lat="45.27656" lon="4.22553">
        <ele>812.45</ele>
        <time>2011-10-15T08:38:41Z</time>
      </trkpt>
      <trkpt lat="45.27663" lon="4.22563">
        <ele>812.93</ele>
        <time>2011-10-15T08:38:43Z</time>
      </trkpt>
      <trkpt lat="45.2769" lon="4.22589">
        <ele>815.34</ele>
        <time>2011-10-15T08:38:50Z</time>
      </trkpt>
      <trkpt lat="45.27693" lon="4.22594">
        <ele>815.34</ele>
        <time>2011-10-15T08:38:51Z</time>
      </trkpt>
      <trkpt lat="45.27721" lon="4.2263">
        <ele>818.22</ele>
        <time>2011-10-15T08:39:02Z</time>
      </trkpt>
      <trkpt lat="45.27732" lon="4.22664">
        <ele>820.62</ele>
        <time>2011-10-15T08:39:12Z</time>
      </trkpt>
      <trkpt lat="45.27741" lon="4.22694">
        <ele>822.06</ele>
        <time>2011-10-15T08:39:22Z</time>
      </trkpt>
      <trkpt lat="45.27743" lon="4.22696">
        <ele>822.06</ele>
        <time>2011-10-15T08:39:23Z</time>
      </trkpt>
      <trkpt lat="45.27745" lon="4.22698">
        <ele>822.55</ele>
        <time>2011-10-15T08:39:24Z</time>
      </trkpt>
      <trkpt lat="45.27747" lon="4.22701">
        <ele>823.51</ele>
        <time>2011-10-15T08:39:25Z</time>
      </trkpt>
      <trkpt lat="45.27749" lon="4.22703">
        <ele>824.47</ele>
        <time>2011-10-15T08:39:26Z</time>
      </trkpt>
      <trkpt lat="45.27751" lon="4.22704">
        <ele>824.95</ele>
        <time>2011-10-15T08:39:27Z</time>
      </trkpt>
      <trkpt lat="45.27768" lon="4.22721">
        <ele>826.39</ele>
        <time>2011-10-15T08:39:36Z</time>
      </trkpt>
      <trkpt lat="45.2777" lon="4.22724">
        <ele>826.87</ele>
        <time>2011-10-15T08:39:37Z</time>
      </trkpt>
      <trkpt lat="45.27774" lon="4.22729">
        <ele>826.87</ele>
        <time>2011-10-15T08:39:39Z</time>
      </trkpt>
      <trkpt lat="45.27775" lon="4.22732">
        <ele>826.87</ele>
        <time>2011-10-15T08:39:40Z</time>
      </trkpt>
      <trkpt lat="45.27776" lon="4.22735">
        <ele>827.35</ele>
        <time>2011-10-15T08:39:41Z</time>
      </trkpt>
      <trkpt lat="45.27777" lon="4.22738">
        <ele>826.87</ele>
        <time>2011-10-15T08:39:42Z</time>
      </trkpt>
      <trkpt lat="45.27779" lon="4.22742">
        <ele>826.87</ele>
        <time>2011-10-15T08:39:43Z</time>
      </trkpt>
      <trkpt lat="45.27809" lon="4.22785">
        <ele>827.83</ele>
        <time>2011-10-15T08:39:56Z</time>
      </trkpt>
      <trkpt lat="45.27823" lon="4.22826">
        <ele>827.35</ele>
        <time>2011-10-15T08:40:06Z</time>
      </trkpt>
      <trkpt lat="45.27839" lon="4.22874">
        <ele>827.83</ele>
        <time>2011-10-15T08:40:16Z</time>
      </trkpt>
      <trkpt lat="45.27856" lon="4.22918">
        <ele>829.27</ele>
        <time>2011-10-15T08:40:26Z</time>
      </trkpt>
      <trkpt lat="45.27887" lon="4.22975">
        <ele>829.76</ele>
        <time>2011-10-15T08:40:39Z</time>
      </trkpt>
      <trkpt lat="45.27914" lon="4.23002">
        <ele>828.79</ele>
        <time>2011-10-15T08:40:47Z</time>
      </trkpt>
      <trkpt lat="45.27917" lon="4.23006">
        <ele>828.31</ele>
        <time>2011-10-15T08:40:48Z</time>
      </trkpt>
      <trkpt lat="45.27921" lon="4.2301">
        <ele>828.31</ele>
        <time>2011-10-15T08:40:49Z</time>
      </trkpt>
      <trkpt lat="45.27926" lon="4.23015">
        <ele>827.83</ele>
        <time>2011-10-15T08:40:50Z</time>
      </trkpt>
      <trkpt lat="45.2793" lon="4.23019">
        <ele>827.83</ele>
        <time>2011-10-15T08:40:51Z</time>
      </trkpt>
      <trkpt lat="45.27936" lon="4.23024">
        <ele>827.83</ele>
        <time>2011-10-15T08:40:52Z</time>
      </trkpt>
      <trkpt lat="45.27941" lon="4.23029">
        <ele>827.35</ele>
        <time>2011-10-15T08:40:53Z</time>
      </trkpt>
      <trkpt lat="45.27945" lon="4.23035">
        <ele>827.35</ele>
        <time>2011-10-15T08:40:54Z</time>
      </trkpt>
      <trkpt lat="45.2795" lon="4.23041">
        <ele>826.87</ele>
        <time>2011-10-15T08:40:55Z</time>
      </trkpt>
      <trkpt lat="45.27953" lon="4.23048">
        <ele>826.39</ele>
        <time>2011-10-15T08:40:56Z</time>
      </trkpt>
      <trkpt lat="45.27956" lon="4.23055">
        <ele>825.91</ele>
        <time>2011-10-15T08:40:57Z</time>
      </trkpt>
      <trkpt lat="45.27966" lon="4.23089">
        <ele>823.99</ele>
        <time>2011-10-15T08:41:02Z</time>
      </trkpt>
      <trkpt lat="45.27971" lon="4.23112">
        <ele>822.55</ele>
        <time>2011-10-15T08:41:05Z</time>
      </trkpt>
      <trkpt lat="45.27986" lon="4.2315">
        <ele>822.55</ele>
        <time>2011-10-15T08:41:10Z</time>
      </trkpt>
      <trkpt lat="45.27993" lon="4.2318">
        <ele>823.03</ele>
        <time>2011-10-15T08:41:14Z</time>
      </trkpt>
      <trkpt lat="45.27996" lon="4.23186">
        <ele>823.03</ele>
        <time>2011-10-15T08:41:15Z</time>
      </trkpt>
      <trkpt lat="45.27999" lon="4.23193">
        <ele>823.51</ele>
        <time>2011-10-15T08:41:16Z</time>
      </trkpt>
      <trkpt lat="45.28005" lon="4.23207">
        <ele>823.99</ele>
        <time>2011-10-15T08:41:18Z</time>
      </trkpt>
      <trkpt lat="45.28019" lon="4.23286">
        <ele>823.51</ele>
        <time>2011-10-15T08:41:28Z</time>
      </trkpt>
      <trkpt lat="45.28021" lon="4.23321">
        <ele>822.55</ele>
        <time>2011-10-15T08:41:32Z</time>
      </trkpt>
      <trkpt lat="45.28021" lon="4.2333">
        <ele>822.55</ele>
        <time>2011-10-15T08:41:33Z</time>
      </trkpt>
      <trkpt lat="45.28021" lon="4.23338">
        <ele>822.55</ele>
        <time>2011-10-15T08:41:34Z</time>
      </trkpt>
      <trkpt lat="45.28018" lon="4.23363">
        <ele>821.58</ele>
        <time>2011-10-15T08:41:37Z</time>
      </trkpt>
      <trkpt lat="45.28018" lon="4.23381">
        <ele>820.62</ele>
        <time>2011-10-15T08:41:39Z</time>
      </trkpt>
      <trkpt lat="45.28018" lon="4.2339">
        <ele>820.14</ele>
        <time>2011-10-15T08:41:40Z</time>
      </trkpt>
      <trkpt lat="45.28019" lon="4.23398">
        <ele>819.66</ele>
        <time>2011-10-15T08:41:41Z</time>
      </trkpt>
      <trkpt lat="45.28018" lon="4.23406">
        <ele>819.18</ele>
        <time>2011-10-15T08:41:42Z</time>
      </trkpt>
      <trkpt lat="45.28019" lon="4.23414">
        <ele>819.18</ele>
        <time>2011-10-15T08:41:43Z</time>
      </trkpt>
      <trkpt lat="45.2802" lon="4.23422">
        <ele>818.7</ele>
        <time>2011-10-15T08:41:44Z</time>
      </trkpt>
      <trkpt lat="45.28022" lon="4.23429">
        <ele>818.7</ele>
        <time>2011-10-15T08:41:45Z</time>
      </trkpt>
      <trkpt lat="45.28024" lon="4.23437">
        <ele>818.7</ele>
        <time>2011-10-15T08:41:46Z</time>
      </trkpt>
      <trkpt lat="45.28025" lon="4.23444">
        <ele>818.7</ele>
        <time>2011-10-15T08:41:47Z</time>
      </trkpt>
      <trkpt lat="45.28028" lon="4.23451">
        <ele>818.7</ele>
        <time>2011-10-15T08:41:48Z</time>
      </trkpt>
      <trkpt lat="45.28028" lon="4.23457">
        <ele>818.22</ele>
        <time>2011-10-15T08:41:49Z</time>
      </trkpt>
      <trkpt lat="45.28031" lon="4.23463">
        <ele>818.7</ele>
        <time>2011-10-15T08:41:50Z</time>
      </trkpt>
      <trkpt lat="45.28032" lon="4.23468">
        <ele>818.22</ele>
        <time>2011-10-15T08:41:51Z</time>
      </trkpt>
      <trkpt lat="45.28034" lon="4.23473">
        <ele>818.22</ele>
        <time>2011-10-15T08:41:52Z</time>
      </trkpt>
      <trkpt lat="45.28034" lon="4.23478">
        <ele>818.22</ele>
        <time>2011-10-15T08:41:53Z</time>
      </trkpt>
      <trkpt lat="45.28034" lon="4.23483">
        <ele>818.22</ele>
        <time>2011-10-15T08:41:54Z</time>
      </trkpt>
      <trkpt lat="45.28039" lon="4.23489">
        <ele>818.22</ele>
        <time>2011-10-15T08:41:55Z</time>
      </trkpt>
      <trkpt lat="45.28042" lon="4.23495">
        <ele>818.22</ele>
        <time>2011-10-15T08:41:56Z</time>
      </trkpt>
      <trkpt lat="45.28044" lon="4.23501">
        <ele>818.22</ele>
        <time>2011-10-15T08:41:57Z</time>
      </trkpt>
      <trkpt lat="45.28046" lon="4.23508">
        <ele>818.22</ele>
        <time>2011-10-15T08:41:58Z</time>
      </trkpt>
      <trkpt lat="45.28049" lon="4.23519">
        <ele>817.74</ele>
        <time>2011-10-15T08:42:00Z</time>
      </trkpt>
      <trkpt lat="45.28048" lon="4.23525">
        <ele>817.26</ele>
        <time>2011-10-15T08:42:01Z</time>
      </trkpt>
      <trkpt lat="45.28048" lon="4.23531">
        <ele>817.26</ele>
        <time>2011-10-15T08:42:02Z</time>
      </trkpt>
      <trkpt lat="45.28047" lon="4.23537">
        <ele>816.78</ele>
        <time>2011-10-15T08:42:03Z</time>
      </trkpt>
      <trkpt lat="45.28047" lon="4.23543">
        <ele>816.3</ele>
        <time>2011-10-15T08:42:04Z</time>
      </trkpt>
      <trkpt lat="45.28045" lon="4.23548">
        <ele>815.82</ele>
        <time>2011-10-15T08:42:05Z</time>
      </trkpt>
      <trkpt lat="45.28045" lon="4.23554">
        <ele>814.85</ele>
        <time>2011-10-15T08:42:06Z</time>
      </trkpt>
      <trkpt lat="45.28045" lon="4.23561">
        <ele>814.37</ele>
        <time>2011-10-15T08:42:07Z</time>
      </trkpt>
      <trkpt lat="45.28046" lon="4.23566">
        <ele>813.89</ele>
        <time>2011-10-15T08:42:08Z</time>
      </trkpt>
      <trkpt lat="45.28047" lon="4.23579">
        <ele>812.45</ele>
        <time>2011-10-15T08:42:10Z</time>
      </trkpt>
      <trkpt lat="45.28047" lon="4.23585">
        <ele>811.97</ele>
        <time>2011-10-15T08:42:11Z</time>
      </trkpt>
      <trkpt lat="45.28048" lon="4.23592">
        <ele>811.49</ele>
        <time>2011-10-15T08:42:12Z</time>
      </trkpt>
      <trkpt lat="45.28048" lon="4.236">
        <ele>811.01</ele>
        <time>2011-10-15T08:42:13Z</time>
      </trkpt>
      <trkpt lat="45.28049" lon="4.23605">
        <ele>811.01</ele>
        <time>2011-10-15T08:42:14Z</time>
      </trkpt>
      <trkpt lat="45.2805" lon="4.23609">
        <ele>811.01</ele>
        <time>2011-10-15T08:42:15Z</time>
      </trkpt>
      <trkpt lat="45.28051" lon="4.23616">
        <ele>810.53</ele>
        <time>2011-10-15T08:42:16Z</time>
      </trkpt>
      <trkpt lat="45.28052" lon="4.23622">
        <ele>810.53</ele>
        <time>2011-10-15T08:42:17Z</time>
      </trkpt>
      <trkpt lat="45.28053" lon="4.23629">
        <ele>811.01</ele>
        <time>2011-10-15T08:42:18Z</time>
      </trkpt>
      <trkpt lat="45.28053" lon="4.23644">
        <ele>811.01</ele>
        <time>2011-10-15T08:42:20Z</time>
      </trkpt>
      <trkpt lat="45.28056" lon="4.23657">
        <ele>811.49</ele>
        <time>2011-10-15T08:42:22Z</time>
      </trkpt>
      <trkpt lat="45.28058" lon="4.23663">
        <ele>811.97</ele>
        <time>2011-10-15T08:42:23Z</time>
      </trkpt>
      <trkpt lat="45.28074" lon="4.23708">
        <ele>816.3</ele>
        <time>2011-10-15T08:42:32Z</time>
      </trkpt>
      <trkpt lat="45.28076" lon="4.23716">
        <ele>817.74</ele>
        <time>2011-10-15T08:42:34Z</time>
      </trkpt>
      <trkpt lat="45.28077" lon="4.23721">
        <ele>817.74</ele>
        <time>2011-10-15T08:42:35Z</time>
      </trkpt>
      <trkpt lat="45.28077" lon="4.23725">
        <ele>818.22</ele>
        <time>2011-10-15T08:42:36Z</time>
      </trkpt>
      <trkpt lat="45.28077" lon="4.23729">
        <ele>819.18</ele>
        <time>2011-10-15T08:42:37Z</time>
      </trkpt>
      <trkpt lat="45.28078" lon="4.23733">
        <ele>820.14</ele>
        <time>2011-10-15T08:42:38Z</time>
      </trkpt>
      <trkpt lat="45.28079" lon="4.23738">
        <ele>821.1</ele>
        <time>2011-10-15T08:42:39Z</time>
      </trkpt>
      <trkpt lat="45.28079" lon="4.23742">
        <ele>822.06</ele>
        <time>2011-10-15T08:42:40Z</time>
      </trkpt>
      <trkpt lat="45.28079" lon="4.23746">
        <ele>823.03</ele>
        <time>2011-10-15T08:42:41Z</time>
      </trkpt>
      <trkpt lat="45.28078" lon="4.23752">
        <ele>823.99</ele>
        <time>2011-10-15T08:42:42Z</time>
      </trkpt>
      <trkpt lat="45.28079" lon="4.23756">
        <ele>824.47</ele>
        <time>2011-10-15T08:42:43Z</time>
      </trkpt>
      <trkpt lat="45.28079" lon="4.2376">
        <ele>825.43</ele>
        <time>2011-10-15T08:42:44Z</time>
      </trkpt>
      <trkpt lat="45.28079" lon="4.23766">
        <ele>826.39</ele>
        <time>2011-10-15T08:42:45Z</time>
      </trkpt>
      <trkpt lat="45.28079" lon="4.23771">
        <ele>827.83</ele>
        <time>2011-10-15T08:42:46Z</time>
      </trkpt>
      <trkpt lat="45.2808" lon="4.23775">
        <ele>828.31</ele>
        <time>2011-10-15T08:42:47Z</time>
      </trkpt>
      <trkpt lat="45.28081" lon="4.23779">
        <ele>829.27</ele>
        <time>2011-10-15T08:42:48Z</time>
      </trkpt>
      <trkpt lat="45.28082" lon="4.23783">
        <ele>830.24</ele>
        <time>2011-10-15T08:42:49Z</time>
      </trkpt>
      <trkpt lat="45.28083" lon="4.23788">
        <ele>831.2</ele>
        <time>2011-10-15T08:42:50Z</time>
      </trkpt>
      <trkpt lat="45.28084" lon="4.23791">
        <ele>832.16</ele>
        <time>2011-10-15T08:42:51Z</time>
      </trkpt>
      <trkpt lat="45.28085" lon="4.23806">
        <ele>835.52</ele>
        <time>2011-10-15T08:42:55Z</time>
      </trkpt>
      <trkpt lat="45.28085" lon="4.23811">
        <ele>836</ele>
        <time>2011-10-15T08:42:56Z</time>
      </trkpt>
      <trkpt lat="45.28085" lon="4.23816">
        <ele>836</ele>
        <time>2011-10-15T08:42:57Z</time>
      </trkpt>
      <trkpt lat="45.28085" lon="4.23822">
        <ele>836</ele>
        <time>2011-10-15T08:42:58Z</time>
      </trkpt>
      <trkpt lat="45.28086" lon="4.23827">
        <ele>836</ele>
        <time>2011-10-15T08:42:59Z</time>
      </trkpt>
      <trkpt lat="45.28088" lon="4.23877">
        <ele>839.37</ele>
        <time>2011-10-15T08:43:09Z</time>
      </trkpt>
      <trkpt lat="45.28085" lon="4.23946">
        <ele>843.69</ele>
        <time>2011-10-15T08:43:23Z</time>
      </trkpt>
      <trkpt lat="45.28079" lon="4.23971">
        <ele>842.25</ele>
        <time>2011-10-15T08:43:29Z</time>
      </trkpt>
      <trkpt lat="45.28077" lon="4.23975">
        <ele>841.77</ele>
        <time>2011-10-15T08:43:30Z</time>
      </trkpt>
      <trkpt lat="45.28076" lon="4.2398">
        <ele>841.77</ele>
        <time>2011-10-15T08:43:31Z</time>
      </trkpt>
      <trkpt lat="45.28074" lon="4.24003">
        <ele>841.29</ele>
        <time>2011-10-15T08:43:36Z</time>
      </trkpt>
      <trkpt lat="45.28074" lon="4.24017">
        <ele>840.81</ele>
        <time>2011-10-15T08:43:38Z</time>
      </trkpt>
      <trkpt lat="45.28075" lon="4.24025">
        <ele>840.81</ele>
        <time>2011-10-15T08:43:39Z</time>
      </trkpt>
      <trkpt lat="45.28075" lon="4.24032">
        <ele>840.81</ele>
        <time>2011-10-15T08:43:40Z</time>
      </trkpt>
      <trkpt lat="45.28074" lon="4.24045">
        <ele>840.81</ele>
        <time>2011-10-15T08:43:42Z</time>
      </trkpt>
      <trkpt lat="45.28069" lon="4.24065">
        <ele>840.81</ele>
        <time>2011-10-15T08:43:45Z</time>
      </trkpt>
      <trkpt lat="45.28061" lon="4.24077">
        <ele>840.33</ele>
        <time>2011-10-15T08:43:47Z</time>
      </trkpt>
      <trkpt lat="45.28056" lon="4.24084">
        <ele>839.85</ele>
        <time>2011-10-15T08:43:48Z</time>
      </trkpt>
      <trkpt lat="45.28052" lon="4.24092">
        <ele>839.37</ele>
        <time>2011-10-15T08:43:49Z</time>
      </trkpt>
      <trkpt lat="45.28049" lon="4.241">
        <ele>838.89</ele>
        <time>2011-10-15T08:43:50Z</time>
      </trkpt>
      <trkpt lat="45.28046" lon="4.24109">
        <ele>838.89</ele>
        <time>2011-10-15T08:43:51Z</time>
      </trkpt>
      <trkpt lat="45.28044" lon="4.24118">
        <ele>838.89</ele>
        <time>2011-10-15T08:43:52Z</time>
      </trkpt>
      <trkpt lat="45.28042" lon="4.24126">
        <ele>838.89</ele>
        <time>2011-10-15T08:43:53Z</time>
      </trkpt>
      <trkpt lat="45.28041" lon="4.24135">
        <ele>839.37</ele>
        <time>2011-10-15T08:43:54Z</time>
      </trkpt>
      <trkpt lat="45.28039" lon="4.24145">
        <ele>839.85</ele>
        <time>2011-10-15T08:43:55Z</time>
      </trkpt>
      <trkpt lat="45.28037" lon="4.24154">
        <ele>840.33</ele>
        <time>2011-10-15T08:43:56Z</time>
      </trkpt>
      <trkpt lat="45.28035" lon="4.24162">
        <ele>840.33</ele>
        <time>2011-10-15T08:43:57Z</time>
      </trkpt>
      <trkpt lat="45.28029" lon="4.2419">
        <ele>840.33</ele>
        <time>2011-10-15T08:44:00Z</time>
      </trkpt>
      <trkpt lat="45.28024" lon="4.24233">
        <ele>839.85</ele>
        <time>2011-10-15T08:44:05Z</time>
      </trkpt>
      <trkpt lat="45.28024" lon="4.24242">
        <ele>839.85</ele>
        <time>2011-10-15T08:44:06Z</time>
      </trkpt>
      <trkpt lat="45.28023" lon="4.24251">
        <ele>839.85</ele>
        <time>2011-10-15T08:44:07Z</time>
      </trkpt>
      <trkpt lat="45.28018" lon="4.24314">
        <ele>839.85</ele>
        <time>2011-10-15T08:44:15Z</time>
      </trkpt>
      <trkpt lat="45.28016" lon="4.24345">
        <ele>839.85</ele>
        <time>2011-10-15T08:44:19Z</time>
      </trkpt>
      <trkpt lat="45.28015" lon="4.24352">
        <ele>839.85</ele>
        <time>2011-10-15T08:44:20Z</time>
      </trkpt>
      <trkpt lat="45.28013" lon="4.24378">
        <ele>838.89</ele>
        <time>2011-10-15T08:44:23Z</time>
      </trkpt>
      <trkpt lat="45.27993" lon="4.24481">
        <ele>835.52</ele>
        <time>2011-10-15T08:44:34Z</time>
      </trkpt>
      <trkpt lat="45.27992" lon="4.2449">
        <ele>835.04</ele>
        <time>2011-10-15T08:44:35Z</time>
      </trkpt>
      <trkpt lat="45.27991" lon="4.24498">
        <ele>835.04</ele>
        <time>2011-10-15T08:44:36Z</time>
      </trkpt>
      <trkpt lat="45.27991" lon="4.24507">
        <ele>834.56</ele>
        <time>2011-10-15T08:44:37Z</time>
      </trkpt>
      <trkpt lat="45.27994" lon="4.24541">
        <ele>834.56</ele>
        <time>2011-10-15T08:44:41Z</time>
      </trkpt>
      <trkpt lat="45.27996" lon="4.24549">
        <ele>835.04</ele>
        <time>2011-10-15T08:44:42Z</time>
      </trkpt>
      <trkpt lat="45.27997" lon="4.24557">
        <ele>835.04</ele>
        <time>2011-10-15T08:44:43Z</time>
      </trkpt>
      <trkpt lat="45.28002" lon="4.2458">
        <ele>835.04</ele>
        <time>2011-10-15T08:44:46Z</time>
      </trkpt>
      <trkpt lat="45.28018" lon="4.24622">
        <ele>836</ele>
        <time>2011-10-15T08:44:53Z</time>
      </trkpt>
      <trkpt lat="45.28021" lon="4.24627">
        <ele>836</ele>
        <time>2011-10-15T08:44:54Z</time>
      </trkpt>
      <trkpt lat="45.28023" lon="4.24633">
        <ele>836</ele>
        <time>2011-10-15T08:44:55Z</time>
      </trkpt>
      <trkpt lat="45.28033" lon="4.24662">
        <ele>838.41</ele>
        <time>2011-10-15T08:45:01Z</time>
      </trkpt>
      <trkpt lat="45.28035" lon="4.24667">
        <ele>838.89</ele>
        <time>2011-10-15T08:45:02Z</time>
      </trkpt>
      <trkpt lat="45.28038" lon="4.24672">
        <ele>839.37</ele>
        <time>2011-10-15T08:45:03Z</time>
      </trkpt>
      <trkpt lat="45.2804" lon="4.24677">
        <ele>839.85</ele>
        <time>2011-10-15T08:45:04Z</time>
      </trkpt>
      <trkpt lat="45.28042" lon="4.24683">
        <ele>839.37</ele>
        <time>2011-10-15T08:45:05Z</time>
      </trkpt>
      <trkpt lat="45.28043" lon="4.24688">
        <ele>839.37</ele>
        <time>2011-10-15T08:45:06Z</time>
      </trkpt>
      <trkpt lat="45.28045" lon="4.24694">
        <ele>839.85</ele>
        <time>2011-10-15T08:45:07Z</time>
      </trkpt>
      <trkpt lat="45.28048" lon="4.24699">
        <ele>839.85</ele>
        <time>2011-10-15T08:45:08Z</time>
      </trkpt>
      <trkpt lat="45.28056" lon="4.24714">
        <ele>839.85</ele>
        <time>2011-10-15T08:45:11Z</time>
      </trkpt>
      <trkpt lat="45.28059" lon="4.24718">
        <ele>839.85</ele>
        <time>2011-10-15T08:45:12Z</time>
      </trkpt>
      <trkpt lat="45.28062" lon="4.24723">
        <ele>840.33</ele>
        <time>2011-10-15T08:45:13Z</time>
      </trkpt>
      <trkpt lat="45.28072" lon="4.24736">
        <ele>839.85</ele>
        <time>2011-10-15T08:45:16Z</time>
      </trkpt>
      <trkpt lat="45.28082" lon="4.24749">
        <ele>840.33</ele>
        <time>2011-10-15T08:45:19Z</time>
      </trkpt>
      <trkpt lat="45.28113" lon="4.24787">
        <ele>841.77</ele>
        <time>2011-10-15T08:45:28Z</time>
      </trkpt>
      <trkpt lat="45.28117" lon="4.2479">
        <ele>842.25</ele>
        <time>2011-10-15T08:45:29Z</time>
      </trkpt>
      <trkpt lat="45.28129" lon="4.24805">
        <ele>842.25</ele>
        <time>2011-10-15T08:45:33Z</time>
      </trkpt>
      <trkpt lat="45.28153" lon="4.24833">
        <ele>841.29</ele>
        <time>2011-10-15T08:45:40Z</time>
      </trkpt>
      <trkpt lat="45.2817" lon="4.24872">
        <ele>843.21</ele>
        <time>2011-10-15T08:45:47Z</time>
      </trkpt>
      <trkpt lat="45.28172" lon="4.24877">
        <ele>843.21</ele>
        <time>2011-10-15T08:45:48Z</time>
      </trkpt>
      <trkpt lat="45.28175" lon="4.24883">
        <ele>843.21</ele>
        <time>2011-10-15T08:45:49Z</time>
      </trkpt>
      <trkpt lat="45.28187" lon="4.24903">
        <ele>843.69</ele>
        <time>2011-10-15T08:45:53Z</time>
      </trkpt>
      <trkpt lat="45.28191" lon="4.24907">
        <ele>843.69</ele>
        <time>2011-10-15T08:45:54Z</time>
      </trkpt>
      <trkpt lat="45.28194" lon="4.24911">
        <ele>844.18</ele>
        <time>2011-10-15T08:45:55Z</time>
      </trkpt>
      <trkpt lat="45.28197" lon="4.24915">
        <ele>844.66</ele>
        <time>2011-10-15T08:45:56Z</time>
      </trkpt>
      <trkpt lat="45.28201" lon="4.24919">
        <ele>844.66</ele>
        <time>2011-10-15T08:45:57Z</time>
      </trkpt>
      <trkpt lat="45.28204" lon="4.24923">
        <ele>844.66</ele>
        <time>2011-10-15T08:45:58Z</time>
      </trkpt>
      <trkpt lat="45.28215" lon="4.24934">
        <ele>845.62</ele>
        <time>2011-10-15T08:46:01Z</time>
      </trkpt>
      <trkpt lat="45.28218" lon="4.24937">
        <ele>846.1</ele>
        <time>2011-10-15T08:46:02Z</time>
      </trkpt>
      <trkpt lat="45.28221" lon="4.24941">
        <ele>846.1</ele>
        <time>2011-10-15T08:46:03Z</time>
      </trkpt>
      <trkpt lat="45.28237" lon="4.24958">
        <ele>846.1</ele>
        <time>2011-10-15T08:46:08Z</time>
      </trkpt>
      <trkpt lat="45.28241" lon="4.24961">
        <ele>846.58</ele>
        <time>2011-10-15T08:46:09Z</time>
      </trkpt>
      <trkpt lat="45.28277" lon="4.25001">
        <ele>847.06</ele>
        <time>2011-10-15T08:46:22Z</time>
      </trkpt>
      <trkpt lat="45.28282" lon="4.25003">
        <ele>846.58</ele>
        <time>2011-10-15T08:46:24Z</time>
      </trkpt>
      <trkpt lat="45.28278" lon="4.25009">
        <ele>846.58</ele>
        <time>2011-10-15T08:46:31Z</time>
      </trkpt>
      <trkpt lat="45.28253" lon="4.25009">
        <ele>844.66</ele>
        <time>2011-10-15T08:46:43Z</time>
      </trkpt>
      <trkpt lat="45.28221" lon="4.25016">
        <ele>845.62</ele>
        <time>2011-10-15T08:46:53Z</time>
      </trkpt>
      <trkpt lat="45.28213" lon="4.25026">
        <ele>845.62</ele>
        <time>2011-10-15T08:46:56Z</time>
      </trkpt>
      <trkpt lat="45.28195" lon="4.25045">
        <ele>845.62</ele>
        <time>2011-10-15T08:47:01Z</time>
      </trkpt>
      <trkpt lat="45.28185" lon="4.25052">
        <ele>845.14</ele>
        <time>2011-10-15T08:47:03Z</time>
      </trkpt>
      <trkpt lat="45.2818" lon="4.25055">
        <ele>844.66</ele>
        <time>2011-10-15T08:47:04Z</time>
      </trkpt>
      <trkpt lat="45.28175" lon="4.25059">
        <ele>844.18</ele>
        <time>2011-10-15T08:47:05Z</time>
      </trkpt>
      <trkpt lat="45.28171" lon="4.25063">
        <ele>844.18</ele>
        <time>2011-10-15T08:47:06Z</time>
      </trkpt>
      <trkpt lat="45.28167" lon="4.25069">
        <ele>844.18</ele>
        <time>2011-10-15T08:47:07Z</time>
      </trkpt>
      <trkpt lat="45.28164" lon="4.25075">
        <ele>843.69</ele>
        <time>2011-10-15T08:47:08Z</time>
      </trkpt>
      <trkpt lat="45.28161" lon="4.25082">
        <ele>843.69</ele>
        <time>2011-10-15T08:47:09Z</time>
      </trkpt>
      <trkpt lat="45.2815" lon="4.25108">
        <ele>842.25</ele>
        <time>2011-10-15T08:47:12Z</time>
      </trkpt>
      <trkpt lat="45.28145" lon="4.25116">
        <ele>841.77</ele>
        <time>2011-10-15T08:47:13Z</time>
      </trkpt>
      <trkpt lat="45.28139" lon="4.25123">
        <ele>841.29</ele>
        <time>2011-10-15T08:47:14Z</time>
      </trkpt>
      <trkpt lat="45.28133" lon="4.25129">
        <ele>840.33</ele>
        <time>2011-10-15T08:47:15Z</time>
      </trkpt>
      <trkpt lat="45.28126" lon="4.25134">
        <ele>839.37</ele>
        <time>2011-10-15T08:47:16Z</time>
      </trkpt>
      <trkpt lat="45.28081" lon="4.25163">
        <ele>835.52</ele>
        <time>2011-10-15T08:47:22Z</time>
      </trkpt>
      <trkpt lat="45.28073" lon="4.25166">
        <ele>835.52</ele>
        <time>2011-10-15T08:47:23Z</time>
      </trkpt>
      <trkpt lat="45.28064" lon="4.25169">
        <ele>834.56</ele>
        <time>2011-10-15T08:47:24Z</time>
      </trkpt>
      <trkpt lat="45.28017" lon="4.25187">
        <ele>831.2</ele>
        <time>2011-10-15T08:47:30Z</time>
      </trkpt>
      <trkpt lat="45.2801" lon="4.25189">
        <ele>831.2</ele>
        <time>2011-10-15T08:47:31Z</time>
      </trkpt>
      <trkpt lat="45.27991" lon="4.25199">
        <ele>831.2</ele>
        <time>2011-10-15T08:47:34Z</time>
      </trkpt>
      <trkpt lat="45.27985" lon="4.25203">
        <ele>830.72</ele>
        <time>2011-10-15T08:47:35Z</time>
      </trkpt>
      <trkpt lat="45.27979" lon="4.25206">
        <ele>830.24</ele>
        <time>2011-10-15T08:47:36Z</time>
      </trkpt>
      <trkpt lat="45.27973" lon="4.25209">
        <ele>829.76</ele>
        <time>2011-10-15T08:47:37Z</time>
      </trkpt>
      <trkpt lat="45.27967" lon="4.25211">
        <ele>829.76</ele>
        <time>2011-10-15T08:47:38Z</time>
      </trkpt>
      <trkpt lat="45.27963" lon="4.25213">
        <ele>829.76</ele>
        <time>2011-10-15T08:47:39Z</time>
      </trkpt>
      <trkpt lat="45.27959" lon="4.25217">
        <ele>829.76</ele>
        <time>2011-10-15T08:47:40Z</time>
      </trkpt>
      <trkpt lat="45.27956" lon="4.2522">
        <ele>829.27</ele>
        <time>2011-10-15T08:47:41Z</time>
      </trkpt>
      <trkpt lat="45.27952" lon="4.25222">
        <ele>829.27</ele>
        <time>2011-10-15T08:47:42Z</time>
      </trkpt>
      <trkpt lat="45.27948" lon="4.25223">
        <ele>829.27</ele>
        <time>2011-10-15T08:47:43Z</time>
      </trkpt>
      <trkpt lat="45.27944" lon="4.25225">
        <ele>829.27</ele>
        <time>2011-10-15T08:47:44Z</time>
      </trkpt>
      <trkpt lat="45.2794" lon="4.25228">
        <ele>829.27</ele>
        <time>2011-10-15T08:47:45Z</time>
      </trkpt>
      <trkpt lat="45.27936" lon="4.25232">
        <ele>828.79</ele>
        <time>2011-10-15T08:47:46Z</time>
      </trkpt>
      <trkpt lat="45.27933" lon="4.25237">
        <ele>828.79</ele>
        <time>2011-10-15T08:47:47Z</time>
      </trkpt>
      <trkpt lat="45.2793" lon="4.25242">
        <ele>828.31</ele>
        <time>2011-10-15T08:47:48Z</time>
      </trkpt>
      <trkpt lat="45.27927" lon="4.25246">
        <ele>828.31</ele>
        <time>2011-10-15T08:47:49Z</time>
      </trkpt>
      <trkpt lat="45.27923" lon="4.25249">
        <ele>827.83</ele>
        <time>2011-10-15T08:47:50Z</time>
      </trkpt>
      <trkpt lat="45.27909" lon="4.25267">
        <ele>825.43</ele>
        <time>2011-10-15T08:47:55Z</time>
      </trkpt>
      <trkpt lat="45.27897" lon="4.2528">
        <ele>824.47</ele>
        <time>2011-10-15T08:47:58Z</time>
      </trkpt>
      <trkpt lat="45.2789" lon="4.25285">
        <ele>823.51</ele>
        <time>2011-10-15T08:48:00Z</time>
      </trkpt>
      <trkpt lat="45.27868" lon="4.25309">
        <ele>821.58</ele>
        <time>2011-10-15T08:48:05Z</time>
      </trkpt>
      <trkpt lat="45.27863" lon="4.25313">
        <ele>821.58</ele>
        <time>2011-10-15T08:48:06Z</time>
      </trkpt>
      <trkpt lat="45.27858" lon="4.25317">
        <ele>821.1</ele>
        <time>2011-10-15T08:48:07Z</time>
      </trkpt>
      <trkpt lat="45.27853" lon="4.25321">
        <ele>821.1</ele>
        <time>2011-10-15T08:48:08Z</time>
      </trkpt>
      <trkpt lat="45.27849" lon="4.25324">
        <ele>820.14</ele>
        <time>2011-10-15T08:48:09Z</time>
      </trkpt>
      <trkpt lat="45.27845" lon="4.25329">
        <ele>819.66</ele>
        <time>2011-10-15T08:48:10Z</time>
      </trkpt>
      <trkpt lat="45.2784" lon="4.25334">
        <ele>819.66</ele>
        <time>2011-10-15T08:48:11Z</time>
      </trkpt>
      <trkpt lat="45.27836" lon="4.2534">
        <ele>819.18</ele>
        <time>2011-10-15T08:48:12Z</time>
      </trkpt>
      <trkpt lat="45.27833" lon="4.25345">
        <ele>818.7</ele>
        <time>2011-10-15T08:48:13Z</time>
      </trkpt>
      <trkpt lat="45.27826" lon="4.25353">
        <ele>817.74</ele>
        <time>2011-10-15T08:48:15Z</time>
      </trkpt>
      <trkpt lat="45.27822" lon="4.25358">
        <ele>817.26</ele>
        <time>2011-10-15T08:48:16Z</time>
      </trkpt>
      <trkpt lat="45.27801" lon="4.25384">
        <ele>817.26</ele>
        <time>2011-10-15T08:48:22Z</time>
      </trkpt>
      <trkpt lat="45.27797" lon="4.25388">
        <ele>817.74</ele>
        <time>2011-10-15T08:48:23Z</time>
      </trkpt>
      <trkpt lat="45.27788" lon="4.25395">
        <ele>817.26</ele>
        <time>2011-10-15T08:48:25Z</time>
      </trkpt>
      <trkpt lat="45.27785" lon="4.25397">
        <ele>817.26</ele>
        <time>2011-10-15T08:48:26Z</time>
      </trkpt>
      <trkpt lat="45.27783" lon="4.25401">
        <ele>817.26</ele>
        <time>2011-10-15T08:48:27Z</time>
      </trkpt>
      <trkpt lat="45.2778" lon="4.25404">
        <ele>817.26</ele>
        <time>2011-10-15T08:48:28Z</time>
      </trkpt>
      <trkpt lat="45.27776" lon="4.25408">
        <ele>817.26</ele>
        <time>2011-10-15T08:48:29Z</time>
      </trkpt>
      <trkpt lat="45.27772" lon="4.25412">
        <ele>817.26</ele>
        <time>2011-10-15T08:48:30Z</time>
      </trkpt>
      <trkpt lat="45.27768" lon="4.25417">
        <ele>817.26</ele>
        <time>2011-10-15T08:48:31Z</time>
      </trkpt>
      <trkpt lat="45.27765" lon="4.25421">
        <ele>817.26</ele>
        <time>2011-10-15T08:48:32Z</time>
      </trkpt>
      <trkpt lat="45.27762" lon="4.25425">
        <ele>817.26</ele>
        <time>2011-10-15T08:48:33Z</time>
      </trkpt>
      <trkpt lat="45.27758" lon="4.25429">
        <ele>817.26</ele>
        <time>2011-10-15T08:48:34Z</time>
      </trkpt>
      <trkpt lat="45.27755" lon="4.25433">
        <ele>817.26</ele>
        <time>2011-10-15T08:48:35Z</time>
      </trkpt>
      <trkpt lat="45.27752" lon="4.25436">
        <ele>816.78</ele>
        <time>2011-10-15T08:48:36Z</time>
      </trkpt>
      <trkpt lat="45.27749" lon="4.2544">
        <ele>816.78</ele>
        <time>2011-10-15T08:48:37Z</time>
      </trkpt>
      <trkpt lat="45.27731" lon="4.25457">
        <ele>815.82</ele>
        <time>2011-10-15T08:48:41Z</time>
      </trkpt>
      <trkpt lat="45.27726" lon="4.25461">
        <ele>815.82</ele>
        <time>2011-10-15T08:48:42Z</time>
      </trkpt>
      <trkpt lat="45.27714" lon="4.25472">
        <ele>815.82</ele>
        <time>2011-10-15T08:48:45Z</time>
      </trkpt>
      <trkpt lat="45.2771" lon="4.25475">
        <ele>815.82</ele>
        <time>2011-10-15T08:48:46Z</time>
      </trkpt>
      <trkpt lat="45.27706" lon="4.25478">
        <ele>815.82</ele>
        <time>2011-10-15T08:48:47Z</time>
      </trkpt>
      <trkpt lat="45.27702" lon="4.25481">
        <ele>816.3</ele>
        <time>2011-10-15T08:48:48Z</time>
      </trkpt>
      <trkpt lat="45.27698" lon="4.25484">
        <ele>816.3</ele>
        <time>2011-10-15T08:48:49Z</time>
      </trkpt>
      <trkpt lat="45.27689" lon="4.25492">
        <ele>816.78</ele>
        <time>2011-10-15T08:48:51Z</time>
      </trkpt>
      <trkpt lat="45.27652" lon="4.25519">
        <ele>820.14</ele>
        <time>2011-10-15T08:49:00Z</time>
      </trkpt>
      <trkpt lat="45.27616" lon="4.25548">
        <ele>815.82</ele>
        <time>2011-10-15T08:49:09Z</time>
      </trkpt>
      <trkpt lat="45.27614" lon="4.25553">
        <ele>814.85</ele>
        <time>2011-10-15T08:49:10Z</time>
      </trkpt>
      <trkpt lat="45.2761" lon="4.25557">
        <ele>814.37</ele>
        <time>2011-10-15T08:49:11Z</time>
      </trkpt>
      <trkpt lat="45.27603" lon="4.25564">
        <ele>813.89</ele>
        <time>2011-10-15T08:49:13Z</time>
      </trkpt>
      <trkpt lat="45.276" lon="4.25569">
        <ele>813.41</ele>
        <time>2011-10-15T08:49:14Z</time>
      </trkpt>
      <trkpt lat="45.27598" lon="4.25576">
        <ele>813.41</ele>
        <time>2011-10-15T08:49:15Z</time>
      </trkpt>
      <trkpt lat="45.27594" lon="4.25583">
        <ele>813.41</ele>
        <time>2011-10-15T08:49:16Z</time>
      </trkpt>
      <trkpt lat="45.27592" lon="4.25589">
        <ele>812.93</ele>
        <time>2011-10-15T08:49:17Z</time>
      </trkpt>
      <trkpt lat="45.27589" lon="4.25596">
        <ele>812.93</ele>
        <time>2011-10-15T08:49:18Z</time>
      </trkpt>
      <trkpt lat="45.27587" lon="4.25603">
        <ele>812.93</ele>
        <time>2011-10-15T08:49:19Z</time>
      </trkpt>
      <trkpt lat="45.27586" lon="4.25611">
        <ele>812.45</ele>
        <time>2011-10-15T08:49:20Z</time>
      </trkpt>
      <trkpt lat="45.27583" lon="4.25627">
        <ele>811.97</ele>
        <time>2011-10-15T08:49:22Z</time>
      </trkpt>
      <trkpt lat="45.27563" lon="4.2571">
        <ele>810.53</ele>
        <time>2011-10-15T08:49:33Z</time>
      </trkpt>
      <trkpt lat="45.27561" lon="4.25717">
        <ele>810.53</ele>
        <time>2011-10-15T08:49:34Z</time>
      </trkpt>
      <trkpt lat="45.27557" lon="4.25731">
        <ele>811.01</ele>
        <time>2011-10-15T08:49:36Z</time>
      </trkpt>
      <trkpt lat="45.27553" lon="4.25737">
        <ele>811.01</ele>
        <time>2011-10-15T08:49:37Z</time>
      </trkpt>
      <trkpt lat="45.27546" lon="4.25749">
        <ele>811.97</ele>
        <time>2011-10-15T08:49:39Z</time>
      </trkpt>
      <trkpt lat="45.27528" lon="4.2579">
        <ele>816.3</ele>
        <time>2011-10-15T08:49:45Z</time>
      </trkpt>
      <trkpt lat="45.27525" lon="4.25798">
        <ele>816.78</ele>
        <time>2011-10-15T08:49:46Z</time>
      </trkpt>
      <trkpt lat="45.27522" lon="4.25804">
        <ele>817.26</ele>
        <time>2011-10-15T08:49:47Z</time>
      </trkpt>
      <trkpt lat="45.2752" lon="4.2581">
        <ele>817.74</ele>
        <time>2011-10-15T08:49:48Z</time>
      </trkpt>
      <trkpt lat="45.27517" lon="4.25816">
        <ele>818.22</ele>
        <time>2011-10-15T08:49:49Z</time>
      </trkpt>
      <trkpt lat="45.27515" lon="4.2582">
        <ele>818.22</ele>
        <time>2011-10-15T08:49:50Z</time>
      </trkpt>
      <trkpt lat="45.2751" lon="4.25825">
        <ele>819.18</ele>
        <time>2011-10-15T08:49:51Z</time>
      </trkpt>
      <trkpt lat="45.27506" lon="4.25831">
        <ele>819.66</ele>
        <time>2011-10-15T08:49:52Z</time>
      </trkpt>
      <trkpt lat="45.27501" lon="4.25837">
        <ele>820.14</ele>
        <time>2011-10-15T08:49:53Z</time>
      </trkpt>
      <trkpt lat="45.27498" lon="4.25843">
        <ele>820.62</ele>
        <time>2011-10-15T08:49:54Z</time>
      </trkpt>
      <trkpt lat="45.27494" lon="4.25851">
        <ele>821.1</ele>
        <time>2011-10-15T08:49:55Z</time>
      </trkpt>
      <trkpt lat="45.27489" lon="4.25857">
        <ele>822.06</ele>
        <time>2011-10-15T08:49:56Z</time>
      </trkpt>
      <trkpt lat="45.27484" lon="4.25863">
        <ele>822.55</ele>
        <time>2011-10-15T08:49:57Z</time>
      </trkpt>
      <trkpt lat="45.2748" lon="4.25869">
        <ele>822.55</ele>
        <time>2011-10-15T08:49:58Z</time>
      </trkpt>
      <trkpt lat="45.27476" lon="4.25876">
        <ele>823.03</ele>
        <time>2011-10-15T08:49:59Z</time>
      </trkpt>
      <trkpt lat="45.27472" lon="4.25882">
        <ele>823.03</ele>
        <time>2011-10-15T08:50:00Z</time>
      </trkpt>
      <trkpt lat="45.27468" lon="4.25889">
        <ele>823.03</ele>
        <time>2011-10-15T08:50:01Z</time>
      </trkpt>
      <trkpt lat="45.27466" lon="4.25896">
        <ele>823.51</ele>
        <time>2011-10-15T08:50:02Z</time>
      </trkpt>
      <trkpt lat="45.27464" lon="4.25903">
        <ele>823.51</ele>
        <time>2011-10-15T08:50:03Z</time>
      </trkpt>
      <trkpt lat="45.27462" lon="4.2591">
        <ele>823.99</ele>
        <time>2011-10-15T08:50:04Z</time>
      </trkpt>
      <trkpt lat="45.27461" lon="4.25916">
        <ele>824.47</ele>
        <time>2011-10-15T08:50:05Z</time>
      </trkpt>
      <trkpt lat="45.27459" lon="4.25921">
        <ele>824.47</ele>
        <time>2011-10-15T08:50:06Z</time>
      </trkpt>
      <trkpt lat="45.27456" lon="4.25925">
        <ele>824.95</ele>
        <time>2011-10-15T08:50:07Z</time>
      </trkpt>
      <trkpt lat="45.27455" lon="4.2593">
        <ele>824.95</ele>
        <time>2011-10-15T08:50:08Z</time>
      </trkpt>
      <trkpt lat="45.27453" lon="4.25936">
        <ele>824.95</ele>
        <time>2011-10-15T08:50:09Z</time>
      </trkpt>
      <trkpt lat="45.27451" lon="4.25941">
        <ele>824.95</ele>
        <time>2011-10-15T08:50:10Z</time>
      </trkpt>
      <trkpt lat="45.27448" lon="4.25947">
        <ele>824.95</ele>
        <time>2011-10-15T08:50:11Z</time>
      </trkpt>
      <trkpt lat="45.27416" lon="4.25986">
        <ele>823.03</ele>
        <time>2011-10-15T08:50:21Z</time>
      </trkpt>
      <trkpt lat="45.27413" lon="4.2599">
        <ele>823.03</ele>
        <time>2011-10-15T08:50:22Z</time>
      </trkpt>
      <trkpt lat="45.27409" lon="4.25993">
        <ele>823.03</ele>
        <time>2011-10-15T08:50:23Z</time>
      </trkpt>
      <trkpt lat="45.27405" lon="4.25997">
        <ele>822.55</ele>
        <time>2011-10-15T08:50:24Z</time>
      </trkpt>
      <trkpt lat="45.27401" lon="4.26002">
        <ele>822.55</ele>
        <time>2011-10-15T08:50:25Z</time>
      </trkpt>
      <trkpt lat="45.27398" lon="4.26007">
        <ele>822.55</ele>
        <time>2011-10-15T08:50:26Z</time>
      </trkpt>
      <trkpt lat="45.27395" lon="4.26012">
        <ele>822.55</ele>
        <time>2011-10-15T08:50:27Z</time>
      </trkpt>
      <trkpt lat="45.27392" lon="4.26017">
        <ele>822.55</ele>
        <time>2011-10-15T08:50:28Z</time>
      </trkpt>
      <trkpt lat="45.27389" lon="4.26021">
        <ele>822.06</ele>
        <time>2011-10-15T08:50:29Z</time>
      </trkpt>
      <trkpt lat="45.27386" lon="4.26026">
        <ele>822.06</ele>
        <time>2011-10-15T08:50:30Z</time>
      </trkpt>
      <trkpt lat="45.27385" lon="4.26029">
        <ele>822.06</ele>
        <time>2011-10-15T08:50:31Z</time>
      </trkpt>
      <trkpt lat="45.27383" lon="4.26032">
        <ele>821.58</ele>
        <time>2011-10-15T08:50:32Z</time>
      </trkpt>
      <trkpt lat="45.27381" lon="4.26036">
        <ele>821.58</ele>
        <time>2011-10-15T08:50:33Z</time>
      </trkpt>
      <trkpt lat="45.27378" lon="4.2604">
        <ele>821.58</ele>
        <time>2011-10-15T08:50:34Z</time>
      </trkpt>
      <trkpt lat="45.27373" lon="4.26049">
        <ele>820.62</ele>
        <time>2011-10-15T08:50:36Z</time>
      </trkpt>
      <trkpt lat="45.2737" lon="4.26055">
        <ele>820.14</ele>
        <time>2011-10-15T08:50:37Z</time>
      </trkpt>
      <trkpt lat="45.27353" lon="4.26088">
        <ele>819.18</ele>
        <time>2011-10-15T08:50:43Z</time>
      </trkpt>
      <trkpt lat="45.27342" lon="4.26106">
        <ele>818.7</ele>
        <time>2011-10-15T08:50:46Z</time>
      </trkpt>
      <trkpt lat="45.27335" lon="4.26116">
        <ele>818.22</ele>
        <time>2011-10-15T08:50:48Z</time>
      </trkpt>
      <trkpt lat="45.27331" lon="4.26121">
        <ele>818.22</ele>
        <time>2011-10-15T08:50:49Z</time>
      </trkpt>
      <trkpt lat="45.27328" lon="4.26126">
        <ele>818.7</ele>
        <time>2011-10-15T08:50:50Z</time>
      </trkpt>
      <trkpt lat="45.27326" lon="4.26132">
        <ele>818.7</ele>
        <time>2011-10-15T08:50:51Z</time>
      </trkpt>
      <trkpt lat="45.27323" lon="4.26137">
        <ele>818.7</ele>
        <time>2011-10-15T08:50:52Z</time>
      </trkpt>
      <trkpt lat="45.2732" lon="4.26144">
        <ele>818.7</ele>
        <time>2011-10-15T08:50:53Z</time>
      </trkpt>
      <trkpt lat="45.27317" lon="4.26148">
        <ele>818.22</ele>
        <time>2011-10-15T08:50:54Z</time>
      </trkpt>
      <trkpt lat="45.27314" lon="4.26153">
        <ele>818.22</ele>
        <time>2011-10-15T08:50:55Z</time>
      </trkpt>
      <trkpt lat="45.27309" lon="4.2616">
        <ele>818.7</ele>
        <time>2011-10-15T08:50:56Z</time>
      </trkpt>
      <trkpt lat="45.27301" lon="4.26174">
        <ele>818.7</ele>
        <time>2011-10-15T08:50:58Z</time>
      </trkpt>
      <trkpt lat="45.273" lon="4.26179">
        <ele>818.7</ele>
        <time>2011-10-15T08:50:59Z</time>
      </trkpt>
      <trkpt lat="45.27297" lon="4.26185">
        <ele>819.18</ele>
        <time>2011-10-15T08:51:00Z</time>
      </trkpt>
      <trkpt lat="45.2728" lon="4.26208">
        <ele>818.7</ele>
        <time>2011-10-15T08:51:06Z</time>
      </trkpt>
      <trkpt lat="45.27255" lon="4.2623">
        <ele>817.26</ele>
        <time>2011-10-15T08:51:10Z</time>
      </trkpt>
      <trkpt lat="45.27249" lon="4.26234">
        <ele>816.78</ele>
        <time>2011-10-15T08:51:11Z</time>
      </trkpt>
      <trkpt lat="45.27233" lon="4.26247">
        <ele>816.78</ele>
        <time>2011-10-15T08:51:14Z</time>
      </trkpt>
      <trkpt lat="45.27218" lon="4.26261">
        <ele>815.82</ele>
        <time>2011-10-15T08:51:17Z</time>
      </trkpt>
      <trkpt lat="45.27176" lon="4.2629">
        <ele>814.85</ele>
        <time>2011-10-15T08:51:24Z</time>
      </trkpt>
      <trkpt lat="45.2717" lon="4.26294">
        <ele>814.85</ele>
        <time>2011-10-15T08:51:25Z</time>
      </trkpt>
      <trkpt lat="45.27145" lon="4.26314">
        <ele>816.78</ele>
        <time>2011-10-15T08:51:29Z</time>
      </trkpt>
      <trkpt lat="45.27139" lon="4.26317">
        <ele>817.26</ele>
        <time>2011-10-15T08:51:30Z</time>
      </trkpt>
      <trkpt lat="45.27126" lon="4.26325">
        <ele>817.26</ele>
        <time>2011-10-15T08:51:32Z</time>
      </trkpt>
      <trkpt lat="45.27102" lon="4.26337">
        <ele>818.22</ele>
        <time>2011-10-15T08:51:36Z</time>
      </trkpt>
      <trkpt lat="45.27077" lon="4.26345">
        <ele>818.22</ele>
        <time>2011-10-15T08:51:40Z</time>
      </trkpt>
      <trkpt lat="45.27071" lon="4.26347">
        <ele>818.22</ele>
        <time>2011-10-15T08:51:41Z</time>
      </trkpt>
      <trkpt lat="45.27066" lon="4.26348">
        <ele>817.74</ele>
        <time>2011-10-15T08:51:42Z</time>
      </trkpt>
      <trkpt lat="45.27062" lon="4.26348">
        <ele>817.74</ele>
        <time>2011-10-15T08:51:43Z</time>
      </trkpt>
      <trkpt lat="45.27059" lon="4.26349">
        <ele>817.74</ele>
        <time>2011-10-15T08:51:44Z</time>
      </trkpt>
      <trkpt lat="45.27055" lon="4.26349">
        <ele>817.26</ele>
        <time>2011-10-15T08:51:45Z</time>
      </trkpt>
      <trkpt lat="45.27051" lon="4.26349">
        <ele>817.26</ele>
        <time>2011-10-15T08:51:46Z</time>
      </trkpt>
      <trkpt lat="45.27047" lon="4.26348">
        <ele>816.3</ele>
        <time>2011-10-15T08:51:47Z</time>
      </trkpt>
      <trkpt lat="45.27041" lon="4.26349">
        <ele>815.82</ele>
        <time>2011-10-15T08:51:48Z</time>
      </trkpt>
      <trkpt lat="45.2703" lon="4.26352">
        <ele>814.85</ele>
        <time>2011-10-15T08:51:50Z</time>
      </trkpt>
      <trkpt lat="45.27024" lon="4.26354">
        <ele>814.37</ele>
        <time>2011-10-15T08:51:51Z</time>
      </trkpt>
      <trkpt lat="45.27019" lon="4.26358">
        <ele>813.89</ele>
        <time>2011-10-15T08:51:52Z</time>
      </trkpt>
      <trkpt lat="45.27014" lon="4.26363">
        <ele>813.89</ele>
        <time>2011-10-15T08:51:53Z</time>
      </trkpt>
      <trkpt lat="45.27009" lon="4.26368">
        <ele>813.41</ele>
        <time>2011-10-15T08:51:54Z</time>
      </trkpt>
      <trkpt lat="45.27005" lon="4.26373">
        <ele>813.41</ele>
        <time>2011-10-15T08:51:55Z</time>
      </trkpt>
      <trkpt lat="45.26993" lon="4.2639">
        <ele>813.41</ele>
        <time>2011-10-15T08:51:58Z</time>
      </trkpt>
      <trkpt lat="45.26985" lon="4.26403">
        <ele>814.85</ele>
        <time>2011-10-15T08:52:00Z</time>
      </trkpt>
      <trkpt lat="45.26957" lon="4.26484">
        <ele>819.66</ele>
        <time>2011-10-15T08:52:12Z</time>
      </trkpt>
      <trkpt lat="45.26956" lon="4.26491">
        <ele>820.14</ele>
        <time>2011-10-15T08:52:13Z</time>
      </trkpt>
      <trkpt lat="45.26948" lon="4.26521">
        <ele>821.58</ele>
        <time>2011-10-15T08:52:17Z</time>
      </trkpt>
      <trkpt lat="45.2694" lon="4.26557">
        <ele>824.95</ele>
        <time>2011-10-15T08:52:23Z</time>
      </trkpt>
      <trkpt lat="45.26941" lon="4.26564">
        <ele>825.43</ele>
        <time>2011-10-15T08:52:24Z</time>
      </trkpt>
      <trkpt lat="45.26944" lon="4.26569">
        <ele>825.43</ele>
        <time>2011-10-15T08:52:25Z</time>
      </trkpt>
      <trkpt lat="45.26947" lon="4.26574">
        <ele>825.91</ele>
        <time>2011-10-15T08:52:26Z</time>
      </trkpt>
      <trkpt lat="45.2695" lon="4.26578">
        <ele>825.91</ele>
        <time>2011-10-15T08:52:27Z</time>
      </trkpt>
      <trkpt lat="45.26954" lon="4.26581">
        <ele>825.91</ele>
        <time>2011-10-15T08:52:28Z</time>
      </trkpt>
      <trkpt lat="45.26958" lon="4.26584">
        <ele>825.91</ele>
        <time>2011-10-15T08:52:29Z</time>
      </trkpt>
      <trkpt lat="45.26961" lon="4.26587">
        <ele>826.39</ele>
        <time>2011-10-15T08:52:30Z</time>
      </trkpt>
      <trkpt lat="45.26964" lon="4.2659">
        <ele>826.39</ele>
        <time>2011-10-15T08:52:31Z</time>
      </trkpt>
      <trkpt lat="45.26968" lon="4.26593">
        <ele>826.87</ele>
        <time>2011-10-15T08:52:32Z</time>
      </trkpt>
      <trkpt lat="45.26971" lon="4.26598">
        <ele>826.87</ele>
        <time>2011-10-15T08:52:33Z</time>
      </trkpt>
      <trkpt lat="45.26975" lon="4.26602">
        <ele>826.87</ele>
        <time>2011-10-15T08:52:34Z</time>
      </trkpt>
      <trkpt lat="45.26978" lon="4.26607">
        <ele>826.87</ele>
        <time>2011-10-15T08:52:35Z</time>
      </trkpt>
      <trkpt lat="45.26989" lon="4.26621">
        <ele>825.91</ele>
        <time>2011-10-15T08:52:38Z</time>
      </trkpt>
      <trkpt lat="45.27001" lon="4.26642">
        <ele>824.95</ele>
        <time>2011-10-15T08:52:42Z</time>
      </trkpt>
      <trkpt lat="45.27005" lon="4.26647">
        <ele>825.43</ele>
        <time>2011-10-15T08:52:43Z</time>
      </trkpt>
      <trkpt lat="45.27008" lon="4.26652">
        <ele>825.43</ele>
        <time>2011-10-15T08:52:44Z</time>
      </trkpt>
      <trkpt lat="45.2701" lon="4.26657">
        <ele>825.43</ele>
        <time>2011-10-15T08:52:45Z</time>
      </trkpt>
      <trkpt lat="45.27012" lon="4.26661">
        <ele>824.95</ele>
        <time>2011-10-15T08:52:46Z</time>
      </trkpt>
      <trkpt lat="45.27013" lon="4.26666">
        <ele>824.95</ele>
        <time>2011-10-15T08:52:47Z</time>
      </trkpt>
      <trkpt lat="45.27015" lon="4.26672">
        <ele>824.47</ele>
        <time>2011-10-15T08:52:48Z</time>
      </trkpt>
      <trkpt lat="45.27024" lon="4.26694">
        <ele>822.55</ele>
        <time>2011-10-15T08:52:52Z</time>
      </trkpt>
      <trkpt lat="45.27026" lon="4.26701">
        <ele>822.06</ele>
        <time>2011-10-15T08:52:53Z</time>
      </trkpt>
      <trkpt lat="45.27029" lon="4.26718">
        <ele>819.66</ele>
        <time>2011-10-15T08:52:56Z</time>
      </trkpt>
      <trkpt lat="45.2703" lon="4.26725">
        <ele>819.18</ele>
        <time>2011-10-15T08:52:57Z</time>
      </trkpt>
      <trkpt lat="45.27032" lon="4.26731">
        <ele>818.7</ele>
        <time>2011-10-15T08:52:58Z</time>
      </trkpt>
      <trkpt lat="45.27035" lon="4.26737">
        <ele>818.22</ele>
        <time>2011-10-15T08:52:59Z</time>
      </trkpt>
      <trkpt lat="45.2704" lon="4.26742">
        <ele>817.74</ele>
        <time>2011-10-15T08:53:00Z</time>
      </trkpt>
      <trkpt lat="45.27046" lon="4.26744">
        <ele>816.78</ele>
        <time>2011-10-15T08:53:01Z</time>
      </trkpt>
      <trkpt lat="45.27052" lon="4.26744">
        <ele>816.3</ele>
        <time>2011-10-15T08:53:02Z</time>
      </trkpt>
      <trkpt lat="45.27058" lon="4.26742">
        <ele>815.82</ele>
        <time>2011-10-15T08:53:03Z</time>
      </trkpt>
      <trkpt lat="45.27063" lon="4.26739">
        <ele>815.34</ele>
        <time>2011-10-15T08:53:04Z</time>
      </trkpt>
      <trkpt lat="45.27067" lon="4.26736">
        <ele>814.85</ele>
        <time>2011-10-15T08:53:05Z</time>
      </trkpt>
      <trkpt lat="45.27088" lon="4.2672">
        <ele>812.45</ele>
        <time>2011-10-15T08:53:09Z</time>
      </trkpt>
      <trkpt lat="45.27099" lon="4.26715">
        <ele>811.01</ele>
        <time>2011-10-15T08:53:11Z</time>
      </trkpt>
      <trkpt lat="45.27105" lon="4.26714">
        <ele>810.53</ele>
        <time>2011-10-15T08:53:12Z</time>
      </trkpt>
      <trkpt lat="45.27115" lon="4.26714">
        <ele>809.57</ele>
        <time>2011-10-15T08:53:14Z</time>
      </trkpt>
      <trkpt lat="45.2712" lon="4.26712">
        <ele>809.09</ele>
        <time>2011-10-15T08:53:15Z</time>
      </trkpt>
      <trkpt lat="45.27125" lon="4.26711">
        <ele>808.61</ele>
        <time>2011-10-15T08:53:16Z</time>
      </trkpt>
      <trkpt lat="45.27129" lon="4.26711">
        <ele>808.61</ele>
        <time>2011-10-15T08:53:17Z</time>
      </trkpt>
      <trkpt lat="45.27134" lon="4.26712">
        <ele>808.13</ele>
        <time>2011-10-15T08:53:18Z</time>
      </trkpt>
      <trkpt lat="45.27137" lon="4.26712">
        <ele>807.64</ele>
        <time>2011-10-15T08:53:19Z</time>
      </trkpt>
      <trkpt lat="45.27163" lon="4.26712">
        <ele>807.64</ele>
        <time>2011-10-15T08:53:26Z</time>
      </trkpt>
      <trkpt lat="45.27167" lon="4.26714">
        <ele>808.13</ele>
        <time>2011-10-15T08:53:27Z</time>
      </trkpt>
      <trkpt lat="45.2719" lon="4.26717">
        <ele>808.13</ele>
        <time>2011-10-15T08:53:32Z</time>
      </trkpt>
      <trkpt lat="45.27196" lon="4.26718">
        <ele>808.13</ele>
        <time>2011-10-15T08:53:33Z</time>
      </trkpt>
      <trkpt lat="45.27233" lon="4.26721">
        <ele>808.13</ele>
        <time>2011-10-15T08:53:40Z</time>
      </trkpt>
      <trkpt lat="45.27239" lon="4.2672">
        <ele>808.13</ele>
        <time>2011-10-15T08:53:41Z</time>
      </trkpt>
      <trkpt lat="45.2725" lon="4.26717">
        <ele>807.64</ele>
        <time>2011-10-15T08:53:43Z</time>
      </trkpt>
      <trkpt lat="45.27255" lon="4.26715">
        <ele>807.16</ele>
        <time>2011-10-15T08:53:44Z</time>
      </trkpt>
      <trkpt lat="45.2726" lon="4.26713">
        <ele>806.68</ele>
        <time>2011-10-15T08:53:45Z</time>
      </trkpt>
      <trkpt lat="45.27266" lon="4.26712">
        <ele>806.68</ele>
        <time>2011-10-15T08:53:46Z</time>
      </trkpt>
      <trkpt lat="45.27272" lon="4.26711">
        <ele>806.2</ele>
        <time>2011-10-15T08:53:47Z</time>
      </trkpt>
      <trkpt lat="45.27277" lon="4.26711">
        <ele>806.2</ele>
        <time>2011-10-15T08:53:48Z</time>
      </trkpt>
      <trkpt lat="45.27283" lon="4.26711">
        <ele>806.2</ele>
        <time>2011-10-15T08:53:49Z</time>
      </trkpt>
      <trkpt lat="45.27289" lon="4.2671">
        <ele>806.2</ele>
        <time>2011-10-15T08:53:50Z</time>
      </trkpt>
      <trkpt lat="45.27295" lon="4.2671">
        <ele>806.2</ele>
        <time>2011-10-15T08:53:51Z</time>
      </trkpt>
      <trkpt lat="45.27301" lon="4.2671">
        <ele>805.72</ele>
        <time>2011-10-15T08:53:52Z</time>
      </trkpt>
      <trkpt lat="45.27306" lon="4.2671">
        <ele>805.72</ele>
        <time>2011-10-15T08:53:53Z</time>
      </trkpt>
      <trkpt lat="45.27311" lon="4.26711">
        <ele>805.72</ele>
        <time>2011-10-15T08:53:54Z</time>
      </trkpt>
      <trkpt lat="45.27316" lon="4.26713">
        <ele>805.72</ele>
        <time>2011-10-15T08:53:55Z</time>
      </trkpt>
      <trkpt lat="45.27321" lon="4.26715">
        <ele>805.72</ele>
        <time>2011-10-15T08:53:56Z</time>
      </trkpt>
      <trkpt lat="45.27343" lon="4.26729">
        <ele>805.24</ele>
        <time>2011-10-15T08:54:01Z</time>
      </trkpt>
      <trkpt lat="45.27347" lon="4.26732">
        <ele>805.72</ele>
        <time>2011-10-15T08:54:02Z</time>
      </trkpt>
      <trkpt lat="45.27351" lon="4.26735">
        <ele>805.72</ele>
        <time>2011-10-15T08:54:03Z</time>
      </trkpt>
      <trkpt lat="45.27356" lon="4.26739">
        <ele>806.2</ele>
        <time>2011-10-15T08:54:04Z</time>
      </trkpt>
      <trkpt lat="45.2736" lon="4.26743">
        <ele>806.68</ele>
        <time>2011-10-15T08:54:05Z</time>
      </trkpt>
      <trkpt lat="45.27365" lon="4.26747">
        <ele>807.16</ele>
        <time>2011-10-15T08:54:06Z</time>
      </trkpt>
      <trkpt lat="45.27379" lon="4.26763">
        <ele>808.13</ele>
        <time>2011-10-15T08:54:09Z</time>
      </trkpt>
      <trkpt lat="45.27382" lon="4.26769">
        <ele>808.61</ele>
        <time>2011-10-15T08:54:10Z</time>
      </trkpt>
      <trkpt lat="45.27389" lon="4.26784">
        <ele>808.61</ele>
        <time>2011-10-15T08:54:12Z</time>
      </trkpt>
      <trkpt lat="45.27396" lon="4.26814">
        <ele>809.09</ele>
        <time>2011-10-15T08:54:17Z</time>
      </trkpt>
      <trkpt lat="45.27398" lon="4.2682">
        <ele>809.09</ele>
        <time>2011-10-15T08:54:18Z</time>
      </trkpt>
      <trkpt lat="45.274" lon="4.26825">
        <ele>809.09</ele>
        <time>2011-10-15T08:54:19Z</time>
      </trkpt>
      <trkpt lat="45.27402" lon="4.2683">
        <ele>809.09</ele>
        <time>2011-10-15T08:54:20Z</time>
      </trkpt>
      <trkpt lat="45.27405" lon="4.26836">
        <ele>809.09</ele>
        <time>2011-10-15T08:54:21Z</time>
      </trkpt>
      <trkpt lat="45.27406" lon="4.26842">
        <ele>809.09</ele>
        <time>2011-10-15T08:54:22Z</time>
      </trkpt>
      <trkpt lat="45.27423" lon="4.26878">
        <ele>813.41</ele>
        <time>2011-10-15T08:54:31Z</time>
      </trkpt>
      <trkpt lat="45.27446" lon="4.26909">
        <ele>826.39</ele>
        <time>2011-10-15T08:54:40Z</time>
      </trkpt>
      <trkpt lat="45.27468" lon="4.26948">
        <ele>830.72</ele>
        <time>2011-10-15T08:54:49Z</time>
      </trkpt>
      <trkpt lat="45.27487" lon="4.26989">
        <ele>825.43</ele>
        <time>2011-10-15T08:54:58Z</time>
      </trkpt>
      <trkpt lat="45.27502" lon="4.27045">
        <ele>822.55</ele>
        <time>2011-10-15T08:55:10Z</time>
      </trkpt>
      <trkpt lat="45.27503" lon="4.27061">
        <ele>821.58</ele>
        <time>2011-10-15T08:55:13Z</time>
      </trkpt>
      <trkpt lat="45.27511" lon="4.27128">
        <ele>818.22</ele>
        <time>2011-10-15T08:55:25Z</time>
      </trkpt>
      <trkpt lat="45.27517" lon="4.27148">
        <ele>817.74</ele>
        <time>2011-10-15T08:55:29Z</time>
      </trkpt>
      <trkpt lat="45.2752" lon="4.27152">
        <ele>817.26</ele>
        <time>2011-10-15T08:55:30Z</time>
      </trkpt>
      <trkpt lat="45.27524" lon="4.27157">
        <ele>816.78</ele>
        <time>2011-10-15T08:55:31Z</time>
      </trkpt>
      <trkpt lat="45.27528" lon="4.27162">
        <ele>816.78</ele>
        <time>2011-10-15T08:55:32Z</time>
      </trkpt>
      <trkpt lat="45.27532" lon="4.27168">
        <ele>816.3</ele>
        <time>2011-10-15T08:55:33Z</time>
      </trkpt>
      <trkpt lat="45.2757" lon="4.27227">
        <ele>812.93</ele>
        <time>2011-10-15T08:55:42Z</time>
      </trkpt>
      <trkpt lat="45.27575" lon="4.27233">
        <ele>812.45</ele>
        <time>2011-10-15T08:55:43Z</time>
      </trkpt>
      <trkpt lat="45.27579" lon="4.2724">
        <ele>811.97</ele>
        <time>2011-10-15T08:55:44Z</time>
      </trkpt>
      <trkpt lat="45.27592" lon="4.27258">
        <ele>811.49</ele>
        <time>2011-10-15T08:55:47Z</time>
      </trkpt>
      <trkpt lat="45.27597" lon="4.27264">
        <ele>811.01</ele>
        <time>2011-10-15T08:55:48Z</time>
      </trkpt>
      <trkpt lat="45.27602" lon="4.2727">
        <ele>811.01</ele>
        <time>2011-10-15T08:55:49Z</time>
      </trkpt>
      <trkpt lat="45.27608" lon="4.27275">
        <ele>810.53</ele>
        <time>2011-10-15T08:55:50Z</time>
      </trkpt>
      <trkpt lat="45.27614" lon="4.27279">
        <ele>810.05</ele>
        <time>2011-10-15T08:55:51Z</time>
      </trkpt>
      <trkpt lat="45.27626" lon="4.27287">
        <ele>809.57</ele>
        <time>2011-10-15T08:55:53Z</time>
      </trkpt>
      <trkpt lat="45.27632" lon="4.2729">
        <ele>809.57</ele>
        <time>2011-10-15T08:55:54Z</time>
      </trkpt>
      <trkpt lat="45.27664" lon="4.27298">
        <ele>807.16</ele>
        <time>2011-10-15T08:55:59Z</time>
      </trkpt>
      <trkpt lat="45.27676" lon="4.27301">
        <ele>805.72</ele>
        <time>2011-10-15T08:56:01Z</time>
      </trkpt>
      <trkpt lat="45.27687" lon="4.27302">
        <ele>805.24</ele>
        <time>2011-10-15T08:56:03Z</time>
      </trkpt>
      <trkpt lat="45.27691" lon="4.27305">
        <ele>805.24</ele>
        <time>2011-10-15T08:56:04Z</time>
      </trkpt>
      <trkpt lat="45.27694" lon="4.27309">
        <ele>804.76</ele>
        <time>2011-10-15T08:56:05Z</time>
      </trkpt>
      <trkpt lat="45.27698" lon="4.27314">
        <ele>804.28</ele>
        <time>2011-10-15T08:56:06Z</time>
      </trkpt>
      <trkpt lat="45.27702" lon="4.27318">
        <ele>803.32</ele>
        <time>2011-10-15T08:56:07Z</time>
      </trkpt>
      <trkpt lat="45.27708" lon="4.27319">
        <ele>802.36</ele>
        <time>2011-10-15T08:56:08Z</time>
      </trkpt>
      <trkpt lat="45.27713" lon="4.27319">
        <ele>801.88</ele>
        <time>2011-10-15T08:56:09Z</time>
      </trkpt>
      <trkpt lat="45.27719" lon="4.27318">
        <ele>800.92</ele>
        <time>2011-10-15T08:56:10Z</time>
      </trkpt>
      <trkpt lat="45.27724" lon="4.27316">
        <ele>800.44</ele>
        <time>2011-10-15T08:56:11Z</time>
      </trkpt>
      <trkpt lat="45.27729" lon="4.27316">
        <ele>799.95</ele>
        <time>2011-10-15T08:56:12Z</time>
      </trkpt>
      <trkpt lat="45.27735" lon="4.27315">
        <ele>799.95</ele>
        <time>2011-10-15T08:56:13Z</time>
      </trkpt>
      <trkpt lat="45.27741" lon="4.27313">
        <ele>799.47</ele>
        <time>2011-10-15T08:56:14Z</time>
      </trkpt>
      <trkpt lat="45.27747" lon="4.2731">
        <ele>798.99</ele>
        <time>2011-10-15T08:56:15Z</time>
      </trkpt>
      <trkpt lat="45.27752" lon="4.27305">
        <ele>798.99</ele>
        <time>2011-10-15T08:56:16Z</time>
      </trkpt>
      <trkpt lat="45.27758" lon="4.273">
        <ele>798.03</ele>
        <time>2011-10-15T08:56:17Z</time>
      </trkpt>
      <trkpt lat="45.27763" lon="4.27295">
        <ele>797.55</ele>
        <time>2011-10-15T08:56:18Z</time>
      </trkpt>
      <trkpt lat="45.27766" lon="4.2729">
        <ele>797.07</ele>
        <time>2011-10-15T08:56:19Z</time>
      </trkpt>
      <trkpt lat="45.27777" lon="4.27275">
        <ele>794.67</ele>
        <time>2011-10-15T08:56:22Z</time>
      </trkpt>
      <trkpt lat="45.2778" lon="4.2727">
        <ele>794.19</ele>
        <time>2011-10-15T08:56:23Z</time>
      </trkpt>
      <trkpt lat="45.27784" lon="4.27265">
        <ele>793.22</ele>
        <time>2011-10-15T08:56:24Z</time>
      </trkpt>
      <trkpt lat="45.27788" lon="4.27259">
        <ele>792.26</ele>
        <time>2011-10-15T08:56:25Z</time>
      </trkpt>
      <trkpt lat="45.27792" lon="4.27253">
        <ele>791.78</ele>
        <time>2011-10-15T08:56:26Z</time>
      </trkpt>
      <trkpt lat="45.27795" lon="4.27249">
        <ele>790.82</ele>
        <time>2011-10-15T08:56:27Z</time>
      </trkpt>
      <trkpt lat="45.27799" lon="4.27246">
        <ele>790.34</ele>
        <time>2011-10-15T08:56:28Z</time>
      </trkpt>
      <trkpt lat="45.27804" lon="4.27243">
        <ele>789.38</ele>
        <time>2011-10-15T08:56:29Z</time>
      </trkpt>
      <trkpt lat="45.27813" lon="4.27237">
        <ele>787.46</ele>
        <time>2011-10-15T08:56:31Z</time>
      </trkpt>
      <trkpt lat="45.27818" lon="4.27233">
        <ele>786.5</ele>
        <time>2011-10-15T08:56:32Z</time>
      </trkpt>
      <trkpt lat="45.27822" lon="4.27229">
        <ele>786.02</ele>
        <time>2011-10-15T08:56:33Z</time>
      </trkpt>
      <trkpt lat="45.27825" lon="4.27225">
        <ele>785.05</ele>
        <time>2011-10-15T08:56:34Z</time>
      </trkpt>
      <trkpt lat="45.27827" lon="4.27221">
        <ele>784.09</ele>
        <time>2011-10-15T08:56:35Z</time>
      </trkpt>
      <trkpt lat="45.27834" lon="4.27207">
        <ele>781.21</ele>
        <time>2011-10-15T08:56:38Z</time>
      </trkpt>
      <trkpt lat="45.2785" lon="4.27179">
        <ele>772.08</ele>
        <time>2011-10-15T08:56:45Z</time>
      </trkpt>
      <trkpt lat="45.27853" lon="4.27175">
        <ele>770.63</ele>
        <time>2011-10-15T08:56:46Z</time>
      </trkpt>
      <trkpt lat="45.27856" lon="4.2717">
        <ele>769.67</ele>
        <time>2011-10-15T08:56:47Z</time>
      </trkpt>
      <trkpt lat="45.27874" lon="4.27135">
        <ele>761.98</ele>
        <time>2011-10-15T08:56:55Z</time>
      </trkpt>
      <trkpt lat="45.2788" lon="4.27113">
        <ele>756.21</ele>
        <time>2011-10-15T08:56:59Z</time>
      </trkpt>
      <trkpt lat="45.27883" lon="4.27096">
        <ele>753.81</ele>
        <time>2011-10-15T08:57:01Z</time>
      </trkpt>
      <trkpt lat="45.27885" lon="4.27087">
        <ele>752.37</ele>
        <time>2011-10-15T08:57:02Z</time>
      </trkpt>
      <trkpt lat="45.27885" lon="4.27078">
        <ele>751.41</ele>
        <time>2011-10-15T08:57:03Z</time>
      </trkpt>
      <trkpt lat="45.27885" lon="4.27068">
        <ele>750.45</ele>
        <time>2011-10-15T08:57:04Z</time>
      </trkpt>
      <trkpt lat="45.27885" lon="4.27059">
        <ele>749.49</ele>
        <time>2011-10-15T08:57:05Z</time>
      </trkpt>
      <trkpt lat="45.27887" lon="4.27052">
        <ele>748.04</ele>
        <time>2011-10-15T08:57:06Z</time>
      </trkpt>
      <trkpt lat="45.2789" lon="4.27046">
        <ele>747.08</ele>
        <time>2011-10-15T08:57:07Z</time>
      </trkpt>
      <trkpt lat="45.27893" lon="4.2704">
        <ele>746.12</ele>
        <time>2011-10-15T08:57:08Z</time>
      </trkpt>
      <trkpt lat="45.279" lon="4.27029">
        <ele>744.68</ele>
        <time>2011-10-15T08:57:10Z</time>
      </trkpt>
      <trkpt lat="45.27903" lon="4.27023">
        <ele>744.2</ele>
        <time>2011-10-15T08:57:11Z</time>
      </trkpt>
      <trkpt lat="45.27905" lon="4.27018">
        <ele>744.2</ele>
        <time>2011-10-15T08:57:12Z</time>
      </trkpt>
      <trkpt lat="45.27914" lon="4.26999">
        <ele>742.28</ele>
        <time>2011-10-15T08:57:16Z</time>
      </trkpt>
      <trkpt lat="45.27916" lon="4.26993">
        <ele>741.31</ele>
        <time>2011-10-15T08:57:17Z</time>
      </trkpt>
      <trkpt lat="45.27918" lon="4.26986">
        <ele>740.83</ele>
        <time>2011-10-15T08:57:18Z</time>
      </trkpt>
      <trkpt lat="45.27921" lon="4.26973">
        <ele>739.39</ele>
        <time>2011-10-15T08:57:20Z</time>
      </trkpt>
      <trkpt lat="45.27923" lon="4.26966">
        <ele>738.91</ele>
        <time>2011-10-15T08:57:21Z</time>
      </trkpt>
      <trkpt lat="45.27925" lon="4.26958">
        <ele>738.43</ele>
        <time>2011-10-15T08:57:22Z</time>
      </trkpt>
      <trkpt lat="45.27926" lon="4.2695">
        <ele>737.95</ele>
        <time>2011-10-15T08:57:23Z</time>
      </trkpt>
      <trkpt lat="45.27929" lon="4.26943">
        <ele>737.95</ele>
        <time>2011-10-15T08:57:24Z</time>
      </trkpt>
      <trkpt lat="45.27933" lon="4.26936">
        <ele>737.47</ele>
        <time>2011-10-15T08:57:25Z</time>
      </trkpt>
      <trkpt lat="45.27936" lon="4.2693">
        <ele>737.95</ele>
        <time>2011-10-15T08:57:26Z</time>
      </trkpt>
      <trkpt lat="45.27939" lon="4.26924">
        <ele>737.95</ele>
        <time>2011-10-15T08:57:27Z</time>
      </trkpt>
      <trkpt lat="45.27942" lon="4.2692">
        <ele>738.43</ele>
        <time>2011-10-15T08:57:28Z</time>
      </trkpt>
      <trkpt lat="45.27945" lon="4.26916">
        <ele>738.91</ele>
        <time>2011-10-15T08:57:29Z</time>
      </trkpt>
      <trkpt lat="45.27948" lon="4.26912">
        <ele>739.39</ele>
        <time>2011-10-15T08:57:30Z</time>
      </trkpt>
      <trkpt lat="45.27951" lon="4.26909">
        <ele>739.87</ele>
        <time>2011-10-15T08:57:31Z</time>
      </trkpt>
      <trkpt lat="45.27952" lon="4.26906">
        <ele>739.39</ele>
        <time>2011-10-15T08:57:32Z</time>
      </trkpt>
      <trkpt lat="45.27955" lon="4.26903">
        <ele>739.39</ele>
        <time>2011-10-15T08:57:33Z</time>
      </trkpt>
      <trkpt lat="45.27957" lon="4.26899">
        <ele>739.39</ele>
        <time>2011-10-15T08:57:34Z</time>
      </trkpt>
      <trkpt lat="45.27969" lon="4.26872">
        <ele>737.95</ele>
        <time>2011-10-15T08:57:40Z</time>
      </trkpt>
      <trkpt lat="45.27971" lon="4.26866">
        <ele>737.47</ele>
        <time>2011-10-15T08:57:41Z</time>
      </trkpt>
      <trkpt lat="45.27971" lon="4.26859">
        <ele>736.99</ele>
        <time>2011-10-15T08:57:42Z</time>
      </trkpt>
      <trkpt lat="45.2797" lon="4.26852">
        <ele>736.51</ele>
        <time>2011-10-15T08:57:43Z</time>
      </trkpt>
      <trkpt lat="45.27971" lon="4.26846">
        <ele>735.55</ele>
        <time>2011-10-15T08:57:44Z</time>
      </trkpt>
      <trkpt lat="45.27973" lon="4.2684">
        <ele>735.07</ele>
        <time>2011-10-15T08:57:45Z</time>
      </trkpt>
      <trkpt lat="45.27976" lon="4.26835">
        <ele>735.07</ele>
        <time>2011-10-15T08:57:46Z</time>
      </trkpt>
      <trkpt lat="45.27979" lon="4.2683">
        <ele>734.58</ele>
        <time>2011-10-15T08:57:47Z</time>
      </trkpt>
      <trkpt lat="45.27982" lon="4.26825">
        <ele>734.58</ele>
        <time>2011-10-15T08:57:48Z</time>
      </trkpt>
      <trkpt lat="45.27985" lon="4.2682">
        <ele>734.58</ele>
        <time>2011-10-15T08:57:49Z</time>
      </trkpt>
      <trkpt lat="45.28005" lon="4.26783">
        <ele>734.1</ele>
        <time>2011-10-15T08:57:57Z</time>
      </trkpt>
      <trkpt lat="45.28009" lon="4.26777">
        <ele>734.58</ele>
        <time>2011-10-15T08:57:58Z</time>
      </trkpt>
      <trkpt lat="45.28017" lon="4.26764">
        <ele>734.1</ele>
        <time>2011-10-15T08:58:00Z</time>
      </trkpt>
      <trkpt lat="45.28035" lon="4.2673">
        <ele>733.62</ele>
        <time>2011-10-15T08:58:05Z</time>
      </trkpt>
      <trkpt lat="45.2804" lon="4.26726">
        <ele>733.62</ele>
        <time>2011-10-15T08:58:06Z</time>
      </trkpt>
      <trkpt lat="45.28067" lon="4.267">
        <ele>737.95</ele>
        <time>2011-10-15T08:58:15Z</time>
      </trkpt>
      <trkpt lat="45.28096" lon="4.26688">
        <ele>743.24</ele>
        <time>2011-10-15T08:58:23Z</time>
      </trkpt>
      <trkpt lat="45.28118" lon="4.26683">
        <ele>744.2</ele>
        <time>2011-10-15T08:58:28Z</time>
      </trkpt>
      <trkpt lat="45.28123" lon="4.26682">
        <ele>744.2</ele>
        <time>2011-10-15T08:58:29Z</time>
      </trkpt>
      <trkpt lat="45.28159" lon="4.26682">
        <ele>745.16</ele>
        <time>2011-10-15T08:58:39Z</time>
      </trkpt>
      <trkpt lat="45.28168" lon="4.26683">
        <ele>744.68</ele>
        <time>2011-10-15T08:58:43Z</time>
      </trkpt>
      <trkpt lat="45.2817" lon="4.26684">
        <ele>744.68</ele>
        <time>2011-10-15T08:58:44Z</time>
      </trkpt>
      <trkpt lat="45.28172" lon="4.26684">
        <ele>744.68</ele>
        <time>2011-10-15T08:58:45Z</time>
      </trkpt>
      <trkpt lat="45.28174" lon="4.26685">
        <ele>745.16</ele>
        <time>2011-10-15T08:58:46Z</time>
      </trkpt>
      <trkpt lat="45.28176" lon="4.26686">
        <ele>745.16</ele>
        <time>2011-10-15T08:58:47Z</time>
      </trkpt>
      <trkpt lat="45.28178" lon="4.26687">
        <ele>745.64</ele>
        <time>2011-10-15T08:58:48Z</time>
      </trkpt>
      <trkpt lat="45.28181" lon="4.26688">
        <ele>746.6</ele>
        <time>2011-10-15T08:58:49Z</time>
      </trkpt>
      <trkpt lat="45.28206" lon="4.26695">
        <ele>750.93</ele>
        <time>2011-10-15T08:58:59Z</time>
      </trkpt>
      <trkpt lat="45.28228" lon="4.26721">
        <ele>749.49</ele>
        <time>2011-10-15T08:59:07Z</time>
      </trkpt>
      <trkpt lat="45.28249" lon="4.26742">
        <ele>746.12</ele>
        <time>2011-10-15T08:59:13Z</time>
      </trkpt>
      <trkpt lat="45.28251" lon="4.26749">
        <ele>746.12</ele>
        <time>2011-10-15T08:59:14Z</time>
      </trkpt>
      <trkpt lat="45.28251" lon="4.26755">
        <ele>745.64</ele>
        <time>2011-10-15T08:59:15Z</time>
      </trkpt>
      <trkpt lat="45.28248" lon="4.26758">
        <ele>745.64</ele>
        <time>2011-10-15T08:59:16Z</time>
      </trkpt>
      <trkpt lat="45.28246" lon="4.26762">
        <ele>745.64</ele>
        <time>2011-10-15T08:59:17Z</time>
      </trkpt>
      <trkpt lat="45.28245" lon="4.26766">
        <ele>745.16</ele>
        <time>2011-10-15T08:59:18Z</time>
      </trkpt>
      <trkpt lat="45.28252" lon="4.26774">
        <ele>743.72</ele>
        <time>2011-10-15T08:59:23Z</time>
      </trkpt>
      <trkpt lat="45.28277" lon="4.26753">
        <ele>744.2</ele>
        <time>2011-10-15T08:59:32Z</time>
      </trkpt>
      <trkpt lat="45.28315" lon="4.26717">
        <ele>747.08</ele>
        <time>2011-10-15T08:59:44Z</time>
      </trkpt>
      <trkpt lat="45.28341" lon="4.2669">
        <ele>748.04</ele>
        <time>2011-10-15T08:59:53Z</time>
      </trkpt>
      <trkpt lat="45.2838" lon="4.2666">
        <ele>748.04</ele>
        <time>2011-10-15T09:00:03Z</time>
      </trkpt>
      <trkpt lat="45.28386" lon="4.2666">
        <ele>748.04</ele>
        <time>2011-10-15T09:00:04Z</time>
      </trkpt>
      <trkpt lat="45.28392" lon="4.26661">
        <ele>747.56</ele>
        <time>2011-10-15T09:00:05Z</time>
      </trkpt>
      <trkpt lat="45.28399" lon="4.26659">
        <ele>747.08</ele>
        <time>2011-10-15T09:00:06Z</time>
      </trkpt>
      <trkpt lat="45.28405" lon="4.26658">
        <ele>746.6</ele>
        <time>2011-10-15T09:00:07Z</time>
      </trkpt>
      <trkpt lat="45.28411" lon="4.26656">
        <ele>746.6</ele>
        <time>2011-10-15T09:00:08Z</time>
      </trkpt>
      <trkpt lat="45.28423" lon="4.26651">
        <ele>746.12</ele>
        <time>2011-10-15T09:00:10Z</time>
      </trkpt>
      <trkpt lat="45.28428" lon="4.26648">
        <ele>746.12</ele>
        <time>2011-10-15T09:00:11Z</time>
      </trkpt>
      <trkpt lat="45.28432" lon="4.26645">
        <ele>746.12</ele>
        <time>2011-10-15T09:00:12Z</time>
      </trkpt>
      <trkpt lat="45.28446" lon="4.26636">
        <ele>745.16</ele>
        <time>2011-10-15T09:00:15Z</time>
      </trkpt>
      <trkpt lat="45.28452" lon="4.26634">
        <ele>744.68</ele>
        <time>2011-10-15T09:00:16Z</time>
      </trkpt>
      <trkpt lat="45.28458" lon="4.26633">
        <ele>744.2</ele>
        <time>2011-10-15T09:00:17Z</time>
      </trkpt>
      <trkpt lat="45.2847" lon="4.26632">
        <ele>742.76</ele>
        <time>2011-10-15T09:00:19Z</time>
      </trkpt>
      <trkpt lat="45.28521" lon="4.26637">
        <ele>739.87</ele>
        <time>2011-10-15T09:00:27Z</time>
      </trkpt>
      <trkpt lat="45.28548" lon="4.26635">
        <ele>738.91</ele>
        <time>2011-10-15T09:00:31Z</time>
      </trkpt>
      <trkpt lat="45.28561" lon="4.26631">
        <ele>738.43</ele>
        <time>2011-10-15T09:00:33Z</time>
      </trkpt>
      <trkpt lat="45.28567" lon="4.26627">
        <ele>737.95</ele>
        <time>2011-10-15T09:00:34Z</time>
      </trkpt>
      <trkpt lat="45.28574" lon="4.26623">
        <ele>737.95</ele>
        <time>2011-10-15T09:00:35Z</time>
      </trkpt>
      <trkpt lat="45.2858" lon="4.26619">
        <ele>737.47</ele>
        <time>2011-10-15T09:00:36Z</time>
      </trkpt>
      <trkpt lat="45.28586" lon="4.26615">
        <ele>736.99</ele>
        <time>2011-10-15T09:00:37Z</time>
      </trkpt>
      <trkpt lat="45.2862" lon="4.26595">
        <ele>735.07</ele>
        <time>2011-10-15T09:00:43Z</time>
      </trkpt>
      <trkpt lat="45.28626" lon="4.26594">
        <ele>735.07</ele>
        <time>2011-10-15T09:00:44Z</time>
      </trkpt>
      <trkpt lat="45.28654" lon="4.26588">
        <ele>734.58</ele>
        <time>2011-10-15T09:00:49Z</time>
      </trkpt>
      <trkpt lat="45.28659" lon="4.26587">
        <ele>734.58</ele>
        <time>2011-10-15T09:00:50Z</time>
      </trkpt>
      <trkpt lat="45.28665" lon="4.26585">
        <ele>735.07</ele>
        <time>2011-10-15T09:00:51Z</time>
      </trkpt>
      <trkpt lat="45.28671" lon="4.26582">
        <ele>735.07</ele>
        <time>2011-10-15T09:00:52Z</time>
      </trkpt>
      <trkpt lat="45.28677" lon="4.26579">
        <ele>735.07</ele>
        <time>2011-10-15T09:00:53Z</time>
      </trkpt>
      <trkpt lat="45.28683" lon="4.26574">
        <ele>735.07</ele>
        <time>2011-10-15T09:00:54Z</time>
      </trkpt>
      <trkpt lat="45.2871" lon="4.26554">
        <ele>735.07</ele>
        <time>2011-10-15T09:00:59Z</time>
      </trkpt>
      <trkpt lat="45.28716" lon="4.26552">
        <ele>735.07</ele>
        <time>2011-10-15T09:01:00Z</time>
      </trkpt>
      <trkpt lat="45.28722" lon="4.2655">
        <ele>735.07</ele>
        <time>2011-10-15T09:01:01Z</time>
      </trkpt>
      <trkpt lat="45.28734" lon="4.26544">
        <ele>734.58</ele>
        <time>2011-10-15T09:01:04Z</time>
      </trkpt>
      <trkpt lat="45.28737" lon="4.26541">
        <ele>734.58</ele>
        <time>2011-10-15T09:01:05Z</time>
      </trkpt>
      <trkpt lat="45.28739" lon="4.2654">
        <ele>734.1</ele>
        <time>2011-10-15T09:01:06Z</time>
      </trkpt>
      <trkpt lat="45.2874" lon="4.26539">
        <ele>734.1</ele>
        <time>2011-10-15T09:01:07Z</time>
      </trkpt>
      <trkpt lat="45.28741" lon="4.26537">
        <ele>734.1</ele>
        <time>2011-10-15T09:01:08Z</time>
      </trkpt>
      <trkpt lat="45.28743" lon="4.26537">
        <ele>733.62</ele>
        <time>2011-10-15T09:01:09Z</time>
      </trkpt>
      <trkpt lat="45.28745" lon="4.26536">
        <ele>733.62</ele>
        <time>2011-10-15T09:01:10Z</time>
      </trkpt>
      <trkpt lat="45.28747" lon="4.26535">
        <ele>733.14</ele>
        <time>2011-10-15T09:01:11Z</time>
      </trkpt>
      <trkpt lat="45.2875" lon="4.26534">
        <ele>733.14</ele>
        <time>2011-10-15T09:01:12Z</time>
      </trkpt>
      <trkpt lat="45.28752" lon="4.26533">
        <ele>732.66</ele>
        <time>2011-10-15T09:01:13Z</time>
      </trkpt>
      <trkpt lat="45.28754" lon="4.26532">
        <ele>732.66</ele>
        <time>2011-10-15T09:01:14Z</time>
      </trkpt>
      <trkpt lat="45.28776" lon="4.26523">
        <ele>729.78</ele>
        <time>2011-10-15T09:01:23Z</time>
      </trkpt>
      <trkpt lat="45.28779" lon="4.26524">
        <ele>729.3</ele>
        <time>2011-10-15T09:01:24Z</time>
      </trkpt>
      <trkpt lat="45.28784" lon="4.26522">
        <ele>728.34</ele>
        <time>2011-10-15T09:01:26Z</time>
      </trkpt>
      <trkpt lat="45.28786" lon="4.2652">
        <ele>727.86</ele>
        <time>2011-10-15T09:01:27Z</time>
      </trkpt>
      <trkpt lat="45.2879" lon="4.26519">
        <ele>727.37</ele>
        <time>2011-10-15T09:01:28Z</time>
      </trkpt>
      <trkpt lat="45.28799" lon="4.26516">
        <ele>727.37</ele>
        <time>2011-10-15T09:01:31Z</time>
      </trkpt>
      <trkpt lat="45.28801" lon="4.26515">
        <ele>726.89</ele>
        <time>2011-10-15T09:01:32Z</time>
      </trkpt>
      <trkpt lat="45.28808" lon="4.26513">
        <ele>726.41</ele>
        <time>2011-10-15T09:01:36Z</time>
      </trkpt>
      <trkpt lat="45.28809" lon="4.26511">
        <ele>726.41</ele>
        <time>2011-10-15T09:01:37Z</time>
      </trkpt>
      <trkpt lat="45.28818" lon="4.26501">
        <ele>725.93</ele>
        <time>2011-10-15T09:01:45Z</time>
      </trkpt>
      <trkpt lat="45.28834" lon="4.26512">
        <ele>729.3</ele>
        <time>2011-10-15T09:01:51Z</time>
      </trkpt>
      <trkpt lat="45.28847" lon="4.26524">
        <ele>732.18</ele>
        <time>2011-10-15T09:01:56Z</time>
      </trkpt>
      <trkpt lat="45.28852" lon="4.26525">
        <ele>733.62</ele>
        <time>2011-10-15T09:01:57Z</time>
      </trkpt>
      <trkpt lat="45.28856" lon="4.26527">
        <ele>734.58</ele>
        <time>2011-10-15T09:01:58Z</time>
      </trkpt>
      <trkpt lat="45.28859" lon="4.26529">
        <ele>735.07</ele>
        <time>2011-10-15T09:01:59Z</time>
      </trkpt>
      <trkpt lat="45.28873" lon="4.2655">
        <ele>739.87</ele>
        <time>2011-10-15T09:02:07Z</time>
      </trkpt>
      <trkpt lat="45.28875" lon="4.26557">
        <ele>741.31</ele>
        <time>2011-10-15T09:02:12Z</time>
      </trkpt>
      <trkpt lat="45.28889" lon="4.26569">
        <ele>743.24</ele>
        <time>2011-10-15T09:02:18Z</time>
      </trkpt>
      <trkpt lat="45.28903" lon="4.26578">
        <ele>747.56</ele>
        <time>2011-10-15T09:02:25Z</time>
      </trkpt>
      <trkpt lat="45.28906" lon="4.26582">
        <ele>748.04</ele>
        <time>2011-10-15T09:02:27Z</time>
      </trkpt>
      <trkpt lat="45.2891" lon="4.26588">
        <ele>749.49</ele>
        <time>2011-10-15T09:02:30Z</time>
      </trkpt>
      <trkpt lat="45.28916" lon="4.26586">
        <ele>751.41</ele>
        <time>2011-10-15T09:02:38Z</time>
      </trkpt>
      <trkpt lat="45.28914" lon="4.26583">
        <ele>751.41</ele>
        <time>2011-10-15T09:02:41Z</time>
      </trkpt>
      <trkpt lat="45.28915" lon="4.26565">
        <ele>751.89</ele>
        <time>2011-10-15T09:02:48Z</time>
      </trkpt>
      <trkpt lat="45.28912" lon="4.26555">
        <ele>752.37</ele>
        <time>2011-10-15T09:02:52Z</time>
      </trkpt>
      <trkpt lat="45.28912" lon="4.26549">
        <ele>752.85</ele>
        <time>2011-10-15T09:02:55Z</time>
      </trkpt>
      <trkpt lat="45.28915" lon="4.26532">
        <ele>753.33</ele>
        <time>2011-10-15T09:03:02Z</time>
      </trkpt>
      <trkpt lat="45.2892" lon="4.26514">
        <ele>759.1</ele>
        <time>2011-10-15T09:03:12Z</time>
      </trkpt>
      <trkpt lat="45.28933" lon="4.26497">
        <ele>764.87</ele>
        <time>2011-10-15T09:03:23Z</time>
      </trkpt>
      <trkpt lat="45.2894" lon="4.26489">
        <ele>764.87</ele>
        <time>2011-10-15T09:03:28Z</time>
      </trkpt>
      <trkpt lat="45.2896" lon="4.2647">
        <ele>764.87</ele>
        <time>2011-10-15T09:03:42Z</time>
      </trkpt>
      <trkpt lat="45.28982" lon="4.26449">
        <ele>762.94</ele>
        <time>2011-10-15T09:03:52Z</time>
      </trkpt>
      <trkpt lat="45.29009" lon="4.26425">
        <ele>760.06</ele>
        <time>2011-10-15T09:03:59Z</time>
      </trkpt>
      <trkpt lat="45.29011" lon="4.26421">
        <ele>759.58</ele>
        <time>2011-10-15T09:04:00Z</time>
      </trkpt>
      <trkpt lat="45.29013" lon="4.26416">
        <ele>758.62</ele>
        <time>2011-10-15T09:04:01Z</time>
      </trkpt>
      <trkpt lat="45.29015" lon="4.26412">
        <ele>757.66</ele>
        <time>2011-10-15T09:04:02Z</time>
      </trkpt>
      <trkpt lat="45.29017" lon="4.26409">
        <ele>757.18</ele>
        <time>2011-10-15T09:04:03Z</time>
      </trkpt>
      <trkpt lat="45.29019" lon="4.26406">
        <ele>756.69</ele>
        <time>2011-10-15T09:04:04Z</time>
      </trkpt>
      <trkpt lat="45.29021" lon="4.26403">
        <ele>756.21</ele>
        <time>2011-10-15T09:04:05Z</time>
      </trkpt>
      <trkpt lat="45.29023" lon="4.264">
        <ele>756.21</ele>
        <time>2011-10-15T09:04:06Z</time>
      </trkpt>
      <trkpt lat="45.29026" lon="4.26395">
        <ele>755.73</ele>
        <time>2011-10-15T09:04:07Z</time>
      </trkpt>
      <trkpt lat="45.29028" lon="4.26391">
        <ele>755.25</ele>
        <time>2011-10-15T09:04:08Z</time>
      </trkpt>
      <trkpt lat="45.29037" lon="4.26375">
        <ele>753.33</ele>
        <time>2011-10-15T09:04:11Z</time>
      </trkpt>
      <trkpt lat="45.29041" lon="4.26368">
        <ele>752.37</ele>
        <time>2011-10-15T09:04:12Z</time>
      </trkpt>
      <trkpt lat="45.29044" lon="4.2636">
        <ele>751.41</ele>
        <time>2011-10-15T09:04:13Z</time>
      </trkpt>
      <trkpt lat="45.29077" lon="4.2627">
        <ele>743.24</ele>
        <time>2011-10-15T09:04:22Z</time>
      </trkpt>
      <trkpt lat="45.29086" lon="4.26238">
        <ele>740.35</ele>
        <time>2011-10-15T09:04:25Z</time>
      </trkpt>
      <trkpt lat="45.29092" lon="4.2622">
        <ele>738.91</ele>
        <time>2011-10-15T09:04:27Z</time>
      </trkpt>
      <trkpt lat="45.29117" lon="4.26168">
        <ele>734.58</ele>
        <time>2011-10-15T09:04:35Z</time>
      </trkpt>
      <trkpt lat="45.29144" lon="4.26122">
        <ele>730.74</ele>
        <time>2011-10-15T09:04:44Z</time>
      </trkpt>
      <trkpt lat="45.29154" lon="4.26103">
        <ele>728.82</ele>
        <time>2011-10-15T09:04:53Z</time>
      </trkpt>
      <trkpt lat="45.29151" lon="4.26092">
        <ele>725.93</ele>
        <time>2011-10-15T09:05:01Z</time>
      </trkpt>
      <trkpt lat="45.29148" lon="4.26085">
        <ele>724.01</ele>
        <time>2011-10-15T09:05:10Z</time>
      </trkpt>
      <trkpt lat="45.29156" lon="4.26074">
        <ele>722.57</ele>
        <time>2011-10-15T09:05:15Z</time>
      </trkpt>
      <trkpt lat="45.29158" lon="4.26051">
        <ele>720.65</ele>
        <time>2011-10-15T09:05:20Z</time>
      </trkpt>
      <trkpt lat="45.29163" lon="4.26024">
        <ele>720.65</ele>
        <time>2011-10-15T09:05:25Z</time>
      </trkpt>
      <trkpt lat="45.29174" lon="4.25983">
        <ele>719.68</ele>
        <time>2011-10-15T09:05:32Z</time>
      </trkpt>
      <trkpt lat="45.29193" lon="4.25929">
        <ele>719.2</ele>
        <time>2011-10-15T09:05:41Z</time>
      </trkpt>
      <trkpt lat="45.29193" lon="4.25892">
        <ele>720.16</ele>
        <time>2011-10-15T09:05:50Z</time>
      </trkpt>
      <trkpt lat="45.29193" lon="4.25886">
        <ele>721.13</ele>
        <time>2011-10-15T09:06:01Z</time>
      </trkpt>
      <trkpt lat="45.29196" lon="4.25877">
        <ele>721.13</ele>
        <time>2011-10-15T09:06:07Z</time>
      </trkpt>
      <trkpt lat="45.29204" lon="4.25869">
        <ele>721.61</ele>
        <time>2011-10-15T09:06:11Z</time>
      </trkpt>
      <trkpt lat="45.29211" lon="4.25855">
        <ele>719.2</ele>
        <time>2011-10-15T09:06:22Z</time>
      </trkpt>
      <trkpt lat="45.29217" lon="4.25843">
        <ele>718.72</ele>
        <time>2011-10-15T09:06:34Z</time>
      </trkpt>
      <trkpt lat="45.29223" lon="4.25836">
        <ele>719.68</ele>
        <time>2011-10-15T09:06:44Z</time>
      </trkpt>
      <trkpt lat="45.29227" lon="4.25829">
        <ele>720.16</ele>
        <time>2011-10-15T09:06:50Z</time>
      </trkpt>
      <trkpt lat="45.29225" lon="4.25815">
        <ele>715.84</ele>
        <time>2011-10-15T09:06:58Z</time>
      </trkpt>
      <trkpt lat="45.29233" lon="4.25791">
        <ele>716.32</ele>
        <time>2011-10-15T09:07:06Z</time>
      </trkpt>
      <trkpt lat="45.29235" lon="4.2577">
        <ele>715.84</ele>
        <time>2011-10-15T09:07:11Z</time>
      </trkpt>
      <trkpt lat="45.29236" lon="4.25739">
        <ele>715.36</ele>
        <time>2011-10-15T09:07:18Z</time>
      </trkpt>
      <trkpt lat="45.29231" lon="4.25681">
        <ele>714.88</ele>
        <time>2011-10-15T09:07:27Z</time>
      </trkpt>
      <trkpt lat="45.29224" lon="4.25653">
        <ele>715.36</ele>
        <time>2011-10-15T09:07:33Z</time>
      </trkpt>
      <trkpt lat="45.29219" lon="4.25632">
        <ele>715.36</ele>
        <time>2011-10-15T09:07:37Z</time>
      </trkpt>
      <trkpt lat="45.29216" lon="4.25612">
        <ele>715.36</ele>
        <time>2011-10-15T09:07:40Z</time>
      </trkpt>
      <trkpt lat="45.29216" lon="4.25606">
        <ele>715.36</ele>
        <time>2011-10-15T09:07:41Z</time>
      </trkpt>
      <trkpt lat="45.29218" lon="4.256">
        <ele>715.36</ele>
        <time>2011-10-15T09:07:42Z</time>
      </trkpt>
      <trkpt lat="45.29224" lon="4.25588">
        <ele>715.36</ele>
        <time>2011-10-15T09:07:44Z</time>
      </trkpt>
      <trkpt lat="45.29226" lon="4.2558">
        <ele>715.36</ele>
        <time>2011-10-15T09:07:45Z</time>
      </trkpt>
      <trkpt lat="45.29228" lon="4.25571">
        <ele>715.36</ele>
        <time>2011-10-15T09:07:46Z</time>
      </trkpt>
      <trkpt lat="45.29231" lon="4.25561">
        <ele>715.36</ele>
        <time>2011-10-15T09:07:47Z</time>
      </trkpt>
      <trkpt lat="45.29234" lon="4.25552">
        <ele>715.36</ele>
        <time>2011-10-15T09:07:48Z</time>
      </trkpt>
      <trkpt lat="45.29236" lon="4.25543">
        <ele>715.36</ele>
        <time>2011-10-15T09:07:49Z</time>
      </trkpt>
      <trkpt lat="45.29239" lon="4.25536">
        <ele>715.36</ele>
        <time>2011-10-15T09:07:50Z</time>
      </trkpt>
      <trkpt lat="45.29247" lon="4.25512">
        <ele>715.36</ele>
        <time>2011-10-15T09:07:53Z</time>
      </trkpt>
      <trkpt lat="45.2925" lon="4.25507">
        <ele>715.36</ele>
        <time>2011-10-15T09:07:54Z</time>
      </trkpt>
      <trkpt lat="45.29254" lon="4.25501">
        <ele>715.36</ele>
        <time>2011-10-15T09:07:55Z</time>
      </trkpt>
      <trkpt lat="45.29257" lon="4.25496">
        <ele>714.88</ele>
        <time>2011-10-15T09:07:56Z</time>
      </trkpt>
      <trkpt lat="45.2926" lon="4.25492">
        <ele>714.88</ele>
        <time>2011-10-15T09:07:57Z</time>
      </trkpt>
      <trkpt lat="45.29263" lon="4.25488">
        <ele>714.88</ele>
        <time>2011-10-15T09:07:58Z</time>
      </trkpt>
      <trkpt lat="45.29267" lon="4.25485">
        <ele>714.88</ele>
        <time>2011-10-15T09:07:59Z</time>
      </trkpt>
      <trkpt lat="45.29286" lon="4.25473">
        <ele>715.84</ele>
        <time>2011-10-15T09:08:03Z</time>
      </trkpt>
      <trkpt lat="45.2929" lon="4.25472">
        <ele>716.32</ele>
        <time>2011-10-15T09:08:04Z</time>
      </trkpt>
      <trkpt lat="45.29296" lon="4.25471">
        <ele>715.84</ele>
        <time>2011-10-15T09:08:05Z</time>
      </trkpt>
      <trkpt lat="45.293" lon="4.2547">
        <ele>715.84</ele>
        <time>2011-10-15T09:08:06Z</time>
      </trkpt>
      <trkpt lat="45.29305" lon="4.2547">
        <ele>715.36</ele>
        <time>2011-10-15T09:08:07Z</time>
      </trkpt>
      <trkpt lat="45.29309" lon="4.2547">
        <ele>714.88</ele>
        <time>2011-10-15T09:08:08Z</time>
      </trkpt>
      <trkpt lat="45.29314" lon="4.25469">
        <ele>714.88</ele>
        <time>2011-10-15T09:08:09Z</time>
      </trkpt>
      <trkpt lat="45.29319" lon="4.25467">
        <ele>714.4</ele>
        <time>2011-10-15T09:08:10Z</time>
      </trkpt>
      <trkpt lat="45.29325" lon="4.25465">
        <ele>714.4</ele>
        <time>2011-10-15T09:08:11Z</time>
      </trkpt>
      <trkpt lat="45.2933" lon="4.25462">
        <ele>713.92</ele>
        <time>2011-10-15T09:08:12Z</time>
      </trkpt>
      <trkpt lat="45.29335" lon="4.25458">
        <ele>713.92</ele>
        <time>2011-10-15T09:08:13Z</time>
      </trkpt>
      <trkpt lat="45.2934" lon="4.25454">
        <ele>713.92</ele>
        <time>2011-10-15T09:08:14Z</time>
      </trkpt>
      <trkpt lat="45.29343" lon="4.25449">
        <ele>713.44</ele>
        <time>2011-10-15T09:08:15Z</time>
      </trkpt>
      <trkpt lat="45.29345" lon="4.25443">
        <ele>712.47</ele>
        <time>2011-10-15T09:08:16Z</time>
      </trkpt>
      <trkpt lat="45.29355" lon="4.25415">
        <ele>711.51</ele>
        <time>2011-10-15T09:08:21Z</time>
      </trkpt>
      <trkpt lat="45.29358" lon="4.2541">
        <ele>711.51</ele>
        <time>2011-10-15T09:08:22Z</time>
      </trkpt>
      <trkpt lat="45.29361" lon="4.25404">
        <ele>711.51</ele>
        <time>2011-10-15T09:08:23Z</time>
      </trkpt>
      <trkpt lat="45.29363" lon="4.25398">
        <ele>711.51</ele>
        <time>2011-10-15T09:08:24Z</time>
      </trkpt>
      <trkpt lat="45.29365" lon="4.25391">
        <ele>711.51</ele>
        <time>2011-10-15T09:08:25Z</time>
      </trkpt>
      <trkpt lat="45.29368" lon="4.25385">
        <ele>711.51</ele>
        <time>2011-10-15T09:08:26Z</time>
      </trkpt>
      <trkpt lat="45.29374" lon="4.25372">
        <ele>711.03</ele>
        <time>2011-10-15T09:08:28Z</time>
      </trkpt>
      <trkpt lat="45.29377" lon="4.2535">
        <ele>711.03</ele>
        <time>2011-10-15T09:08:34Z</time>
      </trkpt>
      <trkpt lat="45.29378" lon="4.25346">
        <ele>711.03</ele>
        <time>2011-10-15T09:08:35Z</time>
      </trkpt>
      <trkpt lat="45.29379" lon="4.25341">
        <ele>711.03</ele>
        <time>2011-10-15T09:08:36Z</time>
      </trkpt>
      <trkpt lat="45.29379" lon="4.25337">
        <ele>711.03</ele>
        <time>2011-10-15T09:08:37Z</time>
      </trkpt>
      <trkpt lat="45.29381" lon="4.25333">
        <ele>711.03</ele>
        <time>2011-10-15T09:08:38Z</time>
      </trkpt>
      <trkpt lat="45.294" lon="4.25293">
        <ele>711.03</ele>
        <time>2011-10-15T09:08:47Z</time>
      </trkpt>
      <trkpt lat="45.29403" lon="4.25285">
        <ele>711.03</ele>
        <time>2011-10-15T09:08:49Z</time>
      </trkpt>
      <trkpt lat="45.29402" lon="4.25279">
        <ele>711.03</ele>
        <time>2011-10-15T09:08:50Z</time>
      </trkpt>
      <trkpt lat="45.29419" lon="4.2523">
        <ele>710.55</ele>
        <time>2011-10-15T09:08:59Z</time>
      </trkpt>
      <trkpt lat="45.29417" lon="4.25217">
        <ele>710.55</ele>
        <time>2011-10-15T09:09:00Z</time>
      </trkpt>
      <trkpt lat="45.29419" lon="4.25211">
        <ele>710.55</ele>
        <time>2011-10-15T09:09:01Z</time>
      </trkpt>
      <trkpt lat="45.29418" lon="4.25202">
        <ele>710.55</ele>
        <time>2011-10-15T09:09:02Z</time>
      </trkpt>
      <trkpt lat="45.29418" lon="4.25192">
        <ele>710.55</ele>
        <time>2011-10-15T09:09:03Z</time>
      </trkpt>
      <trkpt lat="45.29418" lon="4.25181">
        <ele>710.55</ele>
        <time>2011-10-15T09:09:04Z</time>
      </trkpt>
      <trkpt lat="45.29417" lon="4.2517">
        <ele>710.55</ele>
        <time>2011-10-15T09:09:05Z</time>
      </trkpt>
      <trkpt lat="45.29415" lon="4.25157">
        <ele>710.07</ele>
        <time>2011-10-15T09:09:06Z</time>
      </trkpt>
      <trkpt lat="45.29412" lon="4.25145">
        <ele>709.59</ele>
        <time>2011-10-15T09:09:07Z</time>
      </trkpt>
      <trkpt lat="45.29409" lon="4.25135">
        <ele>708.63</ele>
        <time>2011-10-15T09:09:08Z</time>
      </trkpt>
      <trkpt lat="45.29404" lon="4.25119">
        <ele>706.71</ele>
        <time>2011-10-15T09:09:09Z</time>
      </trkpt>
      <trkpt lat="45.29401" lon="4.25106">
        <ele>704.78</ele>
        <time>2011-10-15T09:09:10Z</time>
      </trkpt>
      <trkpt lat="45.29399" lon="4.25093">
        <ele>704.3</ele>
        <time>2011-10-15T09:09:11Z</time>
      </trkpt>
      <trkpt lat="45.29398" lon="4.25083">
        <ele>703.34</ele>
        <time>2011-10-15T09:09:12Z</time>
      </trkpt>
      <trkpt lat="45.29397" lon="4.25072">
        <ele>703.34</ele>
        <time>2011-10-15T09:09:13Z</time>
      </trkpt>
      <trkpt lat="45.29398" lon="4.25001">
        <ele>702.86</ele>
        <time>2011-10-15T09:09:21Z</time>
      </trkpt>
      <trkpt lat="45.294" lon="4.24994">
        <ele>702.86</ele>
        <time>2011-10-15T09:09:22Z</time>
      </trkpt>
      <trkpt lat="45.29403" lon="4.24988">
        <ele>703.34</ele>
        <time>2011-10-15T09:09:23Z</time>
      </trkpt>
      <trkpt lat="45.29407" lon="4.24985">
        <ele>703.82</ele>
        <time>2011-10-15T09:09:24Z</time>
      </trkpt>
      <trkpt lat="45.29411" lon="4.24983">
        <ele>704.78</ele>
        <time>2011-10-15T09:09:25Z</time>
      </trkpt>
      <trkpt lat="45.29416" lon="4.24981">
        <ele>705.26</ele>
        <time>2011-10-15T09:09:26Z</time>
      </trkpt>
      <trkpt lat="45.2943" lon="4.24975">
        <ele>707.67</ele>
        <time>2011-10-15T09:09:29Z</time>
      </trkpt>
      <trkpt lat="45.29432" lon="4.24971">
        <ele>707.67</ele>
        <time>2011-10-15T09:09:30Z</time>
      </trkpt>
      <trkpt lat="45.29433" lon="4.24967">
        <ele>707.67</ele>
        <time>2011-10-15T09:09:31Z</time>
      </trkpt>
      <trkpt lat="45.29433" lon="4.24962">
        <ele>708.15</ele>
        <time>2011-10-15T09:09:32Z</time>
      </trkpt>
      <trkpt lat="45.29432" lon="4.24958">
        <ele>708.15</ele>
        <time>2011-10-15T09:09:33Z</time>
      </trkpt>
      <trkpt lat="45.29431" lon="4.24952">
        <ele>708.15</ele>
        <time>2011-10-15T09:09:34Z</time>
      </trkpt>
      <trkpt lat="45.2942" lon="4.24905">
        <ele>708.63</ele>
        <time>2011-10-15T09:09:41Z</time>
      </trkpt>
      <trkpt lat="45.29416" lon="4.249">
        <ele>708.63</ele>
        <time>2011-10-15T09:09:42Z</time>
      </trkpt>
      <trkpt lat="45.29411" lon="4.24896">
        <ele>708.63</ele>
        <time>2011-10-15T09:09:43Z</time>
      </trkpt>
      <trkpt lat="45.29406" lon="4.24895">
        <ele>708.63</ele>
        <time>2011-10-15T09:09:44Z</time>
      </trkpt>
      <trkpt lat="45.29401" lon="4.24895">
        <ele>708.63</ele>
        <time>2011-10-15T09:09:45Z</time>
      </trkpt>
      <trkpt lat="45.29396" lon="4.24896">
        <ele>709.11</ele>
        <time>2011-10-15T09:09:46Z</time>
      </trkpt>
      <trkpt lat="45.29391" lon="4.24896">
        <ele>709.11</ele>
        <time>2011-10-15T09:09:47Z</time>
      </trkpt>
      <trkpt lat="45.29387" lon="4.24895">
        <ele>709.59</ele>
        <time>2011-10-15T09:09:48Z</time>
      </trkpt>
      <trkpt lat="45.29383" lon="4.24894">
        <ele>710.07</ele>
        <time>2011-10-15T09:09:49Z</time>
      </trkpt>
      <trkpt lat="45.2938" lon="4.24894">
        <ele>711.03</ele>
        <time>2011-10-15T09:09:50Z</time>
      </trkpt>
      <trkpt lat="45.29377" lon="4.24893">
        <ele>711.51</ele>
        <time>2011-10-15T09:09:51Z</time>
      </trkpt>
      <trkpt lat="45.29376" lon="4.24889">
        <ele>711.99</ele>
        <time>2011-10-15T09:09:52Z</time>
      </trkpt>
      <trkpt lat="45.29376" lon="4.24884">
        <ele>711.99</ele>
        <time>2011-10-15T09:09:53Z</time>
      </trkpt>
      <trkpt lat="45.29375" lon="4.24878">
        <ele>711.99</ele>
        <time>2011-10-15T09:09:54Z</time>
      </trkpt>
      <trkpt lat="45.29374" lon="4.24872">
        <ele>712.47</ele>
        <time>2011-10-15T09:09:55Z</time>
      </trkpt>
      <trkpt lat="45.29369" lon="4.24834">
        <ele>711.51</ele>
        <time>2011-10-15T09:10:00Z</time>
      </trkpt>
      <trkpt lat="45.29367" lon="4.24827">
        <ele>711.03</ele>
        <time>2011-10-15T09:10:01Z</time>
      </trkpt>
      <trkpt lat="45.29357" lon="4.2479">
        <ele>709.59</ele>
        <time>2011-10-15T09:10:06Z</time>
      </trkpt>
      <trkpt lat="45.29361" lon="4.24782">
        <ele>709.59</ele>
        <time>2011-10-15T09:10:08Z</time>
      </trkpt>
      <trkpt lat="45.29364" lon="4.24776">
        <ele>709.11</ele>
        <time>2011-10-15T09:10:09Z</time>
      </trkpt>
      <trkpt lat="45.29366" lon="4.2477">
        <ele>709.11</ele>
        <time>2011-10-15T09:10:10Z</time>
      </trkpt>
      <trkpt lat="45.29368" lon="4.24763">
        <ele>708.63</ele>
        <time>2011-10-15T09:10:11Z</time>
      </trkpt>
      <trkpt lat="45.2937" lon="4.24755">
        <ele>708.63</ele>
        <time>2011-10-15T09:10:12Z</time>
      </trkpt>
      <trkpt lat="45.29372" lon="4.24748">
        <ele>708.15</ele>
        <time>2011-10-15T09:10:13Z</time>
      </trkpt>
      <trkpt lat="45.29374" lon="4.24741">
        <ele>708.15</ele>
        <time>2011-10-15T09:10:14Z</time>
      </trkpt>
      <trkpt lat="45.29377" lon="4.24734">
        <ele>707.67</ele>
        <time>2011-10-15T09:10:15Z</time>
      </trkpt>
      <trkpt lat="45.2938" lon="4.24729">
        <ele>708.15</ele>
        <time>2011-10-15T09:10:16Z</time>
      </trkpt>
      <trkpt lat="45.29392" lon="4.24705">
        <ele>708.15</ele>
        <time>2011-10-15T09:10:20Z</time>
      </trkpt>
      <trkpt lat="45.29395" lon="4.247">
        <ele>708.15</ele>
        <time>2011-10-15T09:10:21Z</time>
      </trkpt>
      <trkpt lat="45.294" lon="4.24696">
        <ele>708.15</ele>
        <time>2011-10-15T09:10:22Z</time>
      </trkpt>
      <trkpt lat="45.29404" lon="4.24694">
        <ele>708.15</ele>
        <time>2011-10-15T09:10:23Z</time>
      </trkpt>
      <trkpt lat="45.29408" lon="4.24691">
        <ele>708.15</ele>
        <time>2011-10-15T09:10:24Z</time>
      </trkpt>
      <trkpt lat="45.29412" lon="4.24689">
        <ele>708.15</ele>
        <time>2011-10-15T09:10:25Z</time>
      </trkpt>
      <trkpt lat="45.29416" lon="4.24686">
        <ele>708.15</ele>
        <time>2011-10-15T09:10:26Z</time>
      </trkpt>
      <trkpt lat="45.2942" lon="4.24685">
        <ele>708.15</ele>
        <time>2011-10-15T09:10:27Z</time>
      </trkpt>
      <trkpt lat="45.29425" lon="4.24684">
        <ele>708.15</ele>
        <time>2011-10-15T09:10:28Z</time>
      </trkpt>
      <trkpt lat="45.29429" lon="4.24683">
        <ele>707.67</ele>
        <time>2011-10-15T09:10:29Z</time>
      </trkpt>
      <trkpt lat="45.29434" lon="4.24682">
        <ele>707.67</ele>
        <time>2011-10-15T09:10:30Z</time>
      </trkpt>
      <trkpt lat="45.29492" lon="4.2468">
        <ele>706.71</ele>
        <time>2011-10-15T09:10:40Z</time>
      </trkpt>
      <trkpt lat="45.2951" lon="4.24687">
        <ele>707.67</ele>
        <time>2011-10-15T09:10:43Z</time>
      </trkpt>
      <trkpt lat="45.29523" lon="4.24688">
        <ele>707.67</ele>
        <time>2011-10-15T09:10:45Z</time>
      </trkpt>
      <trkpt lat="45.2956" lon="4.24691">
        <ele>706.23</ele>
        <time>2011-10-15T09:10:51Z</time>
      </trkpt>
      <trkpt lat="45.29577" lon="4.24692">
        <ele>705.75</ele>
        <time>2011-10-15T09:10:54Z</time>
      </trkpt>
      <trkpt lat="45.29583" lon="4.24694">
        <ele>705.75</ele>
        <time>2011-10-15T09:10:55Z</time>
      </trkpt>
      <trkpt lat="45.29607" lon="4.24703">
        <ele>705.75</ele>
        <time>2011-10-15T09:10:59Z</time>
      </trkpt>
      <trkpt lat="45.29613" lon="4.24705">
        <ele>705.26</ele>
        <time>2011-10-15T09:11:00Z</time>
      </trkpt>
      <trkpt lat="45.29619" lon="4.24706">
        <ele>705.26</ele>
        <time>2011-10-15T09:11:01Z</time>
      </trkpt>
      <trkpt lat="45.29626" lon="4.24706">
        <ele>705.26</ele>
        <time>2011-10-15T09:11:02Z</time>
      </trkpt>
      <trkpt lat="45.29632" lon="4.24707">
        <ele>705.26</ele>
        <time>2011-10-15T09:11:03Z</time>
      </trkpt>
      <trkpt lat="45.29652" lon="4.2471">
        <ele>704.78</ele>
        <time>2011-10-15T09:11:06Z</time>
      </trkpt>
      <trkpt lat="45.29658" lon="4.24709">
        <ele>704.3</ele>
        <time>2011-10-15T09:11:07Z</time>
      </trkpt>
      <trkpt lat="45.29665" lon="4.24708">
        <ele>703.82</ele>
        <time>2011-10-15T09:11:08Z</time>
      </trkpt>
      <trkpt lat="45.29671" lon="4.24706">
        <ele>703.34</ele>
        <time>2011-10-15T09:11:09Z</time>
      </trkpt>
      <trkpt lat="45.29677" lon="4.24703">
        <ele>702.86</ele>
        <time>2011-10-15T09:11:10Z</time>
      </trkpt>
      <trkpt lat="45.29706" lon="4.2469">
        <ele>700.94</ele>
        <time>2011-10-15T09:11:15Z</time>
      </trkpt>
      <trkpt lat="45.29711" lon="4.24687">
        <ele>700.94</ele>
        <time>2011-10-15T09:11:16Z</time>
      </trkpt>
      <trkpt lat="45.29717" lon="4.24684">
        <ele>700.46</ele>
        <time>2011-10-15T09:11:17Z</time>
      </trkpt>
      <trkpt lat="45.2973" lon="4.24677">
        <ele>699.98</ele>
        <time>2011-10-15T09:11:19Z</time>
      </trkpt>
      <trkpt lat="45.29735" lon="4.24674">
        <ele>699.98</ele>
        <time>2011-10-15T09:11:20Z</time>
      </trkpt>
      <trkpt lat="45.2974" lon="4.24669">
        <ele>699.98</ele>
        <time>2011-10-15T09:11:21Z</time>
      </trkpt>
      <trkpt lat="45.29773" lon="4.24636">
        <ele>699.5</ele>
        <time>2011-10-15T09:11:28Z</time>
      </trkpt>
      <trkpt lat="45.29783" lon="4.2463">
        <ele>699.02</ele>
        <time>2011-10-15T09:11:30Z</time>
      </trkpt>
      <trkpt lat="45.29788" lon="4.24628">
        <ele>698.53</ele>
        <time>2011-10-15T09:11:31Z</time>
      </trkpt>
      <trkpt lat="45.29799" lon="4.24624">
        <ele>698.05</ele>
        <time>2011-10-15T09:11:33Z</time>
      </trkpt>
      <trkpt lat="45.29805" lon="4.24623">
        <ele>698.05</ele>
        <time>2011-10-15T09:11:34Z</time>
      </trkpt>
      <trkpt lat="45.29811" lon="4.24624">
        <ele>698.05</ele>
        <time>2011-10-15T09:11:35Z</time>
      </trkpt>
      <trkpt lat="45.29816" lon="4.24625">
        <ele>698.05</ele>
        <time>2011-10-15T09:11:36Z</time>
      </trkpt>
      <trkpt lat="45.29821" lon="4.24626">
        <ele>697.57</ele>
        <time>2011-10-15T09:11:37Z</time>
      </trkpt>
      <trkpt lat="45.29825" lon="4.24628">
        <ele>697.09</ele>
        <time>2011-10-15T09:11:38Z</time>
      </trkpt>
      <trkpt lat="45.29837" lon="4.24634">
        <ele>695.65</ele>
        <time>2011-10-15T09:11:41Z</time>
      </trkpt>
      <trkpt lat="45.29841" lon="4.24638">
        <ele>695.17</ele>
        <time>2011-10-15T09:11:42Z</time>
      </trkpt>
      <trkpt lat="45.29851" lon="4.2465">
        <ele>693.73</ele>
        <time>2011-10-15T09:11:44Z</time>
      </trkpt>
      <trkpt lat="45.29866" lon="4.24671">
        <ele>690.84</ele>
        <time>2011-10-15T09:11:47Z</time>
      </trkpt>
      <trkpt lat="45.2987" lon="4.24679">
        <ele>690.36</ele>
        <time>2011-10-15T09:11:48Z</time>
      </trkpt>
      <trkpt lat="45.29875" lon="4.24697">
        <ele>688.92</ele>
        <time>2011-10-15T09:11:50Z</time>
      </trkpt>
      <trkpt lat="45.2988" lon="4.24723">
        <ele>687</ele>
        <time>2011-10-15T09:11:53Z</time>
      </trkpt>
      <trkpt lat="45.29882" lon="4.24739">
        <ele>686.52</ele>
        <time>2011-10-15T09:11:55Z</time>
      </trkpt>
      <trkpt lat="45.29881" lon="4.24747">
        <ele>686.04</ele>
        <time>2011-10-15T09:11:56Z</time>
      </trkpt>
      <trkpt lat="45.29882" lon="4.24753">
        <ele>686.52</ele>
        <time>2011-10-15T09:11:57Z</time>
      </trkpt>
      <trkpt lat="45.29884" lon="4.24759">
        <ele>686.04</ele>
        <time>2011-10-15T09:11:58Z</time>
      </trkpt>
      <trkpt lat="45.29887" lon="4.24763">
        <ele>686.04</ele>
        <time>2011-10-15T09:11:59Z</time>
      </trkpt>
      <trkpt lat="45.29891" lon="4.24767">
        <ele>685.56</ele>
        <time>2011-10-15T09:12:00Z</time>
      </trkpt>
      <trkpt lat="45.29895" lon="4.24771">
        <ele>685.56</ele>
        <time>2011-10-15T09:12:01Z</time>
      </trkpt>
      <trkpt lat="45.29914" lon="4.24781">
        <ele>684.6</ele>
        <time>2011-10-15T09:12:05Z</time>
      </trkpt>
      <trkpt lat="45.2992" lon="4.24782">
        <ele>684.12</ele>
        <time>2011-10-15T09:12:06Z</time>
      </trkpt>
      <trkpt lat="45.29925" lon="4.24781">
        <ele>684.12</ele>
        <time>2011-10-15T09:12:07Z</time>
      </trkpt>
      <trkpt lat="45.29938" lon="4.24776">
        <ele>683.63</ele>
        <time>2011-10-15T09:12:10Z</time>
      </trkpt>
      <trkpt lat="45.29942" lon="4.24774">
        <ele>683.63</ele>
        <time>2011-10-15T09:12:11Z</time>
      </trkpt>
      <trkpt lat="45.29946" lon="4.24773">
        <ele>683.15</ele>
        <time>2011-10-15T09:12:12Z</time>
      </trkpt>
      <trkpt lat="45.29949" lon="4.24771">
        <ele>683.63</ele>
        <time>2011-10-15T09:12:13Z</time>
      </trkpt>
      <trkpt lat="45.29967" lon="4.24755">
        <ele>683.63</ele>
        <time>2011-10-15T09:12:18Z</time>
      </trkpt>
      <trkpt lat="45.29997" lon="4.24738">
        <ele>684.12</ele>
        <time>2011-10-15T09:12:24Z</time>
      </trkpt>
      <trkpt lat="45.30006" lon="4.24727">
        <ele>685.08</ele>
        <time>2011-10-15T09:12:26Z</time>
      </trkpt>
      <trkpt lat="45.30016" lon="4.24711">
        <ele>686.52</ele>
        <time>2011-10-15T09:12:29Z</time>
      </trkpt>
      <trkpt lat="45.30025" lon="4.24686">
        <ele>688.92</ele>
        <time>2011-10-15T09:12:33Z</time>
      </trkpt>
      <trkpt lat="45.30026" lon="4.24679">
        <ele>689.4</ele>
        <time>2011-10-15T09:12:34Z</time>
      </trkpt>
      <trkpt lat="45.3003" lon="4.24648">
        <ele>691.33</ele>
        <time>2011-10-15T09:12:39Z</time>
      </trkpt>
      <trkpt lat="45.3003" lon="4.24641">
        <ele>691.33</ele>
        <time>2011-10-15T09:12:40Z</time>
      </trkpt>
      <trkpt lat="45.3003" lon="4.24636">
        <ele>691.33</ele>
        <time>2011-10-15T09:12:41Z</time>
      </trkpt>
      <trkpt lat="45.30029" lon="4.2463">
        <ele>691.33</ele>
        <time>2011-10-15T09:12:42Z</time>
      </trkpt>
      <trkpt lat="45.30029" lon="4.24624">
        <ele>691.33</ele>
        <time>2011-10-15T09:12:43Z</time>
      </trkpt>
      <trkpt lat="45.30029" lon="4.24618">
        <ele>691.33</ele>
        <time>2011-10-15T09:12:44Z</time>
      </trkpt>
      <trkpt lat="45.3003" lon="4.24606">
        <ele>690.84</ele>
        <time>2011-10-15T09:12:46Z</time>
      </trkpt>
      <trkpt lat="45.3003" lon="4.246">
        <ele>690.84</ele>
        <time>2011-10-15T09:12:47Z</time>
      </trkpt>
      <trkpt lat="45.3003" lon="4.24594">
        <ele>691.33</ele>
        <time>2011-10-15T09:12:48Z</time>
      </trkpt>
      <trkpt lat="45.30031" lon="4.24576">
        <ele>691.81</ele>
        <time>2011-10-15T09:12:51Z</time>
      </trkpt>
      <trkpt lat="45.30032" lon="4.24569">
        <ele>691.81</ele>
        <time>2011-10-15T09:12:52Z</time>
      </trkpt>
      <trkpt lat="45.30035" lon="4.24557">
        <ele>691.81</ele>
        <time>2011-10-15T09:12:54Z</time>
      </trkpt>
      <trkpt lat="45.30037" lon="4.24551">
        <ele>691.81</ele>
        <time>2011-10-15T09:12:55Z</time>
      </trkpt>
      <trkpt lat="45.3004" lon="4.24541">
        <ele>692.29</ele>
        <time>2011-10-15T09:12:57Z</time>
      </trkpt>
      <trkpt lat="45.30044" lon="4.24536">
        <ele>692.29</ele>
        <time>2011-10-15T09:12:58Z</time>
      </trkpt>
      <trkpt lat="45.30054" lon="4.24524">
        <ele>691.33</ele>
        <time>2011-10-15T09:13:00Z</time>
      </trkpt>
      <trkpt lat="45.30058" lon="4.24517">
        <ele>690.84</ele>
        <time>2011-10-15T09:13:01Z</time>
      </trkpt>
      <trkpt lat="45.30063" lon="4.24512">
        <ele>690.36</ele>
        <time>2011-10-15T09:13:02Z</time>
      </trkpt>
      <trkpt lat="45.30067" lon="4.2451">
        <ele>690.36</ele>
        <time>2011-10-15T09:13:03Z</time>
      </trkpt>
      <trkpt lat="45.30072" lon="4.24507">
        <ele>690.36</ele>
        <time>2011-10-15T09:13:04Z</time>
      </trkpt>
      <trkpt lat="45.30078" lon="4.24507">
        <ele>689.88</ele>
        <time>2011-10-15T09:13:05Z</time>
      </trkpt>
      <trkpt lat="45.30083" lon="4.24508">
        <ele>690.36</ele>
        <time>2011-10-15T09:13:06Z</time>
      </trkpt>
      <trkpt lat="45.30093" lon="4.24511">
        <ele>689.88</ele>
        <time>2011-10-15T09:13:08Z</time>
      </trkpt>
      <trkpt lat="45.30098" lon="4.24513">
        <ele>689.88</ele>
        <time>2011-10-15T09:13:09Z</time>
      </trkpt>
      <trkpt lat="45.30103" lon="4.24515">
        <ele>690.36</ele>
        <time>2011-10-15T09:13:10Z</time>
      </trkpt>
      <trkpt lat="45.30108" lon="4.24516">
        <ele>690.84</ele>
        <time>2011-10-15T09:13:11Z</time>
      </trkpt>
      <trkpt lat="45.30113" lon="4.24516">
        <ele>690.84</ele>
        <time>2011-10-15T09:13:12Z</time>
      </trkpt>
      <trkpt lat="45.30117" lon="4.24515">
        <ele>690.84</ele>
        <time>2011-10-15T09:13:13Z</time>
      </trkpt>
      <trkpt lat="45.3012" lon="4.24513">
        <ele>690.84</ele>
        <time>2011-10-15T09:13:14Z</time>
      </trkpt>
      <trkpt lat="45.30123" lon="4.24512">
        <ele>690.84</ele>
        <time>2011-10-15T09:13:15Z</time>
      </trkpt>
      <trkpt lat="45.30126" lon="4.24511">
        <ele>690.84</ele>
        <time>2011-10-15T09:13:16Z</time>
      </trkpt>
      <trkpt lat="45.3013" lon="4.2451">
        <ele>690.84</ele>
        <time>2011-10-15T09:13:18Z</time>
      </trkpt>
      <trkpt lat="45.30132" lon="4.2451">
        <ele>691.33</ele>
        <time>2011-10-15T09:13:19Z</time>
      </trkpt>
      <trkpt lat="45.30134" lon="4.2451">
        <ele>691.81</ele>
        <time>2011-10-15T09:13:20Z</time>
      </trkpt>
      <trkpt lat="45.30136" lon="4.2451">
        <ele>692.29</ele>
        <time>2011-10-15T09:13:21Z</time>
      </trkpt>
      <trkpt lat="45.30139" lon="4.24512">
        <ele>693.25</ele>
        <time>2011-10-15T09:13:22Z</time>
      </trkpt>
      <trkpt lat="45.30141" lon="4.24512">
        <ele>694.21</ele>
        <time>2011-10-15T09:13:23Z</time>
      </trkpt>
      <trkpt lat="45.30158" lon="4.24517">
        <ele>698.53</ele>
        <time>2011-10-15T09:13:34Z</time>
      </trkpt>
      <trkpt lat="45.30161" lon="4.24519">
        <ele>699.02</ele>
        <time>2011-10-15T09:13:36Z</time>
      </trkpt>
      <trkpt lat="45.30163" lon="4.2452">
        <ele>699.5</ele>
        <time>2011-10-15T09:13:38Z</time>
      </trkpt>
      <trkpt lat="45.30164" lon="4.24521">
        <ele>699.5</ele>
        <time>2011-10-15T09:13:39Z</time>
      </trkpt>
      <trkpt lat="45.3017" lon="4.2453">
        <ele>700.46</ele>
        <time>2011-10-15T09:13:44Z</time>
      </trkpt>
      <trkpt lat="45.30171" lon="4.24532">
        <ele>700.46</ele>
        <time>2011-10-15T09:13:45Z</time>
      </trkpt>
      <trkpt lat="45.30172" lon="4.24534">
        <ele>700.94</ele>
        <time>2011-10-15T09:13:46Z</time>
      </trkpt>
      <trkpt lat="45.30172" lon="4.24536">
        <ele>701.42</ele>
        <time>2011-10-15T09:13:47Z</time>
      </trkpt>
      <trkpt lat="45.30173" lon="4.24538">
        <ele>701.9</ele>
        <time>2011-10-15T09:13:48Z</time>
      </trkpt>
      <trkpt lat="45.30174" lon="4.2454">
        <ele>701.9</ele>
        <time>2011-10-15T09:13:49Z</time>
      </trkpt>
      <trkpt lat="45.30175" lon="4.24542">
        <ele>702.38</ele>
        <time>2011-10-15T09:13:50Z</time>
      </trkpt>
      <trkpt lat="45.30176" lon="4.24544">
        <ele>702.86</ele>
        <time>2011-10-15T09:13:51Z</time>
      </trkpt>
      <trkpt lat="45.30177" lon="4.24547">
        <ele>702.86</ele>
        <time>2011-10-15T09:13:52Z</time>
      </trkpt>
      <trkpt lat="45.30183" lon="4.24562">
        <ele>705.26</ele>
        <time>2011-10-15T09:14:02Z</time>
      </trkpt>
      <trkpt lat="45.30184" lon="4.24563">
        <ele>705.26</ele>
        <time>2011-10-15T09:14:03Z</time>
      </trkpt>
      <trkpt lat="45.30184" lon="4.24565">
        <ele>705.75</ele>
        <time>2011-10-15T09:14:04Z</time>
      </trkpt>
      <trkpt lat="45.30185" lon="4.24568">
        <ele>706.23</ele>
        <time>2011-10-15T09:14:05Z</time>
      </trkpt>
      <trkpt lat="45.30185" lon="4.2457">
        <ele>706.23</ele>
        <time>2011-10-15T09:14:06Z</time>
      </trkpt>
      <trkpt lat="45.30186" lon="4.24572">
        <ele>706.23</ele>
        <time>2011-10-15T09:14:07Z</time>
      </trkpt>
      <trkpt lat="45.30186" lon="4.24574">
        <ele>705.75</ele>
        <time>2011-10-15T09:14:08Z</time>
      </trkpt>
      <trkpt lat="45.30186" lon="4.24576">
        <ele>706.23</ele>
        <time>2011-10-15T09:14:09Z</time>
      </trkpt>
      <trkpt lat="45.30186" lon="4.24578">
        <ele>706.23</ele>
        <time>2011-10-15T09:14:10Z</time>
      </trkpt>
      <trkpt lat="45.30187" lon="4.2458">
        <ele>706.71</ele>
        <time>2011-10-15T09:14:11Z</time>
      </trkpt>
      <trkpt lat="45.30187" lon="4.24582">
        <ele>707.19</ele>
        <time>2011-10-15T09:14:12Z</time>
      </trkpt>
      <trkpt lat="45.30188" lon="4.24585">
        <ele>707.19</ele>
        <time>2011-10-15T09:14:13Z</time>
      </trkpt>
      <trkpt lat="45.30188" lon="4.24587">
        <ele>707.67</ele>
        <time>2011-10-15T09:14:14Z</time>
      </trkpt>
      <trkpt lat="45.30189" lon="4.24589">
        <ele>707.67</ele>
        <time>2011-10-15T09:14:15Z</time>
      </trkpt>
      <trkpt lat="45.30188" lon="4.24591">
        <ele>708.15</ele>
        <time>2011-10-15T09:14:16Z</time>
      </trkpt>
      <trkpt lat="45.30188" lon="4.24594">
        <ele>708.15</ele>
        <time>2011-10-15T09:14:17Z</time>
      </trkpt>
      <trkpt lat="45.30188" lon="4.24599">
        <ele>708.15</ele>
        <time>2011-10-15T09:14:20Z</time>
      </trkpt>
      <trkpt lat="45.30187" lon="4.24601">
        <ele>708.63</ele>
        <time>2011-10-15T09:14:21Z</time>
      </trkpt>
      <trkpt lat="45.30188" lon="4.24603">
        <ele>708.15</ele>
        <time>2011-10-15T09:14:22Z</time>
      </trkpt>
      <trkpt lat="45.30188" lon="4.24605">
        <ele>708.15</ele>
        <time>2011-10-15T09:14:23Z</time>
      </trkpt>
      <trkpt lat="45.30188" lon="4.24607">
        <ele>708.15</ele>
        <time>2011-10-15T09:14:24Z</time>
      </trkpt>
      <trkpt lat="45.30189" lon="4.24614">
        <ele>707.67</ele>
        <time>2011-10-15T09:14:27Z</time>
      </trkpt>
      <trkpt lat="45.30189" lon="4.24616">
        <ele>707.19</ele>
        <time>2011-10-15T09:14:28Z</time>
      </trkpt>
      <trkpt lat="45.30189" lon="4.24618">
        <ele>707.19</ele>
        <time>2011-10-15T09:14:29Z</time>
      </trkpt>
      <trkpt lat="45.30189" lon="4.24621">
        <ele>707.19</ele>
        <time>2011-10-15T09:14:30Z</time>
      </trkpt>
      <trkpt lat="45.30189" lon="4.24623">
        <ele>707.19</ele>
        <time>2011-10-15T09:14:31Z</time>
      </trkpt>
      <trkpt lat="45.30189" lon="4.24625">
        <ele>707.19</ele>
        <time>2011-10-15T09:14:32Z</time>
      </trkpt>
      <trkpt lat="45.3019" lon="4.24627">
        <ele>707.19</ele>
        <time>2011-10-15T09:14:33Z</time>
      </trkpt>
      <trkpt lat="45.30191" lon="4.2463">
        <ele>707.19</ele>
        <time>2011-10-15T09:14:34Z</time>
      </trkpt>
      <trkpt lat="45.30192" lon="4.24633">
        <ele>707.19</ele>
        <time>2011-10-15T09:14:35Z</time>
      </trkpt>
      <trkpt lat="45.30193" lon="4.24635">
        <ele>707.19</ele>
        <time>2011-10-15T09:14:36Z</time>
      </trkpt>
      <trkpt lat="45.30194" lon="4.24637">
        <ele>707.67</ele>
        <time>2011-10-15T09:14:37Z</time>
      </trkpt>
      <trkpt lat="45.30196" lon="4.2464">
        <ele>707.19</ele>
        <time>2011-10-15T09:14:38Z</time>
      </trkpt>
      <trkpt lat="45.30197" lon="4.24643">
        <ele>707.67</ele>
        <time>2011-10-15T09:14:39Z</time>
      </trkpt>
      <trkpt lat="45.30198" lon="4.24645">
        <ele>707.67</ele>
        <time>2011-10-15T09:14:40Z</time>
      </trkpt>
      <trkpt lat="45.30198" lon="4.24647">
        <ele>707.67</ele>
        <time>2011-10-15T09:14:41Z</time>
      </trkpt>
      <trkpt lat="45.30198" lon="4.24649">
        <ele>708.63</ele>
        <time>2011-10-15T09:14:42Z</time>
      </trkpt>
      <trkpt lat="45.30199" lon="4.24651">
        <ele>708.63</ele>
        <time>2011-10-15T09:14:43Z</time>
      </trkpt>
      <trkpt lat="45.302" lon="4.24653">
        <ele>708.63</ele>
        <time>2011-10-15T09:14:44Z</time>
      </trkpt>
      <trkpt lat="45.30201" lon="4.24655">
        <ele>708.63</ele>
        <time>2011-10-15T09:14:45Z</time>
      </trkpt>
      <trkpt lat="45.30202" lon="4.24657">
        <ele>709.11</ele>
        <time>2011-10-15T09:14:46Z</time>
      </trkpt>
      <trkpt lat="45.30202" lon="4.2466">
        <ele>709.11</ele>
        <time>2011-10-15T09:14:47Z</time>
      </trkpt>
      <trkpt lat="45.30204" lon="4.24662">
        <ele>709.59</ele>
        <time>2011-10-15T09:14:48Z</time>
      </trkpt>
      <trkpt lat="45.30204" lon="4.24665">
        <ele>709.59</ele>
        <time>2011-10-15T09:14:49Z</time>
      </trkpt>
      <trkpt lat="45.30205" lon="4.24667">
        <ele>710.07</ele>
        <time>2011-10-15T09:14:50Z</time>
      </trkpt>
      <trkpt lat="45.30205" lon="4.24669">
        <ele>710.07</ele>
        <time>2011-10-15T09:14:51Z</time>
      </trkpt>
      <trkpt lat="45.30207" lon="4.24672">
        <ele>710.55</ele>
        <time>2011-10-15T09:14:52Z</time>
      </trkpt>
      <trkpt lat="45.30207" lon="4.24674">
        <ele>710.55</ele>
        <time>2011-10-15T09:14:53Z</time>
      </trkpt>
      <trkpt lat="45.30213" lon="4.2469">
        <ele>711.51</ele>
        <time>2011-10-15T09:15:01Z</time>
      </trkpt>
      <trkpt lat="45.3022" lon="4.24702">
        <ele>711.99</ele>
        <time>2011-10-15T09:15:08Z</time>
      </trkpt>
      <trkpt lat="45.30238" lon="4.24721">
        <ele>711.99</ele>
        <time>2011-10-15T09:15:19Z</time>
      </trkpt>
      <trkpt lat="45.30245" lon="4.24728">
        <ele>712.47</ele>
        <time>2011-10-15T09:15:23Z</time>
      </trkpt>
      <trkpt lat="45.30252" lon="4.24734">
        <ele>711.99</ele>
        <time>2011-10-15T09:15:27Z</time>
      </trkpt>
      <trkpt lat="45.30266" lon="4.24745">
        <ele>714.88</ele>
        <time>2011-10-15T09:15:33Z</time>
      </trkpt>
      <trkpt lat="45.30277" lon="4.24753">
        <ele>717.76</ele>
        <time>2011-10-15T09:15:39Z</time>
      </trkpt>
      <trkpt lat="45.3029" lon="4.24758">
        <ele>718.72</ele>
        <time>2011-10-15T09:15:49Z</time>
      </trkpt>
      <trkpt lat="45.30297" lon="4.24762">
        <ele>719.2</ele>
        <time>2011-10-15T09:15:53Z</time>
      </trkpt>
      <trkpt lat="45.303" lon="4.24764">
        <ele>719.68</ele>
        <time>2011-10-15T09:15:55Z</time>
      </trkpt>
      <trkpt lat="45.30322" lon="4.2477">
        <ele>723.05</ele>
        <time>2011-10-15T09:16:03Z</time>
      </trkpt>
      <trkpt lat="45.30334" lon="4.24769">
        <ele>725.45</ele>
        <time>2011-10-15T09:16:08Z</time>
      </trkpt>
      <trkpt lat="45.30347" lon="4.24772">
        <ele>727.86</ele>
        <time>2011-10-15T09:16:14Z</time>
      </trkpt>
      <trkpt lat="45.30351" lon="4.24776">
        <ele>727.37</ele>
        <time>2011-10-15T09:16:17Z</time>
      </trkpt>
      <trkpt lat="45.30363" lon="4.24782">
        <ele>728.82</ele>
        <time>2011-10-15T09:16:21Z</time>
      </trkpt>
      <trkpt lat="45.30395" lon="4.24816">
        <ele>737.95</ele>
        <time>2011-10-15T09:16:34Z</time>
      </trkpt>
      <trkpt lat="45.30403" lon="4.24837">
        <ele>742.28</ele>
        <time>2011-10-15T09:16:41Z</time>
      </trkpt>
      <trkpt lat="45.30389" lon="4.24885">
        <ele>745.16</ele>
        <time>2011-10-15T09:16:54Z</time>
      </trkpt>
      <trkpt lat="45.30386" lon="4.24903">
        <ele>745.16</ele>
        <time>2011-10-15T09:17:00Z</time>
      </trkpt>
      <trkpt lat="45.3039" lon="4.24916">
        <ele>745.64</ele>
        <time>2011-10-15T09:17:06Z</time>
      </trkpt>
      <trkpt lat="45.3039" lon="4.24924">
        <ele>745.16</ele>
        <time>2011-10-15T09:17:08Z</time>
      </trkpt>
      <trkpt lat="45.30369" lon="4.2498">
        <ele>745.16</ele>
        <time>2011-10-15T09:17:17Z</time>
      </trkpt>
      <trkpt lat="45.30379" lon="4.25011">
        <ele>745.64</ele>
        <time>2011-10-15T09:17:25Z</time>
      </trkpt>
      <trkpt lat="45.30385" lon="4.2502">
        <ele>747.08</ele>
        <time>2011-10-15T09:17:29Z</time>
      </trkpt>
      <trkpt lat="45.3041" lon="4.25047">
        <ele>749.97</ele>
        <time>2011-10-15T09:17:39Z</time>
      </trkpt>
      <trkpt lat="45.30426" lon="4.25082">
        <ele>752.85</ele>
        <time>2011-10-15T09:17:49Z</time>
      </trkpt>
      <trkpt lat="45.3042" lon="4.25122">
        <ele>753.33</ele>
        <time>2011-10-15T09:17:57Z</time>
      </trkpt>
      <trkpt lat="45.30419" lon="4.25139">
        <ele>752.37</ele>
        <time>2011-10-15T09:18:00Z</time>
      </trkpt>
      <trkpt lat="45.30428" lon="4.25168">
        <ele>749.97</ele>
        <time>2011-10-15T09:18:04Z</time>
      </trkpt>
      <trkpt lat="45.30433" lon="4.25174">
        <ele>749</ele>
        <time>2011-10-15T09:18:05Z</time>
      </trkpt>
      <trkpt lat="45.30439" lon="4.25179">
        <ele>748.52</ele>
        <time>2011-10-15T09:18:06Z</time>
      </trkpt>
      <trkpt lat="45.30444" lon="4.25183">
        <ele>748.52</ele>
        <time>2011-10-15T09:18:07Z</time>
      </trkpt>
      <trkpt lat="45.3045" lon="4.25187">
        <ele>748.04</ele>
        <time>2011-10-15T09:18:08Z</time>
      </trkpt>
      <trkpt lat="45.30454" lon="4.25191">
        <ele>748.04</ele>
        <time>2011-10-15T09:18:09Z</time>
      </trkpt>
      <trkpt lat="45.30458" lon="4.25196">
        <ele>748.04</ele>
        <time>2011-10-15T09:18:10Z</time>
      </trkpt>
      <trkpt lat="45.30468" lon="4.2521">
        <ele>746.6</ele>
        <time>2011-10-15T09:18:13Z</time>
      </trkpt>
      <trkpt lat="45.30472" lon="4.2522">
        <ele>746.6</ele>
        <time>2011-10-15T09:18:15Z</time>
      </trkpt>
      <trkpt lat="45.30475" lon="4.25225">
        <ele>747.08</ele>
        <time>2011-10-15T09:18:16Z</time>
      </trkpt>
      <trkpt lat="45.30477" lon="4.2523">
        <ele>747.08</ele>
        <time>2011-10-15T09:18:17Z</time>
      </trkpt>
      <trkpt lat="45.30482" lon="4.25278">
        <ele>749</ele>
        <time>2011-10-15T09:18:28Z</time>
      </trkpt>
      <trkpt lat="45.30465" lon="4.25325">
        <ele>747.56</ele>
        <time>2011-10-15T09:18:41Z</time>
      </trkpt>
      <trkpt lat="45.30444" lon="4.25356">
        <ele>749</ele>
        <time>2011-10-15T09:18:53Z</time>
      </trkpt>
      <trkpt lat="45.3042" lon="4.25389">
        <ele>751.89</ele>
        <time>2011-10-15T09:19:06Z</time>
      </trkpt>
      <trkpt lat="45.30403" lon="4.25411">
        <ele>754.77</ele>
        <time>2011-10-15T09:19:16Z</time>
      </trkpt>
      <trkpt lat="45.30381" lon="4.25425">
        <ele>756.69</ele>
        <time>2011-10-15T09:19:28Z</time>
      </trkpt>
      <trkpt lat="45.30358" lon="4.25437">
        <ele>759.1</ele>
        <time>2011-10-15T09:19:42Z</time>
      </trkpt>
      <trkpt lat="45.30354" lon="4.25439">
        <ele>760.06</ele>
        <time>2011-10-15T09:19:44Z</time>
      </trkpt>
      <trkpt lat="45.30352" lon="4.2544">
        <ele>760.06</ele>
        <time>2011-10-15T09:19:45Z</time>
      </trkpt>
      <trkpt lat="45.3035" lon="4.25441">
        <ele>760.54</ele>
        <time>2011-10-15T09:19:46Z</time>
      </trkpt>
      <trkpt lat="45.30331" lon="4.25445">
        <ele>763.9</ele>
        <time>2011-10-15T09:19:58Z</time>
      </trkpt>
      <trkpt lat="45.30306" lon="4.25459">
        <ele>767.27</ele>
        <time>2011-10-15T09:20:13Z</time>
      </trkpt>
      <trkpt lat="45.30283" lon="4.25472">
        <ele>770.63</ele>
        <time>2011-10-15T09:20:26Z</time>
      </trkpt>
      <trkpt lat="45.30257" lon="4.25493">
        <ele>772.56</ele>
        <time>2011-10-15T09:20:39Z</time>
      </trkpt>
      <trkpt lat="45.30237" lon="4.25525">
        <ele>773.52</ele>
        <time>2011-10-15T09:20:51Z</time>
      </trkpt>
      <trkpt lat="45.30219" lon="4.25572">
        <ele>774.48</ele>
        <time>2011-10-15T09:21:05Z</time>
      </trkpt>
      <trkpt lat="45.3021" lon="4.2561">
        <ele>776.88</ele>
        <time>2011-10-15T09:21:17Z</time>
      </trkpt>
      <trkpt lat="45.30211" lon="4.25612">
        <ele>777.36</ele>
        <time>2011-10-15T09:21:18Z</time>
      </trkpt>
      <trkpt lat="45.30222" lon="4.25622">
        <ele>774</ele>
        <time>2011-10-15T09:21:23Z</time>
      </trkpt>
      <trkpt lat="45.30227" lon="4.25623">
        <ele>773.04</ele>
        <time>2011-10-15T09:21:24Z</time>
      </trkpt>
      <trkpt lat="45.30231" lon="4.25626">
        <ele>772.56</ele>
        <time>2011-10-15T09:21:25Z</time>
      </trkpt>
      <trkpt lat="45.30297" lon="4.25656">
        <ele>767.75</ele>
        <time>2011-10-15T09:21:36Z</time>
      </trkpt>
      <trkpt lat="45.30347" lon="4.25671">
        <ele>766.31</ele>
        <time>2011-10-15T09:21:43Z</time>
      </trkpt>
      <trkpt lat="45.30354" lon="4.25675">
        <ele>765.83</ele>
        <time>2011-10-15T09:21:44Z</time>
      </trkpt>
      <trkpt lat="45.3036" lon="4.2568">
        <ele>765.35</ele>
        <time>2011-10-15T09:21:45Z</time>
      </trkpt>
      <trkpt lat="45.30365" lon="4.25686">
        <ele>764.87</ele>
        <time>2011-10-15T09:21:46Z</time>
      </trkpt>
      <trkpt lat="45.30371" lon="4.25693">
        <ele>764.39</ele>
        <time>2011-10-15T09:21:47Z</time>
      </trkpt>
      <trkpt lat="45.30393" lon="4.25721">
        <ele>761.98</ele>
        <time>2011-10-15T09:21:51Z</time>
      </trkpt>
      <trkpt lat="45.30397" lon="4.25729">
        <ele>761.98</ele>
        <time>2011-10-15T09:21:52Z</time>
      </trkpt>
      <trkpt lat="45.30401" lon="4.25738">
        <ele>761.02</ele>
        <time>2011-10-15T09:21:53Z</time>
      </trkpt>
      <trkpt lat="45.30404" lon="4.25747">
        <ele>760.54</ele>
        <time>2011-10-15T09:21:54Z</time>
      </trkpt>
      <trkpt lat="45.30406" lon="4.25756">
        <ele>760.06</ele>
        <time>2011-10-15T09:21:55Z</time>
      </trkpt>
      <trkpt lat="45.3041" lon="4.25774">
        <ele>760.06</ele>
        <time>2011-10-15T09:21:57Z</time>
      </trkpt>
      <trkpt lat="45.30413" lon="4.25781">
        <ele>759.58</ele>
        <time>2011-10-15T09:21:58Z</time>
      </trkpt>
      <trkpt lat="45.30419" lon="4.25784">
        <ele>759.58</ele>
        <time>2011-10-15T09:21:59Z</time>
      </trkpt>
      <trkpt lat="45.30431" lon="4.2578">
        <ele>758.14</ele>
        <time>2011-10-15T09:22:01Z</time>
      </trkpt>
      <trkpt lat="45.30436" lon="4.25775">
        <ele>757.18</ele>
        <time>2011-10-15T09:22:02Z</time>
      </trkpt>
      <trkpt lat="45.3044" lon="4.25768">
        <ele>756.69</ele>
        <time>2011-10-15T09:22:03Z</time>
      </trkpt>
      <trkpt lat="45.30442" lon="4.25762">
        <ele>755.73</ele>
        <time>2011-10-15T09:22:04Z</time>
      </trkpt>
      <trkpt lat="45.30444" lon="4.25756">
        <ele>755.25</ele>
        <time>2011-10-15T09:22:05Z</time>
      </trkpt>
      <trkpt lat="45.30447" lon="4.25747">
        <ele>754.77</ele>
        <time>2011-10-15T09:22:07Z</time>
      </trkpt>
      <trkpt lat="45.30448" lon="4.25743">
        <ele>754.29</ele>
        <time>2011-10-15T09:22:08Z</time>
      </trkpt>
      <trkpt lat="45.3045" lon="4.2574">
        <ele>753.81</ele>
        <time>2011-10-15T09:22:19Z</time>
      </trkpt>
      <trkpt lat="45.30467" lon="4.25713">
        <ele>752.85</ele>
        <time>2011-10-15T09:22:48Z</time>
      </trkpt>
      <trkpt lat="45.30488" lon="4.2569">
        <ele>754.77</ele>
        <time>2011-10-15T09:22:57Z</time>
      </trkpt>
      <trkpt lat="45.30512" lon="4.25673">
        <ele>756.21</ele>
        <time>2011-10-15T09:23:08Z</time>
      </trkpt>
      <trkpt lat="45.30528" lon="4.25671">
        <ele>755.73</ele>
        <time>2011-10-15T09:23:14Z</time>
      </trkpt>
      <trkpt lat="45.30529" lon="4.2567">
        <ele>755.73</ele>
        <time>2011-10-15T09:23:15Z</time>
      </trkpt>
      <trkpt lat="45.30537" lon="4.2567">
        <ele>755.25</ele>
        <time>2011-10-15T09:23:18Z</time>
      </trkpt>
      <trkpt lat="45.30542" lon="4.25672">
        <ele>753.81</ele>
        <time>2011-10-15T09:23:20Z</time>
      </trkpt>
      <trkpt lat="45.30544" lon="4.25671">
        <ele>753.81</ele>
        <time>2011-10-15T09:23:21Z</time>
      </trkpt>
      <trkpt lat="45.30547" lon="4.25671">
        <ele>753.33</ele>
        <time>2011-10-15T09:23:22Z</time>
      </trkpt>
      <trkpt lat="45.30549" lon="4.25671">
        <ele>753.33</ele>
        <time>2011-10-15T09:23:23Z</time>
      </trkpt>
      <trkpt lat="45.30552" lon="4.25672">
        <ele>752.85</ele>
        <time>2011-10-15T09:23:24Z</time>
      </trkpt>
      <trkpt lat="45.30573" lon="4.25674">
        <ele>749.49</ele>
        <time>2011-10-15T09:23:32Z</time>
      </trkpt>
      <trkpt lat="45.30576" lon="4.25675">
        <ele>749.49</ele>
        <time>2011-10-15T09:23:33Z</time>
      </trkpt>
      <trkpt lat="45.30578" lon="4.25674">
        <ele>749.49</ele>
        <time>2011-10-15T09:23:34Z</time>
      </trkpt>
      <trkpt lat="45.30594" lon="4.25672">
        <ele>749.49</ele>
        <time>2011-10-15T09:23:41Z</time>
      </trkpt>
      <trkpt lat="45.30602" lon="4.2567">
        <ele>749.49</ele>
        <time>2011-10-15T09:23:43Z</time>
      </trkpt>
      <trkpt lat="45.30607" lon="4.25669">
        <ele>749.49</ele>
        <time>2011-10-15T09:23:44Z</time>
      </trkpt>
      <trkpt lat="45.30613" lon="4.25668">
        <ele>749.97</ele>
        <time>2011-10-15T09:23:45Z</time>
      </trkpt>
      <trkpt lat="45.30619" lon="4.25667">
        <ele>749.97</ele>
        <time>2011-10-15T09:23:46Z</time>
      </trkpt>
      <trkpt lat="45.30625" lon="4.25664">
        <ele>749.97</ele>
        <time>2011-10-15T09:23:47Z</time>
      </trkpt>
      <trkpt lat="45.3063" lon="4.25662">
        <ele>749.97</ele>
        <time>2011-10-15T09:23:48Z</time>
      </trkpt>
      <trkpt lat="45.30656" lon="4.25651">
        <ele>750.45</ele>
        <time>2011-10-15T09:23:53Z</time>
      </trkpt>
      <trkpt lat="45.30662" lon="4.25649">
        <ele>749.97</ele>
        <time>2011-10-15T09:23:54Z</time>
      </trkpt>
      <trkpt lat="45.30668" lon="4.25647">
        <ele>749.97</ele>
        <time>2011-10-15T09:23:55Z</time>
      </trkpt>
      <trkpt lat="45.30691" lon="4.25636">
        <ele>750.45</ele>
        <time>2011-10-15T09:24:00Z</time>
      </trkpt>
      <trkpt lat="45.307" lon="4.25633">
        <ele>750.45</ele>
        <time>2011-10-15T09:24:02Z</time>
      </trkpt>
      <trkpt lat="45.30705" lon="4.25631">
        <ele>750.45</ele>
        <time>2011-10-15T09:24:03Z</time>
      </trkpt>
      <trkpt lat="45.3071" lon="4.2563">
        <ele>750.45</ele>
        <time>2011-10-15T09:24:04Z</time>
      </trkpt>
      <trkpt lat="45.30725" lon="4.25629">
        <ele>749.97</ele>
        <time>2011-10-15T09:24:07Z</time>
      </trkpt>
      <trkpt lat="45.30728" lon="4.25627">
        <ele>749.97</ele>
        <time>2011-10-15T09:24:08Z</time>
      </trkpt>
      <trkpt lat="45.30731" lon="4.25627">
        <ele>750.45</ele>
        <time>2011-10-15T09:24:09Z</time>
      </trkpt>
      <trkpt lat="45.30733" lon="4.25625">
        <ele>749.97</ele>
        <time>2011-10-15T09:24:10Z</time>
      </trkpt>
      <trkpt lat="45.30736" lon="4.25624">
        <ele>749.49</ele>
        <time>2011-10-15T09:24:11Z</time>
      </trkpt>
      <trkpt lat="45.3074" lon="4.25623">
        <ele>749.49</ele>
        <time>2011-10-15T09:24:12Z</time>
      </trkpt>
      <trkpt lat="45.30744" lon="4.25622">
        <ele>749</ele>
        <time>2011-10-15T09:24:13Z</time>
      </trkpt>
      <trkpt lat="45.3077" lon="4.25619">
        <ele>749</ele>
        <time>2011-10-15T09:24:20Z</time>
      </trkpt>
      <trkpt lat="45.30776" lon="4.25619">
        <ele>748.52</ele>
        <time>2011-10-15T09:24:21Z</time>
      </trkpt>
      <trkpt lat="45.30829" lon="4.25628">
        <ele>748.04</ele>
        <time>2011-10-15T09:24:29Z</time>
      </trkpt>
      <trkpt lat="45.30836" lon="4.25628">
        <ele>747.56</ele>
        <time>2011-10-15T09:24:30Z</time>
      </trkpt>
      <trkpt lat="45.30884" lon="4.25636">
        <ele>746.6</ele>
        <time>2011-10-15T09:24:37Z</time>
      </trkpt>
      <trkpt lat="45.3089" lon="4.25637">
        <ele>746.6</ele>
        <time>2011-10-15T09:24:38Z</time>
      </trkpt>
      <trkpt lat="45.30902" lon="4.25639">
        <ele>746.6</ele>
        <time>2011-10-15T09:24:40Z</time>
      </trkpt>
      <trkpt lat="45.30908" lon="4.25641">
        <ele>746.12</ele>
        <time>2011-10-15T09:24:41Z</time>
      </trkpt>
      <trkpt lat="45.30917" lon="4.25646">
        <ele>746.12</ele>
        <time>2011-10-15T09:24:43Z</time>
      </trkpt>
      <trkpt lat="45.30923" lon="4.25648">
        <ele>746.12</ele>
        <time>2011-10-15T09:24:44Z</time>
      </trkpt>
      <trkpt lat="45.30932" lon="4.25652">
        <ele>745.64</ele>
        <time>2011-10-15T09:24:46Z</time>
      </trkpt>
      <trkpt lat="45.3094" lon="4.25651">
        <ele>745.16</ele>
        <time>2011-10-15T09:24:48Z</time>
      </trkpt>
      <trkpt lat="45.30943" lon="4.2565">
        <ele>744.68</ele>
        <time>2011-10-15T09:24:49Z</time>
      </trkpt>
      <trkpt lat="45.30946" lon="4.25649">
        <ele>744.2</ele>
        <time>2011-10-15T09:24:50Z</time>
      </trkpt>
      <trkpt lat="45.3095" lon="4.25649">
        <ele>743.72</ele>
        <time>2011-10-15T09:24:51Z</time>
      </trkpt>
      <trkpt lat="45.30954" lon="4.25649">
        <ele>743.24</ele>
        <time>2011-10-15T09:24:52Z</time>
      </trkpt>
      <trkpt lat="45.3096" lon="4.25649">
        <ele>743.24</ele>
        <time>2011-10-15T09:24:53Z</time>
      </trkpt>
      <trkpt lat="45.30981" lon="4.25655">
        <ele>742.76</ele>
        <time>2011-10-15T09:24:56Z</time>
      </trkpt>
      <trkpt lat="45.30988" lon="4.25659">
        <ele>742.28</ele>
        <time>2011-10-15T09:24:57Z</time>
      </trkpt>
      <trkpt lat="45.31005" lon="4.25667">
        <ele>741.79</ele>
        <time>2011-10-15T09:25:00Z</time>
      </trkpt>
      <trkpt lat="45.3101" lon="4.25666">
        <ele>741.79</ele>
        <time>2011-10-15T09:25:01Z</time>
      </trkpt>
      <trkpt lat="45.31016" lon="4.25665">
        <ele>741.79</ele>
        <time>2011-10-15T09:25:02Z</time>
      </trkpt>
      <trkpt lat="45.31021" lon="4.25664">
        <ele>741.79</ele>
        <time>2011-10-15T09:25:03Z</time>
      </trkpt>
      <trkpt lat="45.31028" lon="4.25663">
        <ele>741.79</ele>
        <time>2011-10-15T09:25:04Z</time>
      </trkpt>
      <trkpt lat="45.31034" lon="4.25661">
        <ele>741.79</ele>
        <time>2011-10-15T09:25:05Z</time>
      </trkpt>
      <trkpt lat="45.31041" lon="4.25658">
        <ele>741.79</ele>
        <time>2011-10-15T09:25:06Z</time>
      </trkpt>
      <trkpt lat="45.31048" lon="4.25655">
        <ele>741.79</ele>
        <time>2011-10-15T09:25:07Z</time>
      </trkpt>
      <trkpt lat="45.31056" lon="4.25652">
        <ele>741.79</ele>
        <time>2011-10-15T09:25:08Z</time>
      </trkpt>
      <trkpt lat="45.31076" lon="4.25645">
        <ele>741.31</ele>
        <time>2011-10-15T09:25:11Z</time>
      </trkpt>
      <trkpt lat="45.3108" lon="4.25642">
        <ele>740.83</ele>
        <time>2011-10-15T09:25:12Z</time>
      </trkpt>
      <trkpt lat="45.31084" lon="4.25639">
        <ele>739.87</ele>
        <time>2011-10-15T09:25:13Z</time>
      </trkpt>
      <trkpt lat="45.31112" lon="4.25634">
        <ele>736.51</ele>
        <time>2011-10-15T09:25:19Z</time>
      </trkpt>
      <trkpt lat="45.31117" lon="4.25635">
        <ele>736.03</ele>
        <time>2011-10-15T09:25:20Z</time>
      </trkpt>
      <trkpt lat="45.31123" lon="4.25635">
        <ele>736.03</ele>
        <time>2011-10-15T09:25:21Z</time>
      </trkpt>
      <trkpt lat="45.31127" lon="4.25634">
        <ele>735.55</ele>
        <time>2011-10-15T09:25:22Z</time>
      </trkpt>
      <trkpt lat="45.31131" lon="4.25634">
        <ele>735.55</ele>
        <time>2011-10-15T09:25:23Z</time>
      </trkpt>
      <trkpt lat="45.31134" lon="4.25634">
        <ele>735.07</ele>
        <time>2011-10-15T09:25:24Z</time>
      </trkpt>
      <trkpt lat="45.31138" lon="4.25634">
        <ele>734.1</ele>
        <time>2011-10-15T09:25:25Z</time>
      </trkpt>
      <trkpt lat="45.31143" lon="4.25635">
        <ele>734.1</ele>
        <time>2011-10-15T09:25:26Z</time>
      </trkpt>
      <trkpt lat="45.31148" lon="4.25636">
        <ele>733.62</ele>
        <time>2011-10-15T09:25:27Z</time>
      </trkpt>
      <trkpt lat="45.31154" lon="4.25637">
        <ele>733.14</ele>
        <time>2011-10-15T09:25:28Z</time>
      </trkpt>
      <trkpt lat="45.31159" lon="4.25638">
        <ele>733.14</ele>
        <time>2011-10-15T09:25:29Z</time>
      </trkpt>
      <trkpt lat="45.31165" lon="4.2564">
        <ele>732.66</ele>
        <time>2011-10-15T09:25:30Z</time>
      </trkpt>
      <trkpt lat="45.31171" lon="4.25642">
        <ele>732.18</ele>
        <time>2011-10-15T09:25:31Z</time>
      </trkpt>
      <trkpt lat="45.31177" lon="4.25646">
        <ele>730.26</ele>
        <time>2011-10-15T09:25:32Z</time>
      </trkpt>
      <trkpt lat="45.31181" lon="4.25651">
        <ele>728.82</ele>
        <time>2011-10-15T09:25:33Z</time>
      </trkpt>
      <trkpt lat="45.31185" lon="4.25656">
        <ele>727.86</ele>
        <time>2011-10-15T09:25:34Z</time>
      </trkpt>
      <trkpt lat="45.31186" lon="4.2566">
        <ele>724.97</ele>
        <time>2011-10-15T09:25:35Z</time>
      </trkpt>
      <trkpt lat="45.31189" lon="4.25661">
        <ele>722.09</ele>
        <time>2011-10-15T09:25:36Z</time>
      </trkpt>
      <trkpt lat="45.31193" lon="4.25659">
        <ele>720.65</ele>
        <time>2011-10-15T09:25:37Z</time>
      </trkpt>
      <trkpt lat="45.31196" lon="4.25655">
        <ele>718.72</ele>
        <time>2011-10-15T09:25:38Z</time>
      </trkpt>
      <trkpt lat="45.31198" lon="4.25649">
        <ele>717.76</ele>
        <time>2011-10-15T09:25:39Z</time>
      </trkpt>
      <trkpt lat="45.312" lon="4.25642">
        <ele>716.8</ele>
        <time>2011-10-15T09:25:40Z</time>
      </trkpt>
      <trkpt lat="45.31202" lon="4.25635">
        <ele>715.84</ele>
        <time>2011-10-15T09:25:41Z</time>
      </trkpt>
      <trkpt lat="45.31206" lon="4.25614">
        <ele>712.95</ele>
        <time>2011-10-15T09:25:44Z</time>
      </trkpt>
      <trkpt lat="45.31208" lon="4.25607">
        <ele>711.03</ele>
        <time>2011-10-15T09:25:45Z</time>
      </trkpt>
      <trkpt lat="45.3121" lon="4.25601">
        <ele>709.59</ele>
        <time>2011-10-15T09:25:46Z</time>
      </trkpt>
      <trkpt lat="45.3122" lon="4.25549">
        <ele>700.46</ele>
        <time>2011-10-15T09:25:52Z</time>
      </trkpt>
      <trkpt lat="45.31223" lon="4.25521">
        <ele>697.09</ele>
        <time>2011-10-15T09:25:55Z</time>
      </trkpt>
      <trkpt lat="45.31232" lon="4.25485">
        <ele>694.21</ele>
        <time>2011-10-15T09:25:59Z</time>
      </trkpt>
      <trkpt lat="45.31271" lon="4.25383">
        <ele>682.67</ele>
        <time>2011-10-15T09:26:10Z</time>
      </trkpt>
      <trkpt lat="45.31287" lon="4.25341">
        <ele>677.39</ele>
        <time>2011-10-15T09:26:15Z</time>
      </trkpt>
      <trkpt lat="45.31289" lon="4.25334">
        <ele>676.42</ele>
        <time>2011-10-15T09:26:16Z</time>
      </trkpt>
      <trkpt lat="45.31294" lon="4.253">
        <ele>672.1</ele>
        <time>2011-10-15T09:26:20Z</time>
      </trkpt>
      <trkpt lat="45.31295" lon="4.25292">
        <ele>671.14</ele>
        <time>2011-10-15T09:26:21Z</time>
      </trkpt>
      <trkpt lat="45.31298" lon="4.25284">
        <ele>670.66</ele>
        <time>2011-10-15T09:26:22Z</time>
      </trkpt>
      <trkpt lat="45.313" lon="4.25275">
        <ele>669.22</ele>
        <time>2011-10-15T09:26:23Z</time>
      </trkpt>
      <trkpt lat="45.31304" lon="4.25267">
        <ele>668.25</ele>
        <time>2011-10-15T09:26:24Z</time>
      </trkpt>
      <trkpt lat="45.31309" lon="4.25259">
        <ele>667.29</ele>
        <time>2011-10-15T09:26:25Z</time>
      </trkpt>
      <trkpt lat="45.31314" lon="4.25252">
        <ele>666.33</ele>
        <time>2011-10-15T09:26:26Z</time>
      </trkpt>
      <trkpt lat="45.3132" lon="4.25245">
        <ele>665.37</ele>
        <time>2011-10-15T09:26:27Z</time>
      </trkpt>
      <trkpt lat="45.31325" lon="4.25239">
        <ele>664.89</ele>
        <time>2011-10-15T09:26:28Z</time>
      </trkpt>
      <trkpt lat="45.31331" lon="4.25233">
        <ele>664.41</ele>
        <time>2011-10-15T09:26:29Z</time>
      </trkpt>
      <trkpt lat="45.31337" lon="4.25228">
        <ele>664.41</ele>
        <time>2011-10-15T09:26:30Z</time>
      </trkpt>
      <trkpt lat="45.31343" lon="4.25224">
        <ele>663.93</ele>
        <time>2011-10-15T09:26:31Z</time>
      </trkpt>
      <trkpt lat="45.31349" lon="4.2522">
        <ele>664.89</ele>
        <time>2011-10-15T09:26:32Z</time>
      </trkpt>
      <trkpt lat="45.31355" lon="4.25216">
        <ele>664.89</ele>
        <time>2011-10-15T09:26:33Z</time>
      </trkpt>
      <trkpt lat="45.31392" lon="4.25199">
        <ele>664.89</ele>
        <time>2011-10-15T09:26:39Z</time>
      </trkpt>
      <trkpt lat="45.31399" lon="4.25198">
        <ele>664.89</ele>
        <time>2011-10-15T09:26:40Z</time>
      </trkpt>
      <trkpt lat="45.31415" lon="4.25201">
        <ele>663.93</ele>
        <time>2011-10-15T09:26:43Z</time>
      </trkpt>
      <trkpt lat="45.31419" lon="4.25206">
        <ele>663.93</ele>
        <time>2011-10-15T09:26:44Z</time>
      </trkpt>
      <trkpt lat="45.31421" lon="4.25211">
        <ele>663.45</ele>
        <time>2011-10-15T09:26:45Z</time>
      </trkpt>
      <trkpt lat="45.31422" lon="4.25217">
        <ele>662.97</ele>
        <time>2011-10-15T09:26:46Z</time>
      </trkpt>
      <trkpt lat="45.31424" lon="4.25222">
        <ele>662.01</ele>
        <time>2011-10-15T09:26:47Z</time>
      </trkpt>
      <trkpt lat="45.31423" lon="4.25227">
        <ele>661.52</ele>
        <time>2011-10-15T09:26:48Z</time>
      </trkpt>
      <trkpt lat="45.31421" lon="4.25231">
        <ele>661.52</ele>
        <time>2011-10-15T09:26:49Z</time>
      </trkpt>
      <trkpt lat="45.31419" lon="4.25236">
        <ele>661.52</ele>
        <time>2011-10-15T09:26:50Z</time>
      </trkpt>
      <trkpt lat="45.31417" lon="4.25242">
        <ele>661.52</ele>
        <time>2011-10-15T09:26:51Z</time>
      </trkpt>
      <trkpt lat="45.31416" lon="4.25248">
        <ele>661.52</ele>
        <time>2011-10-15T09:26:52Z</time>
      </trkpt>
      <trkpt lat="45.31413" lon="4.25285">
        <ele>660.56</ele>
        <time>2011-10-15T09:26:57Z</time>
      </trkpt>
      <trkpt lat="45.31414" lon="4.25291">
        <ele>660.08</ele>
        <time>2011-10-15T09:26:58Z</time>
      </trkpt>
      <trkpt lat="45.31417" lon="4.25294">
        <ele>660.08</ele>
        <time>2011-10-15T09:26:59Z</time>
      </trkpt>
      <trkpt lat="45.31419" lon="4.25295">
        <ele>659.12</ele>
        <time>2011-10-15T09:27:00Z</time>
      </trkpt>
      <trkpt lat="45.31422" lon="4.25293">
        <ele>658.64</ele>
        <time>2011-10-15T09:27:01Z</time>
      </trkpt>
      <trkpt lat="45.31424" lon="4.2529">
        <ele>657.68</ele>
        <time>2011-10-15T09:27:02Z</time>
      </trkpt>
      <trkpt lat="45.31426" lon="4.25287">
        <ele>657.2</ele>
        <time>2011-10-15T09:27:03Z</time>
      </trkpt>
      <trkpt lat="45.31428" lon="4.25286">
        <ele>656.72</ele>
        <time>2011-10-15T09:27:04Z</time>
      </trkpt>
      <trkpt lat="45.3143" lon="4.25285">
        <ele>656.72</ele>
        <time>2011-10-15T09:27:05Z</time>
      </trkpt>
      <trkpt lat="45.31433" lon="4.25284">
        <ele>657.2</ele>
        <time>2011-10-15T09:27:06Z</time>
      </trkpt>
      <trkpt lat="45.31448" lon="4.25285">
        <ele>659.12</ele>
        <time>2011-10-15T09:27:12Z</time>
      </trkpt>
      <trkpt lat="45.3145" lon="4.25286">
        <ele>659.12</ele>
        <time>2011-10-15T09:27:13Z</time>
      </trkpt>
      <trkpt lat="45.31453" lon="4.25286">
        <ele>659.6</ele>
        <time>2011-10-15T09:27:14Z</time>
      </trkpt>
      <trkpt lat="45.31478" lon="4.25287">
        <ele>664.41</ele>
        <time>2011-10-15T09:27:26Z</time>
      </trkpt>
      <trkpt lat="45.31481" lon="4.25287">
        <ele>664.41</ele>
        <time>2011-10-15T09:27:27Z</time>
      </trkpt>
      <trkpt lat="45.31483" lon="4.25287">
        <ele>664.89</ele>
        <time>2011-10-15T09:27:28Z</time>
      </trkpt>
      <trkpt lat="45.31484" lon="4.25289">
        <ele>664.89</ele>
        <time>2011-10-15T09:27:29Z</time>
      </trkpt>
      <trkpt lat="45.31486" lon="4.25291">
        <ele>665.37</ele>
        <time>2011-10-15T09:27:30Z</time>
      </trkpt>
      <trkpt lat="45.31487" lon="4.25293">
        <ele>665.37</ele>
        <time>2011-10-15T09:27:31Z</time>
      </trkpt>
      <trkpt lat="45.31488" lon="4.25295">
        <ele>665.85</ele>
        <time>2011-10-15T09:27:32Z</time>
      </trkpt>
      <trkpt lat="45.31489" lon="4.25297">
        <ele>666.33</ele>
        <time>2011-10-15T09:27:33Z</time>
      </trkpt>
      <trkpt lat="45.3149" lon="4.253">
        <ele>666.81</ele>
        <time>2011-10-15T09:27:34Z</time>
      </trkpt>
      <trkpt lat="45.31491" lon="4.25318">
        <ele>668.73</ele>
        <time>2011-10-15T09:27:44Z</time>
      </trkpt>
      <trkpt lat="45.31493" lon="4.25326">
        <ele>670.66</ele>
        <time>2011-10-15T09:27:57Z</time>
      </trkpt>
      <trkpt lat="45.31492" lon="4.25329">
        <ele>671.62</ele>
        <time>2011-10-15T09:27:59Z</time>
      </trkpt>
      <trkpt lat="45.31491" lon="4.25335">
        <ele>672.1</ele>
        <time>2011-10-15T09:28:04Z</time>
      </trkpt>
      <trkpt lat="45.3149" lon="4.2535">
        <ele>673.54</ele>
        <time>2011-10-15T09:28:16Z</time>
      </trkpt>
      <trkpt lat="45.31488" lon="4.25367">
        <ele>678.83</ele>
        <time>2011-10-15T09:28:29Z</time>
      </trkpt>
      <trkpt lat="45.31489" lon="4.25378">
        <ele>679.31</ele>
        <time>2011-10-15T09:28:37Z</time>
      </trkpt>
      <trkpt lat="45.3149" lon="4.25397">
        <ele>679.31</ele>
        <time>2011-10-15T09:28:51Z</time>
      </trkpt>
      <trkpt lat="45.31488" lon="4.25416">
        <ele>682.19</ele>
        <time>2011-10-15T09:29:04Z</time>
      </trkpt>
      <trkpt lat="45.31482" lon="4.25437">
        <ele>686.04</ele>
        <time>2011-10-15T09:29:20Z</time>
      </trkpt>
      <trkpt lat="45.31473" lon="4.25454">
        <ele>688.44</ele>
        <time>2011-10-15T09:29:33Z</time>
      </trkpt>
      <trkpt lat="45.31471" lon="4.25461">
        <ele>689.88</ele>
        <time>2011-10-15T09:29:38Z</time>
      </trkpt>
      <trkpt lat="45.31471" lon="4.25462">
        <ele>689.88</ele>
        <time>2011-10-15T09:29:39Z</time>
      </trkpt>
      <trkpt lat="45.3147" lon="4.25464">
        <ele>689.88</ele>
        <time>2011-10-15T09:29:40Z</time>
      </trkpt>
      <trkpt lat="45.31469" lon="4.25466">
        <ele>690.36</ele>
        <time>2011-10-15T09:29:43Z</time>
      </trkpt>
      <trkpt lat="45.31468" lon="4.25467">
        <ele>690.84</ele>
        <time>2011-10-15T09:29:44Z</time>
      </trkpt>
      <trkpt lat="45.31467" lon="4.25469">
        <ele>690.84</ele>
        <time>2011-10-15T09:29:45Z</time>
      </trkpt>
      <trkpt lat="45.31466" lon="4.25471">
        <ele>691.33</ele>
        <time>2011-10-15T09:29:46Z</time>
      </trkpt>
      <trkpt lat="45.31466" lon="4.25473">
        <ele>691.81</ele>
        <time>2011-10-15T09:29:47Z</time>
      </trkpt>
      <trkpt lat="45.31465" lon="4.25477">
        <ele>692.29</ele>
        <time>2011-10-15T09:29:49Z</time>
      </trkpt>
      <trkpt lat="45.31464" lon="4.25478">
        <ele>692.77</ele>
        <time>2011-10-15T09:29:50Z</time>
      </trkpt>
      <trkpt lat="45.31457" lon="4.25493">
        <ele>695.17</ele>
        <time>2011-10-15T09:30:01Z</time>
      </trkpt>
      <trkpt lat="45.31448" lon="4.25504">
        <ele>698.05</ele>
        <time>2011-10-15T09:30:13Z</time>
      </trkpt>
      <trkpt lat="45.31443" lon="4.25514">
        <ele>697.57</ele>
        <time>2011-10-15T09:30:26Z</time>
      </trkpt>
      <trkpt lat="45.3144" lon="4.25518">
        <ele>697.09</ele>
        <time>2011-10-15T09:30:30Z</time>
      </trkpt>
      <trkpt lat="45.31436" lon="4.25525">
        <ele>696.61</ele>
        <time>2011-10-15T09:30:36Z</time>
      </trkpt>
      <trkpt lat="45.31435" lon="4.25526">
        <ele>696.61</ele>
        <time>2011-10-15T09:30:37Z</time>
      </trkpt>
      <trkpt lat="45.31433" lon="4.25529">
        <ele>696.61</ele>
        <time>2011-10-15T09:30:39Z</time>
      </trkpt>
      <trkpt lat="45.31433" lon="4.25534">
        <ele>697.57</ele>
        <time>2011-10-15T09:30:42Z</time>
      </trkpt>
      <trkpt lat="45.31434" lon="4.25536">
        <ele>698.05</ele>
        <time>2011-10-15T09:30:43Z</time>
      </trkpt>
      <trkpt lat="45.31434" lon="4.25538">
        <ele>698.05</ele>
        <time>2011-10-15T09:30:44Z</time>
      </trkpt>
      <trkpt lat="45.31435" lon="4.2554">
        <ele>698.53</ele>
        <time>2011-10-15T09:30:45Z</time>
      </trkpt>
      <trkpt lat="45.31436" lon="4.25542">
        <ele>699.02</ele>
        <time>2011-10-15T09:30:46Z</time>
      </trkpt>
      <trkpt lat="45.31436" lon="4.25543">
        <ele>699.5</ele>
        <time>2011-10-15T09:30:47Z</time>
      </trkpt>
      <trkpt lat="45.31436" lon="4.25544">
        <ele>699.98</ele>
        <time>2011-10-15T09:30:48Z</time>
      </trkpt>
      <trkpt lat="45.31439" lon="4.25554">
        <ele>700.94</ele>
        <time>2011-10-15T09:30:54Z</time>
      </trkpt>
      <trkpt lat="45.3144" lon="4.25559">
        <ele>701.42</ele>
        <time>2011-10-15T09:30:57Z</time>
      </trkpt>
      <trkpt lat="45.31441" lon="4.25562">
        <ele>702.38</ele>
        <time>2011-10-15T09:30:59Z</time>
      </trkpt>
      <trkpt lat="45.31441" lon="4.25563">
        <ele>702.38</ele>
        <time>2011-10-15T09:31:00Z</time>
      </trkpt>
      <trkpt lat="45.31439" lon="4.25565">
        <ele>703.34</ele>
        <time>2011-10-15T09:31:02Z</time>
      </trkpt>
      <trkpt lat="45.31438" lon="4.25566">
        <ele>703.34</ele>
        <time>2011-10-15T09:31:03Z</time>
      </trkpt>
      <trkpt lat="45.31437" lon="4.25567">
        <ele>703.82</ele>
        <time>2011-10-15T09:31:04Z</time>
      </trkpt>
      <trkpt lat="45.31436" lon="4.25569">
        <ele>703.82</ele>
        <time>2011-10-15T09:31:05Z</time>
      </trkpt>
      <trkpt lat="45.31435" lon="4.2557">
        <ele>703.82</ele>
        <time>2011-10-15T09:31:06Z</time>
      </trkpt>
      <trkpt lat="45.31433" lon="4.25571">
        <ele>703.34</ele>
        <time>2011-10-15T09:31:07Z</time>
      </trkpt>
      <trkpt lat="45.31432" lon="4.25572">
        <ele>703.34</ele>
        <time>2011-10-15T09:31:08Z</time>
      </trkpt>
      <trkpt lat="45.31429" lon="4.25574">
        <ele>703.34</ele>
        <time>2011-10-15T09:31:10Z</time>
      </trkpt>
      <trkpt lat="45.31428" lon="4.25576">
        <ele>703.82</ele>
        <time>2011-10-15T09:31:11Z</time>
      </trkpt>
      <trkpt lat="45.31426" lon="4.25577">
        <ele>703.82</ele>
        <time>2011-10-15T09:31:12Z</time>
      </trkpt>
      <trkpt lat="45.31409" lon="4.25587">
        <ele>705.75</ele>
        <time>2011-10-15T09:31:24Z</time>
      </trkpt>
      <trkpt lat="45.3139" lon="4.25603">
        <ele>707.67</ele>
        <time>2011-10-15T09:31:36Z</time>
      </trkpt>
      <trkpt lat="45.31388" lon="4.25605">
        <ele>707.67</ele>
        <time>2011-10-15T09:31:37Z</time>
      </trkpt>
      <trkpt lat="45.31386" lon="4.25607">
        <ele>708.15</ele>
        <time>2011-10-15T09:31:38Z</time>
      </trkpt>
      <trkpt lat="45.31374" lon="4.25647">
        <ele>710.55</ele>
        <time>2011-10-15T09:31:53Z</time>
      </trkpt>
      <trkpt lat="45.31373" lon="4.25664">
        <ele>711.03</ele>
        <time>2011-10-15T09:32:01Z</time>
      </trkpt>
      <trkpt lat="45.31374" lon="4.25666">
        <ele>711.51</ele>
        <time>2011-10-15T09:32:02Z</time>
      </trkpt>
      <trkpt lat="45.31375" lon="4.25668">
        <ele>711.51</ele>
        <time>2011-10-15T09:32:03Z</time>
      </trkpt>
      <trkpt lat="45.31375" lon="4.2567">
        <ele>711.51</ele>
        <time>2011-10-15T09:32:04Z</time>
      </trkpt>
      <trkpt lat="45.31376" lon="4.25673">
        <ele>711.51</ele>
        <time>2011-10-15T09:32:05Z</time>
      </trkpt>
      <trkpt lat="45.31377" lon="4.25674">
        <ele>711.99</ele>
        <time>2011-10-15T09:32:06Z</time>
      </trkpt>
      <trkpt lat="45.31377" lon="4.25675">
        <ele>712.47</ele>
        <time>2011-10-15T09:32:07Z</time>
      </trkpt>
      <trkpt lat="45.31378" lon="4.25676">
        <ele>712.47</ele>
        <time>2011-10-15T09:32:08Z</time>
      </trkpt>
      <trkpt lat="45.3138" lon="4.25677">
        <ele>712.47</ele>
        <time>2011-10-15T09:32:09Z</time>
      </trkpt>
      <trkpt lat="45.3139" lon="4.25686">
        <ele>713.44</ele>
        <time>2011-10-15T09:32:17Z</time>
      </trkpt>
      <trkpt lat="45.31397" lon="4.25693">
        <ele>715.36</ele>
        <time>2011-10-15T09:32:23Z</time>
      </trkpt>
      <trkpt lat="45.31398" lon="4.25695">
        <ele>716.32</ele>
        <time>2011-10-15T09:32:24Z</time>
      </trkpt>
      <trkpt lat="45.31399" lon="4.25696">
        <ele>716.32</ele>
        <time>2011-10-15T09:32:25Z</time>
      </trkpt>
      <trkpt lat="45.314" lon="4.25697">
        <ele>716.32</ele>
        <time>2011-10-15T09:32:26Z</time>
      </trkpt>
      <trkpt lat="45.31401" lon="4.25698">
        <ele>716.32</ele>
        <time>2011-10-15T09:32:27Z</time>
      </trkpt>
      <trkpt lat="45.31402" lon="4.25699">
        <ele>716.8</ele>
        <time>2011-10-15T09:32:28Z</time>
      </trkpt>
      <trkpt lat="45.31403" lon="4.257">
        <ele>717.28</ele>
        <time>2011-10-15T09:32:29Z</time>
      </trkpt>
      <trkpt lat="45.31414" lon="4.25717">
        <ele>722.09</ele>
        <time>2011-10-15T09:32:43Z</time>
      </trkpt>
      <trkpt lat="45.31415" lon="4.25719">
        <ele>722.57</ele>
        <time>2011-10-15T09:32:44Z</time>
      </trkpt>
      <trkpt lat="45.31417" lon="4.25723">
        <ele>723.05</ele>
        <time>2011-10-15T09:32:51Z</time>
      </trkpt>
      <trkpt lat="45.31419" lon="4.25729">
        <ele>723.05</ele>
        <time>2011-10-15T09:32:57Z</time>
      </trkpt>
      <trkpt lat="45.31424" lon="4.25747">
        <ele>724.49</ele>
        <time>2011-10-15T09:33:10Z</time>
      </trkpt>
      <trkpt lat="45.31426" lon="4.25751">
        <ele>724.97</ele>
        <time>2011-10-15T09:33:13Z</time>
      </trkpt>
      <trkpt lat="45.31427" lon="4.25756">
        <ele>725.93</ele>
        <time>2011-10-15T09:33:17Z</time>
      </trkpt>
      <trkpt lat="45.31427" lon="4.25758">
        <ele>725.93</ele>
        <time>2011-10-15T09:33:18Z</time>
      </trkpt>
      <trkpt lat="45.31432" lon="4.25777">
        <ele>729.3</ele>
        <time>2011-10-15T09:33:33Z</time>
      </trkpt>
      <trkpt lat="45.31434" lon="4.2579">
        <ele>731.22</ele>
        <time>2011-10-15T09:33:44Z</time>
      </trkpt>
      <trkpt lat="45.31437" lon="4.25794">
        <ele>732.18</ele>
        <time>2011-10-15T09:33:55Z</time>
      </trkpt>
      <trkpt lat="45.3144" lon="4.25795">
        <ele>732.18</ele>
        <time>2011-10-15T09:33:59Z</time>
      </trkpt>
      <trkpt lat="45.31448" lon="4.25791">
        <ele>731.7</ele>
        <time>2011-10-15T09:34:08Z</time>
      </trkpt>
      <trkpt lat="45.31451" lon="4.2579">
        <ele>732.18</ele>
        <time>2011-10-15T09:34:11Z</time>
      </trkpt>
      <trkpt lat="45.31453" lon="4.25792">
        <ele>732.18</ele>
        <time>2011-10-15T09:34:15Z</time>
      </trkpt>
      <trkpt lat="45.31453" lon="4.25794">
        <ele>732.18</ele>
        <time>2011-10-15T09:34:16Z</time>
      </trkpt>
      <trkpt lat="45.31453" lon="4.25817">
        <ele>732.18</ele>
        <time>2011-10-15T09:34:26Z</time>
      </trkpt>
      <trkpt lat="45.31457" lon="4.25836">
        <ele>733.14</ele>
        <time>2011-10-15T09:34:33Z</time>
      </trkpt>
      <trkpt lat="45.31461" lon="4.25859">
        <ele>736.51</ele>
        <time>2011-10-15T09:34:44Z</time>
      </trkpt>
      <trkpt lat="45.31464" lon="4.25864">
        <ele>737.95</ele>
        <time>2011-10-15T09:34:47Z</time>
      </trkpt>
      <trkpt lat="45.31471" lon="4.25887">
        <ele>741.79</ele>
        <time>2011-10-15T09:35:01Z</time>
      </trkpt>
      <trkpt lat="45.31475" lon="4.25899">
        <ele>741.79</ele>
        <time>2011-10-15T09:35:10Z</time>
      </trkpt>
      <trkpt lat="45.31476" lon="4.25902">
        <ele>742.28</ele>
        <time>2011-10-15T09:35:12Z</time>
      </trkpt>
      <trkpt lat="45.3148" lon="4.25908">
        <ele>746.6</ele>
        <time>2011-10-15T09:35:24Z</time>
      </trkpt>
      <trkpt lat="45.3148" lon="4.25908">
        <ele>746.6</ele>
        <time>2011-10-15T09:35:27Z</time>
      </trkpt>
      <trkpt lat="45.31482" lon="4.25921">
        <ele>749.49</ele>
        <time>2011-10-15T09:35:33Z</time>
      </trkpt>
      <trkpt lat="45.31482" lon="4.25927">
        <ele>749.49</ele>
        <time>2011-10-15T09:35:36Z</time>
      </trkpt>
      <trkpt lat="45.31486" lon="4.25955">
        <ele>752.37</ele>
        <time>2011-10-15T09:35:49Z</time>
      </trkpt>
      <trkpt lat="45.31488" lon="4.25965">
        <ele>751.89</ele>
        <time>2011-10-15T09:35:56Z</time>
      </trkpt>
      <trkpt lat="45.3149" lon="4.2597">
        <ele>750.93</ele>
        <time>2011-10-15T09:36:00Z</time>
      </trkpt>
      <trkpt lat="45.3149" lon="4.25973">
        <ele>749.49</ele>
        <time>2011-10-15T09:36:02Z</time>
      </trkpt>
      <trkpt lat="45.31492" lon="4.2598">
        <ele>749.49</ele>
        <time>2011-10-15T09:36:06Z</time>
      </trkpt>
      <trkpt lat="45.31502" lon="4.25994">
        <ele>752.85</ele>
        <time>2011-10-15T09:36:15Z</time>
      </trkpt>
      <trkpt lat="45.31508" lon="4.26003">
        <ele>754.77</ele>
        <time>2011-10-15T09:36:20Z</time>
      </trkpt>
      <trkpt lat="45.3151" lon="4.26009">
        <ele>757.18</ele>
        <time>2011-10-15T09:36:24Z</time>
      </trkpt>
      <trkpt lat="45.31508" lon="4.26012">
        <ele>758.62</ele>
        <time>2011-10-15T09:36:26Z</time>
      </trkpt>
      <trkpt lat="45.31508" lon="4.26016">
        <ele>761.98</ele>
        <time>2011-10-15T09:36:31Z</time>
      </trkpt>
      <trkpt lat="45.31517" lon="4.26025">
        <ele>765.83</ele>
        <time>2011-10-15T09:36:38Z</time>
      </trkpt>
      <trkpt lat="45.31521" lon="4.26026">
        <ele>767.75</ele>
        <time>2011-10-15T09:36:42Z</time>
      </trkpt>
      <trkpt lat="45.31531" lon="4.2603">
        <ele>770.63</ele>
        <time>2011-10-15T09:36:48Z</time>
      </trkpt>
      <trkpt lat="45.31549" lon="4.26048">
        <ele>776.4</ele>
        <time>2011-10-15T09:37:01Z</time>
      </trkpt>
      <trkpt lat="45.31552" lon="4.2605">
        <ele>777.36</ele>
        <time>2011-10-15T09:37:04Z</time>
      </trkpt>
      <trkpt lat="45.31562" lon="4.26059">
        <ele>779.29</ele>
        <time>2011-10-15T09:37:15Z</time>
      </trkpt>
      <trkpt lat="45.31567" lon="4.26066">
        <ele>780.25</ele>
        <time>2011-10-15T09:37:22Z</time>
      </trkpt>
      <trkpt lat="45.31577" lon="4.26079">
        <ele>782.17</ele>
        <time>2011-10-15T09:37:35Z</time>
      </trkpt>
      <trkpt lat="45.31584" lon="4.26093">
        <ele>782.65</ele>
        <time>2011-10-15T09:37:47Z</time>
      </trkpt>
      <trkpt lat="45.31584" lon="4.26095">
        <ele>782.65</ele>
        <time>2011-10-15T09:37:53Z</time>
      </trkpt>
      <trkpt lat="45.31584" lon="4.26101">
        <ele>782.17</ele>
        <time>2011-10-15T09:38:04Z</time>
      </trkpt>
      <trkpt lat="45.31585" lon="4.26106">
        <ele>783.13</ele>
        <time>2011-10-15T09:38:15Z</time>
      </trkpt>
      <trkpt lat="45.3159" lon="4.26112">
        <ele>784.57</ele>
        <time>2011-10-15T09:38:32Z</time>
      </trkpt>
      <trkpt lat="45.31601" lon="4.26118">
        <ele>788.9</ele>
        <time>2011-10-15T09:38:42Z</time>
      </trkpt>
      <trkpt lat="45.31602" lon="4.26119">
        <ele>789.86</ele>
        <time>2011-10-15T09:38:46Z</time>
      </trkpt>
      <trkpt lat="45.31616" lon="4.2613">
        <ele>793.71</ele>
        <time>2011-10-15T09:38:58Z</time>
      </trkpt>
      <trkpt lat="45.31626" lon="4.26139">
        <ele>798.51</ele>
        <time>2011-10-15T09:39:04Z</time>
      </trkpt>
      <trkpt lat="45.31633" lon="4.26147">
        <ele>800.92</ele>
        <time>2011-10-15T09:39:09Z</time>
      </trkpt>
      <trkpt lat="45.31642" lon="4.26154">
        <ele>802.84</ele>
        <time>2011-10-15T09:39:12Z</time>
      </trkpt>
      <trkpt lat="45.31662" lon="4.26179">
        <ele>801.88</ele>
        <time>2011-10-15T09:39:23Z</time>
      </trkpt>
      <trkpt lat="45.31675" lon="4.26201">
        <ele>803.32</ele>
        <time>2011-10-15T09:39:34Z</time>
      </trkpt>
      <trkpt lat="45.31679" lon="4.26217">
        <ele>802.36</ele>
        <time>2011-10-15T09:39:43Z</time>
      </trkpt>
      <trkpt lat="45.31684" lon="4.26237">
        <ele>802.84</ele>
        <time>2011-10-15T09:39:51Z</time>
      </trkpt>
      <trkpt lat="45.31683" lon="4.26251">
        <ele>803.8</ele>
        <time>2011-10-15T09:39:56Z</time>
      </trkpt>
      <trkpt lat="45.31677" lon="4.26302">
        <ele>800.92</ele>
        <time>2011-10-15T09:40:13Z</time>
      </trkpt>
      <trkpt lat="45.3167" lon="4.26355">
        <ele>800.44</ele>
        <time>2011-10-15T09:40:25Z</time>
      </trkpt>
      <trkpt lat="45.31672" lon="4.26409">
        <ele>800.92</ele>
        <time>2011-10-15T09:40:36Z</time>
      </trkpt>
      <trkpt lat="45.31662" lon="4.26467">
        <ele>801.88</ele>
        <time>2011-10-15T09:40:49Z</time>
      </trkpt>
      <trkpt lat="45.31652" lon="4.26519">
        <ele>802.84</ele>
        <time>2011-10-15T09:41:01Z</time>
      </trkpt>
      <trkpt lat="45.31653" lon="4.26585">
        <ele>805.72</ele>
        <time>2011-10-15T09:41:15Z</time>
      </trkpt>
      <trkpt lat="45.31666" lon="4.26637">
        <ele>808.13</ele>
        <time>2011-10-15T09:41:27Z</time>
      </trkpt>
      <trkpt lat="45.31679" lon="4.26675">
        <ele>808.61</ele>
        <time>2011-10-15T09:41:35Z</time>
      </trkpt>
      <trkpt lat="45.31681" lon="4.2668">
        <ele>808.61</ele>
        <time>2011-10-15T09:41:36Z</time>
      </trkpt>
      <trkpt lat="45.31682" lon="4.26686">
        <ele>808.61</ele>
        <time>2011-10-15T09:41:37Z</time>
      </trkpt>
      <trkpt lat="45.31684" lon="4.26691">
        <ele>808.61</ele>
        <time>2011-10-15T09:41:38Z</time>
      </trkpt>
      <trkpt lat="45.31686" lon="4.26696">
        <ele>809.09</ele>
        <time>2011-10-15T09:41:39Z</time>
      </trkpt>
      <trkpt lat="45.31688" lon="4.26706">
        <ele>809.57</ele>
        <time>2011-10-15T09:41:41Z</time>
      </trkpt>
      <trkpt lat="45.31697" lon="4.26739">
        <ele>809.57</ele>
        <time>2011-10-15T09:41:47Z</time>
      </trkpt>
      <trkpt lat="45.31703" lon="4.26781">
        <ele>810.05</ele>
        <time>2011-10-15T09:41:54Z</time>
      </trkpt>
      <trkpt lat="45.31705" lon="4.26786">
        <ele>809.57</ele>
        <time>2011-10-15T09:41:55Z</time>
      </trkpt>
      <trkpt lat="45.31706" lon="4.26791">
        <ele>809.57</ele>
        <time>2011-10-15T09:41:56Z</time>
      </trkpt>
      <trkpt lat="45.31708" lon="4.26797">
        <ele>809.57</ele>
        <time>2011-10-15T09:41:57Z</time>
      </trkpt>
      <trkpt lat="45.31709" lon="4.26802">
        <ele>809.57</ele>
        <time>2011-10-15T09:41:58Z</time>
      </trkpt>
      <trkpt lat="45.31711" lon="4.26807">
        <ele>809.57</ele>
        <time>2011-10-15T09:41:59Z</time>
      </trkpt>
      <trkpt lat="45.31713" lon="4.26813">
        <ele>810.05</ele>
        <time>2011-10-15T09:42:00Z</time>
      </trkpt>
      <trkpt lat="45.31726" lon="4.26892">
        <ele>810.53</ele>
        <time>2011-10-15T09:42:15Z</time>
      </trkpt>
      <trkpt lat="45.31729" lon="4.26963">
        <ele>811.97</ele>
        <time>2011-10-15T09:42:29Z</time>
      </trkpt>
      <trkpt lat="45.31727" lon="4.27028">
        <ele>817.74</ele>
        <time>2011-10-15T09:42:43Z</time>
      </trkpt>
      <trkpt lat="45.31737" lon="4.27062">
        <ele>819.66</ele>
        <time>2011-10-15T09:42:51Z</time>
      </trkpt>
      <trkpt lat="45.31766" lon="4.27078">
        <ele>821.58</ele>
        <time>2011-10-15T09:43:01Z</time>
      </trkpt>
      <trkpt lat="45.31803" lon="4.27074">
        <ele>822.55</ele>
        <time>2011-10-15T09:43:14Z</time>
      </trkpt>
      <trkpt lat="45.31844" lon="4.27082">
        <ele>822.06</ele>
        <time>2011-10-15T09:43:26Z</time>
      </trkpt>
      <trkpt lat="45.31891" lon="4.27091">
        <ele>821.58</ele>
        <time>2011-10-15T09:43:38Z</time>
      </trkpt>
      <trkpt lat="45.31956" lon="4.27115">
        <ele>821.58</ele>
        <time>2011-10-15T09:43:52Z</time>
      </trkpt>
      <trkpt lat="45.31982" lon="4.27119">
        <ele>821.1</ele>
        <time>2011-10-15T09:43:57Z</time>
      </trkpt>
      <trkpt lat="45.31988" lon="4.27118">
        <ele>820.62</ele>
        <time>2011-10-15T09:43:58Z</time>
      </trkpt>
      <trkpt lat="45.32005" lon="4.27117">
        <ele>819.66</ele>
        <time>2011-10-15T09:44:01Z</time>
      </trkpt>
      <trkpt lat="45.32011" lon="4.27118">
        <ele>819.18</ele>
        <time>2011-10-15T09:44:02Z</time>
      </trkpt>
      <trkpt lat="45.32016" lon="4.27118">
        <ele>819.18</ele>
        <time>2011-10-15T09:44:03Z</time>
      </trkpt>
      <trkpt lat="45.32022" lon="4.27118">
        <ele>819.18</ele>
        <time>2011-10-15T09:44:04Z</time>
      </trkpt>
      <trkpt lat="45.32028" lon="4.27118">
        <ele>818.7</ele>
        <time>2011-10-15T09:44:05Z</time>
      </trkpt>
      <trkpt lat="45.32067" lon="4.27121">
        <ele>817.74</ele>
        <time>2011-10-15T09:44:13Z</time>
      </trkpt>
      <trkpt lat="45.32076" lon="4.2712">
        <ele>817.26</ele>
        <time>2011-10-15T09:44:15Z</time>
      </trkpt>
      <trkpt lat="45.32081" lon="4.27119">
        <ele>817.26</ele>
        <time>2011-10-15T09:44:16Z</time>
      </trkpt>
      <trkpt lat="45.3209" lon="4.27118">
        <ele>817.26</ele>
        <time>2011-10-15T09:44:18Z</time>
      </trkpt>
      <trkpt lat="45.32094" lon="4.27118">
        <ele>816.78</ele>
        <time>2011-10-15T09:44:19Z</time>
      </trkpt>
      <trkpt lat="45.32107" lon="4.27116">
        <ele>816.78</ele>
        <time>2011-10-15T09:44:22Z</time>
      </trkpt>
      <trkpt lat="45.32115" lon="4.27116">
        <ele>817.26</ele>
        <time>2011-10-15T09:44:24Z</time>
      </trkpt>
      <trkpt lat="45.32119" lon="4.27116">
        <ele>817.26</ele>
        <time>2011-10-15T09:44:25Z</time>
      </trkpt>
      <trkpt lat="45.32141" lon="4.27115">
        <ele>816.78</ele>
        <time>2011-10-15T09:44:30Z</time>
      </trkpt>
      <trkpt lat="45.32145" lon="4.27115">
        <ele>816.78</ele>
        <time>2011-10-15T09:44:31Z</time>
      </trkpt>
      <trkpt lat="45.32163" lon="4.2711">
        <ele>815.82</ele>
        <time>2011-10-15T09:44:35Z</time>
      </trkpt>
      <trkpt lat="45.32173" lon="4.27108">
        <ele>814.85</ele>
        <time>2011-10-15T09:44:37Z</time>
      </trkpt>
      <trkpt lat="45.32178" lon="4.27106">
        <ele>814.37</ele>
        <time>2011-10-15T09:44:38Z</time>
      </trkpt>
      <trkpt lat="45.32182" lon="4.27106">
        <ele>814.37</ele>
        <time>2011-10-15T09:44:39Z</time>
      </trkpt>
      <trkpt lat="45.32187" lon="4.27105">
        <ele>813.89</ele>
        <time>2011-10-15T09:44:40Z</time>
      </trkpt>
      <trkpt lat="45.32191" lon="4.27104">
        <ele>813.41</ele>
        <time>2011-10-15T09:44:41Z</time>
      </trkpt>
      <trkpt lat="45.32195" lon="4.27103">
        <ele>813.41</ele>
        <time>2011-10-15T09:44:42Z</time>
      </trkpt>
      <trkpt lat="45.322" lon="4.27102">
        <ele>812.93</ele>
        <time>2011-10-15T09:44:43Z</time>
      </trkpt>
      <trkpt lat="45.32212" lon="4.27099">
        <ele>811.97</ele>
        <time>2011-10-15T09:44:46Z</time>
      </trkpt>
      <trkpt lat="45.32243" lon="4.2709">
        <ele>810.05</ele>
        <time>2011-10-15T09:44:52Z</time>
      </trkpt>
      <trkpt lat="45.32248" lon="4.27088">
        <ele>809.09</ele>
        <time>2011-10-15T09:44:53Z</time>
      </trkpt>
      <trkpt lat="45.32252" lon="4.27086">
        <ele>808.61</ele>
        <time>2011-10-15T09:44:54Z</time>
      </trkpt>
      <trkpt lat="45.32257" lon="4.27085">
        <ele>808.13</ele>
        <time>2011-10-15T09:44:55Z</time>
      </trkpt>
      <trkpt lat="45.32262" lon="4.27082">
        <ele>807.16</ele>
        <time>2011-10-15T09:44:56Z</time>
      </trkpt>
      <trkpt lat="45.32267" lon="4.27079">
        <ele>806.68</ele>
        <time>2011-10-15T09:44:57Z</time>
      </trkpt>
      <trkpt lat="45.32272" lon="4.27077">
        <ele>805.72</ele>
        <time>2011-10-15T09:44:58Z</time>
      </trkpt>
      <trkpt lat="45.32296" lon="4.27061">
        <ele>801.88</ele>
        <time>2011-10-15T09:45:03Z</time>
      </trkpt>
      <trkpt lat="45.32301" lon="4.27057">
        <ele>800.92</ele>
        <time>2011-10-15T09:45:04Z</time>
      </trkpt>
      <trkpt lat="45.32305" lon="4.27053">
        <ele>800.44</ele>
        <time>2011-10-15T09:45:05Z</time>
      </trkpt>
      <trkpt lat="45.32315" lon="4.27043">
        <ele>799.47</ele>
        <time>2011-10-15T09:45:07Z</time>
      </trkpt>
      <trkpt lat="45.32323" lon="4.2703">
        <ele>798.03</ele>
        <time>2011-10-15T09:45:09Z</time>
      </trkpt>
      <trkpt lat="45.32326" lon="4.27023">
        <ele>797.55</ele>
        <time>2011-10-15T09:45:10Z</time>
      </trkpt>
      <trkpt lat="45.32332" lon="4.26971">
        <ele>790.34</ele>
        <time>2011-10-15T09:45:19Z</time>
      </trkpt>
      <trkpt lat="45.32332" lon="4.26965">
        <ele>789.38</ele>
        <time>2011-10-15T09:45:20Z</time>
      </trkpt>
      <trkpt lat="45.32335" lon="4.2696">
        <ele>788.42</ele>
        <time>2011-10-15T09:45:21Z</time>
      </trkpt>
      <trkpt lat="45.32338" lon="4.26955">
        <ele>787.46</ele>
        <time>2011-10-15T09:45:22Z</time>
      </trkpt>
      <trkpt lat="45.32343" lon="4.26952">
        <ele>786.98</ele>
        <time>2011-10-15T09:45:23Z</time>
      </trkpt>
      <trkpt lat="45.32346" lon="4.26949">
        <ele>786.5</ele>
        <time>2011-10-15T09:45:24Z</time>
      </trkpt>
      <trkpt lat="45.32351" lon="4.26949">
        <ele>785.53</ele>
        <time>2011-10-15T09:45:25Z</time>
      </trkpt>
      <trkpt lat="45.32355" lon="4.26949">
        <ele>785.05</ele>
        <time>2011-10-15T09:45:26Z</time>
      </trkpt>
      <trkpt lat="45.3236" lon="4.26949">
        <ele>784.09</ele>
        <time>2011-10-15T09:45:27Z</time>
      </trkpt>
      <trkpt lat="45.32365" lon="4.2695">
        <ele>783.61</ele>
        <time>2011-10-15T09:45:28Z</time>
      </trkpt>
      <trkpt lat="45.32374" lon="4.26953">
        <ele>782.17</ele>
        <time>2011-10-15T09:45:30Z</time>
      </trkpt>
      <trkpt lat="45.32379" lon="4.26953">
        <ele>781.21</ele>
        <time>2011-10-15T09:45:31Z</time>
      </trkpt>
      <trkpt lat="45.32383" lon="4.26954">
        <ele>780.73</ele>
        <time>2011-10-15T09:45:32Z</time>
      </trkpt>
      <trkpt lat="45.32391" lon="4.26956">
        <ele>779.29</ele>
        <time>2011-10-15T09:45:34Z</time>
      </trkpt>
      <trkpt lat="45.32395" lon="4.26958">
        <ele>778.32</ele>
        <time>2011-10-15T09:45:35Z</time>
      </trkpt>
      <trkpt lat="45.32398" lon="4.26959">
        <ele>777.36</ele>
        <time>2011-10-15T09:45:36Z</time>
      </trkpt>
      <trkpt lat="45.32402" lon="4.2696">
        <ele>776.4</ele>
        <time>2011-10-15T09:45:37Z</time>
      </trkpt>
      <trkpt lat="45.32406" lon="4.26961">
        <ele>775.92</ele>
        <time>2011-10-15T09:45:38Z</time>
      </trkpt>
      <trkpt lat="45.3241" lon="4.26962">
        <ele>775.44</ele>
        <time>2011-10-15T09:45:39Z</time>
      </trkpt>
      <trkpt lat="45.32413" lon="4.26963">
        <ele>774.48</ele>
        <time>2011-10-15T09:45:40Z</time>
      </trkpt>
      <trkpt lat="45.32417" lon="4.26964">
        <ele>774</ele>
        <time>2011-10-15T09:45:41Z</time>
      </trkpt>
      <trkpt lat="45.3242" lon="4.26966">
        <ele>773.52</ele>
        <time>2011-10-15T09:45:42Z</time>
      </trkpt>
      <trkpt lat="45.32425" lon="4.26967">
        <ele>773.04</ele>
        <time>2011-10-15T09:45:43Z</time>
      </trkpt>
      <trkpt lat="45.3243" lon="4.26967">
        <ele>772.56</ele>
        <time>2011-10-15T09:45:44Z</time>
      </trkpt>
      <trkpt lat="45.32436" lon="4.26967">
        <ele>772.08</ele>
        <time>2011-10-15T09:45:45Z</time>
      </trkpt>
      <trkpt lat="45.32482" lon="4.26958">
        <ele>768.23</ele>
        <time>2011-10-15T09:45:52Z</time>
      </trkpt>
      <trkpt lat="45.32488" lon="4.26959">
        <ele>767.27</ele>
        <time>2011-10-15T09:45:53Z</time>
      </trkpt>
      <trkpt lat="45.32493" lon="4.2696">
        <ele>766.79</ele>
        <time>2011-10-15T09:45:54Z</time>
      </trkpt>
      <trkpt lat="45.32499" lon="4.26961">
        <ele>766.31</ele>
        <time>2011-10-15T09:45:55Z</time>
      </trkpt>
      <trkpt lat="45.32504" lon="4.26963">
        <ele>765.83</ele>
        <time>2011-10-15T09:45:56Z</time>
      </trkpt>
      <trkpt lat="45.32509" lon="4.26965">
        <ele>765.83</ele>
        <time>2011-10-15T09:45:57Z</time>
      </trkpt>
      <trkpt lat="45.32514" lon="4.26967">
        <ele>765.35</ele>
        <time>2011-10-15T09:45:58Z</time>
      </trkpt>
      <trkpt lat="45.32519" lon="4.2697">
        <ele>765.35</ele>
        <time>2011-10-15T09:45:59Z</time>
      </trkpt>
      <trkpt lat="45.32527" lon="4.26981">
        <ele>765.35</ele>
        <time>2011-10-15T09:46:01Z</time>
      </trkpt>
      <trkpt lat="45.32533" lon="4.26993">
        <ele>764.87</ele>
        <time>2011-10-15T09:46:03Z</time>
      </trkpt>
      <trkpt lat="45.32537" lon="4.27011">
        <ele>764.39</ele>
        <time>2011-10-15T09:46:06Z</time>
      </trkpt>
      <trkpt lat="45.32539" lon="4.27028">
        <ele>763.9</ele>
        <time>2011-10-15T09:46:08Z</time>
      </trkpt>
      <trkpt lat="45.32529" lon="4.27057">
        <ele>763.9</ele>
        <time>2011-10-15T09:46:14Z</time>
      </trkpt>
      <trkpt lat="45.32516" lon="4.27081">
        <ele>761.98</ele>
        <time>2011-10-15T09:46:19Z</time>
      </trkpt>
      <trkpt lat="45.3251" lon="4.27114">
        <ele>761.02</ele>
        <time>2011-10-15T09:46:23Z</time>
      </trkpt>
      <trkpt lat="45.32523" lon="4.27181">
        <ele>758.14</ele>
        <time>2011-10-15T09:46:34Z</time>
      </trkpt>
      <trkpt lat="45.32529" lon="4.27205">
        <ele>761.5</ele>
        <time>2011-10-15T09:46:43Z</time>
      </trkpt>
      <trkpt lat="45.32529" lon="4.2721">
        <ele>762.94</ele>
        <time>2011-10-15T09:46:45Z</time>
      </trkpt>
      <trkpt lat="45.32523" lon="4.27249">
        <ele>769.19</ele>
        <time>2011-10-15T09:46:58Z</time>
      </trkpt>
      <trkpt lat="45.32518" lon="4.27262">
        <ele>770.63</ele>
        <time>2011-10-15T09:47:02Z</time>
      </trkpt>
      <trkpt lat="45.32516" lon="4.27281">
        <ele>769.67</ele>
        <time>2011-10-15T09:47:06Z</time>
      </trkpt>
      <trkpt lat="45.32514" lon="4.27287">
        <ele>769.19</ele>
        <time>2011-10-15T09:47:07Z</time>
      </trkpt>
      <trkpt lat="45.32511" lon="4.27294">
        <ele>769.19</ele>
        <time>2011-10-15T09:47:08Z</time>
      </trkpt>
      <trkpt lat="45.32502" lon="4.27314">
        <ele>768.23</ele>
        <time>2011-10-15T09:47:11Z</time>
      </trkpt>
      <trkpt lat="45.32486" lon="4.27352">
        <ele>767.27</ele>
        <time>2011-10-15T09:47:19Z</time>
      </trkpt>
      <trkpt lat="45.32469" lon="4.27402">
        <ele>767.27</ele>
        <time>2011-10-15T09:47:29Z</time>
      </trkpt>
      <trkpt lat="45.32466" lon="4.27415">
        <ele>769.19</ele>
        <time>2011-10-15T09:47:32Z</time>
      </trkpt>
      <trkpt lat="45.3246" lon="4.27471">
        <ele>776.4</ele>
        <time>2011-10-15T09:47:44Z</time>
      </trkpt>
      <trkpt lat="45.32442" lon="4.27529">
        <ele>781.21</ele>
        <time>2011-10-15T09:47:53Z</time>
      </trkpt>
      <trkpt lat="45.32437" lon="4.27545">
        <ele>781.69</ele>
        <time>2011-10-15T09:47:55Z</time>
      </trkpt>
      <trkpt lat="45.32435" lon="4.2755">
        <ele>782.17</ele>
        <time>2011-10-15T09:47:56Z</time>
      </trkpt>
      <trkpt lat="45.32435" lon="4.27553">
        <ele>782.17</ele>
        <time>2011-10-15T09:47:57Z</time>
      </trkpt>
      <trkpt lat="45.32435" lon="4.27557">
        <ele>782.65</ele>
        <time>2011-10-15T09:47:58Z</time>
      </trkpt>
      <trkpt lat="45.32438" lon="4.2756">
        <ele>782.65</ele>
        <time>2011-10-15T09:47:59Z</time>
      </trkpt>
      <trkpt lat="45.32444" lon="4.27564">
        <ele>782.17</ele>
        <time>2011-10-15T09:48:00Z</time>
      </trkpt>
      <trkpt lat="45.3245" lon="4.27571">
        <ele>782.65</ele>
        <time>2011-10-15T09:48:01Z</time>
      </trkpt>
      <trkpt lat="45.32496" lon="4.27615">
        <ele>778.32</ele>
        <time>2011-10-15T09:48:10Z</time>
      </trkpt>
      <trkpt lat="45.32499" lon="4.2762">
        <ele>777.84</ele>
        <time>2011-10-15T09:48:11Z</time>
      </trkpt>
      <trkpt lat="45.32503" lon="4.27634">
        <ele>776.88</ele>
        <time>2011-10-15T09:48:13Z</time>
      </trkpt>
      <trkpt lat="45.32504" lon="4.27642">
        <ele>776.4</ele>
        <time>2011-10-15T09:48:14Z</time>
      </trkpt>
      <trkpt lat="45.32504" lon="4.2765">
        <ele>775.44</ele>
        <time>2011-10-15T09:48:15Z</time>
      </trkpt>
      <trkpt lat="45.32532" lon="4.27736">
        <ele>770.15</ele>
        <time>2011-10-15T09:48:25Z</time>
      </trkpt>
      <trkpt lat="45.32536" lon="4.27744">
        <ele>770.15</ele>
        <time>2011-10-15T09:48:26Z</time>
      </trkpt>
      <trkpt lat="45.32547" lon="4.27768">
        <ele>769.19</ele>
        <time>2011-10-15T09:48:29Z</time>
      </trkpt>
      <trkpt lat="45.32548" lon="4.27777">
        <ele>768.23</ele>
        <time>2011-10-15T09:48:30Z</time>
      </trkpt>
      <trkpt lat="45.32551" lon="4.27786">
        <ele>767.27</ele>
        <time>2011-10-15T09:48:31Z</time>
      </trkpt>
      <trkpt lat="45.32553" lon="4.27796">
        <ele>766.31</ele>
        <time>2011-10-15T09:48:32Z</time>
      </trkpt>
      <trkpt lat="45.32553" lon="4.27806">
        <ele>765.35</ele>
        <time>2011-10-15T09:48:33Z</time>
      </trkpt>
      <trkpt lat="45.3255" lon="4.27816">
        <ele>764.87</ele>
        <time>2011-10-15T09:48:34Z</time>
      </trkpt>
      <trkpt lat="45.32546" lon="4.27825">
        <ele>764.39</ele>
        <time>2011-10-15T09:48:35Z</time>
      </trkpt>
      <trkpt lat="45.32541" lon="4.27833">
        <ele>763.42</ele>
        <time>2011-10-15T09:48:36Z</time>
      </trkpt>
      <trkpt lat="45.32533" lon="4.27851">
        <ele>762.46</ele>
        <time>2011-10-15T09:48:38Z</time>
      </trkpt>
      <trkpt lat="45.32529" lon="4.27861">
        <ele>761.98</ele>
        <time>2011-10-15T09:48:39Z</time>
      </trkpt>
      <trkpt lat="45.32527" lon="4.27872">
        <ele>761.5</ele>
        <time>2011-10-15T09:48:40Z</time>
      </trkpt>
      <trkpt lat="45.32525" lon="4.27881">
        <ele>761.02</ele>
        <time>2011-10-15T09:48:41Z</time>
      </trkpt>
      <trkpt lat="45.32524" lon="4.27889">
        <ele>760.54</ele>
        <time>2011-10-15T09:48:42Z</time>
      </trkpt>
      <trkpt lat="45.32524" lon="4.27896">
        <ele>760.06</ele>
        <time>2011-10-15T09:48:43Z</time>
      </trkpt>
      <trkpt lat="45.3252" lon="4.27926">
        <ele>757.66</ele>
        <time>2011-10-15T09:48:52Z</time>
      </trkpt>
      <trkpt lat="45.32521" lon="4.27963">
        <ele>755.73</ele>
        <time>2011-10-15T09:49:04Z</time>
      </trkpt>
      <trkpt lat="45.32523" lon="4.27979">
        <ele>755.25</ele>
        <time>2011-10-15T09:49:07Z</time>
      </trkpt>
      <trkpt lat="45.32524" lon="4.27985">
        <ele>755.25</ele>
        <time>2011-10-15T09:49:08Z</time>
      </trkpt>
      <trkpt lat="45.32524" lon="4.2799">
        <ele>754.77</ele>
        <time>2011-10-15T09:49:09Z</time>
      </trkpt>
      <trkpt lat="45.32524" lon="4.27995">
        <ele>754.77</ele>
        <time>2011-10-15T09:49:10Z</time>
      </trkpt>
      <trkpt lat="45.32525" lon="4.28">
        <ele>754.29</ele>
        <time>2011-10-15T09:49:11Z</time>
      </trkpt>
      <trkpt lat="45.32526" lon="4.28004">
        <ele>754.29</ele>
        <time>2011-10-15T09:49:12Z</time>
      </trkpt>
      <trkpt lat="45.32526" lon="4.28009">
        <ele>753.81</ele>
        <time>2011-10-15T09:49:13Z</time>
      </trkpt>
      <trkpt lat="45.32543" lon="4.2804">
        <ele>755.25</ele>
        <time>2011-10-15T09:49:24Z</time>
      </trkpt>
      <trkpt lat="45.32549" lon="4.28046">
        <ele>756.21</ele>
        <time>2011-10-15T09:49:27Z</time>
      </trkpt>
      <trkpt lat="45.32551" lon="4.28047">
        <ele>756.21</ele>
        <time>2011-10-15T09:49:28Z</time>
      </trkpt>
      <trkpt lat="45.32569" lon="4.2806">
        <ele>758.14</ele>
        <time>2011-10-15T09:49:37Z</time>
      </trkpt>
      <trkpt lat="45.32581" lon="4.28069">
        <ele>759.1</ele>
        <time>2011-10-15T09:49:43Z</time>
      </trkpt>
      <trkpt lat="45.32593" lon="4.28084">
        <ele>761.98</ele>
        <time>2011-10-15T09:49:51Z</time>
      </trkpt>
      <trkpt lat="45.32593" lon="4.28086">
        <ele>762.46</ele>
        <time>2011-10-15T09:49:52Z</time>
      </trkpt>
      <trkpt lat="45.32594" lon="4.28088">
        <ele>762.94</ele>
        <time>2011-10-15T09:49:53Z</time>
      </trkpt>
      <trkpt lat="45.32594" lon="4.2809">
        <ele>763.42</ele>
        <time>2011-10-15T09:49:54Z</time>
      </trkpt>
      <trkpt lat="45.32593" lon="4.28093">
        <ele>763.9</ele>
        <time>2011-10-15T09:49:55Z</time>
      </trkpt>
      <trkpt lat="45.326" lon="4.28127">
        <ele>765.35</ele>
        <time>2011-10-15T09:50:07Z</time>
      </trkpt>
      <trkpt lat="45.32605" lon="4.28173">
        <ele>762.94</ele>
        <time>2011-10-15T09:50:17Z</time>
      </trkpt>
      <trkpt lat="45.32606" lon="4.28179">
        <ele>762.46</ele>
        <time>2011-10-15T09:50:18Z</time>
      </trkpt>
      <trkpt lat="45.32608" lon="4.28185">
        <ele>761.98</ele>
        <time>2011-10-15T09:50:19Z</time>
      </trkpt>
      <trkpt lat="45.32609" lon="4.28192">
        <ele>761.5</ele>
        <time>2011-10-15T09:50:20Z</time>
      </trkpt>
      <trkpt lat="45.3261" lon="4.28198">
        <ele>760.54</ele>
        <time>2011-10-15T09:50:21Z</time>
      </trkpt>
      <trkpt lat="45.32613" lon="4.28203">
        <ele>760.06</ele>
        <time>2011-10-15T09:50:22Z</time>
      </trkpt>
      <trkpt lat="45.32616" lon="4.28206">
        <ele>759.1</ele>
        <time>2011-10-15T09:50:23Z</time>
      </trkpt>
      <trkpt lat="45.32621" lon="4.28207">
        <ele>757.66</ele>
        <time>2011-10-15T09:50:24Z</time>
      </trkpt>
      <trkpt lat="45.32626" lon="4.28207">
        <ele>756.69</ele>
        <time>2011-10-15T09:50:25Z</time>
      </trkpt>
      <trkpt lat="45.32632" lon="4.28207">
        <ele>755.73</ele>
        <time>2011-10-15T09:50:26Z</time>
      </trkpt>
      <trkpt lat="45.32665" lon="4.28204">
        <ele>751.41</ele>
        <time>2011-10-15T09:50:31Z</time>
      </trkpt>
      <trkpt lat="45.32672" lon="4.28202">
        <ele>750.45</ele>
        <time>2011-10-15T09:50:32Z</time>
      </trkpt>
      <trkpt lat="45.32681" lon="4.282">
        <ele>749.49</ele>
        <time>2011-10-15T09:50:33Z</time>
      </trkpt>
      <trkpt lat="45.32688" lon="4.28198">
        <ele>748.52</ele>
        <time>2011-10-15T09:50:34Z</time>
      </trkpt>
      <trkpt lat="45.32696" lon="4.28196">
        <ele>748.04</ele>
        <time>2011-10-15T09:50:35Z</time>
      </trkpt>
      <trkpt lat="45.32736" lon="4.28184">
        <ele>744.68</ele>
        <time>2011-10-15T09:50:40Z</time>
      </trkpt>
      <trkpt lat="45.32744" lon="4.28184">
        <ele>743.72</ele>
        <time>2011-10-15T09:50:41Z</time>
      </trkpt>
      <trkpt lat="45.3275" lon="4.28185">
        <ele>743.24</ele>
        <time>2011-10-15T09:50:42Z</time>
      </trkpt>
      <trkpt lat="45.32769" lon="4.28189">
        <ele>741.79</ele>
        <time>2011-10-15T09:50:45Z</time>
      </trkpt>
      <trkpt lat="45.32774" lon="4.28188">
        <ele>741.31</ele>
        <time>2011-10-15T09:50:46Z</time>
      </trkpt>
      <trkpt lat="45.32779" lon="4.28187">
        <ele>741.31</ele>
        <time>2011-10-15T09:50:47Z</time>
      </trkpt>
      <trkpt lat="45.32784" lon="4.28185">
        <ele>741.31</ele>
        <time>2011-10-15T09:50:48Z</time>
      </trkpt>
      <trkpt lat="45.32788" lon="4.28182">
        <ele>741.31</ele>
        <time>2011-10-15T09:50:49Z</time>
      </trkpt>
      <trkpt lat="45.32817" lon="4.28163">
        <ele>744.2</ele>
        <time>2011-10-15T09:51:00Z</time>
      </trkpt>
      <trkpt lat="45.3282" lon="4.28161">
        <ele>745.16</ele>
        <time>2011-10-15T09:51:02Z</time>
      </trkpt>
      <trkpt lat="45.32821" lon="4.28159">
        <ele>745.16</ele>
        <time>2011-10-15T09:51:03Z</time>
      </trkpt>
      <trkpt lat="45.32823" lon="4.28158">
        <ele>745.64</ele>
        <time>2011-10-15T09:51:04Z</time>
      </trkpt>
      <trkpt lat="45.32824" lon="4.28156">
        <ele>745.64</ele>
        <time>2011-10-15T09:51:05Z</time>
      </trkpt>
      <trkpt lat="45.32825" lon="4.28154">
        <ele>746.12</ele>
        <time>2011-10-15T09:51:06Z</time>
      </trkpt>
      <trkpt lat="45.32826" lon="4.28152">
        <ele>746.12</ele>
        <time>2011-10-15T09:51:07Z</time>
      </trkpt>
      <trkpt lat="45.32828" lon="4.2815">
        <ele>746.12</ele>
        <time>2011-10-15T09:51:08Z</time>
      </trkpt>
      <trkpt lat="45.3283" lon="4.28148">
        <ele>746.6</ele>
        <time>2011-10-15T09:51:09Z</time>
      </trkpt>
      <trkpt lat="45.32831" lon="4.28145">
        <ele>746.6</ele>
        <time>2011-10-15T09:51:10Z</time>
      </trkpt>
      <trkpt lat="45.32832" lon="4.28143">
        <ele>746.12</ele>
        <time>2011-10-15T09:51:11Z</time>
      </trkpt>
      <trkpt lat="45.32834" lon="4.28141">
        <ele>746.12</ele>
        <time>2011-10-15T09:51:12Z</time>
      </trkpt>
      <trkpt lat="45.32835" lon="4.28138">
        <ele>745.64</ele>
        <time>2011-10-15T09:51:13Z</time>
      </trkpt>
      <trkpt lat="45.32837" lon="4.28137">
        <ele>745.64</ele>
        <time>2011-10-15T09:51:14Z</time>
      </trkpt>
      <trkpt lat="45.32839" lon="4.28135">
        <ele>745.64</ele>
        <time>2011-10-15T09:51:15Z</time>
      </trkpt>
      <trkpt lat="45.3284" lon="4.28134">
        <ele>745.16</ele>
        <time>2011-10-15T09:51:16Z</time>
      </trkpt>
      <trkpt lat="45.32843" lon="4.28131">
        <ele>745.16</ele>
        <time>2011-10-15T09:51:18Z</time>
      </trkpt>
      <trkpt lat="45.32846" lon="4.28126">
        <ele>744.68</ele>
        <time>2011-10-15T09:51:20Z</time>
      </trkpt>
      <trkpt lat="45.32847" lon="4.28124">
        <ele>744.2</ele>
        <time>2011-10-15T09:51:21Z</time>
      </trkpt>
      <trkpt lat="45.32848" lon="4.28122">
        <ele>744.2</ele>
        <time>2011-10-15T09:51:22Z</time>
      </trkpt>
      <trkpt lat="45.3285" lon="4.28119">
        <ele>743.72</ele>
        <time>2011-10-15T09:51:23Z</time>
      </trkpt>
      <trkpt lat="45.32851" lon="4.28117">
        <ele>743.24</ele>
        <time>2011-10-15T09:51:24Z</time>
      </trkpt>
      <trkpt lat="45.32853" lon="4.28114">
        <ele>743.72</ele>
        <time>2011-10-15T09:51:25Z</time>
      </trkpt>
      <trkpt lat="45.32858" lon="4.28108">
        <ele>743.72</ele>
        <time>2011-10-15T09:51:28Z</time>
      </trkpt>
      <trkpt lat="45.32859" lon="4.28105">
        <ele>744.2</ele>
        <time>2011-10-15T09:51:29Z</time>
      </trkpt>
      <trkpt lat="45.3286" lon="4.28103">
        <ele>743.72</ele>
        <time>2011-10-15T09:51:30Z</time>
      </trkpt>
      <trkpt lat="45.32866" lon="4.28088">
        <ele>744.2</ele>
        <time>2011-10-15T09:51:36Z</time>
      </trkpt>
      <trkpt lat="45.32867" lon="4.28086">
        <ele>744.68</ele>
        <time>2011-10-15T09:51:37Z</time>
      </trkpt>
      <trkpt lat="45.32868" lon="4.28084">
        <ele>744.68</ele>
        <time>2011-10-15T09:51:38Z</time>
      </trkpt>
      <trkpt lat="45.32869" lon="4.28082">
        <ele>744.68</ele>
        <time>2011-10-15T09:51:39Z</time>
      </trkpt>
      <trkpt lat="45.3287" lon="4.2808">
        <ele>744.68</ele>
        <time>2011-10-15T09:51:40Z</time>
      </trkpt>
      <trkpt lat="45.32871" lon="4.28077">
        <ele>744.68</ele>
        <time>2011-10-15T09:51:41Z</time>
      </trkpt>
      <trkpt lat="45.32877" lon="4.28048">
        <ele>743.72</ele>
        <time>2011-10-15T09:51:52Z</time>
      </trkpt>
      <trkpt lat="45.32881" lon="4.28019">
        <ele>742.28</ele>
        <time>2011-10-15T09:52:04Z</time>
      </trkpt>
      <trkpt lat="45.32887" lon="4.28005">
        <ele>740.35</ele>
        <time>2011-10-15T09:52:11Z</time>
      </trkpt>
      <trkpt lat="45.32889" lon="4.28003">
        <ele>740.35</ele>
        <time>2011-10-15T09:52:12Z</time>
      </trkpt>
      <trkpt lat="45.32891" lon="4.28001">
        <ele>739.87</ele>
        <time>2011-10-15T09:52:14Z</time>
      </trkpt>
      <trkpt lat="45.32892" lon="4.27999">
        <ele>739.39</ele>
        <time>2011-10-15T09:52:15Z</time>
      </trkpt>
      <trkpt lat="45.32894" lon="4.27997">
        <ele>739.39</ele>
        <time>2011-10-15T09:52:16Z</time>
      </trkpt>
      <trkpt lat="45.32895" lon="4.27995">
        <ele>738.91</ele>
        <time>2011-10-15T09:52:17Z</time>
      </trkpt>
      <trkpt lat="45.32895" lon="4.27992">
        <ele>738.91</ele>
        <time>2011-10-15T09:52:18Z</time>
      </trkpt>
      <trkpt lat="45.32896" lon="4.27991">
        <ele>738.91</ele>
        <time>2011-10-15T09:52:19Z</time>
      </trkpt>
      <trkpt lat="45.32897" lon="4.27988">
        <ele>738.91</ele>
        <time>2011-10-15T09:52:20Z</time>
      </trkpt>
      <trkpt lat="45.32905" lon="4.27964">
        <ele>741.31</ele>
        <time>2011-10-15T09:52:31Z</time>
      </trkpt>
      <trkpt lat="45.32912" lon="4.27926">
        <ele>748.52</ele>
        <time>2011-10-15T09:52:46Z</time>
      </trkpt>
      <trkpt lat="45.32925" lon="4.27895">
        <ele>755.25</ele>
        <time>2011-10-15T09:52:59Z</time>
      </trkpt>
      <trkpt lat="45.32942" lon="4.27868">
        <ele>761.5</ele>
        <time>2011-10-15T09:53:13Z</time>
      </trkpt>
      <trkpt lat="45.32958" lon="4.27846">
        <ele>765.83</ele>
        <time>2011-10-15T09:53:25Z</time>
      </trkpt>
      <trkpt lat="45.32975" lon="4.2782">
        <ele>776.4</ele>
        <time>2011-10-15T09:53:39Z</time>
      </trkpt>
      <trkpt lat="45.32992" lon="4.27798">
        <ele>781.21</ele>
        <time>2011-10-15T09:53:50Z</time>
      </trkpt>
      <trkpt lat="45.33013" lon="4.27778">
        <ele>783.61</ele>
        <time>2011-10-15T09:54:02Z</time>
      </trkpt>
      <trkpt lat="45.33035" lon="4.27755">
        <ele>785.05</ele>
        <time>2011-10-15T09:54:14Z</time>
      </trkpt>
      <trkpt lat="45.33063" lon="4.27726">
        <ele>786.98</ele>
        <time>2011-10-15T09:54:30Z</time>
      </trkpt>
      <trkpt lat="45.33087" lon="4.27702">
        <ele>785.05</ele>
        <time>2011-10-15T09:54:45Z</time>
      </trkpt>
      <trkpt lat="45.33101" lon="4.27679">
        <ele>786.02</ele>
        <time>2011-10-15T09:54:57Z</time>
      </trkpt>
      <trkpt lat="45.33107" lon="4.27665">
        <ele>787.94</ele>
        <time>2011-10-15T09:55:04Z</time>
      </trkpt>
      <trkpt lat="45.33115" lon="4.27649">
        <ele>790.82</ele>
        <time>2011-10-15T09:55:12Z</time>
      </trkpt>
      <trkpt lat="45.33115" lon="4.27648">
        <ele>791.3</ele>
        <time>2011-10-15T09:55:13Z</time>
      </trkpt>
      <trkpt lat="45.33116" lon="4.27647">
        <ele>791.78</ele>
        <time>2011-10-15T09:55:14Z</time>
      </trkpt>
      <trkpt lat="45.33117" lon="4.27646">
        <ele>792.26</ele>
        <time>2011-10-15T09:55:15Z</time>
      </trkpt>
      <trkpt lat="45.33118" lon="4.27644">
        <ele>792.74</ele>
        <time>2011-10-15T09:55:16Z</time>
      </trkpt>
      <trkpt lat="45.33124" lon="4.27634">
        <ele>796.11</ele>
        <time>2011-10-15T09:55:23Z</time>
      </trkpt>
      <trkpt lat="45.33142" lon="4.27616">
        <ele>801.4</ele>
        <time>2011-10-15T09:55:37Z</time>
      </trkpt>
      <trkpt lat="45.33167" lon="4.27594">
        <ele>805.24</ele>
        <time>2011-10-15T09:55:52Z</time>
      </trkpt>
      <trkpt lat="45.33196" lon="4.27576">
        <ele>808.13</ele>
        <time>2011-10-15T09:56:04Z</time>
      </trkpt>
      <trkpt lat="45.3323" lon="4.27561">
        <ele>808.61</ele>
        <time>2011-10-15T09:56:16Z</time>
      </trkpt>
      <trkpt lat="45.33271" lon="4.27542">
        <ele>809.09</ele>
        <time>2011-10-15T09:56:28Z</time>
      </trkpt>
      <trkpt lat="45.33318" lon="4.27507">
        <ele>809.57</ele>
        <time>2011-10-15T09:56:41Z</time>
      </trkpt>
      <trkpt lat="45.33364" lon="4.2748">
        <ele>807.16</ele>
        <time>2011-10-15T09:56:54Z</time>
      </trkpt>
      <trkpt lat="45.33427" lon="4.27461">
        <ele>806.2</ele>
        <time>2011-10-15T09:57:08Z</time>
      </trkpt>
      <trkpt lat="45.33473" lon="4.27448">
        <ele>806.68</ele>
        <time>2011-10-15T09:57:18Z</time>
      </trkpt>
      <trkpt lat="45.335" lon="4.27443">
        <ele>806.2</ele>
        <time>2011-10-15T09:57:24Z</time>
      </trkpt>
      <trkpt lat="45.33539" lon="4.27424">
        <ele>807.64</ele>
        <time>2011-10-15T09:57:35Z</time>
      </trkpt>
      <trkpt lat="45.33539" lon="4.27419">
        <ele>808.13</ele>
        <time>2011-10-15T09:57:36Z</time>
      </trkpt>
      <trkpt lat="45.33539" lon="4.27414">
        <ele>808.13</ele>
        <time>2011-10-15T09:57:37Z</time>
      </trkpt>
      <trkpt lat="45.33533" lon="4.27385">
        <ele>808.61</ele>
        <time>2011-10-15T09:57:43Z</time>
      </trkpt>
      <trkpt lat="45.33527" lon="4.27366">
        <ele>809.09</ele>
        <time>2011-10-15T09:57:46Z</time>
      </trkpt>
      <trkpt lat="45.3352" lon="4.27273">
        <ele>807.64</ele>
        <time>2011-10-15T09:57:58Z</time>
      </trkpt>
      <trkpt lat="45.33519" lon="4.27258">
        <ele>807.16</ele>
        <time>2011-10-15T09:58:00Z</time>
      </trkpt>
      <trkpt lat="45.33515" lon="4.27247">
        <ele>806.68</ele>
        <time>2011-10-15T09:58:02Z</time>
      </trkpt>
      <trkpt lat="45.33513" lon="4.27244">
        <ele>806.68</ele>
        <time>2011-10-15T09:58:03Z</time>
      </trkpt>
      <trkpt lat="45.33509" lon="4.27242">
        <ele>806.68</ele>
        <time>2011-10-15T09:58:04Z</time>
      </trkpt>
      <trkpt lat="45.33507" lon="4.27243">
        <ele>806.68</ele>
        <time>2011-10-15T09:58:05Z</time>
      </trkpt>
      <trkpt lat="45.33503" lon="4.27243">
        <ele>807.16</ele>
        <time>2011-10-15T09:58:06Z</time>
      </trkpt>
      <trkpt lat="45.33501" lon="4.27244">
        <ele>807.16</ele>
        <time>2011-10-15T09:58:07Z</time>
      </trkpt>
      <trkpt lat="45.33498" lon="4.27246">
        <ele>807.64</ele>
        <time>2011-10-15T09:58:08Z</time>
      </trkpt>
      <trkpt lat="45.33496" lon="4.27248">
        <ele>807.64</ele>
        <time>2011-10-15T09:58:09Z</time>
      </trkpt>
      <trkpt lat="45.33495" lon="4.27251">
        <ele>807.16</ele>
        <time>2011-10-15T09:58:10Z</time>
      </trkpt>
      <trkpt lat="45.33493" lon="4.27262">
        <ele>805.72</ele>
        <time>2011-10-15T09:58:16Z</time>
      </trkpt>
      <trkpt lat="45.33494" lon="4.27261">
        <ele>805.72</ele>
        <time>2011-10-15T09:58:17Z</time>
      </trkpt>
      <trkpt lat="45.33496" lon="4.27259">
        <ele>805.24</ele>
        <time>2011-10-15T09:58:31Z</time>
      </trkpt>
      <trkpt lat="45.33496" lon="4.2726">
        <ele>805.24</ele>
        <time>2011-10-15T09:59:12Z</time>
      </trkpt>
      <trkpt lat="45.33497" lon="4.27261">
        <ele>805.24</ele>
        <time>2011-10-15T10:01:00Z</time>
      </trkpt>
      <trkpt lat="45.33497" lon="4.27262">
        <ele>807.64</ele>
        <time>2011-10-15T10:06:55Z</time>
      </trkpt>
      <trkpt lat="45.33496" lon="4.2726">
        <ele>807.64</ele>
        <time>2011-10-15T10:06:56Z</time>
      </trkpt>
      <trkpt lat="45.33495" lon="4.27258">
        <ele>807.16</ele>
        <time>2011-10-15T10:06:57Z</time>
      </trkpt>
      <trkpt lat="45.33496" lon="4.27256">
        <ele>807.16</ele>
        <time>2011-10-15T10:06:58Z</time>
      </trkpt>
      <trkpt lat="45.33497" lon="4.27254">
        <ele>806.68</ele>
        <time>2011-10-15T10:06:59Z</time>
      </trkpt>
      <trkpt lat="45.33498" lon="4.27251">
        <ele>806.68</ele>
        <time>2011-10-15T10:07:00Z</time>
      </trkpt>
      <trkpt lat="45.335" lon="4.27249">
        <ele>806.68</ele>
        <time>2011-10-15T10:07:01Z</time>
      </trkpt>
      <trkpt lat="45.33503" lon="4.27247">
        <ele>806.68</ele>
        <time>2011-10-15T10:07:02Z</time>
      </trkpt>
      <trkpt lat="45.33505" lon="4.27246">
        <ele>806.2</ele>
        <time>2011-10-15T10:07:03Z</time>
      </trkpt>
      <trkpt lat="45.33508" lon="4.27245">
        <ele>806.2</ele>
        <time>2011-10-15T10:07:04Z</time>
      </trkpt>
      <trkpt lat="45.33511" lon="4.27245">
        <ele>805.72</ele>
        <time>2011-10-15T10:07:05Z</time>
      </trkpt>
      <trkpt lat="45.33514" lon="4.27246">
        <ele>805.72</ele>
        <time>2011-10-15T10:07:06Z</time>
      </trkpt>
      <trkpt lat="45.33516" lon="4.27245">
        <ele>805.24</ele>
        <time>2011-10-15T10:07:07Z</time>
      </trkpt>
      <trkpt lat="45.33518" lon="4.27244">
        <ele>805.24</ele>
        <time>2011-10-15T10:07:08Z</time>
      </trkpt>
      <trkpt lat="45.3352" lon="4.27242">
        <ele>805.24</ele>
        <time>2011-10-15T10:07:09Z</time>
      </trkpt>
      <trkpt lat="45.33521" lon="4.27238">
        <ele>804.76</ele>
        <time>2011-10-15T10:07:10Z</time>
      </trkpt>
      <trkpt lat="45.33521" lon="4.27233">
        <ele>804.76</ele>
        <time>2011-10-15T10:07:11Z</time>
      </trkpt>
      <trkpt lat="45.33521" lon="4.27227">
        <ele>804.28</ele>
        <time>2011-10-15T10:07:12Z</time>
      </trkpt>
      <trkpt lat="45.3352" lon="4.27216">
        <ele>804.28</ele>
        <time>2011-10-15T10:07:14Z</time>
      </trkpt>
      <trkpt lat="45.33519" lon="4.2721">
        <ele>803.8</ele>
        <time>2011-10-15T10:07:15Z</time>
      </trkpt>
      <trkpt lat="45.33518" lon="4.27192">
        <ele>803.8</ele>
        <time>2011-10-15T10:07:18Z</time>
      </trkpt>
      <trkpt lat="45.33516" lon="4.2718">
        <ele>803.8</ele>
        <time>2011-10-15T10:07:20Z</time>
      </trkpt>
      <trkpt lat="45.33504" lon="4.27137">
        <ele>801.88</ele>
        <time>2011-10-15T10:07:26Z</time>
      </trkpt>
      <trkpt lat="45.33486" lon="4.27061">
        <ele>800.92</ele>
        <time>2011-10-15T10:07:36Z</time>
      </trkpt>
      <trkpt lat="45.33483" lon="4.27053">
        <ele>800.44</ele>
        <time>2011-10-15T10:07:37Z</time>
      </trkpt>
      <trkpt lat="45.33471" lon="4.27026">
        <ele>799.47</ele>
        <time>2011-10-15T10:07:41Z</time>
      </trkpt>
      <trkpt lat="45.33469" lon="4.27019">
        <ele>799.95</ele>
        <time>2011-10-15T10:07:42Z</time>
      </trkpt>
      <trkpt lat="45.33467" lon="4.27013">
        <ele>799.95</ele>
        <time>2011-10-15T10:07:43Z</time>
      </trkpt>
      <trkpt lat="45.33463" lon="4.27">
        <ele>799.47</ele>
        <time>2011-10-15T10:07:45Z</time>
      </trkpt>
      <trkpt lat="45.33457" lon="4.26977">
        <ele>799.47</ele>
        <time>2011-10-15T10:07:49Z</time>
      </trkpt>
      <trkpt lat="45.33455" lon="4.26971">
        <ele>799.47</ele>
        <time>2011-10-15T10:07:50Z</time>
      </trkpt>
      <trkpt lat="45.33454" lon="4.26966">
        <ele>799.47</ele>
        <time>2011-10-15T10:07:51Z</time>
      </trkpt>
      <trkpt lat="45.33453" lon="4.26961">
        <ele>798.99</ele>
        <time>2011-10-15T10:07:52Z</time>
      </trkpt>
      <trkpt lat="45.33453" lon="4.26956">
        <ele>798.99</ele>
        <time>2011-10-15T10:07:53Z</time>
      </trkpt>
      <trkpt lat="45.3345" lon="4.26933">
        <ele>798.51</ele>
        <time>2011-10-15T10:07:57Z</time>
      </trkpt>
      <trkpt lat="45.33448" lon="4.26922">
        <ele>798.51</ele>
        <time>2011-10-15T10:07:59Z</time>
      </trkpt>
      <trkpt lat="45.33445" lon="4.26909">
        <ele>798.51</ele>
        <time>2011-10-15T10:08:01Z</time>
      </trkpt>
      <trkpt lat="45.33443" lon="4.26902">
        <ele>798.51</ele>
        <time>2011-10-15T10:08:02Z</time>
      </trkpt>
      <trkpt lat="45.33443" lon="4.26894">
        <ele>798.51</ele>
        <time>2011-10-15T10:08:03Z</time>
      </trkpt>
      <trkpt lat="45.33443" lon="4.26884">
        <ele>798.51</ele>
        <time>2011-10-15T10:08:04Z</time>
      </trkpt>
      <trkpt lat="45.33443" lon="4.26874">
        <ele>798.51</ele>
        <time>2011-10-15T10:08:05Z</time>
      </trkpt>
      <trkpt lat="45.33448" lon="4.26833">
        <ele>798.03</ele>
        <time>2011-10-15T10:08:09Z</time>
      </trkpt>
      <trkpt lat="45.33451" lon="4.26823">
        <ele>798.51</ele>
        <time>2011-10-15T10:08:10Z</time>
      </trkpt>
      <trkpt lat="45.33457" lon="4.26803">
        <ele>798.03</ele>
        <time>2011-10-15T10:08:12Z</time>
      </trkpt>
      <trkpt lat="45.33459" lon="4.26793">
        <ele>798.03</ele>
        <time>2011-10-15T10:08:13Z</time>
      </trkpt>
      <trkpt lat="45.33476" lon="4.26681">
        <ele>797.55</ele>
        <time>2011-10-15T10:08:25Z</time>
      </trkpt>
      <trkpt lat="45.33479" lon="4.2665">
        <ele>798.03</ele>
        <time>2011-10-15T10:08:29Z</time>
      </trkpt>
      <trkpt lat="45.33483" lon="4.2662">
        <ele>798.03</ele>
        <time>2011-10-15T10:08:33Z</time>
      </trkpt>
      <trkpt lat="45.33485" lon="4.26596">
        <ele>797.55</ele>
        <time>2011-10-15T10:08:36Z</time>
      </trkpt>
      <trkpt lat="45.33488" lon="4.26589">
        <ele>797.55</ele>
        <time>2011-10-15T10:08:37Z</time>
      </trkpt>
      <trkpt lat="45.33491" lon="4.26581">
        <ele>797.55</ele>
        <time>2011-10-15T10:08:38Z</time>
      </trkpt>
      <trkpt lat="45.33521" lon="4.26498">
        <ele>799.47</ele>
        <time>2011-10-15T10:08:51Z</time>
      </trkpt>
      <trkpt lat="45.33526" lon="4.26477">
        <ele>799.47</ele>
        <time>2011-10-15T10:08:54Z</time>
      </trkpt>
      <trkpt lat="45.33528" lon="4.26463">
        <ele>799.47</ele>
        <time>2011-10-15T10:08:56Z</time>
      </trkpt>
      <trkpt lat="45.33528" lon="4.26363">
        <ele>798.03</ele>
        <time>2011-10-15T10:09:11Z</time>
      </trkpt>
      <trkpt lat="45.33527" lon="4.26339">
        <ele>797.55</ele>
        <time>2011-10-15T10:09:15Z</time>
      </trkpt>
      <trkpt lat="45.33526" lon="4.26333">
        <ele>797.55</ele>
        <time>2011-10-15T10:09:16Z</time>
      </trkpt>
      <trkpt lat="45.33526" lon="4.26283">
        <ele>795.63</ele>
        <time>2011-10-15T10:09:26Z</time>
      </trkpt>
      <trkpt lat="45.33531" lon="4.26231">
        <ele>798.51</ele>
        <time>2011-10-15T10:09:34Z</time>
      </trkpt>
      <trkpt lat="45.33539" lon="4.26172">
        <ele>801.88</ele>
        <time>2011-10-15T10:09:44Z</time>
      </trkpt>
      <trkpt lat="45.33544" lon="4.26124">
        <ele>802.84</ele>
        <time>2011-10-15T10:09:53Z</time>
      </trkpt>
      <trkpt lat="45.33557" lon="4.26077">
        <ele>801.4</ele>
        <time>2011-10-15T10:10:03Z</time>
      </trkpt>
      <trkpt lat="45.33558" lon="4.26072">
        <ele>801.4</ele>
        <time>2011-10-15T10:10:04Z</time>
      </trkpt>
      <trkpt lat="45.3356" lon="4.26066">
        <ele>801.4</ele>
        <time>2011-10-15T10:10:05Z</time>
      </trkpt>
      <trkpt lat="45.33566" lon="4.26056">
        <ele>801.4</ele>
        <time>2011-10-15T10:10:07Z</time>
      </trkpt>
      <trkpt lat="45.3357" lon="4.26054">
        <ele>801.4</ele>
        <time>2011-10-15T10:10:08Z</time>
      </trkpt>
      <trkpt lat="45.33575" lon="4.26052">
        <ele>801.4</ele>
        <time>2011-10-15T10:10:09Z</time>
      </trkpt>
      <trkpt lat="45.3358" lon="4.2605">
        <ele>800.92</ele>
        <time>2011-10-15T10:10:10Z</time>
      </trkpt>
      <trkpt lat="45.33586" lon="4.26047">
        <ele>800.92</ele>
        <time>2011-10-15T10:10:11Z</time>
      </trkpt>
      <trkpt lat="45.33593" lon="4.26044">
        <ele>800.44</ele>
        <time>2011-10-15T10:10:12Z</time>
      </trkpt>
      <trkpt lat="45.33599" lon="4.26039">
        <ele>799.95</ele>
        <time>2011-10-15T10:10:13Z</time>
      </trkpt>
      <trkpt lat="45.33606" lon="4.26034">
        <ele>799.47</ele>
        <time>2011-10-15T10:10:14Z</time>
      </trkpt>
      <trkpt lat="45.33612" lon="4.26027">
        <ele>798.51</ele>
        <time>2011-10-15T10:10:15Z</time>
      </trkpt>
      <trkpt lat="45.3362" lon="4.2602">
        <ele>797.55</ele>
        <time>2011-10-15T10:10:16Z</time>
      </trkpt>
      <trkpt lat="45.33628" lon="4.26013">
        <ele>796.59</ele>
        <time>2011-10-15T10:10:17Z</time>
      </trkpt>
      <trkpt lat="45.33636" lon="4.26006">
        <ele>795.63</ele>
        <time>2011-10-15T10:10:18Z</time>
      </trkpt>
      <trkpt lat="45.33643" lon="4.25997">
        <ele>794.67</ele>
        <time>2011-10-15T10:10:19Z</time>
      </trkpt>
      <trkpt lat="45.33651" lon="4.25987">
        <ele>793.22</ele>
        <time>2011-10-15T10:10:20Z</time>
      </trkpt>
      <trkpt lat="45.33666" lon="4.2597">
        <ele>791.78</ele>
        <time>2011-10-15T10:10:22Z</time>
      </trkpt>
      <trkpt lat="45.33673" lon="4.25962">
        <ele>790.82</ele>
        <time>2011-10-15T10:10:23Z</time>
      </trkpt>
      <trkpt lat="45.3374" lon="4.25881">
        <ele>782.17</ele>
        <time>2011-10-15T10:10:32Z</time>
      </trkpt>
      <trkpt lat="45.33775" lon="4.25824">
        <ele>777.84</ele>
        <time>2011-10-15T10:10:38Z</time>
      </trkpt>
      <trkpt lat="45.33782" lon="4.25816">
        <ele>777.36</ele>
        <time>2011-10-15T10:10:39Z</time>
      </trkpt>
      <trkpt lat="45.33868" lon="4.25713">
        <ele>773.04</ele>
        <time>2011-10-15T10:10:53Z</time>
      </trkpt>
      <trkpt lat="45.33891" lon="4.25676">
        <ele>772.08</ele>
        <time>2011-10-15T10:10:58Z</time>
      </trkpt>
      <trkpt lat="45.33894" lon="4.25669">
        <ele>772.08</ele>
        <time>2011-10-15T10:10:59Z</time>
      </trkpt>
      <trkpt lat="45.33897" lon="4.25662">
        <ele>772.08</ele>
        <time>2011-10-15T10:11:00Z</time>
      </trkpt>
      <trkpt lat="45.33899" lon="4.25654">
        <ele>772.08</ele>
        <time>2011-10-15T10:11:01Z</time>
      </trkpt>
      <trkpt lat="45.339" lon="4.25646">
        <ele>772.08</ele>
        <time>2011-10-15T10:11:02Z</time>
      </trkpt>
      <trkpt lat="45.33906" lon="4.25622">
        <ele>772.08</ele>
        <time>2011-10-15T10:11:05Z</time>
      </trkpt>
      <trkpt lat="45.33909" lon="4.25615">
        <ele>772.08</ele>
        <time>2011-10-15T10:11:06Z</time>
      </trkpt>
      <trkpt lat="45.33913" lon="4.25608">
        <ele>772.08</ele>
        <time>2011-10-15T10:11:07Z</time>
      </trkpt>
      <trkpt lat="45.33917" lon="4.25601">
        <ele>772.08</ele>
        <time>2011-10-15T10:11:08Z</time>
      </trkpt>
      <trkpt lat="45.33922" lon="4.25595">
        <ele>771.6</ele>
        <time>2011-10-15T10:11:09Z</time>
      </trkpt>
      <trkpt lat="45.33927" lon="4.25589">
        <ele>771.11</ele>
        <time>2011-10-15T10:11:10Z</time>
      </trkpt>
      <trkpt lat="45.33932" lon="4.25583">
        <ele>771.11</ele>
        <time>2011-10-15T10:11:11Z</time>
      </trkpt>
      <trkpt lat="45.33954" lon="4.25563">
        <ele>769.67</ele>
        <time>2011-10-15T10:11:15Z</time>
      </trkpt>
      <trkpt lat="45.3396" lon="4.25558">
        <ele>769.19</ele>
        <time>2011-10-15T10:11:16Z</time>
      </trkpt>
      <trkpt lat="45.34035" lon="4.2549">
        <ele>763.9</ele>
        <time>2011-10-15T10:11:28Z</time>
      </trkpt>
      <trkpt lat="45.3404" lon="4.25482">
        <ele>763.42</ele>
        <time>2011-10-15T10:11:29Z</time>
      </trkpt>
      <trkpt lat="45.34046" lon="4.25475">
        <ele>762.94</ele>
        <time>2011-10-15T10:11:30Z</time>
      </trkpt>
      <trkpt lat="45.34123" lon="4.25394">
        <ele>753.81</ele>
        <time>2011-10-15T10:11:41Z</time>
      </trkpt>
      <trkpt lat="45.34171" lon="4.25347">
        <ele>747.08</ele>
        <time>2011-10-15T10:11:49Z</time>
      </trkpt>
      <trkpt lat="45.34175" lon="4.25342">
        <ele>746.6</ele>
        <time>2011-10-15T10:11:50Z</time>
      </trkpt>
      <trkpt lat="45.34179" lon="4.25336">
        <ele>745.64</ele>
        <time>2011-10-15T10:11:51Z</time>
      </trkpt>
      <trkpt lat="45.34183" lon="4.25331">
        <ele>745.16</ele>
        <time>2011-10-15T10:11:52Z</time>
      </trkpt>
      <trkpt lat="45.34188" lon="4.25326">
        <ele>744.2</ele>
        <time>2011-10-15T10:11:53Z</time>
      </trkpt>
      <trkpt lat="45.34192" lon="4.25321">
        <ele>743.72</ele>
        <time>2011-10-15T10:11:54Z</time>
      </trkpt>
      <trkpt lat="45.34197" lon="4.25316">
        <ele>743.24</ele>
        <time>2011-10-15T10:11:55Z</time>
      </trkpt>
      <trkpt lat="45.34201" lon="4.25314">
        <ele>742.28</ele>
        <time>2011-10-15T10:11:56Z</time>
      </trkpt>
      <trkpt lat="45.34205" lon="4.25315">
        <ele>741.79</ele>
        <time>2011-10-15T10:11:57Z</time>
      </trkpt>
      <trkpt lat="45.34208" lon="4.25318">
        <ele>740.83</ele>
        <time>2011-10-15T10:11:58Z</time>
      </trkpt>
      <trkpt lat="45.34209" lon="4.25322">
        <ele>740.35</ele>
        <time>2011-10-15T10:11:59Z</time>
      </trkpt>
      <trkpt lat="45.3421" lon="4.25326">
        <ele>739.87</ele>
        <time>2011-10-15T10:12:00Z</time>
      </trkpt>
      <trkpt lat="45.3421" lon="4.25329">
        <ele>739.87</ele>
        <time>2011-10-15T10:12:01Z</time>
      </trkpt>
      <trkpt lat="45.3421" lon="4.25333">
        <ele>739.87</ele>
        <time>2011-10-15T10:12:02Z</time>
      </trkpt>
      <trkpt lat="45.34209" lon="4.25336">
        <ele>739.39</ele>
        <time>2011-10-15T10:12:03Z</time>
      </trkpt>
      <trkpt lat="45.34196" lon="4.25379">
        <ele>741.79</ele>
        <time>2011-10-15T10:12:14Z</time>
      </trkpt>
      <trkpt lat="45.34173" lon="4.25443">
        <ele>746.6</ele>
        <time>2011-10-15T10:12:29Z</time>
      </trkpt>
      <trkpt lat="45.34151" lon="4.25505">
        <ele>748.04</ele>
        <time>2011-10-15T10:12:43Z</time>
      </trkpt>
      <trkpt lat="45.34131" lon="4.25602">
        <ele>747.56</ele>
        <time>2011-10-15T10:13:00Z</time>
      </trkpt>
      <trkpt lat="45.34131" lon="4.25609">
        <ele>747.56</ele>
        <time>2011-10-15T10:13:01Z</time>
      </trkpt>
      <trkpt lat="45.34131" lon="4.25615">
        <ele>747.56</ele>
        <time>2011-10-15T10:13:02Z</time>
      </trkpt>
      <trkpt lat="45.34132" lon="4.25621">
        <ele>747.56</ele>
        <time>2011-10-15T10:13:03Z</time>
      </trkpt>
      <trkpt lat="45.34132" lon="4.257">
        <ele>750.45</ele>
        <time>2011-10-15T10:13:18Z</time>
      </trkpt>
      <trkpt lat="45.34122" lon="4.25771">
        <ele>751.89</ele>
        <time>2011-10-15T10:13:33Z</time>
      </trkpt>
      <trkpt lat="45.3412" lon="4.25819">
        <ele>753.81</ele>
        <time>2011-10-15T10:13:44Z</time>
      </trkpt>
      <trkpt lat="45.34124" lon="4.25874">
        <ele>755.25</ele>
        <time>2011-10-15T10:13:56Z</time>
      </trkpt>
      <trkpt lat="45.34124" lon="4.25917">
        <ele>755.25</ele>
        <time>2011-10-15T10:14:06Z</time>
      </trkpt>
      <trkpt lat="45.34118" lon="4.25966">
        <ele>755.73</ele>
        <time>2011-10-15T10:14:17Z</time>
      </trkpt>
      <trkpt lat="45.3411" lon="4.26023">
        <ele>760.54</ele>
        <time>2011-10-15T10:14:29Z</time>
      </trkpt>
      <trkpt lat="45.34104" lon="4.26096">
        <ele>762.94</ele>
        <time>2011-10-15T10:14:44Z</time>
      </trkpt>
      <trkpt lat="45.34098" lon="4.26151">
        <ele>765.35</ele>
        <time>2011-10-15T10:14:56Z</time>
      </trkpt>
      <trkpt lat="45.3409" lon="4.26215">
        <ele>765.83</ele>
        <time>2011-10-15T10:15:10Z</time>
      </trkpt>
      <trkpt lat="45.34086" lon="4.26239">
        <ele>764.87</ele>
        <time>2011-10-15T10:15:14Z</time>
      </trkpt>
      <trkpt lat="45.34084" lon="4.26247">
        <ele>764.87</ele>
        <time>2011-10-15T10:15:15Z</time>
      </trkpt>
      <trkpt lat="45.34081" lon="4.26254">
        <ele>763.9</ele>
        <time>2011-10-15T10:15:16Z</time>
      </trkpt>
      <trkpt lat="45.34078" lon="4.26263">
        <ele>763.9</ele>
        <time>2011-10-15T10:15:17Z</time>
      </trkpt>
      <trkpt lat="45.34075" lon="4.26272">
        <ele>763.42</ele>
        <time>2011-10-15T10:15:18Z</time>
      </trkpt>
      <trkpt lat="45.34071" lon="4.2628">
        <ele>762.94</ele>
        <time>2011-10-15T10:15:19Z</time>
      </trkpt>
      <trkpt lat="45.34067" lon="4.26289">
        <ele>762.46</ele>
        <time>2011-10-15T10:15:20Z</time>
      </trkpt>
      <trkpt lat="45.34056" lon="4.26315">
        <ele>761.5</ele>
        <time>2011-10-15T10:15:23Z</time>
      </trkpt>
      <trkpt lat="45.34054" lon="4.26324">
        <ele>761.02</ele>
        <time>2011-10-15T10:15:24Z</time>
      </trkpt>
      <trkpt lat="45.34053" lon="4.26333">
        <ele>761.02</ele>
        <time>2011-10-15T10:15:25Z</time>
      </trkpt>
      <trkpt lat="45.34052" lon="4.26342">
        <ele>761.02</ele>
        <time>2011-10-15T10:15:26Z</time>
      </trkpt>
      <trkpt lat="45.34053" lon="4.26351">
        <ele>761.02</ele>
        <time>2011-10-15T10:15:27Z</time>
      </trkpt>
      <trkpt lat="45.34056" lon="4.26359">
        <ele>761.02</ele>
        <time>2011-10-15T10:15:28Z</time>
      </trkpt>
      <trkpt lat="45.34058" lon="4.26366">
        <ele>761.02</ele>
        <time>2011-10-15T10:15:29Z</time>
      </trkpt>
      <trkpt lat="45.34062" lon="4.26371">
        <ele>761.02</ele>
        <time>2011-10-15T10:15:30Z</time>
      </trkpt>
      <trkpt lat="45.34066" lon="4.26376">
        <ele>761.02</ele>
        <time>2011-10-15T10:15:31Z</time>
      </trkpt>
      <trkpt lat="45.3407" lon="4.26378">
        <ele>761.5</ele>
        <time>2011-10-15T10:15:32Z</time>
      </trkpt>
      <trkpt lat="45.34074" lon="4.26379">
        <ele>761.5</ele>
        <time>2011-10-15T10:15:33Z</time>
      </trkpt>
      <trkpt lat="45.34077" lon="4.26378">
        <ele>761.98</ele>
        <time>2011-10-15T10:15:34Z</time>
      </trkpt>
      <trkpt lat="45.34102" lon="4.26369">
        <ele>764.39</ele>
        <time>2011-10-15T10:15:45Z</time>
      </trkpt>
      <trkpt lat="45.34135" lon="4.26352">
        <ele>766.31</ele>
        <time>2011-10-15T10:15:58Z</time>
      </trkpt>
      <trkpt lat="45.34166" lon="4.26327">
        <ele>769.19</ele>
        <time>2011-10-15T10:16:11Z</time>
      </trkpt>
      <trkpt lat="45.3419" lon="4.26321">
        <ele>773.04</ele>
        <time>2011-10-15T10:16:21Z</time>
      </trkpt>
      <trkpt lat="45.342" lon="4.26332">
        <ele>774.48</ele>
        <time>2011-10-15T10:16:27Z</time>
      </trkpt>
      <trkpt lat="45.34226" lon="4.26344">
        <ele>774.96</ele>
        <time>2011-10-15T10:16:40Z</time>
      </trkpt>
      <trkpt lat="45.34251" lon="4.26345">
        <ele>775.44</ele>
        <time>2011-10-15T10:16:51Z</time>
      </trkpt>
      <trkpt lat="45.3426" lon="4.26344">
        <ele>777.36</ele>
        <time>2011-10-15T10:16:55Z</time>
      </trkpt>
      <trkpt lat="45.34267" lon="4.26375">
        <ele>782.65</ele>
        <time>2011-10-15T10:17:07Z</time>
      </trkpt>
      <trkpt lat="45.34268" lon="4.26379">
        <ele>784.09</ele>
        <time>2011-10-15T10:17:09Z</time>
      </trkpt>
      <trkpt lat="45.34266" lon="4.26393">
        <ele>786.98</ele>
        <time>2011-10-15T10:17:14Z</time>
      </trkpt>
      <trkpt lat="45.34245" lon="4.26436">
        <ele>790.34</ele>
        <time>2011-10-15T10:17:30Z</time>
      </trkpt>
      <trkpt lat="45.34229" lon="4.26475">
        <ele>788.42</ele>
        <time>2011-10-15T10:17:42Z</time>
      </trkpt>
      <trkpt lat="45.34218" lon="4.2652">
        <ele>787.94</ele>
        <time>2011-10-15T10:17:53Z</time>
      </trkpt>
      <trkpt lat="45.34218" lon="4.26523">
        <ele>788.42</ele>
        <time>2011-10-15T10:17:54Z</time>
      </trkpt>
      <trkpt lat="45.34239" lon="4.26559">
        <ele>790.82</ele>
        <time>2011-10-15T10:18:08Z</time>
      </trkpt>
      <trkpt lat="45.34266" lon="4.26601">
        <ele>792.26</ele>
        <time>2011-10-15T10:18:23Z</time>
      </trkpt>
      <trkpt lat="45.34289" lon="4.26642">
        <ele>793.71</ele>
        <time>2011-10-15T10:18:35Z</time>
      </trkpt>
      <trkpt lat="45.34308" lon="4.26698">
        <ele>794.67</ele>
        <time>2011-10-15T10:18:49Z</time>
      </trkpt>
      <trkpt lat="45.34307" lon="4.26724">
        <ele>794.67</ele>
        <time>2011-10-15T10:18:54Z</time>
      </trkpt>
      <trkpt lat="45.34321" lon="4.26738">
        <ele>794.19</ele>
        <time>2011-10-15T10:18:59Z</time>
      </trkpt>
      <trkpt lat="45.34345" lon="4.26744">
        <ele>793.71</ele>
        <time>2011-10-15T10:19:07Z</time>
      </trkpt>
      <trkpt lat="45.34384" lon="4.26747">
        <ele>795.15</ele>
        <time>2011-10-15T10:19:19Z</time>
      </trkpt>
      <trkpt lat="45.34417" lon="4.26739">
        <ele>793.22</ele>
        <time>2011-10-15T10:19:29Z</time>
      </trkpt>
      <trkpt lat="45.34428" lon="4.26757">
        <ele>790.34</ele>
        <time>2011-10-15T10:19:35Z</time>
      </trkpt>
      <trkpt lat="45.34471" lon="4.26763">
        <ele>787.46</ele>
        <time>2011-10-15T10:19:47Z</time>
      </trkpt>
      <trkpt lat="45.34491" lon="4.26764">
        <ele>786.98</ele>
        <time>2011-10-15T10:19:54Z</time>
      </trkpt>
      <trkpt lat="45.34492" lon="4.26766">
        <ele>786.98</ele>
        <time>2011-10-15T10:19:55Z</time>
      </trkpt>
      <trkpt lat="45.34494" lon="4.26769">
        <ele>786.5</ele>
        <time>2011-10-15T10:19:56Z</time>
      </trkpt>
      <trkpt lat="45.34496" lon="4.26773">
        <ele>786.02</ele>
        <time>2011-10-15T10:19:57Z</time>
      </trkpt>
      <trkpt lat="45.34499" lon="4.26777">
        <ele>785.53</ele>
        <time>2011-10-15T10:19:58Z</time>
      </trkpt>
      <trkpt lat="45.34503" lon="4.26779">
        <ele>785.05</ele>
        <time>2011-10-15T10:19:59Z</time>
      </trkpt>
      <trkpt lat="45.34508" lon="4.26781">
        <ele>784.57</ele>
        <time>2011-10-15T10:20:00Z</time>
      </trkpt>
      <trkpt lat="45.34513" lon="4.26784">
        <ele>784.09</ele>
        <time>2011-10-15T10:20:01Z</time>
      </trkpt>
      <trkpt lat="45.34519" lon="4.26786">
        <ele>783.61</ele>
        <time>2011-10-15T10:20:02Z</time>
      </trkpt>
      <trkpt lat="45.34524" lon="4.26788">
        <ele>783.13</ele>
        <time>2011-10-15T10:20:03Z</time>
      </trkpt>
      <trkpt lat="45.34529" lon="4.26789">
        <ele>782.65</ele>
        <time>2011-10-15T10:20:04Z</time>
      </trkpt>
      <trkpt lat="45.34568" lon="4.26799">
        <ele>775.44</ele>
        <time>2011-10-15T10:20:14Z</time>
      </trkpt>
      <trkpt lat="45.34608" lon="4.26805">
        <ele>771.11</ele>
        <time>2011-10-15T10:20:24Z</time>
      </trkpt>
      <trkpt lat="45.34621" lon="4.26804">
        <ele>770.15</ele>
        <time>2011-10-15T10:20:27Z</time>
      </trkpt>
      <trkpt lat="45.34626" lon="4.26804">
        <ele>769.67</ele>
        <time>2011-10-15T10:20:28Z</time>
      </trkpt>
      <trkpt lat="45.34631" lon="4.26804">
        <ele>769.67</ele>
        <time>2011-10-15T10:20:29Z</time>
      </trkpt>
      <trkpt lat="45.34665" lon="4.26804">
        <ele>768.23</ele>
        <time>2011-10-15T10:20:34Z</time>
      </trkpt>
      <trkpt lat="45.34671" lon="4.26803">
        <ele>768.23</ele>
        <time>2011-10-15T10:20:35Z</time>
      </trkpt>
      <trkpt lat="45.34676" lon="4.26803">
        <ele>768.23</ele>
        <time>2011-10-15T10:20:36Z</time>
      </trkpt>
      <trkpt lat="45.34682" lon="4.26803">
        <ele>767.75</ele>
        <time>2011-10-15T10:20:37Z</time>
      </trkpt>
      <trkpt lat="45.34687" lon="4.26802">
        <ele>767.75</ele>
        <time>2011-10-15T10:20:38Z</time>
      </trkpt>
      <trkpt lat="45.34733" lon="4.26791">
        <ele>766.79</ele>
        <time>2011-10-15T10:20:47Z</time>
      </trkpt>
      <trkpt lat="45.3474" lon="4.2679">
        <ele>766.31</ele>
        <time>2011-10-15T10:20:48Z</time>
      </trkpt>
      <trkpt lat="45.34744" lon="4.26789">
        <ele>766.31</ele>
        <time>2011-10-15T10:20:49Z</time>
      </trkpt>
      <trkpt lat="45.34748" lon="4.26788">
        <ele>765.83</ele>
        <time>2011-10-15T10:20:50Z</time>
      </trkpt>
      <trkpt lat="45.34753" lon="4.26787">
        <ele>765.83</ele>
        <time>2011-10-15T10:20:51Z</time>
      </trkpt>
      <trkpt lat="45.34758" lon="4.26787">
        <ele>765.83</ele>
        <time>2011-10-15T10:20:52Z</time>
      </trkpt>
      <trkpt lat="45.34763" lon="4.26785">
        <ele>765.35</ele>
        <time>2011-10-15T10:20:53Z</time>
      </trkpt>
      <trkpt lat="45.34772" lon="4.26782">
        <ele>764.87</ele>
        <time>2011-10-15T10:20:54Z</time>
      </trkpt>
      <trkpt lat="45.34777" lon="4.26781">
        <ele>764.39</ele>
        <time>2011-10-15T10:20:55Z</time>
      </trkpt>
      <trkpt lat="45.34784" lon="4.26781">
        <ele>763.42</ele>
        <time>2011-10-15T10:20:56Z</time>
      </trkpt>
      <trkpt lat="45.34791" lon="4.2678">
        <ele>762.46</ele>
        <time>2011-10-15T10:20:57Z</time>
      </trkpt>
      <trkpt lat="45.34796" lon="4.26781">
        <ele>761.98</ele>
        <time>2011-10-15T10:20:58Z</time>
      </trkpt>
      <trkpt lat="45.34802" lon="4.2678">
        <ele>760.54</ele>
        <time>2011-10-15T10:20:59Z</time>
      </trkpt>
      <trkpt lat="45.34809" lon="4.2678">
        <ele>760.06</ele>
        <time>2011-10-15T10:21:00Z</time>
      </trkpt>
      <trkpt lat="45.34814" lon="4.26781">
        <ele>759.1</ele>
        <time>2011-10-15T10:21:01Z</time>
      </trkpt>
      <trkpt lat="45.3484" lon="4.26775">
        <ele>754.29</ele>
        <time>2011-10-15T10:21:05Z</time>
      </trkpt>
      <trkpt lat="45.34844" lon="4.26775">
        <ele>753.33</ele>
        <time>2011-10-15T10:21:06Z</time>
      </trkpt>
      <trkpt lat="45.34849" lon="4.26776">
        <ele>752.37</ele>
        <time>2011-10-15T10:21:07Z</time>
      </trkpt>
      <trkpt lat="45.34856" lon="4.26777">
        <ele>751.89</ele>
        <time>2011-10-15T10:21:08Z</time>
      </trkpt>
      <trkpt lat="45.34862" lon="4.26778">
        <ele>750.93</ele>
        <time>2011-10-15T10:21:09Z</time>
      </trkpt>
      <trkpt lat="45.34868" lon="4.26778">
        <ele>750.45</ele>
        <time>2011-10-15T10:21:10Z</time>
      </trkpt>
      <trkpt lat="45.34873" lon="4.26778">
        <ele>749.49</ele>
        <time>2011-10-15T10:21:11Z</time>
      </trkpt>
      <trkpt lat="45.34893" lon="4.26777">
        <ele>746.12</ele>
        <time>2011-10-15T10:21:14Z</time>
      </trkpt>
      <trkpt lat="45.34944" lon="4.26787">
        <ele>733.62</ele>
        <time>2011-10-15T10:21:23Z</time>
      </trkpt>
      <trkpt lat="45.34963" lon="4.26801">
        <ele>726.41</ele>
        <time>2011-10-15T10:21:29Z</time>
      </trkpt>
      <trkpt lat="45.34973" lon="4.26837">
        <ele>716.32</ele>
        <time>2011-10-15T10:21:37Z</time>
      </trkpt>
      <trkpt lat="45.34963" lon="4.26871">
        <ele>711.03</ele>
        <time>2011-10-15T10:21:42Z</time>
      </trkpt>
      <trkpt lat="45.34957" lon="4.26886">
        <ele>709.11</ele>
        <time>2011-10-15T10:21:44Z</time>
      </trkpt>
      <trkpt lat="45.34947" lon="4.2693">
        <ele>701.9</ele>
        <time>2011-10-15T10:21:52Z</time>
      </trkpt>
      <trkpt lat="45.34952" lon="4.26936">
        <ele>699.98</ele>
        <time>2011-10-15T10:21:54Z</time>
      </trkpt>
      <trkpt lat="45.34972" lon="4.26954">
        <ele>694.21</ele>
        <time>2011-10-15T10:22:01Z</time>
      </trkpt>
      <trkpt lat="45.34984" lon="4.26962">
        <ele>691.33</ele>
        <time>2011-10-15T10:22:04Z</time>
      </trkpt>
      <trkpt lat="45.34994" lon="4.2697">
        <ele>688.92</ele>
        <time>2011-10-15T10:22:06Z</time>
      </trkpt>
      <trkpt lat="45.35" lon="4.26973">
        <ele>687.96</ele>
        <time>2011-10-15T10:22:07Z</time>
      </trkpt>
      <trkpt lat="45.3501" lon="4.26981">
        <ele>685.56</ele>
        <time>2011-10-15T10:22:09Z</time>
      </trkpt>
      <trkpt lat="45.35028" lon="4.26994">
        <ele>680.75</ele>
        <time>2011-10-15T10:22:12Z</time>
      </trkpt>
      <trkpt lat="45.35033" lon="4.26996">
        <ele>678.83</ele>
        <time>2011-10-15T10:22:13Z</time>
      </trkpt>
      <trkpt lat="45.35045" lon="4.27">
        <ele>674.5</ele>
        <time>2011-10-15T10:22:16Z</time>
      </trkpt>
      <trkpt lat="45.35051" lon="4.26999">
        <ele>672.1</ele>
        <time>2011-10-15T10:22:18Z</time>
      </trkpt>
      <trkpt lat="45.35054" lon="4.26995">
        <ele>670.66</ele>
        <time>2011-10-15T10:22:19Z</time>
      </trkpt>
      <trkpt lat="45.35056" lon="4.26992">
        <ele>670.18</ele>
        <time>2011-10-15T10:22:20Z</time>
      </trkpt>
      <trkpt lat="45.35057" lon="4.26989">
        <ele>669.22</ele>
        <time>2011-10-15T10:22:21Z</time>
      </trkpt>
      <trkpt lat="45.35059" lon="4.26987">
        <ele>668.73</ele>
        <time>2011-10-15T10:22:22Z</time>
      </trkpt>
      <trkpt lat="45.3506" lon="4.26984">
        <ele>667.77</ele>
        <time>2011-10-15T10:22:23Z</time>
      </trkpt>
      <trkpt lat="45.35061" lon="4.26982">
        <ele>667.29</ele>
        <time>2011-10-15T10:22:24Z</time>
      </trkpt>
      <trkpt lat="45.35068" lon="4.2695">
        <ele>661.04</ele>
        <time>2011-10-15T10:22:37Z</time>
      </trkpt>
      <trkpt lat="45.35072" lon="4.26906">
        <ele>655.28</ele>
        <time>2011-10-15T10:22:47Z</time>
      </trkpt>
      <trkpt lat="45.35076" lon="4.26879">
        <ele>649.51</ele>
        <time>2011-10-15T10:22:53Z</time>
      </trkpt>
      <trkpt lat="45.35077" lon="4.26874">
        <ele>648.55</ele>
        <time>2011-10-15T10:22:54Z</time>
      </trkpt>
      <trkpt lat="45.35077" lon="4.26869">
        <ele>647.59</ele>
        <time>2011-10-15T10:22:55Z</time>
      </trkpt>
      <trkpt lat="45.35078" lon="4.26864">
        <ele>647.1</ele>
        <time>2011-10-15T10:22:56Z</time>
      </trkpt>
      <trkpt lat="45.35078" lon="4.26859">
        <ele>646.14</ele>
        <time>2011-10-15T10:22:57Z</time>
      </trkpt>
      <trkpt lat="45.35079" lon="4.26854">
        <ele>645.18</ele>
        <time>2011-10-15T10:22:58Z</time>
      </trkpt>
      <trkpt lat="45.35078" lon="4.26848">
        <ele>643.74</ele>
        <time>2011-10-15T10:22:59Z</time>
      </trkpt>
      <trkpt lat="45.35078" lon="4.2684">
        <ele>642.78</ele>
        <time>2011-10-15T10:23:00Z</time>
      </trkpt>
      <trkpt lat="45.35071" lon="4.26795">
        <ele>636.53</ele>
        <time>2011-10-15T10:23:09Z</time>
      </trkpt>
      <trkpt lat="45.35073" lon="4.26792">
        <ele>637.01</ele>
        <time>2011-10-15T10:23:10Z</time>
      </trkpt>
      <trkpt lat="45.35086" lon="4.26775">
        <ele>637.97</ele>
        <time>2011-10-15T10:23:15Z</time>
      </trkpt>
      <trkpt lat="45.35103" lon="4.26754">
        <ele>636.05</ele>
        <time>2011-10-15T10:23:19Z</time>
      </trkpt>
      <trkpt lat="45.35122" lon="4.26727">
        <ele>634.13</ele>
        <time>2011-10-15T10:23:26Z</time>
      </trkpt>
      <trkpt lat="45.35127" lon="4.26721">
        <ele>633.17</ele>
        <time>2011-10-15T10:23:28Z</time>
      </trkpt>
      <trkpt lat="45.35133" lon="4.26711">
        <ele>632.2</ele>
        <time>2011-10-15T10:23:30Z</time>
      </trkpt>
      <trkpt lat="45.35138" lon="4.26703">
        <ele>632.2</ele>
        <time>2011-10-15T10:23:31Z</time>
      </trkpt>
      <trkpt lat="45.35143" lon="4.26695">
        <ele>631.72</ele>
        <time>2011-10-15T10:23:32Z</time>
      </trkpt>
      <trkpt lat="45.35145" lon="4.26688">
        <ele>631.24</ele>
        <time>2011-10-15T10:23:33Z</time>
      </trkpt>
      <trkpt lat="45.35147" lon="4.2668">
        <ele>631.24</ele>
        <time>2011-10-15T10:23:34Z</time>
      </trkpt>
      <trkpt lat="45.35147" lon="4.26673">
        <ele>630.76</ele>
        <time>2011-10-15T10:23:35Z</time>
      </trkpt>
      <trkpt lat="45.35147" lon="4.26667">
        <ele>630.28</ele>
        <time>2011-10-15T10:23:36Z</time>
      </trkpt>
      <trkpt lat="45.35145" lon="4.26662">
        <ele>629.32</ele>
        <time>2011-10-15T10:23:37Z</time>
      </trkpt>
      <trkpt lat="45.35145" lon="4.26655">
        <ele>629.32</ele>
        <time>2011-10-15T10:23:38Z</time>
      </trkpt>
      <trkpt lat="45.35151" lon="4.2663">
        <ele>627.4</ele>
        <time>2011-10-15T10:23:47Z</time>
      </trkpt>
      <trkpt lat="45.3515" lon="4.26622">
        <ele>626.44</ele>
        <time>2011-10-15T10:23:55Z</time>
      </trkpt>
      <trkpt lat="45.35149" lon="4.26622">
        <ele>625.96</ele>
        <time>2011-10-15T10:23:56Z</time>
      </trkpt>
      <trkpt lat="45.35148" lon="4.26622">
        <ele>625.47</ele>
        <time>2011-10-15T10:23:57Z</time>
      </trkpt>
      <trkpt lat="45.35147" lon="4.2662">
        <ele>624.51</ele>
        <time>2011-10-15T10:23:58Z</time>
      </trkpt>
      <trkpt lat="45.35146" lon="4.26618">
        <ele>624.03</ele>
        <time>2011-10-15T10:23:59Z</time>
      </trkpt>
      <trkpt lat="45.35144" lon="4.26614">
        <ele>623.07</ele>
        <time>2011-10-15T10:24:00Z</time>
      </trkpt>
      <trkpt lat="45.35143" lon="4.26605">
        <ele>618.26</ele>
        <time>2011-10-15T10:24:05Z</time>
      </trkpt>
      <trkpt lat="45.35144" lon="4.26606">
        <ele>617.78</ele>
        <time>2011-10-15T10:24:06Z</time>
      </trkpt>
      <trkpt lat="45.35148" lon="4.26608">
        <ele>617.78</ele>
        <time>2011-10-15T10:24:10Z</time>
      </trkpt>
      <trkpt lat="45.35149" lon="4.26609">
        <ele>617.78</ele>
        <time>2011-10-15T10:24:11Z</time>
      </trkpt>
      <trkpt lat="45.35149" lon="4.26612">
        <ele>617.78</ele>
        <time>2011-10-15T10:24:12Z</time>
      </trkpt>
      <trkpt lat="45.35152" lon="4.2662">
        <ele>617.3</ele>
        <time>2011-10-15T10:24:16Z</time>
      </trkpt>
      <trkpt lat="45.35152" lon="4.2662">
        <ele>617.3</ele>
        <time>2011-10-15T10:24:17Z</time>
      </trkpt>
      <trkpt lat="45.35157" lon="4.26619">
        <ele>616.82</ele>
        <time>2011-10-15T10:24:20Z</time>
      </trkpt>
      <trkpt lat="45.35163" lon="4.26615">
        <ele>617.3</ele>
        <time>2011-10-15T10:24:21Z</time>
      </trkpt>
      <trkpt lat="45.35169" lon="4.2661">
        <ele>617.78</ele>
        <time>2011-10-15T10:24:22Z</time>
      </trkpt>
      <trkpt lat="45.35174" lon="4.26605">
        <ele>618.26</ele>
        <time>2011-10-15T10:24:23Z</time>
      </trkpt>
      <trkpt lat="45.35177" lon="4.26603">
        <ele>618.26</ele>
        <time>2011-10-15T10:24:24Z</time>
      </trkpt>
      <trkpt lat="45.35231" lon="4.26548">
        <ele>623.55</ele>
        <time>2011-10-15T10:24:37Z</time>
      </trkpt>
      <trkpt lat="45.35236" lon="4.26534">
        <ele>623.55</ele>
        <time>2011-10-15T10:24:40Z</time>
      </trkpt>
      <trkpt lat="45.35239" lon="4.26525">
        <ele>626.44</ele>
        <time>2011-10-15T10:24:41Z</time>
      </trkpt>
      <trkpt lat="45.3524" lon="4.26519">
        <ele>626.44</ele>
        <time>2011-10-15T10:24:42Z</time>
      </trkpt>
      <trkpt lat="45.35242" lon="4.26511">
        <ele>627.4</ele>
        <time>2011-10-15T10:24:43Z</time>
      </trkpt>
      <trkpt lat="45.35243" lon="4.26503">
        <ele>628.36</ele>
        <time>2011-10-15T10:24:44Z</time>
      </trkpt>
      <trkpt lat="45.35242" lon="4.26495">
        <ele>628.84</ele>
        <time>2011-10-15T10:24:45Z</time>
      </trkpt>
      <trkpt lat="45.35241" lon="4.26488">
        <ele>628.36</ele>
        <time>2011-10-15T10:24:46Z</time>
      </trkpt>
      <trkpt lat="45.35239" lon="4.26482">
        <ele>628.36</ele>
        <time>2011-10-15T10:24:47Z</time>
      </trkpt>
      <trkpt lat="45.35242" lon="4.2647">
        <ele>627.88</ele>
        <time>2011-10-15T10:24:48Z</time>
      </trkpt>
      <trkpt lat="45.35243" lon="4.2646">
        <ele>627.88</ele>
        <time>2011-10-15T10:24:49Z</time>
      </trkpt>
      <trkpt lat="45.35243" lon="4.26452">
        <ele>627.4</ele>
        <time>2011-10-15T10:24:50Z</time>
      </trkpt>
      <trkpt lat="45.35242" lon="4.26444">
        <ele>627.4</ele>
        <time>2011-10-15T10:24:51Z</time>
      </trkpt>
      <trkpt lat="45.35244" lon="4.26437">
        <ele>626.92</ele>
        <time>2011-10-15T10:24:52Z</time>
      </trkpt>
      <trkpt lat="45.35247" lon="4.26432">
        <ele>626.92</ele>
        <time>2011-10-15T10:24:53Z</time>
      </trkpt>
      <trkpt lat="45.35252" lon="4.26427">
        <ele>627.4</ele>
        <time>2011-10-15T10:24:54Z</time>
      </trkpt>
      <trkpt lat="45.35258" lon="4.26424">
        <ele>627.4</ele>
        <time>2011-10-15T10:24:55Z</time>
      </trkpt>
      <trkpt lat="45.35264" lon="4.26421">
        <ele>627.4</ele>
        <time>2011-10-15T10:24:56Z</time>
      </trkpt>
      <trkpt lat="45.35307" lon="4.26408">
        <ele>627.88</ele>
        <time>2011-10-15T10:25:04Z</time>
      </trkpt>
      <trkpt lat="45.35311" lon="4.26407">
        <ele>628.36</ele>
        <time>2011-10-15T10:25:05Z</time>
      </trkpt>
      <trkpt lat="45.35315" lon="4.26405">
        <ele>628.36</ele>
        <time>2011-10-15T10:25:06Z</time>
      </trkpt>
      <trkpt lat="45.35354" lon="4.26381">
        <ele>631.24</ele>
        <time>2011-10-15T10:25:16Z</time>
      </trkpt>
      <trkpt lat="45.35361" lon="4.26381">
        <ele>631.72</ele>
        <time>2011-10-15T10:25:18Z</time>
      </trkpt>
      <trkpt lat="45.35363" lon="4.26383">
        <ele>631.72</ele>
        <time>2011-10-15T10:25:19Z</time>
      </trkpt>
      <trkpt lat="45.35366" lon="4.26388">
        <ele>631.24</ele>
        <time>2011-10-15T10:25:21Z</time>
      </trkpt>
      <trkpt lat="45.35376" lon="4.26395">
        <ele>630.76</ele>
        <time>2011-10-15T10:25:25Z</time>
      </trkpt>
      <trkpt lat="45.35382" lon="4.26411">
        <ele>629.32</ele>
        <time>2011-10-15T10:25:31Z</time>
      </trkpt>
      <trkpt lat="45.35388" lon="4.26425">
        <ele>628.36</ele>
        <time>2011-10-15T10:25:34Z</time>
      </trkpt>
      <trkpt lat="45.35394" lon="4.26437">
        <ele>627.4</ele>
        <time>2011-10-15T10:25:36Z</time>
      </trkpt>
      <trkpt lat="45.35397" lon="4.26442">
        <ele>626.44</ele>
        <time>2011-10-15T10:25:37Z</time>
      </trkpt>
      <trkpt lat="45.35404" lon="4.26455">
        <ele>625.47</ele>
        <time>2011-10-15T10:25:39Z</time>
      </trkpt>
      <trkpt lat="45.35408" lon="4.26461">
        <ele>624.99</ele>
        <time>2011-10-15T10:25:40Z</time>
      </trkpt>
      <trkpt lat="45.35411" lon="4.26466">
        <ele>624.51</ele>
        <time>2011-10-15T10:25:41Z</time>
      </trkpt>
      <trkpt lat="45.35414" lon="4.26473">
        <ele>624.03</ele>
        <time>2011-10-15T10:25:42Z</time>
      </trkpt>
      <trkpt lat="45.35416" lon="4.26479">
        <ele>623.55</ele>
        <time>2011-10-15T10:25:43Z</time>
      </trkpt>
      <trkpt lat="45.35422" lon="4.26498">
        <ele>621.15</ele>
        <time>2011-10-15T10:25:47Z</time>
      </trkpt>
      <trkpt lat="45.35425" lon="4.26502">
        <ele>620.19</ele>
        <time>2011-10-15T10:25:48Z</time>
      </trkpt>
      <trkpt lat="45.35427" lon="4.26505">
        <ele>618.75</ele>
        <time>2011-10-15T10:25:49Z</time>
      </trkpt>
      <trkpt lat="45.3543" lon="4.26508">
        <ele>617.78</ele>
        <time>2011-10-15T10:25:50Z</time>
      </trkpt>
      <trkpt lat="45.35433" lon="4.26508">
        <ele>616.82</ele>
        <time>2011-10-15T10:25:51Z</time>
      </trkpt>
      <trkpt lat="45.35435" lon="4.26508">
        <ele>615.86</ele>
        <time>2011-10-15T10:25:52Z</time>
      </trkpt>
      <trkpt lat="45.35452" lon="4.26503">
        <ele>610.57</ele>
        <time>2011-10-15T10:25:58Z</time>
      </trkpt>
      <trkpt lat="45.35455" lon="4.26504">
        <ele>609.61</ele>
        <time>2011-10-15T10:25:59Z</time>
      </trkpt>
      <trkpt lat="45.35457" lon="4.26505">
        <ele>608.65</ele>
        <time>2011-10-15T10:26:00Z</time>
      </trkpt>
      <trkpt lat="45.35458" lon="4.26526">
        <ele>604.33</ele>
        <time>2011-10-15T10:26:06Z</time>
      </trkpt>
      <trkpt lat="45.35457" lon="4.26529">
        <ele>603.85</ele>
        <time>2011-10-15T10:26:07Z</time>
      </trkpt>
      <trkpt lat="45.35438" lon="4.26551">
        <ele>598.56</ele>
        <time>2011-10-15T10:26:14Z</time>
      </trkpt>
      <trkpt lat="45.35433" lon="4.26553">
        <ele>597.6</ele>
        <time>2011-10-15T10:26:15Z</time>
      </trkpt>
      <trkpt lat="45.35428" lon="4.26554">
        <ele>597.12</ele>
        <time>2011-10-15T10:26:16Z</time>
      </trkpt>
      <trkpt lat="45.35425" lon="4.26554">
        <ele>596.15</ele>
        <time>2011-10-15T10:26:17Z</time>
      </trkpt>
      <trkpt lat="45.35423" lon="4.26554">
        <ele>595.19</ele>
        <time>2011-10-15T10:26:18Z</time>
      </trkpt>
      <trkpt lat="45.35422" lon="4.26554">
        <ele>594.71</ele>
        <time>2011-10-15T10:26:19Z</time>
      </trkpt>
      <trkpt lat="45.35421" lon="4.26554">
        <ele>593.75</ele>
        <time>2011-10-15T10:26:20Z</time>
      </trkpt>
      <trkpt lat="45.35419" lon="4.26555">
        <ele>593.27</ele>
        <time>2011-10-15T10:26:21Z</time>
      </trkpt>
      <trkpt lat="45.35418" lon="4.26555">
        <ele>592.31</ele>
        <time>2011-10-15T10:26:22Z</time>
      </trkpt>
      <trkpt lat="45.35417" lon="4.26554">
        <ele>591.35</ele>
        <time>2011-10-15T10:26:23Z</time>
      </trkpt>
      <trkpt lat="45.35416" lon="4.26553">
        <ele>590.39</ele>
        <time>2011-10-15T10:26:24Z</time>
      </trkpt>
      <trkpt lat="45.35414" lon="4.26552">
        <ele>589.43</ele>
        <time>2011-10-15T10:26:25Z</time>
      </trkpt>
      <trkpt lat="45.35411" lon="4.2655">
        <ele>587.98</ele>
        <time>2011-10-15T10:26:26Z</time>
      </trkpt>
      <trkpt lat="45.35408" lon="4.26548">
        <ele>587.02</ele>
        <time>2011-10-15T10:26:27Z</time>
      </trkpt>
      <trkpt lat="45.35405" lon="4.26546">
        <ele>586.06</ele>
        <time>2011-10-15T10:26:28Z</time>
      </trkpt>
      <trkpt lat="45.35401" lon="4.26544">
        <ele>584.62</ele>
        <time>2011-10-15T10:26:29Z</time>
      </trkpt>
      <trkpt lat="45.35398" lon="4.26542">
        <ele>583.18</ele>
        <time>2011-10-15T10:26:30Z</time>
      </trkpt>
      <trkpt lat="45.35396" lon="4.26544">
        <ele>582.7</ele>
        <time>2011-10-15T10:26:31Z</time>
      </trkpt>
      <trkpt lat="45.35396" lon="4.26548">
        <ele>582.7</ele>
        <time>2011-10-15T10:26:33Z</time>
      </trkpt>
      <trkpt lat="45.35408" lon="4.26568">
        <ele>581.25</ele>
        <time>2011-10-15T10:26:41Z</time>
      </trkpt>
      <trkpt lat="45.35416" lon="4.26591">
        <ele>576.45</ele>
        <time>2011-10-15T10:26:48Z</time>
      </trkpt>
      <trkpt lat="45.35431" lon="4.26599">
        <ele>572.12</ele>
        <time>2011-10-15T10:26:57Z</time>
      </trkpt>
      <trkpt lat="45.35457" lon="4.26608">
        <ele>570.68</ele>
        <time>2011-10-15T10:27:05Z</time>
      </trkpt>
      <trkpt lat="45.3547" lon="4.26608">
        <ele>569.72</ele>
        <time>2011-10-15T10:27:07Z</time>
      </trkpt>
      <trkpt lat="45.35477" lon="4.26608">
        <ele>569.24</ele>
        <time>2011-10-15T10:27:08Z</time>
      </trkpt>
      <trkpt lat="45.35491" lon="4.26607">
        <ele>567.8</ele>
        <time>2011-10-15T10:27:10Z</time>
      </trkpt>
      <trkpt lat="45.35497" lon="4.26605">
        <ele>567.8</ele>
        <time>2011-10-15T10:27:11Z</time>
      </trkpt>
      <trkpt lat="45.35502" lon="4.26605">
        <ele>567.32</ele>
        <time>2011-10-15T10:27:12Z</time>
      </trkpt>
      <trkpt lat="45.35534" lon="4.26613">
        <ele>564.91</ele>
        <time>2011-10-15T10:27:20Z</time>
      </trkpt>
      <trkpt lat="45.35536" lon="4.26613">
        <ele>564.91</ele>
        <time>2011-10-15T10:27:21Z</time>
      </trkpt>
      <trkpt lat="45.35538" lon="4.26612">
        <ele>564.43</ele>
        <time>2011-10-15T10:27:22Z</time>
      </trkpt>
      <trkpt lat="45.35541" lon="4.26611">
        <ele>563.95</ele>
        <time>2011-10-15T10:27:23Z</time>
      </trkpt>
      <trkpt lat="45.35544" lon="4.26609">
        <ele>562.99</ele>
        <time>2011-10-15T10:27:24Z</time>
      </trkpt>
      <trkpt lat="45.35547" lon="4.26606">
        <ele>562.51</ele>
        <time>2011-10-15T10:27:25Z</time>
      </trkpt>
      <trkpt lat="45.35553" lon="4.26571">
        <ele>558.18</ele>
        <time>2011-10-15T10:27:32Z</time>
      </trkpt>
      <trkpt lat="45.35554" lon="4.26566">
        <ele>557.22</ele>
        <time>2011-10-15T10:27:33Z</time>
      </trkpt>
      <trkpt lat="45.35555" lon="4.26524">
        <ele>549.53</ele>
        <time>2011-10-15T10:27:41Z</time>
      </trkpt>
      <trkpt lat="45.35559" lon="4.26487">
        <ele>546.65</ele>
        <time>2011-10-15T10:27:49Z</time>
      </trkpt>
      <trkpt lat="45.35564" lon="4.26485">
        <ele>547.13</ele>
        <time>2011-10-15T10:27:51Z</time>
      </trkpt>
      <trkpt lat="45.35597" lon="4.26488">
        <ele>550.49</ele>
        <time>2011-10-15T10:28:02Z</time>
      </trkpt>
      <trkpt lat="45.35619" lon="4.26511">
        <ele>553.86</ele>
        <time>2011-10-15T10:28:11Z</time>
      </trkpt>
      <trkpt lat="45.35648" lon="4.2654">
        <ele>562.51</ele>
        <time>2011-10-15T10:28:23Z</time>
      </trkpt>
      <trkpt lat="45.35677" lon="4.26553">
        <ele>567.8</ele>
        <time>2011-10-15T10:28:34Z</time>
      </trkpt>
      <trkpt lat="45.35705" lon="4.2656">
        <ele>570.2</ele>
        <time>2011-10-15T10:28:45Z</time>
      </trkpt>
      <trkpt lat="45.35708" lon="4.2656">
        <ele>569.72</ele>
        <time>2011-10-15T10:28:46Z</time>
      </trkpt>
      <trkpt lat="45.35727" lon="4.26564">
        <ele>567.32</ele>
        <time>2011-10-15T10:28:53Z</time>
      </trkpt>
      <trkpt lat="45.35753" lon="4.26574">
        <ele>568.28</ele>
        <time>2011-10-15T10:29:03Z</time>
      </trkpt>
      <trkpt lat="45.35785" lon="4.26581">
        <ele>569.72</ele>
        <time>2011-10-15T10:29:14Z</time>
      </trkpt>
      <trkpt lat="45.35817" lon="4.26592">
        <ele>569.72</ele>
        <time>2011-10-15T10:29:25Z</time>
      </trkpt>
      <trkpt lat="45.35831" lon="4.26599">
        <ele>569.24</ele>
        <time>2011-10-15T10:29:29Z</time>
      </trkpt>
      <trkpt lat="45.35856" lon="4.26616">
        <ele>569.24</ele>
        <time>2011-10-15T10:29:35Z</time>
      </trkpt>
      <trkpt lat="45.35884" lon="4.26637">
        <ele>568.28</ele>
        <time>2011-10-15T10:29:41Z</time>
      </trkpt>
      <trkpt lat="45.35889" lon="4.26641">
        <ele>567.8</ele>
        <time>2011-10-15T10:29:42Z</time>
      </trkpt>
      <trkpt lat="45.35894" lon="4.26644">
        <ele>567.8</ele>
        <time>2011-10-15T10:29:43Z</time>
      </trkpt>
      <trkpt lat="45.359" lon="4.26647">
        <ele>567.8</ele>
        <time>2011-10-15T10:29:44Z</time>
      </trkpt>
      <trkpt lat="45.35905" lon="4.26649">
        <ele>567.8</ele>
        <time>2011-10-15T10:29:45Z</time>
      </trkpt>
      <trkpt lat="45.35911" lon="4.26651">
        <ele>567.8</ele>
        <time>2011-10-15T10:29:46Z</time>
      </trkpt>
      <trkpt lat="45.35916" lon="4.26651">
        <ele>567.32</ele>
        <time>2011-10-15T10:29:47Z</time>
      </trkpt>
      <trkpt lat="45.35921" lon="4.26649">
        <ele>566.83</ele>
        <time>2011-10-15T10:29:48Z</time>
      </trkpt>
      <trkpt lat="45.35925" lon="4.26645">
        <ele>566.35</ele>
        <time>2011-10-15T10:29:49Z</time>
      </trkpt>
      <trkpt lat="45.35928" lon="4.26638">
        <ele>565.39</ele>
        <time>2011-10-15T10:29:50Z</time>
      </trkpt>
      <trkpt lat="45.35931" lon="4.26631">
        <ele>564.91</ele>
        <time>2011-10-15T10:29:51Z</time>
      </trkpt>
      <trkpt lat="45.35934" lon="4.26625">
        <ele>563.95</ele>
        <time>2011-10-15T10:29:52Z</time>
      </trkpt>
      <trkpt lat="45.35937" lon="4.2662">
        <ele>562.99</ele>
        <time>2011-10-15T10:29:53Z</time>
      </trkpt>
      <trkpt lat="45.35943" lon="4.26618">
        <ele>562.51</ele>
        <time>2011-10-15T10:29:54Z</time>
      </trkpt>
      <trkpt lat="45.35949" lon="4.26619">
        <ele>561.55</ele>
        <time>2011-10-15T10:29:55Z</time>
      </trkpt>
      <trkpt lat="45.35955" lon="4.26624">
        <ele>561.07</ele>
        <time>2011-10-15T10:29:56Z</time>
      </trkpt>
      <trkpt lat="45.35959" lon="4.2663">
        <ele>560.59</ele>
        <time>2011-10-15T10:29:57Z</time>
      </trkpt>
      <trkpt lat="45.35963" lon="4.26637">
        <ele>560.11</ele>
        <time>2011-10-15T10:29:58Z</time>
      </trkpt>
      <trkpt lat="45.35975" lon="4.26654">
        <ele>558.18</ele>
        <time>2011-10-15T10:30:01Z</time>
      </trkpt>
      <trkpt lat="45.35979" lon="4.26659">
        <ele>557.7</ele>
        <time>2011-10-15T10:30:02Z</time>
      </trkpt>
      <trkpt lat="45.3599" lon="4.26675">
        <ele>556.26</ele>
        <time>2011-10-15T10:30:05Z</time>
      </trkpt>
      <trkpt lat="45.35992" lon="4.26681">
        <ele>555.78</ele>
        <time>2011-10-15T10:30:06Z</time>
      </trkpt>
      <trkpt lat="45.35994" lon="4.26685">
        <ele>555.3</ele>
        <time>2011-10-15T10:30:07Z</time>
      </trkpt>
      <trkpt lat="45.35995" lon="4.26688">
        <ele>554.82</ele>
        <time>2011-10-15T10:30:08Z</time>
      </trkpt>
      <trkpt lat="45.35996" lon="4.26693">
        <ele>554.34</ele>
        <time>2011-10-15T10:30:09Z</time>
      </trkpt>
      <trkpt lat="45.35997" lon="4.26699">
        <ele>553.86</ele>
        <time>2011-10-15T10:30:10Z</time>
      </trkpt>
      <trkpt lat="45.35997" lon="4.26705">
        <ele>553.38</ele>
        <time>2011-10-15T10:30:11Z</time>
      </trkpt>
      <trkpt lat="45.35998" lon="4.26712">
        <ele>553.38</ele>
        <time>2011-10-15T10:30:12Z</time>
      </trkpt>
      <trkpt lat="45.35999" lon="4.26718">
        <ele>553.38</ele>
        <time>2011-10-15T10:30:13Z</time>
      </trkpt>
      <trkpt lat="45.36017" lon="4.26787">
        <ele>552.9</ele>
        <time>2011-10-15T10:30:26Z</time>
      </trkpt>
      <trkpt lat="45.36028" lon="4.26836">
        <ele>557.22</ele>
        <time>2011-10-15T10:30:38Z</time>
      </trkpt>
      <trkpt lat="45.36041" lon="4.26873">
        <ele>563.47</ele>
        <time>2011-10-15T10:30:48Z</time>
      </trkpt>
      <trkpt lat="45.3605" lon="4.26909">
        <ele>567.8</ele>
        <time>2011-10-15T10:30:58Z</time>
      </trkpt>
      <trkpt lat="45.36066" lon="4.26942">
        <ele>573.08</ele>
        <time>2011-10-15T10:31:09Z</time>
      </trkpt>
      <trkpt lat="45.36073" lon="4.26952">
        <ele>575.49</ele>
        <time>2011-10-15T10:31:13Z</time>
      </trkpt>
      <trkpt lat="45.36075" lon="4.26953">
        <ele>575.97</ele>
        <time>2011-10-15T10:31:14Z</time>
      </trkpt>
      <trkpt lat="45.36078" lon="4.26954">
        <ele>576.45</ele>
        <time>2011-10-15T10:31:15Z</time>
      </trkpt>
      <trkpt lat="45.36089" lon="4.26954">
        <ele>577.41</ele>
        <time>2011-10-15T10:31:20Z</time>
      </trkpt>
      <trkpt lat="45.36098" lon="4.26943">
        <ele>577.89</ele>
        <time>2011-10-15T10:31:26Z</time>
      </trkpt>
      <trkpt lat="45.361" lon="4.26942">
        <ele>577.89</ele>
        <time>2011-10-15T10:31:27Z</time>
      </trkpt>
      <trkpt lat="45.36112" lon="4.26922">
        <ele>578.37</ele>
        <time>2011-10-15T10:31:37Z</time>
      </trkpt>
      <trkpt lat="45.36156" lon="4.26909">
        <ele>578.37</ele>
        <time>2011-10-15T10:31:47Z</time>
      </trkpt>
      <trkpt lat="45.36178" lon="4.26916">
        <ele>581.25</ele>
        <time>2011-10-15T10:31:58Z</time>
      </trkpt>
      <trkpt lat="45.3618" lon="4.26918">
        <ele>582.22</ele>
        <time>2011-10-15T10:31:59Z</time>
      </trkpt>
      <trkpt lat="45.36181" lon="4.2692">
        <ele>582.7</ele>
        <time>2011-10-15T10:32:00Z</time>
      </trkpt>
      <trkpt lat="45.36182" lon="4.26922">
        <ele>583.18</ele>
        <time>2011-10-15T10:32:01Z</time>
      </trkpt>
      <trkpt lat="45.36184" lon="4.26925">
        <ele>583.66</ele>
        <time>2011-10-15T10:32:02Z</time>
      </trkpt>
      <trkpt lat="45.36186" lon="4.26928">
        <ele>583.66</ele>
        <time>2011-10-15T10:32:03Z</time>
      </trkpt>
      <trkpt lat="45.36187" lon="4.26931">
        <ele>584.14</ele>
        <time>2011-10-15T10:32:04Z</time>
      </trkpt>
      <trkpt lat="45.36188" lon="4.26935">
        <ele>584.62</ele>
        <time>2011-10-15T10:32:05Z</time>
      </trkpt>
      <trkpt lat="45.36189" lon="4.26938">
        <ele>585.1</ele>
        <time>2011-10-15T10:32:06Z</time>
      </trkpt>
      <trkpt lat="45.3619" lon="4.26941">
        <ele>585.1</ele>
        <time>2011-10-15T10:32:07Z</time>
      </trkpt>
      <trkpt lat="45.36191" lon="4.26945">
        <ele>585.58</ele>
        <time>2011-10-15T10:32:08Z</time>
      </trkpt>
      <trkpt lat="45.36192" lon="4.26949">
        <ele>585.58</ele>
        <time>2011-10-15T10:32:09Z</time>
      </trkpt>
      <trkpt lat="45.36194" lon="4.26953">
        <ele>586.06</ele>
        <time>2011-10-15T10:32:10Z</time>
      </trkpt>
      <trkpt lat="45.36195" lon="4.26957">
        <ele>586.54</ele>
        <time>2011-10-15T10:32:11Z</time>
      </trkpt>
      <trkpt lat="45.36202" lon="4.26987">
        <ele>588.95</ele>
        <time>2011-10-15T10:32:20Z</time>
      </trkpt>
      <trkpt lat="45.36224" lon="4.27009">
        <ele>591.83</ele>
        <time>2011-10-15T10:32:31Z</time>
      </trkpt>
      <trkpt lat="45.36256" lon="4.27">
        <ele>594.71</ele>
        <time>2011-10-15T10:32:44Z</time>
      </trkpt>
      <trkpt lat="45.36291" lon="4.26989">
        <ele>598.56</ele>
        <time>2011-10-15T10:32:57Z</time>
      </trkpt>
      <trkpt lat="45.36325" lon="4.26982">
        <ele>599.52</ele>
        <time>2011-10-15T10:33:09Z</time>
      </trkpt>
      <trkpt lat="45.36364" lon="4.26982">
        <ele>598.56</ele>
        <time>2011-10-15T10:33:17Z</time>
      </trkpt>
      <trkpt lat="45.36432" lon="4.26988">
        <ele>592.79</ele>
        <time>2011-10-15T10:33:28Z</time>
      </trkpt>
      <trkpt lat="45.36464" lon="4.26995">
        <ele>590.87</ele>
        <time>2011-10-15T10:33:33Z</time>
      </trkpt>
      <trkpt lat="45.36503" lon="4.27005">
        <ele>588.95</ele>
        <time>2011-10-15T10:33:39Z</time>
      </trkpt>
      <trkpt lat="45.36509" lon="4.27007">
        <ele>588.46</ele>
        <time>2011-10-15T10:33:40Z</time>
      </trkpt>
      <trkpt lat="45.36602" lon="4.27048">
        <ele>579.81</ele>
        <time>2011-10-15T10:33:52Z</time>
      </trkpt>
      <trkpt lat="45.36621" lon="4.27051">
        <ele>578.85</ele>
        <time>2011-10-15T10:33:54Z</time>
      </trkpt>
      <trkpt lat="45.36629" lon="4.27051">
        <ele>577.89</ele>
        <time>2011-10-15T10:33:55Z</time>
      </trkpt>
      <trkpt lat="45.36711" lon="4.27039">
        <ele>571.64</ele>
        <time>2011-10-15T10:34:06Z</time>
      </trkpt>
      <trkpt lat="45.36715" lon="4.27043">
        <ele>570.68</ele>
        <time>2011-10-15T10:34:07Z</time>
      </trkpt>
      <trkpt lat="45.36718" lon="4.27049">
        <ele>570.2</ele>
        <time>2011-10-15T10:34:08Z</time>
      </trkpt>
      <trkpt lat="45.36719" lon="4.27056">
        <ele>570.2</ele>
        <time>2011-10-15T10:34:09Z</time>
      </trkpt>
      <trkpt lat="45.36718" lon="4.27063">
        <ele>569.72</ele>
        <time>2011-10-15T10:34:10Z</time>
      </trkpt>
      <trkpt lat="45.36717" lon="4.2711">
        <ele>568.76</ele>
        <time>2011-10-15T10:34:16Z</time>
      </trkpt>
      <trkpt lat="45.36716" lon="4.27216">
        <ele>562.99</ele>
        <time>2011-10-15T10:34:27Z</time>
      </trkpt>
      <trkpt lat="45.36717" lon="4.27226">
        <ele>562.51</ele>
        <time>2011-10-15T10:34:28Z</time>
      </trkpt>
      <trkpt lat="45.36721" lon="4.27233">
        <ele>562.51</ele>
        <time>2011-10-15T10:34:29Z</time>
      </trkpt>
      <trkpt lat="45.36724" lon="4.27237">
        <ele>562.03</ele>
        <time>2011-10-15T10:34:30Z</time>
      </trkpt>
      <trkpt lat="45.36725" lon="4.27242">
        <ele>561.07</ele>
        <time>2011-10-15T10:34:31Z</time>
      </trkpt>
      <trkpt lat="45.36725" lon="4.27245">
        <ele>560.59</ele>
        <time>2011-10-15T10:34:32Z</time>
      </trkpt>
      <trkpt lat="45.36725" lon="4.27248">
        <ele>560.59</ele>
        <time>2011-10-15T10:34:33Z</time>
      </trkpt>
      <trkpt lat="45.36727" lon="4.2725">
        <ele>559.62</ele>
        <time>2011-10-15T10:34:34Z</time>
      </trkpt>
      <trkpt lat="45.3673" lon="4.27251">
        <ele>559.62</ele>
        <time>2011-10-15T10:34:35Z</time>
      </trkpt>
      <trkpt lat="45.36732" lon="4.27252">
        <ele>559.14</ele>
        <time>2011-10-15T10:34:36Z</time>
      </trkpt>
      <trkpt lat="45.36742" lon="4.27253">
        <ele>558.18</ele>
        <time>2011-10-15T10:34:39Z</time>
      </trkpt>
      <trkpt lat="45.36746" lon="4.27253">
        <ele>557.7</ele>
        <time>2011-10-15T10:34:40Z</time>
      </trkpt>
      <trkpt lat="45.36778" lon="4.2725">
        <ele>557.22</ele>
        <time>2011-10-15T10:34:48Z</time>
      </trkpt>
      <trkpt lat="45.36809" lon="4.27249">
        <ele>556.74</ele>
        <time>2011-10-15T10:34:55Z</time>
      </trkpt>
      <trkpt lat="45.36827" lon="4.2725">
        <ele>556.26</ele>
        <time>2011-10-15T10:34:59Z</time>
      </trkpt>
      <trkpt lat="45.36832" lon="4.27251">
        <ele>556.74</ele>
        <time>2011-10-15T10:35:00Z</time>
      </trkpt>
      <trkpt lat="45.36836" lon="4.27252">
        <ele>556.74</ele>
        <time>2011-10-15T10:35:01Z</time>
      </trkpt>
      <trkpt lat="45.3687" lon="4.27271">
        <ele>558.66</ele>
        <time>2011-10-15T10:35:10Z</time>
      </trkpt>
      <trkpt lat="45.36874" lon="4.27272">
        <ele>558.66</ele>
        <time>2011-10-15T10:35:11Z</time>
      </trkpt>
      <trkpt lat="45.36877" lon="4.27274">
        <ele>558.66</ele>
        <time>2011-10-15T10:35:12Z</time>
      </trkpt>
      <trkpt lat="45.3689" lon="4.27282">
        <ele>559.62</ele>
        <time>2011-10-15T10:35:16Z</time>
      </trkpt>
      <trkpt lat="45.36898" lon="4.27285">
        <ele>560.11</ele>
        <time>2011-10-15T10:35:18Z</time>
      </trkpt>
      <trkpt lat="45.36902" lon="4.27286">
        <ele>560.11</ele>
        <time>2011-10-15T10:35:19Z</time>
      </trkpt>
      <trkpt lat="45.36906" lon="4.27287">
        <ele>560.59</ele>
        <time>2011-10-15T10:35:20Z</time>
      </trkpt>
      <trkpt lat="45.3691" lon="4.27287">
        <ele>560.59</ele>
        <time>2011-10-15T10:35:21Z</time>
      </trkpt>
      <trkpt lat="45.36914" lon="4.27288">
        <ele>561.07</ele>
        <time>2011-10-15T10:35:22Z</time>
      </trkpt>
      <trkpt lat="45.36942" lon="4.27298">
        <ele>560.11</ele>
        <time>2011-10-15T10:35:30Z</time>
      </trkpt>
      <trkpt lat="45.36947" lon="4.273">
        <ele>560.11</ele>
        <time>2011-10-15T10:35:31Z</time>
      </trkpt>
      <trkpt lat="45.36972" lon="4.27306">
        <ele>557.7</ele>
        <time>2011-10-15T10:35:37Z</time>
      </trkpt>
      <trkpt lat="45.36977" lon="4.27307">
        <ele>557.22</ele>
        <time>2011-10-15T10:35:38Z</time>
      </trkpt>
      <trkpt lat="45.36993" lon="4.27306">
        <ele>556.26</ele>
        <time>2011-10-15T10:35:41Z</time>
      </trkpt>
      <trkpt lat="45.36998" lon="4.27303">
        <ele>556.26</ele>
        <time>2011-10-15T10:35:42Z</time>
      </trkpt>
      <trkpt lat="45.37003" lon="4.27302">
        <ele>555.78</ele>
        <time>2011-10-15T10:35:43Z</time>
      </trkpt>
      <trkpt lat="45.37008" lon="4.27302">
        <ele>555.3</ele>
        <time>2011-10-15T10:35:44Z</time>
      </trkpt>
      <trkpt lat="45.37013" lon="4.27302">
        <ele>554.82</ele>
        <time>2011-10-15T10:35:45Z</time>
      </trkpt>
      <trkpt lat="45.37024" lon="4.27302">
        <ele>553.86</ele>
        <time>2011-10-15T10:35:47Z</time>
      </trkpt>
      <trkpt lat="45.37041" lon="4.27301">
        <ele>552.9</ele>
        <time>2011-10-15T10:35:50Z</time>
      </trkpt>
      <trkpt lat="45.37045" lon="4.27299">
        <ele>552.9</ele>
        <time>2011-10-15T10:35:51Z</time>
      </trkpt>
      <trkpt lat="45.37049" lon="4.27299">
        <ele>552.9</ele>
        <time>2011-10-15T10:35:52Z</time>
      </trkpt>
      <trkpt lat="45.37054" lon="4.27299">
        <ele>552.9</ele>
        <time>2011-10-15T10:35:53Z</time>
      </trkpt>
      <trkpt lat="45.37059" lon="4.27299">
        <ele>552.9</ele>
        <time>2011-10-15T10:35:54Z</time>
      </trkpt>
      <trkpt lat="45.37064" lon="4.27299">
        <ele>552.9</ele>
        <time>2011-10-15T10:35:55Z</time>
      </trkpt>
      <trkpt lat="45.3707" lon="4.27299">
        <ele>552.9</ele>
        <time>2011-10-15T10:35:56Z</time>
      </trkpt>
      <trkpt lat="45.37074" lon="4.27299">
        <ele>552.9</ele>
        <time>2011-10-15T10:35:57Z</time>
      </trkpt>
      <trkpt lat="45.37079" lon="4.27299">
        <ele>552.9</ele>
        <time>2011-10-15T10:35:58Z</time>
      </trkpt>
      <trkpt lat="45.37084" lon="4.27299">
        <ele>552.41</ele>
        <time>2011-10-15T10:35:59Z</time>
      </trkpt>
      <trkpt lat="45.37089" lon="4.27298">
        <ele>552.41</ele>
        <time>2011-10-15T10:36:00Z</time>
      </trkpt>
      <trkpt lat="45.37094" lon="4.27298">
        <ele>552.41</ele>
        <time>2011-10-15T10:36:01Z</time>
      </trkpt>
      <trkpt lat="45.371" lon="4.27298">
        <ele>552.41</ele>
        <time>2011-10-15T10:36:02Z</time>
      </trkpt>
      <trkpt lat="45.37104" lon="4.27298">
        <ele>552.41</ele>
        <time>2011-10-15T10:36:03Z</time>
      </trkpt>
      <trkpt lat="45.37109" lon="4.27299">
        <ele>552.41</ele>
        <time>2011-10-15T10:36:04Z</time>
      </trkpt>
      <trkpt lat="45.37117" lon="4.27301">
        <ele>552.41</ele>
        <time>2011-10-15T10:36:06Z</time>
      </trkpt>
      <trkpt lat="45.37121" lon="4.27301">
        <ele>552.41</ele>
        <time>2011-10-15T10:36:07Z</time>
      </trkpt>
      <trkpt lat="45.37123" lon="4.27301">
        <ele>551.93</ele>
        <time>2011-10-15T10:36:08Z</time>
      </trkpt>
      <trkpt lat="45.37124" lon="4.27302">
        <ele>551.93</ele>
        <time>2011-10-15T10:36:09Z</time>
      </trkpt>
      <trkpt lat="45.37125" lon="4.27303">
        <ele>551.45</ele>
        <time>2011-10-15T10:36:10Z</time>
      </trkpt>
      <trkpt lat="45.3713" lon="4.27316">
        <ele>550.01</ele>
        <time>2011-10-15T10:36:13Z</time>
      </trkpt>
      <trkpt lat="45.37133" lon="4.2732">
        <ele>549.53</ele>
        <time>2011-10-15T10:36:14Z</time>
      </trkpt>
      <trkpt lat="45.37137" lon="4.27324">
        <ele>549.05</ele>
        <time>2011-10-15T10:36:15Z</time>
      </trkpt>
      <trkpt lat="45.37142" lon="4.27328">
        <ele>548.57</ele>
        <time>2011-10-15T10:36:16Z</time>
      </trkpt>
      <trkpt lat="45.37147" lon="4.27331">
        <ele>548.09</ele>
        <time>2011-10-15T10:36:17Z</time>
      </trkpt>
      <trkpt lat="45.37152" lon="4.27333">
        <ele>547.61</ele>
        <time>2011-10-15T10:36:18Z</time>
      </trkpt>
      <trkpt lat="45.37157" lon="4.27336">
        <ele>546.65</ele>
        <time>2011-10-15T10:36:19Z</time>
      </trkpt>
      <trkpt lat="45.37163" lon="4.27338">
        <ele>546.17</ele>
        <time>2011-10-15T10:36:20Z</time>
      </trkpt>
      <trkpt lat="45.37191" lon="4.27349">
        <ele>541.84</ele>
        <time>2011-10-15T10:36:26Z</time>
      </trkpt>
      <trkpt lat="45.37197" lon="4.27352">
        <ele>540.88</ele>
        <time>2011-10-15T10:36:27Z</time>
      </trkpt>
      <trkpt lat="45.37212" lon="4.27358">
        <ele>537.99</ele>
        <time>2011-10-15T10:36:30Z</time>
      </trkpt>
      <trkpt lat="45.37217" lon="4.27361">
        <ele>536.55</ele>
        <time>2011-10-15T10:36:31Z</time>
      </trkpt>
      <trkpt lat="45.37222" lon="4.27363">
        <ele>535.59</ele>
        <time>2011-10-15T10:36:32Z</time>
      </trkpt>
      <trkpt lat="45.37227" lon="4.27366">
        <ele>534.63</ele>
        <time>2011-10-15T10:36:33Z</time>
      </trkpt>
      <trkpt lat="45.37232" lon="4.27367">
        <ele>533.19</ele>
        <time>2011-10-15T10:36:34Z</time>
      </trkpt>
      <trkpt lat="45.37238" lon="4.27368">
        <ele>532.23</ele>
        <time>2011-10-15T10:36:35Z</time>
      </trkpt>
      <trkpt lat="45.3725" lon="4.27367">
        <ele>527.9</ele>
        <time>2011-10-15T10:36:39Z</time>
      </trkpt>
      <trkpt lat="45.37252" lon="4.27367">
        <ele>526.94</ele>
        <time>2011-10-15T10:36:52Z</time>
      </trkpt>
      <trkpt lat="45.37252" lon="4.27367">
        <ele>526.94</ele>
        <time>2011-10-15T10:37:04Z</time>
      </trkpt>
      <trkpt lat="45.37254" lon="4.27367">
        <ele>525.98</ele>
        <time>2011-10-15T10:37:06Z</time>
      </trkpt>
      <trkpt lat="45.37257" lon="4.27368">
        <ele>525.5</ele>
        <time>2011-10-15T10:37:07Z</time>
      </trkpt>
      <trkpt lat="45.3726" lon="4.2737">
        <ele>524.54</ele>
        <time>2011-10-15T10:37:08Z</time>
      </trkpt>
      <trkpt lat="45.37264" lon="4.27373">
        <ele>523.58</ele>
        <time>2011-10-15T10:37:09Z</time>
      </trkpt>
      <trkpt lat="45.37268" lon="4.27376">
        <ele>522.61</ele>
        <time>2011-10-15T10:37:10Z</time>
      </trkpt>
      <trkpt lat="45.37272" lon="4.27381">
        <ele>521.17</ele>
        <time>2011-10-15T10:37:11Z</time>
      </trkpt>
      <trkpt lat="45.37276" lon="4.27385">
        <ele>520.69</ele>
        <time>2011-10-15T10:37:12Z</time>
      </trkpt>
      <trkpt lat="45.3728" lon="4.27387">
        <ele>520.69</ele>
        <time>2011-10-15T10:37:13Z</time>
      </trkpt>
      <trkpt lat="45.37285" lon="4.27388">
        <ele>520.21</ele>
        <time>2011-10-15T10:37:14Z</time>
      </trkpt>
      <trkpt lat="45.37289" lon="4.2739">
        <ele>519.73</ele>
        <time>2011-10-15T10:37:15Z</time>
      </trkpt>
      <trkpt lat="45.37294" lon="4.27394">
        <ele>519.25</ele>
        <time>2011-10-15T10:37:16Z</time>
      </trkpt>
      <trkpt lat="45.37299" lon="4.27398">
        <ele>519.25</ele>
        <time>2011-10-15T10:37:17Z</time>
      </trkpt>
      <trkpt lat="45.37305" lon="4.27404">
        <ele>518.77</ele>
        <time>2011-10-15T10:37:18Z</time>
      </trkpt>
      <trkpt lat="45.37333" lon="4.27425">
        <ele>517.81</ele>
        <time>2011-10-15T10:37:23Z</time>
      </trkpt>
      <trkpt lat="45.37338" lon="4.27428">
        <ele>517.81</ele>
        <time>2011-10-15T10:37:24Z</time>
      </trkpt>
      <trkpt lat="45.37358" lon="4.27438">
        <ele>516.85</ele>
        <time>2011-10-15T10:37:27Z</time>
      </trkpt>
      <trkpt lat="45.37365" lon="4.27443">
        <ele>516.85</ele>
        <time>2011-10-15T10:37:28Z</time>
      </trkpt>
      <trkpt lat="45.37372" lon="4.27448">
        <ele>516.37</ele>
        <time>2011-10-15T10:37:29Z</time>
      </trkpt>
      <trkpt lat="45.37439" lon="4.2747">
        <ele>510.6</ele>
        <time>2011-10-15T10:37:37Z</time>
      </trkpt>
      <trkpt lat="45.37451" lon="4.27468">
        <ele>510.12</ele>
        <time>2011-10-15T10:37:39Z</time>
      </trkpt>
      <trkpt lat="45.37455" lon="4.27468">
        <ele>509.64</ele>
        <time>2011-10-15T10:37:40Z</time>
      </trkpt>
      <trkpt lat="45.37457" lon="4.27469">
        <ele>509.64</ele>
        <time>2011-10-15T10:37:41Z</time>
      </trkpt>
      <trkpt lat="45.37457" lon="4.27472">
        <ele>509.16</ele>
        <time>2011-10-15T10:37:42Z</time>
      </trkpt>
      <trkpt lat="45.37456" lon="4.27476">
        <ele>509.16</ele>
        <time>2011-10-15T10:37:43Z</time>
      </trkpt>
      <trkpt lat="45.37452" lon="4.2748">
        <ele>508.67</ele>
        <time>2011-10-15T10:37:44Z</time>
      </trkpt>
      <trkpt lat="45.37448" lon="4.27485">
        <ele>508.19</ele>
        <time>2011-10-15T10:37:45Z</time>
      </trkpt>
      <trkpt lat="45.37433" lon="4.27498">
        <ele>506.27</ele>
        <time>2011-10-15T10:37:48Z</time>
      </trkpt>
      <trkpt lat="45.37414" lon="4.27507">
        <ele>503.87</ele>
        <time>2011-10-15T10:37:51Z</time>
      </trkpt>
      <trkpt lat="45.37375" lon="4.27521">
        <ele>499.06</ele>
        <time>2011-10-15T10:37:57Z</time>
      </trkpt>
      <trkpt lat="45.37369" lon="4.27525">
        <ele>499.06</ele>
        <time>2011-10-15T10:37:58Z</time>
      </trkpt>
      <trkpt lat="45.37365" lon="4.2753">
        <ele>499.06</ele>
        <time>2011-10-15T10:37:59Z</time>
      </trkpt>
      <trkpt lat="45.37361" lon="4.27536">
        <ele>498.58</ele>
        <time>2011-10-15T10:38:00Z</time>
      </trkpt>
      <trkpt lat="45.37359" lon="4.27542">
        <ele>498.58</ele>
        <time>2011-10-15T10:38:01Z</time>
      </trkpt>
      <trkpt lat="45.37359" lon="4.27546">
        <ele>498.1</ele>
        <time>2011-10-15T10:38:02Z</time>
      </trkpt>
      <trkpt lat="45.37359" lon="4.27548">
        <ele>498.1</ele>
        <time>2011-10-15T10:38:03Z</time>
      </trkpt>
      <trkpt lat="45.3736" lon="4.27551">
        <ele>497.62</ele>
        <time>2011-10-15T10:38:04Z</time>
      </trkpt>
      <trkpt lat="45.3736" lon="4.27554">
        <ele>497.14</ele>
        <time>2011-10-15T10:38:05Z</time>
      </trkpt>
      <trkpt lat="45.37361" lon="4.27557">
        <ele>496.66</ele>
        <time>2011-10-15T10:38:06Z</time>
      </trkpt>
      <trkpt lat="45.37361" lon="4.27562">
        <ele>496.18</ele>
        <time>2011-10-15T10:38:07Z</time>
      </trkpt>
      <trkpt lat="45.37361" lon="4.27567">
        <ele>495.7</ele>
        <time>2011-10-15T10:38:08Z</time>
      </trkpt>
      <trkpt lat="45.37361" lon="4.27574">
        <ele>495.7</ele>
        <time>2011-10-15T10:38:09Z</time>
      </trkpt>
      <trkpt lat="45.37362" lon="4.27581">
        <ele>495.22</ele>
        <time>2011-10-15T10:38:10Z</time>
      </trkpt>
      <trkpt lat="45.37362" lon="4.27586">
        <ele>495.22</ele>
        <time>2011-10-15T10:38:11Z</time>
      </trkpt>
      <trkpt lat="45.37369" lon="4.27643">
        <ele>492.33</ele>
        <time>2011-10-15T10:38:22Z</time>
      </trkpt>
      <trkpt lat="45.37372" lon="4.27708">
        <ele>490.89</ele>
        <time>2011-10-15T10:38:34Z</time>
      </trkpt>
      <trkpt lat="45.3736" lon="4.27746">
        <ele>491.85</ele>
        <time>2011-10-15T10:38:44Z</time>
      </trkpt>
      <trkpt lat="45.3736" lon="4.27753">
        <ele>491.85</ele>
        <time>2011-10-15T10:38:46Z</time>
      </trkpt>
      <trkpt lat="45.37361" lon="4.27756">
        <ele>491.85</ele>
        <time>2011-10-15T10:38:47Z</time>
      </trkpt>
      <trkpt lat="45.37362" lon="4.27758">
        <ele>492.33</ele>
        <time>2011-10-15T10:38:48Z</time>
      </trkpt>
      <trkpt lat="45.37364" lon="4.27759">
        <ele>492.33</ele>
        <time>2011-10-15T10:38:49Z</time>
      </trkpt>
      <trkpt lat="45.37366" lon="4.27761">
        <ele>491.85</ele>
        <time>2011-10-15T10:38:50Z</time>
      </trkpt>
      <trkpt lat="45.37405" lon="4.27764">
        <ele>489.93</ele>
        <time>2011-10-15T10:39:03Z</time>
      </trkpt>
      <trkpt lat="45.37465" lon="4.27756">
        <ele>489.45</ele>
        <time>2011-10-15T10:39:17Z</time>
      </trkpt>
      <trkpt lat="45.37469" lon="4.27755">
        <ele>488.97</ele>
        <time>2011-10-15T10:39:18Z</time>
      </trkpt>
      <trkpt lat="45.37495" lon="4.27751">
        <ele>488.01</ele>
        <time>2011-10-15T10:39:24Z</time>
      </trkpt>
      <trkpt lat="45.375" lon="4.27751">
        <ele>488.01</ele>
        <time>2011-10-15T10:39:25Z</time>
      </trkpt>
      <trkpt lat="45.37525" lon="4.2775">
        <ele>486.56</ele>
        <time>2011-10-15T10:39:31Z</time>
      </trkpt>
      <trkpt lat="45.37534" lon="4.27749">
        <ele>486.08</ele>
        <time>2011-10-15T10:39:33Z</time>
      </trkpt>
      <trkpt lat="45.37538" lon="4.27749">
        <ele>486.08</ele>
        <time>2011-10-15T10:39:34Z</time>
      </trkpt>
      <trkpt lat="45.37565" lon="4.27752">
        <ele>485.6</ele>
        <time>2011-10-15T10:39:40Z</time>
      </trkpt>
      <trkpt lat="45.37581" lon="4.27753">
        <ele>486.08</ele>
        <time>2011-10-15T10:39:48Z</time>
      </trkpt>
      <trkpt lat="45.3758" lon="4.27753">
        <ele>485.6</ele>
        <time>2011-10-15T10:40:04Z</time>
      </trkpt>
      <trkpt lat="45.37601" lon="4.27757">
        <ele>486.08</ele>
        <time>2011-10-15T10:40:24Z</time>
      </trkpt>
      <trkpt lat="45.37656" lon="4.27748">
        <ele>487.05</ele>
        <time>2011-10-15T10:40:39Z</time>
      </trkpt>
      <trkpt lat="45.37712" lon="4.27731">
        <ele>487.53</ele>
        <time>2011-10-15T10:40:53Z</time>
      </trkpt>
      <trkpt lat="45.37717" lon="4.27729">
        <ele>487.53</ele>
        <time>2011-10-15T10:40:54Z</time>
      </trkpt>
      <trkpt lat="45.37721" lon="4.27728">
        <ele>487.53</ele>
        <time>2011-10-15T10:40:55Z</time>
      </trkpt>
      <trkpt lat="45.37774" lon="4.27709">
        <ele>488.01</ele>
        <time>2011-10-15T10:41:06Z</time>
      </trkpt>
      <trkpt lat="45.37784" lon="4.27704">
        <ele>488.01</ele>
        <time>2011-10-15T10:41:08Z</time>
      </trkpt>
      <trkpt lat="45.37799" lon="4.27697">
        <ele>488.01</ele>
        <time>2011-10-15T10:41:11Z</time>
      </trkpt>
      <trkpt lat="45.37808" lon="4.27692">
        <ele>488.01</ele>
        <time>2011-10-15T10:41:13Z</time>
      </trkpt>
      <trkpt lat="45.37812" lon="4.27692">
        <ele>488.01</ele>
        <time>2011-10-15T10:41:14Z</time>
      </trkpt>
      <trkpt lat="45.37816" lon="4.27691">
        <ele>487.53</ele>
        <time>2011-10-15T10:41:15Z</time>
      </trkpt>
      <trkpt lat="45.3782" lon="4.2769">
        <ele>487.53</ele>
        <time>2011-10-15T10:41:16Z</time>
      </trkpt>
      <trkpt lat="45.37824" lon="4.27688">
        <ele>487.53</ele>
        <time>2011-10-15T10:41:17Z</time>
      </trkpt>
      <trkpt lat="45.37854" lon="4.27674">
        <ele>485.6</ele>
        <time>2011-10-15T10:41:28Z</time>
      </trkpt>
      <trkpt lat="45.37853" lon="4.27658">
        <ele>486.08</ele>
        <time>2011-10-15T10:41:32Z</time>
      </trkpt>
      <trkpt lat="45.37851" lon="4.27629">
        <ele>485.6</ele>
        <time>2011-10-15T10:41:38Z</time>
      </trkpt>
      <trkpt lat="45.37851" lon="4.27598">
        <ele>483.2</ele>
        <time>2011-10-15T10:41:43Z</time>
      </trkpt>
      <trkpt lat="45.37855" lon="4.27587">
        <ele>482.72</ele>
        <time>2011-10-15T10:41:45Z</time>
      </trkpt>
      <trkpt lat="45.37862" lon="4.27578">
        <ele>482.24</ele>
        <time>2011-10-15T10:41:47Z</time>
      </trkpt>
      <trkpt lat="45.37888" lon="4.27571">
        <ele>480.8</ele>
        <time>2011-10-15T10:41:53Z</time>
      </trkpt>
      <trkpt lat="45.37902" lon="4.27574">
        <ele>480.32</ele>
        <time>2011-10-15T10:41:57Z</time>
      </trkpt>
      <trkpt lat="45.37905" lon="4.27569">
        <ele>480.32</ele>
        <time>2011-10-15T10:42:06Z</time>
      </trkpt>
      <trkpt lat="45.37905" lon="4.27566">
        <ele>480.32</ele>
        <time>2011-10-15T10:42:15Z</time>
      </trkpt>
      <trkpt lat="45.37909" lon="4.2757">
        <ele>479.35</ele>
        <time>2011-10-15T10:48:01Z</time>
      </trkpt>
    </trkseg>
  </trk>
</gpx>